Ship Status Report: callsign 000000

sailwx.info

Track history (hours):
 
Tides and Currents Weather Stations Pressure Air Temp Water Temp Dewpoint Dewpoint Depression Visibility Wind Speed Wind Dir Waves Ship Positions

Callsign 000000 (name unknown)

Last reported at 2016-Jun-27 16:33 UTC. Time now 2016-Jun-27 16:50 UTC.
Position N 24°26' E 118°06'.

Type: Fishing. MMSI: 200007452.

Date/timePositionNaut miles runAvg speedWind from/ knotsBaromVisibWave heightAir tempDewpointWater temp
2016-Jun-27 16:33N 24°26' E 118°06'456126399.9
2016-Jun-27 16:33N 31°24' E 121°32'446802628.3
2016-Jun-27 16:33N 38°50' E 121°34'44071986.3
2016-Jun-27 16:33N 31°30' E 121°25'101373.5
2016-Jun-27 16:32N 31°21' E 121°30'125384.7
2016-Jun-27 16:32N 31°31' E 121°22'162369.0
2016-Jun-27 16:32N 31°18' E 121°33'5391130246.4
2016-Jun-27 16:29N 49°18' W 123°02'53902771945.1
2016-Jun-27 16:29N 31°21' E 121°31'25301.8
2016-Jun-27 16:24N 31°40' E 121°13'6638802.6
2016-Jun-27 16:20N 22°58' E 113°34'66118160.6
2016-Jun-27 16:18N 31°30' E 121°25'459623.3
2016-Jun-27 15:34N 24°26' E 118°06'5898321723.3
2016-Jun-27 15:32N 49°18' W 123°02'53881293152.6
2016-Jun-27 15:32N 31°31' E 121°22'121554.5
2016-Jun-27 15:32N 31°40' E 121°13'14923.1
2016-Jun-27 15:31N 31°30' E 121°25'413466.2
2016-Jun-27 15:30N 31°59' E 120°50'18128.0
2016-Jun-27 15:22N 32°04' E 120°30'4095644.5
2016-Jun-27 15:17N 38°50' E 121°34'4414256.1
2016-Jun-27 15:11N 31°29' E 121°25'459720.7
2016-Jun-27 14:33N 24°26' E 118°06'5898786434.1
2016-Jun-27 14:32N 49°18' W 123°02'5387646477.5
2016-Jun-27 14:32N 31°29' E 121°25'471252.4
2016-Jun-27 14:30N 32°00' E 120°43'444964.7
2016-Jun-27 14:29N 31°31' E 121°22'43936758.3
2016-Jun-27 14:28N 38°50' E 121°33'43019118.8
2016-Jun-27 14:27N 31°40' E 121°13'143383.8
2016-Jun-27 14:27N 31°30' E 121°25'53774408.9
2016-Jun-27 14:26N 22°36' E 120°17'5369954.8
2016-Jun-27 14:23N 31°29' E 121°26'554606.6
2016-Jun-27 14:22N 32°02' E 120°34'475581.1
2016-Jun-27 13:33N 24°26' E 118°06'5898366098.8
2016-Jun-27 13:32N 49°18' W 123°02'5015184229.7
2016-Jun-27 13:31N 38°50' E 121°34'43038706.6
2016-Jun-27 13:30N 31°40' E 121°13'10892.2
2016-Jun-27 13:29N 31°32' E 121°20'4201.2
2016-Jun-27 13:28N 31°30' E 121°25'3140.9
2016-Jun-27 13:27N 31°31' E 121°22'347.3
2016-Jun-27 13:23N 31°29' E 121°25'459554.8
2016-Jun-27 12:33N 24°26' E 118°06'459150292.4
2016-Jun-27 12:33N 31°31' E 121°22'5388440847.5
2016-Jun-27 12:32N 49°18' W 123°02'501658623.8
2016-Jun-27 12:27N 38°50' E 121°33'10378292.8
2016-Jun-27 12:20N 22°58' E 113°34'66129013.3
2016-Jun-27 12:18N 31°30' E 121°25'10570.7
2016-Jun-27 12:17N 31°21' E 121°30'2212999.8
2016-Jun-27 12:17N 31°38' E 121°14'202536.6
2016-Jun-27 12:17N 31°22' E 121°29'8750.8
2016-Jun-27 12:16N 31°29' E 121°25'72043.9
2016-Jun-27 12:16N 31°25' E 121°32'457645.9
2016-Jun-27 11:34N 24°26' E 118°06'459103326.0
2016-Jun-27 11:33N 31°31' E 121°22'3244.3
2016-Jun-27 11:32N 31°31' E 121°18'53919703389.4
2016-Jun-27 11:32N 49°18' W 123°02'5387346300.9
2016-Jun-27 11:32N 31°40' E 121°13'582621.7
2016-Jun-27 11:30N 31°57' E 120°08'712449.8
2016-Jun-27 11:28N 31°30' E 121°25'602631.5
2016-Jun-27 11:27N 32°01' E 120°25'55486.3
2016-Jun-27 11:20N 31°31' E 121°20'5111.5
2016-Jun-27 11:17N 31°29' E 121°25'459625.9
2016-Jun-27 10:33N 24°26' E 118°06'458109846.4
2016-Jun-27 10:33N 31°28' E 121°25'5388431048.7
2016-Jun-27 10:32N 49°18' W 123°02'5388145847.9
2016-Jun-27 10:30N 31°30' E 121°23'2 7.5
2016-Jun-27 10:18N 31°31' E 121°22'121390.2
2016-Jun-27 10:17N 31°40' E 121°13'16209.7
2016-Jun-27 10:13N 31°28' E 121°25'111478.7
2016-Jun-27 10:13N 31°36' E 121°16'23793.1
2016-Jun-27 10:11N 31°16' E 121°04'439706.5
2016-Jun-27 09:34N 24°26' E 118°06'463333532.4
2016-Jun-27 09:33N 31°38' E 121°14'8733.6
2016-Jun-27 09:33N 31°32' E 121°20'53891141132.3
2016-Jun-27 09:32N 49°18' W 123°02'54204877826.7
2016-Jun-27 09:32N 31°56' E 120°12'682171.8
2016-Jun-27 09:31N 31°28' E 121°25'4656.1
2016-Jun-27 09:30N 31°31' E 121°22'624407.6
2016-Jun-27 09:29N 31°57' E 120°15'6612556.1
2016-Jun-27 09:29N 31°28' E 121°25'34413330.4
2016-Jun-27 09:27N 25°59' E 119°29'3292235.8
2016-Jun-27 09:19N 31°17' E 121°06'441586.2
2016-Jun-27 08:34N 24°26' E 118°06'46132528.3
2016-Jun-27 08:33N 31°34' E 121°18'53881939824.4
2016-Jun-27 08:32N 49°18' W 123°02'541319485983.6
2016-Jun-27 08:32N 31°58' E 120°18'458931.2
2016-Jun-27 08:32N 31°43' E 121°08'35512044.4
2016-Jun-27 08:30N 25°59' E 119°29'34651943.5
2016-Jun-27 08:30N 31°31' E 121°22'4180.4
2016-Jun-27 08:29N 31°28' E 121°25'161271.9
2016-Jun-27 08:28N 31°40' E 121°13'622.8
2016-Jun-27 08:12N 31°44' E 121°07'22897.9
2016-Jun-27 08:10N 31°28' E 121°25'775362.1
2016-Jun-27 08:09N 31°58' E 120°01'63106.2
2016-Jun-27 07:34N 31°40' E 121°12'465557423.1
2016-Jun-27 07:34N 24°26' E 118°06'12053969.7
2016-Jun-27 07:33N 25°59' E 119°29'353181502.7
2016-Jun-27 07:33N 31°40' E 121°13'3784.6
2016-Jun-27 07:33N 31°37' E 121°16'62192.2
2016-Jun-27 07:33N 31°41' E 121°10'5388881714.1
2016-Jun-27 07:32N 49°18' W 123°02'538866657.2
2016-Jun-27 07:28N 31°31' E 121°22'459508.5
2016-Jun-27 06:33N 24°26' E 118°06'12071959.6
2016-Jun-27 06:33N 25°59' E 119°29'35154937.1
2016-Jun-27 06:33N 31°38' E 121°16'128693.3
2016-Jun-27 06:33N 31°28' E 121°25'1812786.3
2016-Jun-27 06:33N 31°41' E 121°10'5389969947.4
2016-Jun-27 06:32N 49°18' W 123°02'53881077627.2
2016-Jun-27 06:32N 31°31' E 121°22'13497.5
2016-Jun-27 06:31N 31°41' E 121°12'221.9
2016-Jun-27 06:26N 31°40' E 121°13'47481.7
2016-Jun-27 06:20N 32°03' E 120°26'611994.0
2016-Jun-27 06:18N 31°28' E 121°25'931098.8
2016-Jun-27 06:13N 29°59' E 121°54'710.2
2016-Jun-27 05:34N 29°56' E 122°01'391100556.2
2016-Jun-27 05:33N 24°26' E 118°06'4611660900.7
2016-Jun-27 05:33N 31°34' E 121°19'5387421621.6
2016-Jun-27 05:32N 49°18' W 123°02'53892424913.6
2016-Jun-27 05:32N 31°59' E 120°50'436768.4
2016-Jun-27 05:32N 31°28' E 121°25'34412397.2
2016-Jun-27 05:30N 25°59' E 119°29'34610654.1
2016-Jun-27 05:28N 31°31' E 121°22'459502.3
2016-Jun-27 04:34N 24°26' E 118°06'12035979.8
2016-Jun-27 04:33N 25°59' E 119°29'27088289.8
2016-Jun-27 04:33N 29°50' E 122°07'5439543924.4
2016-Jun-27 04:33N 49°18' W 123°02'538719392906.5
2016-Jun-27 04:33N 31°40' E 121°13'121311.1
2016-Jun-27 04:32N 31°31' E 121°22'4218.8
2016-Jun-27 04:31N 31°28' E 121°25'67420745.2
2016-Jun-27 04:29N 22°19' E 114°07'661125156.9
2016-Jun-27 04:29N 31°58' E 120°05'7810016.7
2016-Jun-27 04:28N 31°26' E 121°28'3642.3
2016-Jun-27 04:28N 31°29' E 121°25'1710285.1
2016-Jun-27 04:28N 31°41' E 121°12'678748.1
2016-Jun-27 03:33N 22°19' E 114°07'253910925.7
2016-Jun-27 03:33N 24°26' E 118°06'457274397.4
2016-Jun-27 03:33N 31°27' E 121°27'5388412662.0
2016-Jun-27 03:33N 49°18' W 123°02'5388248683.4
2016-Jun-27 03:31N 31°31' E 121°22'11582978.4
2016-Jun-27 03:31N 29°42' E 122°05'16711566.2
2016-Jun-27 03:30N 31°56' E 120°09'551332.6
2016-Jun-27 03:28N 31°41' E 121°12'16166.6
2016-Jun-27 03:22N 31°30' E 121°24'1 7.9
2016-Jun-27 03:11N 31°28' E 121°25'610.0
2016-Jun-27 02:33N 31°33' E 121°20'675347086.1
2016-Jun-27 02:33N 22°19' E 114°07'367660456.7
2016-Jun-27 02:33N 25°59' E 119°29'120143919.1
2016-Jun-27 02:33N 24°26' E 118°06'5898530843.0
2016-Jun-27 02:33N 49°18' W 123°02'5388570470.6
2016-Jun-27 02:32N 31°30' E 121°24'16474.7
2016-Jun-27 02:30N 31°41' E 121°12'22885.3
2016-Jun-27 02:28N 31°56' E 120°52'1494257.0
2016-Jun-27 02:26N 29°42' E 122°07'1165498.2
2016-Jun-27 02:25N 31°31' E 121°22'62732.9
2016-Jun-27 02:20N 31°57' E 120°16'81372.2
2016-Jun-27 02:07N 31°05' E 121°28'685301.0
2016-Jun-27 02:06N 32°01' E 120°43'693934.7
2016-Jun-27 02:05N 30°58' E 121°16'84158.0
2016-Jun-27 01:33N 29°45' E 122°03'3831378022.8
2016-Jun-27 01:33N 24°26' E 118°06'4401584437.7
2016-Jun-27 01:33N 31°08' E 121°28'326117318.4
2016-Jun-27 01:33N 25°59' E 119°29'3521266274.5
2016-Jun-27 01:33N 31°39' E 121°13'5388484937.8
2016-Jun-27 01:33N 49°18' W 123°02'54063243305.9
2016-Jun-27 01:32N 31°05' E 121°28'25990.8
2016-Jun-27 01:31N 31°30' E 121°24'3219202.6
2016-Jun-27 01:31N 30°58' E 121°18'333629.7
2016-Jun-27 01:30N 31°31' E 121°22'602474.8
2016-Jun-27 01:29N 31°58' E 120°19'6457152.3
2016-Jun-27 01:29N 31°28' E 121°25'45147.8
2016-Jun-27 01:10N 32°01' E 120°48'477774.9
2016-Jun-27 00:34N 24°26' E 118°06'392100865.4
2016-Jun-27 00:33N 29°53' E 122°09'273491741.3
2016-Jun-27 00:33N 25°59' E 119°29'34573131.8
2016-Jun-27 00:33N 31°30' E 121°24'142018.0
2016-Jun-27 00:33N 31°40' E 121°13'3424599.3
2016-Jun-27 00:32N 31°08' E 121°28'6514576.1
2016-Jun-27 00:32N 32°00' E 120°43'258900.8
2016-Jun-27 00:32N 31°56' E 120°14'8111228.6
2016-Jun-27 00:32N 31°05' E 121°28'65741513.0
2016-Jun-27 00:31N 22°19' E 114°07'64845744.1
2016-Jun-27 00:30N 30°59' E 121°20'54171218795.7
2016-Jun-27 00:30N 49°18' W 123°02'538819494.8
2016-Jun-27 00:13N 31°31' E 121°22'322189.1
2016-Jun-27 00:12N 30°59' E 121°20'297052.5
2016-Jun-27 00:12N 31°28' E 121°27'794930.3
2016-Jun-27 00:11N 31°59' E 120°01'361575.1
2016-Jun-26 23:33N 25°59' E 119°29'315162016.8
2016-Jun-26 23:33N 30°59' E 121°20'429118794.6
2016-Jun-26 23:33N 24°26' E 118°06'391234572.0
2016-Jun-26 23:33N 29°58' E 121°58'7533700.8
2016-Jun-26 23:33N 31°08' E 121°28'54032778807.2
2016-Jun-26 23:33N 49°18' W 123°02'5387606026.6
2016-Jun-26 23:32N 31°40' E 121°13'378970.7
2016-Jun-26 23:32N 31°05' E 121°28'884395.4
2016-Jun-26 23:31N 31°58' E 120°06'6816345.6
2016-Jun-26 23:30N 31°31' E 121°20'2975.7
2016-Jun-26 23:30N 31°31' E 121°22'5488.7
2016-Jun-26 23:30N 31°35' E 121°18'83083.7
2016-Jun-26 23:29N 31°30' E 121°24'6758375.9
2016-Jun-26 23:25N 22°19' E 114°07'67456445.9
2016-Jun-26 23:24N 31°28' E 121°25'304128.1
2016-Jun-26 23:23N 30°59' E 121°20'429513.7
2016-Jun-26 22:33N 24°26' E 118°06'12086351.5
2016-Jun-26 22:33N 25°59' E 119°29'346415070.5
2016-Jun-26 22:33N 31°31' E 121°19'53904850866.9
2016-Jun-26 22:33N 49°18' W 123°02'53881212373.7
2016-Jun-26 22:33N 31°35' E 121°18'359781.7
2016-Jun-26 22:33N 30°60' E 121°25'652156422.9
2016-Jun-26 22:32N 22°19' E 114°07'6591187037.4
2016-Jun-26 22:32N 31°08' E 121°28'231724.3
2016-Jun-26 22:32N 31°30' E 121°24'13639.2
2016-Jun-26 22:30N 31°40' E 121°13'421787.2
2016-Jun-26 22:29N 30°59' E 121°20'9278.8
2016-Jun-26 22:27N 31°05' E 121°28'25106.5
2016-Jun-26 22:13N 31°30' E 121°24'2233.4
2016-Jun-26 21:34N 31°08' E 121°28'4401584301.7
2016-Jun-26 21:34N 24°26' E 118°06'463333505.1
2016-Jun-26 21:33N 31°38' E 121°14'387568.7
2016-Jun-26 21:33N 31°03' E 121°29'30107715.0
2016-Jun-26 21:33N 31°31' E 121°19'4329.5
2016-Jun-26 21:32N 31°30' E 121°24'25814.2
2016-Jun-26 21:30N 31°05' E 121°28'657147841.1
2016-Jun-26 21:30N 22°19' E 114°07'674110326.9
2016-Jun-26 21:30N 31°28' E 121°25'23375.5
2016-Jun-26 21:26N 31°05' E 121°28'9436.2
2016-Jun-26 21:25N 30°59' E 121°21'30563.4
2016-Jun-26 21:22N 31°28' E 121°26'47763.6
2016-Jun-26 21:18N 32°01' E 120°45'322602.7
2016-Jun-26 21:17N 31°40' E 121°13'465637.5
2016-Jun-26 20:33N 24°26' E 118°06'46588081.2
2016-Jun-26 20:33N 31°40' E 121°13'102612.0
2016-Jun-26 20:33N 31°31' E 121°19'256037.5
2016-Jun-26 20:33N 31°07' E 121°28'11876.5
2016-Jun-26 20:32N 30°59' E 121°20'112943.1
2016-Jun-26 20:32N 31°08' E 121°28'45018207.6
2016-Jun-26 20:30N 24°14' E 118°09'46813815.5
2016-Jun-26 20:28N 31°28' E 121°26'14878.1
2016-Jun-26 20:27N 31°39' E 121°13'391.5
2016-Jun-26 20:25N 31°41' E 121°11'16131.1
2016-Jun-26 20:18N 31°30' E 121°24'228.8
2016-Jun-26 20:15N 31°28' E 121°25'216.0
2016-Jun-26 20:09N 31°30' E 121°24'612583.8
2016-Jun-26 20:08N 31°60' E 120°22'795550.6
2016-Jun-26 20:07N 31°05' E 121°28'437790.2
2016-Jun-26 19:33N 24°26' E 118°06'443106427.9
2016-Jun-26 19:33N 31°11' E 121°28'274045.5
2016-Jun-26 19:33N 31°37' E 121°17'62875.7
2016-Jun-26 19:33N 31°31' E 121°19'242666.5
2016-Jun-26 19:32N 31°08' E 121°28'572970.9
2016-Jun-26 19:31N 31°56' E 120°52'6218464.8
2016-Jun-26 19:31N 30°58' E 121°15'141146.9
2016-Jun-26 19:30N 31°05' E 121°28'363224.0
2016-Jun-26 19:29N 31°39' E 121°13'434104063.2
2016-Jun-26 19:29N 38°52' E 121°32'442227465.0
2016-Jun-26 19:29N 31°30' E 121°24'634812.0
2016-Jun-26 19:28N 31°57' E 120°18'642573.8
2016-Jun-26 19:27N 31°28' E 121°26'025.6
2016-Jun-26 19:26N 31°28' E 121°25'216.2
2016-Jun-26 19:20N 31°30' E 121°24'14100.7
2016-Jun-26 19:12N 31°40' E 121°13'3453.8
2016-Jun-26 18:33N 31°08' E 121°28'241543.1
2016-Jun-26 18:33N 31°31' E 121°19'45997121.2
2016-Jun-26 18:32N 24°26' E 118°06'8821588295.1
2016-Jun-26 18:32N 38°50' E 121°33'44135265.0
2016-Jun-26 18:31N 31°30' E 121°24'144571.9
2016-Jun-26 18:31N 31°40' E 121°13'353254108.0
2016-Jun-26 18:31N 25°59' E 119°29'34659284.9
2016-Jun-26 18:31N 31°31' E 121°22'2124.6
2016-Jun-26 18:30N 31°30' E 121°24'13246.8
2016-Jun-26 18:27N 31°39' E 121°13'57558.0
2016-Jun-26 18:21N 31°56' E 120°10'6611938.8
2016-Jun-26 18:20N 31°31' E 121°22'2731995.0
2016-Jun-26 18:20N 31°05' E 121°28'6571182385.2
2016-Jun-26 18:20N 22°19' E 114°07'6744104.3
2016-Jun-26 18:10N 31°28' E 121°25'458742.9
2016-Jun-26 17:33N 24°26' E 118°06'883288848.5
2016-Jun-26 17:33N 38°51' E 121°34'44179379.8
2016-Jun-26 17:33N 31°30' E 121°24'5526.3
2016-Jun-26 17:32N 31°31' E 121°19'2414665.9
2016-Jun-26 17:32N 31°08' E 121°28'66056532.9
2016-Jun-26 17:32N 22°19' E 114°07'36757445.3
2016-Jun-26 17:31N 25°59' E 119°29'35328234.2
2016-Jun-26 17:30N 31°40' E 121°13'161748.9
2016-Jun-26 17:30N 31°28' E 121°25'4114.1
2016-Jun-26 17:28N 31°31' E 121°22'2796.6
2016-Jun-26 17:11N 31°05' E 121°28'207270.2
2016-Jun-26 17:11N 31°17' E 121°09'18532.5
2016-Jun-26 17:09N 31°28' E 121°26'55566.4
2016-Jun-26 17:03N 32°02' E 120°35'475939.7
2016-Jun-26 16:33N 24°26' E 118°06'883226951.2
2016-Jun-26 16:33N 38°51' E 121°33'463118949.4
2016-Jun-26 16:33N 31°08' E 121°28'244394.0
2016-Jun-26 16:32N 31°31' E 121°20'2150.7
2016-Jun-26 16:31N 31°31' E 121°22'272902.1
2016-Jun-26 16:31N 31°05' E 121°28'241346.8
2016-Jun-26 16:30N 31°28' E 121°26'151.2
2016-Jun-26 16:29N 31°28' E 121°26'34522967.7
2016-Jun-26 16:28N 25°59' E 119°29'35312705.2
2016-Jun-26 16:26N 31°40' E 121°13'14516.5
2016-Jun-26 16:25N 31°30' E 121°24'0 2.7
2016-Jun-26 16:23N 31°30' E 121°24'218.8
2016-Jun-26 16:18N 31°28' E 121°25'5 6.4
2016-Jun-26 15:33N 31°31' E 121°21'294962.6
2016-Jun-26 15:33N 31°03' E 121°29'43662788.2
2016-Jun-26 15:33N 24°26' E 118°06'12033212.1
2016-Jun-26 15:32N 25°59' E 119°29'34695886.5
2016-Jun-26 15:32N 31°31' E 121°22'271227.8
2016-Jun-26 15:31N 31°05' E 121°28'237030.1
2016-Jun-26 15:31N 31°28' E 121°25'44229492.7
2016-Jun-26 15:30N 38°51' E 121°34'4421592009.5
2016-Jun-26 15:30N 31°28' E 121°26'1618696.3
2016-Jun-26 15:30N 31°40' E 121°13'67827420.2
2016-Jun-26 15:28N 22°19' E 114°07'67539182.5
2016-Jun-26 15:27N 31°30' E 121°24'0 3.8
2016-Jun-26 15:26N 31°30' E 121°24'459524.4
2016-Jun-26 14:34N 24°26' E 118°06'43114092.3
2016-Jun-26 14:32N 30°59' E 121°23'292099.7
2016-Jun-26 14:31N 31°28' E 121°26'4432.0
2016-Jun-26 14:30N 31°31' E 121°22'41400.6
2016-Jun-26 14:30N 31°28' E 121°25'116766.9
2016-Jun-26 14:30N 31°36' E 121°16'35011051.4
2016-Jun-26 14:28N 25°59' E 119°29'32383082.6
2016-Jun-26 14:28N 31°05' E 121°28'4665496.7
2016-Jun-26 14:23N 38°51' E 121°34'4416905.4
2016-Jun-26 14:19N 31°30' E 121°24'459602.7
2016-Jun-26 13:33N 24°26' E 118°06'8833177907.9
2016-Jun-26 13:33N 38°51' E 121°33'46625406.0
2016-Jun-26 13:32N 31°05' E 121°28'6917726.3
2016-Jun-26 13:32N 32°00' E 120°40'36625342.3
2016-Jun-26 13:31N 25°59' E 119°29'3469738.2
2016-Jun-26 13:29N 31°31' E 121°22'142466.2
2016-Jun-26 13:29N 31°41' E 121°10'18163.0
2016-Jun-26 13:22N 31°28' E 121°26'6164.6
2016-Jun-26 13:20N 31°31' E 121°19'5157.1
2016-Jun-26 13:18N 31°30' E 121°24'14169.3
2016-Jun-26 13:13N 31°40' E 121°13'465703.4
2016-Jun-26 12:33N 24°26' E 118°06'463278069.3
2016-Jun-26 12:33N 31°39' E 121°13'11519.6
2016-Jun-26 12:32N 31°31' E 121°22'2339.6
2016-Jun-26 12:32N 31°30' E 121°24'34544401.4
2016-Jun-26 12:31N 25°59' E 119°29'368441222.1
2016-Jun-26 12:31N 32°01' E 120°45'32723.0
2016-Jun-26 12:28N 31°40' E 121°13'3726883.5
2016-Jun-26 12:28N 31°05' E 121°28'24589.4
2016-Jun-26 12:26N 31°28' E 121°26'64319.5
2016-Jun-26 12:14N 31°57' E 120°18'645113.5
2016-Jun-26 12:13N 31°28' E 121°25'4435243.2
2016-Jun-26 12:08N 38°51' E 121°33'433750.8
2016-Jun-26 11:33N 31°39' E 121°13'463166841.6
2016-Jun-26 11:33N 24°26' E 118°06'458206092.9
2016-Jun-26 11:33N 31°28' E 121°26'014.3
2016-Jun-26 11:32N 31°28' E 121°25'165596.4
2016-Jun-26 11:32N 31°40' E 121°13'35330988.8
2016-Jun-26 11:31N 25°59' E 119°29'31315861.5
2016-Jun-26 11:30N 30°58' E 121°16'3211372.9
2016-Jun-26 11:30N 31°28' E 121°25'191241.6
2016-Jun-26 11:29N 31°42' E 121°10'171256.0
2016-Jun-26 11:28N 31°30' E 121°24'41955.1
2016-Jun-26 11:25N 31°59' E 120°51'383838.8
2016-Jun-26 11:25N 31°31' E 121°22'1173.2
2016-Jun-26 11:15N 31°39' E 121°13'1073.2
2016-Jun-26 11:07N 31°31' E 121°19'459798.4
2016-Jun-26 10:33N 24°26' E 118°06'45933737.0
2016-Jun-26 10:32N 31°31' E 121°22'42802.8
2016-Jun-26 10:32N 31°29' E 121°26'6491.2
2016-Jun-26 10:31N 31°31' E 121°19'34656600.5
2016-Jun-26 10:31N 25°59' E 119°29'31649437.1
2016-Jun-26 10:31N 30°59' E 121°22'48075111.8
2016-Jun-26 10:30N 23°45' E 117°33'50846916.5
2016-Jun-26 10:30N 31°30' E 121°25'13440.9
2016-Jun-26 10:28N 31°39' E 121°13'37454.6
2016-Jun-26 10:23N 31°05' E 121°28'27221.3
2016-Jun-26 10:16N 31°31' E 121°21'3118.0
2016-Jun-26 10:14N 31°30' E 121°24'2537.4
2016-Jun-26 09:33N 31°05' E 121°28'437786789.6
2016-Jun-26 09:33N 24°26' E 118°06'459165129.7
2016-Jun-26 09:33N 31°30' E 121°24'0286.4
2016-Jun-26 09:33N 31°30' E 121°24'22783.1
2016-Jun-26 09:33N 31°30' E 121°23'3011848.1
2016-Jun-26 09:33N 31°01' E 121°29'3209922.5
2016-Jun-26 09:31N 25°59' E 119°29'3677807.9
2016-Jun-26 09:28N 32°00' E 120°41'422116.2
2016-Jun-26 09:27N 31°33' E 121°19'1714906.0
2016-Jun-26 09:27N 31°45' E 121°06'446373.6
2016-Jun-26 09:26N 31°05' E 121°28'27226.7
2016-Jun-26 09:19N 31°31' E 121°19'1070.4
2016-Jun-26 09:11N 31°39' E 121°13'7143.2
2016-Jun-26 09:08N 31°35' E 121°19'682.3
2016-Jun-26 09:03N 31°39' E 121°13'1019.3
2016-Jun-26 08:34N 31°32' E 121°21'4591653678.7
2016-Jun-26 08:34N 24°26' E 118°06'432777986.9
2016-Jun-26 08:33N 31°00' E 121°26'509122183.3
2016-Jun-26 08:33N 22°35' E 120°17'56738501.1
2016-Jun-26 08:32N 32°01' E 120°48'6639635.0
2016-Jun-26 08:32N 31°05' E 121°28'292452.0
2016-Jun-26 08:32N 31°33' E 121°21'34735742.3
2016-Jun-26 08:31N 25°59' E 119°29'32315507.4
2016-Jun-26 08:30N 31°05' E 121°28'668436.4
2016-Jun-26 08:29N 32°01' E 120°48'312445.2
2016-Jun-26 08:28N 31°39' E 121°13'131939.6
2016-Jun-26 08:28N 31°30' E 121°24'0 1.5
2016-Jun-26 08:22N 31°30' E 121°24'232.0
2016-Jun-26 08:19N 31°28' E 121°25'458606.3
2016-Jun-26 07:34N 24°26' E 118°06'46059201.7
2016-Jun-26 07:33N 31°34' E 121°19'3512606.0
2016-Jun-26 07:33N 30°59' E 121°19'301549.5
2016-Jun-26 07:32N 31°28' E 121°25'34426951.9
2016-Jun-26 07:31N 25°59' E 119°29'3466730.2
2016-Jun-26 07:28N 31°31' E 121°19'94812.4
2016-Jun-26 07:28N 31°39' E 121°14'104553.3
2016-Jun-26 07:16N 30°02' E 121°57'107914.6
2016-Jun-26 07:09N 31°42' E 121°10'17554.1
2016-Jun-26 07:08N 31°30' E 121°24'459808.6
2016-Jun-26 06:34N 24°26' E 118°06'46263998.1
2016-Jun-26 06:33N 31°36' E 121°16'102281.2
2016-Jun-26 06:33N 31°30' E 121°24'8399.3
2016-Jun-26 06:32N 31°36' E 121°18'61561.2
2016-Jun-26 06:31N 31°40' E 121°14'178.8
2016-Jun-26 06:31N 31°40' E 121°13'352317146.3
2016-Jun-26 06:31N 25°59' E 119°29'36722028.3
2016-Jun-26 06:30N 22°18' E 114°07'67541899.3
2016-Jun-26 06:29N 31°31' E 121°22'272134.9
2016-Jun-26 06:28N 31°05' E 121°28'251090.8
2016-Jun-26 06:27N 31°30' E 121°24'14362.3
2016-Jun-26 06:25N 31°39' E 121°13'1017319.6
2016-Jun-26 06:25N 31°31' E 121°19'9161.3
2016-Jun-26 06:21N 31°39' E 121°14'15173.9
2016-Jun-26 06:16N 31°28' E 121°25'0 0.4
2016-Jun-26 06:06N 31°28' E 121°25'1222.0
2016-Jun-26 05:34N 31°37' E 121°16'5897.9
2016-Jun-26 05:33N 31°40' E 121°12'396439.4
2016-Jun-26 05:33N 31°04' E 121°28'4361570585.3
2016-Jun-26 05:33N 24°26' E 118°06'463333444.9
2016-Jun-26 05:33N 31°37' E 121°16'10517180.3
2016-Jun-26 05:32N 29°59' E 121°58'983004.4
2016-Jun-26 05:30N 31°31' E 121°19'51037.1
2016-Jun-26 05:30N 31°30' E 121°24'1102.3
2016-Jun-26 05:30N 31°29' E 121°25'34511830.9
2016-Jun-26 05:28N 25°59' E 119°29'3675848.3
2016-Jun-26 05:24N 22°18' E 114°07'675486073.8
2016-Jun-26 05:24N 31°31' E 121°22'459544.7
2016-Jun-26 04:33N 24°26' E 118°06'46283105.1
2016-Jun-26 04:33N 31°35' E 121°19'35126712.3
2016-Jun-26 04:33N 31°00' E 121°26'35126435.7
2016-Jun-26 04:33N 31°35' E 121°19'11019798.0
2016-Jun-26 04:33N 29°54' E 122°09'10346472.5
2016-Jun-26 04:33N 31°30' E 121°25'67463893.9
2016-Jun-26 04:32N 22°19' E 114°08'674173254.3
2016-Jun-26 04:32N 31°28' E 121°25'34423843.3
2016-Jun-26 04:31N 25°59' E 119°29'34631126.4
2016-Jun-26 04:30N 31°31' E 121°19'2834.3
2016-Jun-26 04:30N 31°31' E 121°22'22959.7
2016-Jun-26 04:30N 31°30' E 121°24'2363.1
2016-Jun-26 04:30N 31°29' E 121°27'224.4
2016-Jun-26 04:26N 31°29' E 121°25'1447.1
2016-Jun-26 04:08N 31°40' E 121°14'123215.3
2016-Jun-26 03:34N 29°45' E 122°03'382105899.1
2016-Jun-26 03:33N 24°26' E 118°06'459150069.9
2016-Jun-26 03:33N 31°31' E 121°19'2126.7
2016-Jun-26 03:32N 31°32' E 121°22'67652889.9
2016-Jun-26 03:31N 22°19' E 114°07'36748956.4
2016-Jun-26 03:31N 25°59' E 119°29'31545360.8
2016-Jun-26 03:30N 30°59' E 121°20'31648.3
2016-Jun-26 03:28N 31°30' E 121°25'5958.1
2016-Jun-26 03:27N 31°32' E 121°19'5224.6
2016-Jun-26 03:26N 31°30' E 121°24'2986.6
2016-Jun-26 03:26N 31°31' E 121°22'468.3
2016-Jun-26 03:22N 31°28' E 121°25'458560.3
2016-Jun-26 02:33N 24°26' E 118°06'2536558.9
2016-Jun-26 02:31N 22°19' E 114°07'367110153.0
2016-Jun-26 02:31N 25°59' E 119°29'2627141.5
2016-Jun-26 02:29N 29°41' E 122°07'1151312.7
2016-Jun-26 02:23N 31°30' E 121°24'33190.0
2016-Jun-26 02:13N 30°58' E 121°13'42307.3
2016-Jun-26 02:05N 31°40' E 121°14'464894.7
2016-Jun-26 01:34N 24°26' E 118°06'3811370850.0
2016-Jun-26 01:34N 29°41' E 122°05'1149534.2
2016-Jun-26 01:33N 31°30' E 121°25'3259.6
2016-Jun-26 01:32N 31°31' E 121°22'2881.6
2016-Jun-26 01:32N 31°30' E 121°24'34517760.6
2016-Jun-26 01:31N 25°59' E 119°29'3671321836.3
2016-Jun-26 01:31N 22°19' E 114°07'67829398.1
2016-Jun-26 01:29N 31°40' E 121°14'15506.1
2016-Jun-26 01:28N 31°28' E 121°25'193.9
2016-Jun-26 01:27N 31°29' E 121°25'17476.1
2016-Jun-26 01:25N 31°41' E 121°10'22118.7
2016-Jun-26 01:14N 31°26' E 121°28'18195.8
2016-Jun-26 01:09N 31°08' E 121°28'63817.9
2016-Jun-26 01:04N 32°00' E 120°47'476936.4
2016-Jun-26 00:33N 24°26' E 118°06'5130710.6
2016-Jun-26 00:33N 23°44' E 117°34'50940743.6
2016-Jun-26 00:33N 31°31' E 121°22'282267.7
2016-Jun-26 00:32N 31°04' E 121°28'372737.9
2016-Jun-26 00:31N 31°39' E 121°13'352115039.0
2016-Jun-26 00:31N 25°59' E 119°29'367220306.2
2016-Jun-26 00:31N 22°19' E 114°07'675607597.0
2016-Jun-26 00:31N 31°30' E 121°25'155.1
2016-Jun-26 00:29N 31°28' E 121°25'128.3
2016-Jun-26 00:26N 31°30' E 121°24'1137139.0
2016-Jun-26 00:25N 29°42' E 122°04'1554864.3
2016-Jun-26 00:23N 31°60' E 120°41'341371.7
2016-Jun-26 00:22N 31°40' E 121°14'3122502.6
2016-Jun-26 00:22N 31°11' E 121°28'60306.3
2016-Jun-26 00:10N 32°01' E 120°48'69114.1
2016-Jun-25 23:33N 30°60' E 121°25'43239856.1
2016-Jun-25 23:33N 24°26' E 118°06'438393972.6
2016-Jun-25 23:33N 31°05' E 121°28'8425054.2
2016-Jun-25 23:33N 29°48' E 122°05'1074105.2
2016-Jun-25 23:31N 31°30' E 121°24'030.8
2016-Jun-25 23:31N 31°30' E 121°25'67420575.8
2016-Jun-25 23:29N 22°19' E 114°08'67428562.2
2016-Jun-25 23:27N 31°31' E 121°22'11378.6
2016-Jun-25 23:25N 31°40' E 121°14'118.9
2016-Jun-25 23:22N 31°39' E 121°13'37121.3
2016-Jun-25 23:04N 31°05' E 121°28'1019.2
2016-Jun-25 22:33N 30°59' E 121°19'429220425.7
2016-Jun-25 22:33N 24°26' E 118°06'39219867.9
2016-Jun-25 22:32N 29°55' E 122°05'1137828.1
2016-Jun-25 22:31N 31°39' E 121°13'13630.2
2016-Jun-25 22:30N 31°30' E 121°24'14537.3
2016-Jun-25 22:29N 31°40' E 121°14'677348244.8
2016-Jun-25 22:28N 22°19' E 114°08'67486707.8
2016-Jun-25 22:28N 31°31' E 121°22'27170.9
2016-Jun-25 22:18N 31°05' E 121°28'25147.6
2016-Jun-25 22:08N 31°30' E 121°25'459794.3
2016-Jun-25 21:33N 24°26' E 118°06'426306951.6
2016-Jun-25 21:33N 30°58' E 121°15'131091.5
2016-Jun-25 21:33N 31°05' E 121°28'7128434.6
2016-Jun-25 21:33N 29°57' E 121°54'953060.5
2016-Jun-25 21:31N 31°29' E 121°25'1552321.9
2016-Jun-25 21:31N 31°40' E 121°14'141.2
2016-Jun-25 21:29N 31°39' E 121°13'14582.9
2016-Jun-25 21:28N 31°29' E 121°25'62844.2
2016-Jun-25 21:23N 31°59' E 120°21'4806753.2
2016-Jun-25 21:19N 24°14' E 118°09'46924826.1
2016-Jun-25 21:18N 31°30' E 121°24'0 3.0
2016-Jun-25 21:14N 31°30' E 121°24'459684.9
2016-Jun-25 20:33N 24°26' E 118°06'46432769.7
2016-Jun-25 20:33N 31°56' E 120°15'8119424.7
2016-Jun-25 20:32N 31°05' E 121°28'44727284.8
2016-Jun-25 20:31N 24°14' E 118°08'46911482.2
2016-Jun-25 20:29N 31°30' E 121°24'0 7.8
2016-Jun-25 20:28N 31°30' E 121°24'331104.4
2016-Jun-25 20:26N 30°58' E 121°15'421079.0
2016-Jun-25 20:24N 31°40' E 121°14'033.6
2016-Jun-25 20:23N 31°40' E 121°14'1562.6
2016-Jun-25 20:09N 31°29' E 121°25'628024.3
2016-Jun-25 20:09N 31°59' E 120°21'1411530.9
2016-Jun-25 20:03N 29°57' E 121°42'383769.3
2016-Jun-25 19:33N 24°26' E 118°06'459165123.7
2016-Jun-25 19:33N 31°30' E 121°24'641766.1
2016-Jun-25 19:31N 31°57' E 120°17'8011129.4
2016-Jun-25 19:31N 31°05' E 121°28'374070.9
2016-Jun-25 19:30N 31°40' E 121°14'0 6.7
2016-Jun-25 19:29N 31°40' E 121°14'10103.0
2016-Jun-25 19:23N 31°31' E 121°19'972121.3
2016-Jun-25 19:20N 29°57' E 121°42'53564216.4
2016-Jun-25 19:20N 38°52' E 121°32'431558.5
2016-Jun-25 18:34N 31°41' E 121°11'465557802.3
2016-Jun-25 18:33N 24°26' E 118°06'88250419.2
2016-Jun-25 18:32N 38°51' E 121°32'44193374.0
2016-Jun-25 18:32N 31°30' E 121°24'9448405.7
2016-Jun-25 18:32N 29°57' E 121°42'69123866.4
2016-Jun-25 18:32N 31°05' E 121°28'25717.4
2016-Jun-25 18:30N 31°30' E 121°24'141946.5
2016-Jun-25 18:29N 31°40' E 121°14'1088.6
2016-Jun-25 18:23N 31°31' E 121°19'10101.4
2016-Jun-25 18:17N 31°40' E 121°14'14111.8
2016-Jun-25 18:10N 31°30' E 121°25'1118.1
2016-Jun-25 17:34N 31°37' E 121°16'46337055.7
2016-Jun-25 17:33N 24°26' E 118°06'46546450.2
2016-Jun-25 17:32N 31°40' E 121°14'115018.9
2016-Jun-25 17:32N 31°31' E 121°22'387.5
2016-Jun-25 17:30N 31°29' E 121°25'14632.6
2016-Jun-25 17:29N 31°40' E 121°14'14181.0
2016-Jun-25 17:24N 31°30' E 121°24'0 4.3
2016-Jun-25 17:22N 31°30' E 121°24'4413323.0
2016-Jun-25 17:14N 38°51' E 121°33'4459825.4
2016-Jun-25 17:11N 31°26' E 121°28'457725.4
2016-Jun-25 16:33N 24°26' E 118°06'46124751.6
2016-Jun-25 16:32N 31°33' E 121°20'43792562.4
2016-Jun-25 16:32N 38°50' E 121°34'44120347.1
2016-Jun-25 16:31N 31°30' E 121°25'378.9
2016-Jun-25 16:29N 31°31' E 121°22'11598.8
2016-Jun-25 16:28N 31°40' E 121°14'0 3.2
2016-Jun-25 16:24N 31°40' E 121°14'1492.9
2016-Jun-25 16:15N 31°30' E 121°24'459662.7
2016-Jun-25 15:33N 24°26' E 118°06'426109630.9
2016-Jun-25 15:33N 30°58' E 121°15'346766.7
2016-Jun-25 15:33N 31°31' E 121°25'13414.0
2016-Jun-25 15:31N 31°40' E 121°14'14868.2
2016-Jun-25 15:30N 31°30' E 121°25'1167.5
2016-Jun-25 15:30N 31°30' E 121°25'0 6.8
2016-Jun-25 15:27N 31°29' E 121°25'44115884.6
2016-Jun-25 15:25N 38°50' E 121°34'439225980.8
2016-Jun-25 15:25N 31°31' E 121°22'252.6
2016-Jun-25 15:22N 31°30' E 121°24'442544.1
2016-Jun-25 14:33N 38°51' E 121°33'8831589552.5
2016-Jun-25 14:33N 24°26' E 118°06'464128594.1
2016-Jun-25 14:33N 31°40' E 121°14'54553028.2
2016-Jun-25 14:33N 22°38' E 120°11'54561324.4
2016-Jun-25 14:32N 31°40' E 121°14'14288.5
2016-Jun-25 14:29N 31°30' E 121°24'173.7
2016-Jun-25 14:29N 31°30' E 121°25'31256.9
2016-Jun-25 14:29N 31°28' E 121°28'6672.8
2016-Jun-25 14:28N 31°31' E 121°22'3406767.1
2016-Jun-25 14:25N 37°04' E 122°45'34216845.5
2016-Jun-25 14:24N 31°29' E 121°25'1 8.6
2016-Jun-25 14:20N 31°30' E 121°25'459594.1
2016-Jun-25 13:33N 24°26' E 118°06'45939311.6
2016-Jun-25 13:33N 31°30' E 121°25'44216562.9
2016-Jun-25 13:31N 38°51' E 121°33'44211866.1
2016-Jun-25 13:29N 31°30' E 121°25'115.2
2016-Jun-25 13:26N 31°30' E 121°24'14293.8
2016-Jun-25 13:23N 31°40' E 121°14'31139.5
2016-Jun-25 13:10N 32°01' E 120°47'39812.7
2016-Jun-25 13:07N 31°33' E 121°19'460821.3
2016-Jun-25 12:33N 24°26' E 118°06'46498336.7
2016-Jun-25 12:33N 31°40' E 121°14'43226352.0
2016-Jun-25 12:32N 38°51' E 121°34'442113589.0
2016-Jun-25 12:32N 31°30' E 121°24'1430.0
2016-Jun-25 12:32N 31°30' E 121°25'139.4
2016-Jun-25 12:31N 31°30' E 121°25'441375.7
2016-Jun-25 12:29N 32°01' E 120°47'3238005.5
2016-Jun-25 12:29N 31°56' E 120°10'856973.4
2016-Jun-25 12:28N 31°01' E 121°27'37920.4
2016-Jun-25 12:26N 31°37' E 121°16'11534.9
2016-Jun-25 12:25N 31°29' E 121°25'458536.9
2016-Jun-25 11:34N 24°26' E 118°06'46447753.2
2016-Jun-25 11:33N 31°40' E 121°11'165241.6
2016-Jun-25 11:33N 31°29' E 121°25'14510.9
2016-Jun-25 11:31N 31°40' E 121°14'14681.8
2016-Jun-25 11:30N 31°30' E 121°24'655537.1
2016-Jun-25 11:29N 31°57' E 120°15'813209.6
2016-Jun-25 11:28N 31°05' E 121°28'13101.3
2016-Jun-25 11:20N 30°58' E 121°15'33854.2
2016-Jun-25 11:18N 31°30' E 121°25'14106.5
2016-Jun-25 11:10N 31°40' E 121°14'464764.9
2016-Jun-25 10:34N 24°26' E 118°06'446802185.3
2016-Jun-25 10:33N 31°13' E 121°30'3010868.8
2016-Jun-25 10:33N 31°40' E 121°14'371918.0
2016-Jun-25 10:32N 31°05' E 121°28'373838.2
2016-Jun-25 10:32N 31°40' E 121°14'148226.0
2016-Jun-25 10:31N 31°30' E 121°25'0 2.8
2016-Jun-25 10:27N 31°30' E 121°24'445.6
2016-Jun-25 10:21N 31°31' E 121°20'1673481.1
2016-Jun-25 10:18N 31°25' E 118°03'1723175.7
2016-Jun-25 10:15N 31°30' E 121°25'6756499.8
2016-Jun-25 10:09N 22°19' E 114°07'253424.5
2016-Jun-25 09:33N 24°26' E 118°06'44011482.7
2016-Jun-25 09:31N 31°08' E 121°28'2277834.3
2016-Jun-25 09:31N 31°30' E 121°25'14833.3
2016-Jun-25 09:30N 31°40' E 121°14'0 3.6
2016-Jun-25 09:27N 31°40' E 121°14'14289.0
2016-Jun-25 09:24N 31°30' E 121°25'18176.9
2016-Jun-25 09:18N 31°42' E 121°09'18194.6
2016-Jun-25 09:12N 31°30' E 121°24'459705.6
2016-Jun-25 08:33N 24°26' E 118°06'45963496.1
2016-Jun-25 08:33N 31°30' E 121°24'046.9
2016-Jun-25 08:33N 31°30' E 121°24'127.7
2016-Jun-25 08:31N 31°29' E 121°25'14394.2
2016-Jun-25 08:29N 31°40' E 121°13'010.9
2016-Jun-25 08:27N 31°40' E 121°14'50169.2
2016-Jun-25 08:09N 31°57' E 120°18'5492.1
2016-Jun-25 07:33N 31°36' E 121°17'463832567.7
2016-Jun-25 07:33N 24°26' E 118°06'463277824.6
2016-Jun-25 07:33N 31°37' E 121°16'573152.1
2016-Jun-25 07:32N 31°56' E 120°13'662842.7
2016-Jun-25 07:31N 31°30' E 121°24'0 4.9
2016-Jun-25 07:29N 31°30' E 121°24'1 5.2
2016-Jun-25 07:21N 31°29' E 121°25'1487.5
2016-Jun-25 07:11N 31°40' E 121°14'63513.9
2016-Jun-25 07:04N 31°58' E 120°03'72142.7
2016-Jun-25 06:33N 31°32' E 121°22'460414305.4
2016-Jun-25 06:33N 24°26' E 118°06'459165118.5
2016-Jun-25 06:33N 31°30' E 121°25'251564.4
2016-Jun-25 06:32N 31°05' E 121°28'2917118.9
2016-Jun-25 06:32N 31°32' E 121°21'4565.1
2016-Jun-25 06:32N 31°30' E 121°25'37602.7
2016-Jun-25 06:28N 31°54' E 120°53'361836.4
2016-Jun-25 06:27N 31°30' E 121°24'14903.8
2016-Jun-25 06:26N 31°40' E 121°14'464530.7
2016-Jun-25 05:33N 24°26' E 118°06'43733486.2
2016-Jun-25 05:33N 31°05' E 121°28'25781.6
2016-Jun-25 05:31N 31°29' E 121°27'1214.7
2016-Jun-25 05:30N 31°28' E 121°27'3199.1
2016-Jun-25 05:30N 31°30' E 121°24'0 3.2
2016-Jun-25 05:27N 31°30' E 121°25'459516.5
2016-Jun-25 04:33N 24°26' E 118°06'45947193.7
2016-Jun-25 04:33N 31°30' E 121°25'14876.5
2016-Jun-25 04:32N 31°40' E 121°14'372438.1
2016-Jun-25 04:31N 31°05' E 121°28'25795.5
2016-Jun-25 04:29N 31°30' E 121°24'974434.2
2016-Jun-25 04:28N 29°57' E 121°60'971446.8
2016-Jun-25 04:24N 31°30' E 121°25'104124.5
2016-Jun-25 03:34N 29°53' E 122°08'392704802.2
2016-Jun-25 03:33N 24°26' E 118°06'43768428.4
2016-Jun-25 03:33N 31°05' E 121°28'2522569.9
2016-Jun-25 03:33N 31°30' E 121°25'5327501.9
2016-Jun-25 03:33N 32°00' E 120°34'5311898.8
2016-Jun-25 03:33N 31°30' E 121°24'443444.2
2016-Jun-25 03:32N 32°01' E 120°48'442206.8
2016-Jun-25 03:31N 31°30' E 121°25'1 4.2
2016-Jun-25 03:22N 31°29' E 121°25'14281.9
2016-Jun-25 03:19N 31°40' E 121°14'464609.7
2016-Jun-25 02:34N 24°26' E 118°06'43377889.8
2016-Jun-25 02:33N 31°00' E 121°26'321597.6
2016-Jun-25 02:32N 31°31' E 121°20'552049.0
2016-Jun-25 02:30N 32°02' E 120°26'467200.7
2016-Jun-25 02:30N 31°40' E 121°14'37938.3
2016-Jun-25 02:28N 31°05' E 121°28'25822.5
2016-Jun-25 02:26N 31°30' E 121°25'191573.9
2016-Jun-25 02:25N 31°42' E 121°08'18353.6
2016-Jun-25 02:22N 31°30' E 121°24'1131138.6
2016-Jun-25 02:16N 29°42' E 122°05'11319402.7
2016-Jun-25 02:16N 31°30' E 121°25'31175.6
2016-Jun-25 02:05N 30°59' E 121°21'429813.6
2016-Jun-25 01:33N 24°26' E 118°06'43367730.3
2016-Jun-25 01:33N 31°00' E 121°26'298756.5
2016-Jun-25 01:33N 31°30' E 121°24'312413.8
2016-Jun-25 01:32N 30°59' E 121°21'794258.5
2016-Jun-25 01:31N 31°58' E 120°20'16599221.0
2016-Jun-25 01:31N 29°41' E 122°07'1274092.9
2016-Jun-25 01:29N 31°40' E 121°14'14366.7
2016-Jun-25 01:27N 31°30' E 121°25'147.3
2016-Jun-25 01:26N 31°30' E 121°25'2933.2
2016-Jun-25 00:34N 31°00' E 121°26'433311559.3
2016-Jun-25 00:33N 24°26' E 118°06'46428822.8
2016-Jun-25 00:32N 31°40' E 121°14'415513.0
2016-Jun-25 00:32N 30°59' E 121°21'867776.7
2016-Jun-25 00:31N 29°41' E 122°06'11414138.1
2016-Jun-25 00:31N 31°30' E 121°24'6712621.1
2016-Jun-25 00:31N 31°56' E 120°12'817851.5
2016-Jun-25 00:30N 31°07' E 121°28'822502.0
2016-Jun-25 00:28N 31°57' E 120°11'631688.7
2016-Jun-25 00:26N 31°31' E 121°20'51673.0
2016-Jun-25 00:26N 31°30' E 121°25'108124.1
2016-Jun-24 23:34N 29°48' E 122°04'8019159.4
2016-Jun-24 23:33N 31°00' E 121°26'7380.6
2016-Jun-24 23:32N 31°07' E 121°28'233696.8
2016-Jun-24 23:32N 31°30' E 121°24'049.5
2016-Jun-24 23:32N 31°30' E 121°25'31712.6
2016-Jun-24 23:29N 30°59' E 121°21'336162.3
2016-Jun-24 23:29N 31°31' E 121°20'681910.3
2016-Jun-24 23:26N 31°57' E 120°05'88263.4
2016-Jun-24 23:06N 31°05' E 121°28'3359.5
2016-Jun-24 22:33N 31°36' E 121°17'11049404.2
2016-Jun-24 22:33N 29°55' E 122°06'393353793.3
2016-Jun-24 22:33N 24°25' E 118°05'430119174.0
2016-Jun-24 22:33N 30°59' E 121°21'5462.1
2016-Jun-24 22:32N 31°00' E 121°26'292622.2
2016-Jun-24 22:32N 31°30' E 121°25'256892.6
2016-Jun-24 22:32N 31°05' E 121°28'2589933.6
2016-Jun-24 22:32N 31°30' E 121°25'0 8.3
2016-Jun-24 22:30N 31°30' E 121°24'332265.5
2016-Jun-24 22:29N 31°06' E 120°58'333705.8
2016-Jun-24 22:29N 31°29' E 121°25'460500.6
2016-Jun-24 21:33N 24°24' E 118°04'435142203.8
2016-Jun-24 21:33N 31°00' E 121°26'68122309.5
2016-Jun-24 21:33N 29°57' E 121°54'6827212.1
2016-Jun-24 21:33N 31°00' E 121°26'294721.8
2016-Jun-24 21:33N 31°29' E 121°25'16939.1
2016-Jun-24 21:32N 31°40' E 121°11'16877.5
2016-Jun-24 21:31N 31°30' E 121°25'019.1
2016-Jun-24 21:29N 31°30' E 121°25'112.5
2016-Jun-24 21:26N 31°30' E 121°24'47011506.8
2016-Jun-24 21:24N 24°13' E 118°09'4501870.5
2016-Jun-24 21:09N 31°07' E 121°28'441743.1
2016-Jun-24 20:34N 24°25' E 118°04'461207259.4
2016-Jun-24 20:33N 31°30' E 121°25'1122.8
2016-Jun-24 20:33N 31°30' E 121°24'302116.5
2016-Jun-24 20:32N 30°60' E 121°25'2597.7
2016-Jun-24 20:32N 31°00' E 121°26'297023.8
2016-Jun-24 20:32N 31°30' E 121°24'460474.0
2016-Jun-24 19:34N 24°25' E 118°04'43465173.4
2016-Jun-24 19:33N 31°00' E 121°26'3220.0
2016-Jun-24 19:32N 31°03' E 121°29'373827.7
2016-Jun-24 19:32N 31°38' E 121°15'111655.3
2016-Jun-24 19:31N 31°30' E 121°24'234538.1
2016-Jun-24 19:31N 31°07' E 121°28'4652840.3
2016-Jun-24 19:21N 38°52' E 121°32'471592.6
2016-Jun-24 18:33N 31°00' E 121°26'434782031.4
2016-Jun-24 18:33N 24°25' E 118°04'46059183.4
2016-Jun-24 18:33N 31°30' E 121°24'44111677.6
2016-Jun-24 18:31N 38°51' E 121°32'4387765.1
2016-Jun-24 18:27N 31°33' E 121°21'5540.3
2016-Jun-24 18:27N 31°30' E 121°24'441494.3
2016-Jun-24 17:33N 38°51' E 121°33'884636836.4
2016-Jun-24 17:33N 24°25' E 118°04'434312812.5
2016-Jun-24 17:33N 31°00' E 121°26'291386.9
2016-Jun-24 17:32N 31°30' E 121°24'0 5.8
2016-Jun-24 17:30N 31°30' E 121°24'23570.9
2016-Jun-24 17:28N 31°07' E 121°28'441485.2
2016-Jun-24 16:33N 24°25' E 118°04'43457924.6
2016-Jun-24 16:33N 31°00' E 121°26'292391.6
2016-Jun-24 16:32N 31°30' E 121°24'23721.1
2016-Jun-24 16:30N 31°07' E 121°28'232142.7
2016-Jun-24 16:30N 31°30' E 121°25'017.9
2016-Jun-24 16:28N 31°30' E 121°25'441132411.2
2016-Jun-24 16:28N 38°51' E 121°33'4421762.9
2016-Jun-24 16:13N 31°29' E 121°25'460703.0
2016-Jun-24 15:33N 24°25' E 118°04'434782051.2
2016-Jun-24 15:33N 31°00' E 121°26'712368.2
2016-Jun-24 15:33N 31°07' E 121°28'464278499.6
2016-Jun-24 15:33N 38°51' E 121°34'42016075.8
2016-Jun-24 15:32N 31°58' E 120°03'765922.7
2016-Jun-24 15:31N 31°30' E 121°25'115.9
2016-Jun-24 15:28N 31°30' E 121°24'0 0.6
2016-Jun-24 15:14N 31°30' E 121°25'182.0
2016-Jun-24 15:13N 31°29' E 121°25'460692.1
2016-Jun-24 14:33N 24°25' E 118°04'46078909.1
2016-Jun-24 14:33N 31°30' E 121°24'234785.1
2016-Jun-24 14:33N 31°07' E 121°28'2381380.3
2016-Jun-24 14:33N 31°30' E 121°25'292921.8
2016-Jun-24 14:32N 31°00' E 121°26'471141293.7
2016-Jun-24 14:32N 38°51' E 121°34'4425338.1
2016-Jun-24 14:27N 31°30' E 121°25'0 2.1
2016-Jun-24 14:18N 31°29' E 121°25'735691.6
2016-Jun-24 14:17N 31°57' E 120°06'465639.8
2016-Jun-24 13:33N 24°25' E 118°04'43442274.7
2016-Jun-24 13:33N 31°00' E 121°26'7562.7
2016-Jun-24 13:32N 31°07' E 121°28'46418574.8
2016-Jun-24 13:30N 38°52' E 121°34'4421192.5
2016-Jun-24 13:08N 31°30' E 121°23'814722.4
2016-Jun-24 13:07N 32°04' E 119°56'14239.6
2016-Jun-24 13:03N 31°56' E 120°10'465930.0
2016-Jun-24 12:33N 24°24' E 118°04'43535550.0
2016-Jun-24 12:33N 31°00' E 121°26'3417462.2
2016-Jun-24 12:33N 31°34' E 121°19'6439.7
2016-Jun-24 12:32N 31°30' E 121°24'11160.1
2016-Jun-24 12:32N 31°29' E 121°25'1169.4
2016-Jun-24 12:32N 31°30' E 121°24'44216236.3
2016-Jun-24 12:30N 38°51' E 121°34'464111440.8
2016-Jun-24 12:30N 31°07' E 121°28'23439.9
2016-Jun-24 12:27N 31°30' E 121°25'1 2.6
2016-Jun-24 12:15N 31°30' E 121°25'811991.5
2016-Jun-24 12:12N 32°01' E 119°58'97149.4
2016-Jun-24 11:33N 31°00' E 121°26'434156416.2
2016-Jun-24 11:33N 24°25' E 118°04'466209699.2
2016-Jun-24 11:33N 31°59' E 120°01'9127199.0
2016-Jun-24 11:33N 31°07' E 121°28'23337.6
2016-Jun-24 11:29N 31°30' E 121°24'0 3.0
2016-Jun-24 11:26N 31°30' E 121°25'33873.3
2016-Jun-24 11:24N 30°58' E 121°14'6443258.5
2016-Jun-24 11:12N 22°28' E 113°54'257404.6
2016-Jun-24 10:34N 24°25' E 118°04'43423002.1
2016-Jun-24 10:32N 31°00' E 121°26'291236.6
2016-Jun-24 10:31N 31°30' E 121°24'046.6
2016-Jun-24 10:31N 31°30' E 121°25'312515.1
2016-Jun-24 10:30N 30°59' E 121°19'647105803.9
2016-Jun-24 10:30N 22°28' E 113°54'6589328.8
2016-Jun-24 10:25N 31°57' E 120°07'721853.9
2016-Jun-24 10:23N 31°30' E 121°25'4573878.0
2016-Jun-24 10:16N 24°22' E 118°24'437120991.2
2016-Jun-24 10:16N 31°07' E 121°28'7 9.7
2016-Jun-24 09:33N 31°00' E 121°26'435391055.4
2016-Jun-24 09:33N 24°24' E 118°04'43386574.6
2016-Jun-24 09:33N 30°60' E 121°24'432518559.2
2016-Jun-24 09:33N 24°20' E 118°17'46736517.7
2016-Jun-24 09:32N 31°56' E 120°11'683011.0
2016-Jun-24 09:31N 31°30' E 121°24'248.6
2016-Jun-24 09:29N 31°30' E 121°22'6904501.0
2016-Jun-24 09:19N 22°10' E 113°50'669875.0
2016-Jun-24 08:33N 31°00' E 121°26'435195532.7
2016-Jun-24 08:33N 24°24' E 118°04'462277089.2
2016-Jun-24 08:33N 31°33' E 121°20'46321645.7
2016-Jun-24 08:32N 24°22' E 118°08'4425236.4
2016-Jun-24 08:27N 31°07' E 121°28'2287.4
2016-Jun-24 08:12N 31°29' E 121°25'460724.9
2016-Jun-24 07:34N 24°24' E 118°04'435782120.7
2016-Jun-24 07:33N 31°00' E 121°26'435522535.1
2016-Jun-24 07:33N 24°25' E 118°00'46426511.0
2016-Jun-24 07:32N 31°35' E 121°17'183850.1
2016-Jun-24 07:32N 31°21' E 121°31'28620.6
2016-Jun-24 07:29N 31°42' E 121°09'26419.8
2016-Jun-24 07:26N 31°22' E 121°30'9317.3
2016-Jun-24 07:24N 31°30' E 121°24'63751.1
2016-Jun-24 07:19N 31°58' E 120°19'568.3
2016-Jun-24 07:14N 31°57' E 120°13'75831.5
2016-Jun-24 07:09N 31°25' E 121°32'2540.0
2016-Jun-24 06:32N 31°01' E 121°27'21392.8
2016-Jun-24 06:28N 31°21' E 121°31'30102.9
2016-Jun-24 06:11N 31°43' E 121°08'4628.0
2016-Jun-24 04:33N 31°00' E 121°26'434312832.3
2016-Jun-24 04:33N 24°25' E 118°04'119142734.6
2016-Jun-24 04:33N 25°58' E 119°25'36931603.8
2016-Jun-24 04:33N 22°57' E 113°32'663238791.5
2016-Jun-24 04:32N 31°31' E 121°24'278.5
2016-Jun-24 04:31N 31°29' E 121°25'135.6
2016-Jun-24 04:30N 31°30' E 121°24'8450.0
2016-Jun-24 04:29N 31°25' E 121°32'49438668.7
2016-Jun-24 04:28N 39°04' E 117°49'51059176.7
2016-Jun-24 04:27N 31°07' E 121°28'1479.3
2016-Jun-24 04:17N 31°21' E 121°31'498.6
2016-Jun-24 04:14N 31°22' E 121°35'545.9
2016-Jun-24 04:08N 31°22' E 121°30'9161.0
2016-Jun-24 04:05N 31°30' E 121°25'965426.7
2016-Jun-24 04:04N 29°58' E 121°59'393771.2
2016-Jun-24 03:33N 24°25' E 118°04'434156418.1
2016-Jun-24 03:33N 31°00' E 121°26'224225.9
2016-Jun-24 03:33N 31°23' E 121°30'65746409.5
2016-Jun-24 03:32N 23°02' E 113°31'66033926.3
2016-Jun-24 03:31N 31°29' E 121°25'181.6
2016-Jun-24 03:30N 31°30' E 121°24'41264.0
2016-Jun-24 03:30N 31°28' E 121°28'9813556.8
2016-Jun-24 03:30N 29°56' E 122°06'100882.4
2016-Jun-24 03:23N 31°30' E 121°25'232250.9
2016-Jun-24 03:22N 31°07' E 121°28'44430751.3
2016-Jun-24 03:21N 24°24' E 117°57'4662574.9
2016-Jun-24 03:10N 31°55' E 120°11'464752.2
2016-Jun-24 02:33N 24°25' E 118°04'434782090.6
2016-Jun-24 02:33N 31°00' E 121°26'80143449.7
2016-Jun-24 02:33N 29°48' E 122°05'61917697.7
2016-Jun-24 02:31N 22°48' E 113°37'66892458.6
2016-Jun-24 02:31N 31°26' E 121°30'658.2
2016-Jun-24 02:25N 31°30' E 121°24'8383.7
2016-Jun-24 02:24N 31°25' E 121°32'53851077099.9
2016-Jun-24 02:23N 49°18' W 123°02'6184473688.0
2016-Jun-24 02:23N 23°06' E 113°27'65911979.8
2016-Jun-24 02:19N 31°28' E 121°26'2244.5
2016-Jun-24 02:19N 31°29' E 121°25'1 4.7
2016-Jun-24 02:06N 31°29' E 121°24'1222.3
2016-Jun-24 01:33N 31°22' E 121°35'663216937.4
2016-Jun-24 01:33N 22°55' E 113°36'26267301.1
2016-Jun-24 01:33N 24°24' E 118°04'435521427.0
2016-Jun-24 01:33N 31°00' E 121°26'291477.8
2016-Jun-24 01:32N 31°30' E 121°25'259956.4
2016-Jun-24 01:32N 31°05' E 121°28'9012053.8
2016-Jun-24 01:31N 29°41' E 122°07'61164696.9
2016-Jun-24 01:31N 23°06' E 113°27'657118262.3
2016-Jun-24 01:30N 31°21' E 121°33'148393.2
2016-Jun-24 01:30N 31°07' E 121°28'5404397015.1
2016-Jun-24 01:29N 49°18' W 123°02'5387395805.9
2016-Jun-24 01:29N 31°24' E 121°31'7181.6
2016-Jun-24 01:26N 31°29' E 121°25'017.4
2016-Jun-24 01:25N 31°29' E 121°25'692.6
2016-Jun-24 01:21N 31°33' E 121°19'5118.0
2016-Jun-24 01:18N 31°30' E 121°24'885.5
2016-Jun-24 01:12N 31°25' E 121°32'459711.6
2016-Jun-24 00:33N 24°24' E 118°04'435130446.8
2016-Jun-24 00:33N 31°01' E 121°27'63953486.6
2016-Jun-24 00:33N 23°06' E 113°27'6382298519.6
2016-Jun-24 00:33N 31°00' E 121°26'54111947816.7
2016-Jun-24 00:32N 49°18' W 123°02'53891141142.5
2016-Jun-24 00:32N 31°32' E 121°21'498446.8
2016-Jun-24 00:32N 32°02' E 120°35'543289.5
2016-Jun-24 00:31N 31°29' E 121°25'22973.8
2016-Jun-24 00:29N 31°07' E 121°28'23935.1
2016-Jun-24 00:28N 31°30' E 121°24'11323977.8
2016-Jun-24 00:28N 29°42' E 122°05'15416278.3
2016-Jun-24 00:27N 32°00' E 120°47'52684.5
2016-Jun-24 00:23N 31°25' E 121°32'8175.1
2016-Jun-24 00:20N 31°30' E 121°25'831.1
2016-Jun-24 00:04N 31°24' E 121°32'2447.3
2016-Jun-23 23:33N 31°00' E 121°26'248527.2
2016-Jun-23 23:33N 31°24' E 121°32'87427.3
2016-Jun-23 23:33N 31°30' E 121°25'461184230.2
2016-Jun-23 23:33N 24°24' E 118°04'455818812.2
2016-Jun-23 23:33N 31°21' E 121°31'98354168.1
2016-Jun-23 23:33N 29°47' E 122°04'1527831.1
2016-Jun-23 23:32N 32°00' E 120°38'5397266140.6
2016-Jun-23 23:31N 49°18' W 123°02'5388746000.4
2016-Jun-23 23:30N 31°30' E 121°24'183.8
2016-Jun-23 23:30N 31°29' E 121°25'50915262.6
2016-Jun-23 23:28N 23°41' E 117°40'49014692.6
2016-Jun-23 23:26N 31°07' E 121°28'6443285.2
2016-Jun-23 23:14N 23°06' E 113°27'2603348.7
2016-Jun-23 23:09N 24°24' E 117°58'399661.5
2016-Jun-23 22:33N 29°55' E 122°07'8026149.1
2016-Jun-23 22:33N 31°07' E 121°28'7466.7
2016-Jun-23 22:32N 31°00' E 121°26'8921.9
2016-Jun-23 22:32N 31°08' E 121°27'656158.8
2016-Jun-23 22:31N 32°01' E 120°42'47711918.5
2016-Jun-23 22:28N 24°24' E 118°04'46069049.1
2016-Jun-23 22:28N 31°30' E 121°24'67667629.2
2016-Jun-23 22:27N 22°28' E 113°50'655168493.7
2016-Jun-23 22:27N 31°16' E 121°04'61658.0
2016-Jun-23 22:22N 31°56' E 120°10'694209.9
2016-Jun-23 22:21N 31°30' E 121°25'452274.8
2016-Jun-23 22:20N 32°01' E 120°47'48122469.8
2016-Jun-23 22:18N 24°24' E 117°58'4517546.1
2016-Jun-23 22:15N 30°57' E 122°08'6615346.1
2016-Jun-23 22:07N 23°06' E 113°27'62386268.0
2016-Jun-23 22:07N 31°01' E 120°59'371096.8
2016-Jun-23 22:05N 31°25' E 121°32'2343.7
2016-Jun-23 21:33N 31°03' E 121°29'275462.6
2016-Jun-23 21:33N 31°30' E 121°24'460165719.8
2016-Jun-23 21:33N 24°24' E 118°04'435391070.3
2016-Jun-23 21:33N 31°00' E 121°26'231064.7
2016-Jun-23 21:32N 31°17' E 121°07'233952.4
2016-Jun-23 21:31N 31°25' E 121°32'660107990.7
2016-Jun-23 21:31N 23°06' E 113°27'61392003.6
2016-Jun-23 21:31N 29°57' E 121°55'1504377.8
2016-Jun-23 21:28N 31°56' E 120°10'692300.2
2016-Jun-23 21:27N 31°30' E 121°25'46311347.3
2016-Jun-23 21:24N 24°24' E 117°57'430140781.4
2016-Jun-23 21:24N 31°02' E 121°03'471558.9
2016-Jun-23 20:33N 38°52' E 121°32'4711697139.6
2016-Jun-23 20:33N 31°00' E 121°26'4356545.1
2016-Jun-23 20:29N 24°24' E 118°04'45968856.1
2016-Jun-23 20:29N 31°25' E 121°32'81043.9
2016-Jun-23 20:29N 31°29' E 121°25'2814337.2
2016-Jun-23 20:29N 31°02' E 121°29'18176.7
2016-Jun-23 20:22N 30°60' E 121°08'33361.4
2016-Jun-23 20:17N 31°30' E 121°24'65917695.4
2016-Jun-23 20:15N 23°05' E 113°27'2662471.8
2016-Jun-23 20:08N 24°14' E 118°09'443764.1
2016-Jun-23 19:33N 31°00' E 121°26'43787496.7
2016-Jun-23 19:33N 24°24' E 117°57'62044.3
2016-Jun-23 19:33N 24°24' E 118°04'4608815.7
2016-Jun-23 19:30N 31°30' E 121°24'1017202.3
2016-Jun-23 19:30N 31°25' E 121°34'33800.7
2016-Jun-23 19:27N 30°57' E 121°12'629452641.3
2016-Jun-23 19:27N 22°57' E 113°37'64241250.4
2016-Jun-23 19:26N 31°02' E 121°29'24640.3
2016-Jun-23 19:24N 31°25' E 121°32'9135840.0
2016-Jun-23 19:15N 20°11' E 110°08'91252116.4
2016-Jun-23 19:14N 31°30' E 121°25'6595558.2
2016-Jun-23 19:07N 23°05' E 113°27'10341877.9
2016-Jun-23 18:34N 38°52' E 121°33'47199773.4
2016-Jun-23 18:33N 31°00' E 121°26'910669.3
2016-Jun-23 18:33N 30°57' E 121°17'42839532.9
2016-Jun-23 18:33N 24°25' E 118°04'45935154.7
2016-Jun-23 18:32N 31°25' E 121°32'243703.3
2016-Jun-23 18:31N 31°02' E 121°29'88982101.2
2016-Jun-23 18:31N 20°12' E 110°15'907326351.6
2016-Jun-23 18:31N 31°30' E 121°24'67489874.0
2016-Jun-23 18:30N 22°29' E 113°53'6609902.0
2016-Jun-23 18:26N 31°56' E 120°13'66396.1
2016-Jun-23 18:16N 31°30' E 121°25'16118.0
2016-Jun-23 18:08N 31°41' E 121°11'251660.0
2016-Jun-23 18:07N 31°25' E 121°34'2544.6
2016-Jun-23 17:33N 31°00' E 121°26'47070552.1
2016-Jun-23 17:33N 38°51' E 121°33'417136421.1
2016-Jun-23 17:33N 31°58' E 120°20'513935.6
2016-Jun-23 17:32N 31°38' E 121°16'5649.1
2016-Jun-23 17:32N 31°41' E 121°12'422879.9
2016-Jun-23 17:31N 31°02' E 121°29'65556130.2
2016-Jun-23 17:30N 22°29' E 113°53'67432362.8
2016-Jun-23 17:29N 31°29' E 121°25'93180.1
2016-Jun-23 17:29N 31°22' E 121°30'6568529.5
2016-Jun-23 17:24N 23°05' E 113°27'26627347.5
2016-Jun-23 17:24N 24°25' E 118°04'4656108.6
2016-Jun-23 17:19N 31°57' E 120°04'4671944.6
2016-Jun-23 17:05N 24°24' E 117°58'611.3
2016-Jun-23 16:33N 24°25' E 118°04'460110461.7
2016-Jun-23 16:33N 31°29' E 121°25'36138.4
2016-Jun-23 16:33N 31°32' E 121°22'439197497.3
2016-Jun-23 16:33N 38°51' E 121°33'47084646.0
2016-Jun-23 16:32N 31°00' E 121°26'43474372.3
2016-Jun-23 16:32N 24°26' E 118°02'46487862.6
2016-Jun-23 16:32N 31°37' E 121°17'9633.4
2016-Jun-23 16:31N 31°30' E 121°23'296494.2
2016-Jun-23 16:31N 31°02' E 121°29'231092.6
2016-Jun-23 16:29N 31°25' E 121°34'3699.3
2016-Jun-23 16:29N 31°25' E 121°31'24472.9
2016-Jun-23 16:26N 31°41' E 121°11'6604289.3
2016-Jun-23 16:17N 23°05' E 113°27'65943924.6
2016-Jun-23 16:16N 31°30' E 121°24'441613.1
2016-Jun-23 15:33N 38°50' E 121°32'437174862.0
2016-Jun-23 15:33N 31°33' E 121°20'334416.0
2016-Jun-23 15:32N 31°00' E 121°26'3228775.5
2016-Jun-23 15:32N 31°32' E 121°20'461207518.2
2016-Jun-23 15:32N 24°25' E 118°04'43610474.1
2016-Jun-23 15:30N 31°02' E 121°29'252738.8
2016-Jun-23 15:29N 31°27' E 121°29'31108.5
2016-Jun-23 15:29N 31°25' E 121°32'248781.1
2016-Jun-23 15:29N 31°41' E 121°11'26870.3
2016-Jun-23 15:27N 31°25' E 121°34'6618648.5
2016-Jun-23 15:22N 23°05' E 113°27'659112943.0
2016-Jun-23 15:22N 31°30' E 121°24'441544.3
2016-Jun-23 14:33N 38°51' E 121°33'44140668.9
2016-Jun-23 14:33N 31°30' E 121°23'829874.0
2016-Jun-23 14:33N 31°36' E 121°17'3743941.9
2016-Jun-23 14:33N 31°00' E 121°26'432617.5
2016-Jun-23 14:32N 31°41' E 121°11'171076.4
2016-Jun-23 14:31N 31°29' E 121°25'158.5
2016-Jun-23 14:30N 31°30' E 121°24'65918674.1
2016-Jun-23 14:28N 23°05' E 113°27'6407682.5
2016-Jun-23 14:23N 31°56' E 120°10'871542.8
2016-Jun-23 14:19N 31°02' E 121°29'24146.9
2016-Jun-23 14:10N 31°25' E 121°32'2964527.6
2016-Jun-23 14:06N 26°46' E 119°42'30432148.4
2016-Jun-23 14:05N 31°39' E 121°13'432808.7
2016-Jun-23 13:33N 38°51' E 121°33'44816609.3
2016-Jun-23 13:32N 31°23' E 121°30'236936.9
2016-Jun-23 13:31N 31°00' E 121°26'8872.8
2016-Jun-23 13:31N 30°58' E 121°18'414463.9
2016-Jun-23 13:30N 31°39' E 121°13'3685.8
2016-Jun-23 13:30N 31°41' E 121°11'164791.5
2016-Jun-23 13:30N 31°30' E 121°24'282673.3
2016-Jun-23 13:29N 31°02' E 121°29'2719960.6
2016-Jun-23 13:28N 26°47' E 119°43'296152314.8
2016-Jun-23 13:27N 31°29' E 121°25'659158159.5
2016-Jun-23 13:27N 23°05' E 113°27'66014491.3
2016-Jun-23 13:24N 31°25' E 121°32'24792.6
2016-Jun-23 13:23N 31°41' E 121°11'430511.5
2016-Jun-23 12:32N 38°51' E 121°33'47311743.5
2016-Jun-23 12:30N 30°58' E 121°18'81214.3
2016-Jun-23 12:29N 31°00' E 121°26'2258.5
2016-Jun-23 12:29N 31°02' E 121°29'282118.5
2016-Jun-23 12:28N 31°30' E 121°24'1168.6
2016-Jun-23 12:28N 31°30' E 121°23'15365.0
2016-Jun-23 12:25N 31°41' E 121°11'232276.3
2016-Jun-23 12:25N 31°25' E 121°31'174.6
2016-Jun-23 12:24N 31°25' E 121°32'25448.6
2016-Jun-23 12:20N 31°41' E 121°10'22149.1
2016-Jun-23 12:11N 31°57' E 120°52'64100.9
2016-Jun-23 11:34N 31°00' E 121°26'213627.1
2016-Jun-23 11:33N 31°21' E 121°31'102212.7
2016-Jun-23 11:33N 31°30' E 121°24'161375.0
2016-Jun-23 11:32N 31°41' E 121°10'17510.2
2016-Jun-23 11:30N 31°29' E 121°25'32947.7
2016-Jun-23 11:28N 30°58' E 121°18'431756.4
2016-Jun-23 11:27N 31°40' E 121°11'42977.7
2016-Jun-23 11:24N 31°02' E 121°29'43768358.8
2016-Jun-23 11:24N 24°23' E 118°06'4278983.3
2016-Jun-23 11:21N 30°57' E 121°12'42622571.3
2016-Jun-23 11:20N 24°25' E 118°04'2661654.7
2016-Jun-23 11:10N 23°06' E 113°27'98415473.9
2016-Jun-23 11:06N 39°05' E 117°46'9221683.8
2016-Jun-23 10:33N 23°43' E 117°36'4831739194.0
2016-Jun-23 10:33N 31°00' E 121°26'4341564182.0
2016-Jun-23 10:33N 24°25' E 118°04'46688325.3
2016-Jun-23 10:33N 31°41' E 121°10'4339009.2
2016-Jun-23 10:33N 30°58' E 121°18'32954.3
2016-Jun-23 10:31N 31°30' E 121°24'332939.3
2016-Jun-23 10:30N 30°58' E 121°16'1221683.7
2016-Jun-23 10:30N 31°02' E 121°29'51588209.1
2016-Jun-23 10:30N 39°04' E 117°50'98426443.7
2016-Jun-23 10:28N 23°06' E 113°27'26715502.9
2016-Jun-23 10:27N 24°23' E 118°06'4618333.4
2016-Jun-23 10:23N 31°29' E 121°25'8155.0
2016-Jun-23 10:20N 31°24' E 121°33'311.0
2016-Jun-23 10:06N 31°24' E 121°36'2852.3
2016-Jun-23 09:33N 30°59' E 121°21'515185402.8
2016-Jun-23 09:33N 39°04' E 117°50'514308698.1
2016-Jun-23 09:33N 30°59' E 121°20'63369094.3
2016-Jun-23 09:33N 23°05' E 113°28'659103172.0
2016-Jun-23 09:32N 31°41' E 121°10'4351241.9
2016-Jun-23 09:32N 31°00' E 121°26'435313330.9
2016-Jun-23 09:32N 24°22' E 118°08'4233.1
2016-Jun-23 09:31N 24°24' E 118°04'436120861.1
2016-Jun-23 09:31N 31°02' E 121°29'5124.4
2016-Jun-23 09:29N 31°07' E 121°27'23606.5
2016-Jun-23 09:26N 31°29' E 121°25'69223.6
2016-Jun-23 09:08N 31°56' E 120°10'5494.0
2016-Jun-23 08:33N 31°41' E 121°11'4311859.4
2016-Jun-23 08:33N 31°01' E 121°26'28712.1
2016-Jun-23 08:33N 31°02' E 121°29'436196404.3
2016-Jun-23 08:33N 24°24' E 118°04'43597765.1
2016-Jun-23 08:33N 31°00' E 121°26'1363.5
2016-Jun-23 08:33N 31°00' E 121°26'101235.3
2016-Jun-23 08:32N 31°10' E 121°28'584096.6
2016-Jun-23 08:31N 31°58' E 120°51'47833714.1
2016-Jun-23 08:31N 24°21' E 118°14'27110620.8
2016-Jun-23 08:29N 23°00' E 113°31'66116988.7
2016-Jun-23 08:27N 31°29' E 121°25'4577447.4
2016-Jun-23 08:23N 24°28' E 118°04'4575715.5
2016-Jun-23 08:18N 31°30' E 121°24'22964.7
2016-Jun-23 08:17N 31°08' E 121°28'0 6.2
2016-Jun-23 08:12N 31°07' E 121°28'6501000.3
2016-Jun-23 07:33N 22°55' E 113°30'645331535.9
2016-Jun-23 07:33N 31°00' E 121°26'52157.9
2016-Jun-23 07:33N 31°05' E 121°28'436130856.5
2016-Jun-23 07:33N 24°22' E 118°20'115523.4
2016-Jun-23 07:33N 24°26' E 118°09'435195722.5
2016-Jun-23 07:33N 31°03' E 121°28'438157625.1
2016-Jun-23 07:33N 24°24' E 118°04'467240054.7
2016-Jun-23 07:32N 31°41' E 121°11'404948.4
2016-Jun-23 07:32N 31°04' E 121°28'3291.9
2016-Jun-23 07:31N 31°02' E 121°29'465360.3
2016-Jun-23 07:31N 31°44' E 121°07'205446.1
2016-Jun-23 07:31N 31°30' E 121°23'1 6.9
2016-Jun-23 07:22N 31°30' E 121°24'8574.1
2016-Jun-23 07:21N 31°25' E 121°32'418.2
2016-Jun-23 07:06N 31°21' E 121°33'4 2.7
2016-Jun-23 05:33N 31°25' E 121°34'2615797.1
2016-Jun-23 05:33N 30°60' E 121°24'21510.1
2016-Jun-23 05:33N 31°00' E 121°26'43434001.4
2016-Jun-23 05:33N 24°25' E 118°04'456149389.1
2016-Jun-23 05:32N 31°23' E 121°30'67134047.7
2016-Jun-23 05:31N 22°53' E 113°19'655214341.8
2016-Jun-23 05:31N 31°02' E 121°29'7014917.9
2016-Jun-23 05:31N 29°57' E 122°00'984532.2
2016-Jun-23 05:29N 31°30' E 121°23'139663.8
2016-Jun-23 05:29N 31°19' E 121°33'6159.3
2016-Jun-23 05:27N 31°14' E 121°30'243488.5
2016-Jun-23 05:27N 31°36' E 121°18'8449.8
2016-Jun-23 05:25N 31°41' E 121°11'241460.3
2016-Jun-23 05:24N 31°25' E 121°32'181687.9
2016-Jun-23 05:24N 31°07' E 121°28'6112.3
2016-Jun-23 05:20N 31°01' E 121°30'4 4.5
2016-Jun-23 04:34N 31°00' E 121°26'2449.5
2016-Jun-23 04:33N 31°02' E 121°29'286789.8
2016-Jun-23 04:33N 31°30' E 121°24'450270121.2
2016-Jun-23 04:33N 24°33' E 118°11'44780544.5
2016-Jun-23 04:33N 31°23' E 121°33'45848458.4
2016-Jun-23 04:32N 24°25' E 118°04'39388451.9
2016-Jun-23 04:32N 29°52' E 122°08'9870570.7
2016-Jun-23 04:32N 31°25' E 121°32'4615.8
2016-Jun-23 04:31N 31°21' E 121°32'111149.7
2016-Jun-23 04:31N 31°29' E 121°25'17533.4
2016-Jun-23 04:29N 31°41' E 121°11'143230.2
2016-Jun-23 04:28N 31°31' E 121°23'10562.2
2016-Jun-23 04:27N 31°23' E 121°30'162473.7
2016-Jun-23 04:27N 31°07' E 121°28'13671.8
2016-Jun-23 04:26N 30°58' E 121°18'111194.5
2016-Jun-23 04:25N 31°01' E 121°30'29933.1
2016-Jun-23 04:23N 31°30' E 121°23'6657394.2
2016-Jun-23 04:18N 22°52' E 113°33'65923045.4
2016-Jun-23 04:16N 32°01' E 120°24'81113.3
2016-Jun-23 03:33N 31°02' E 121°29'21423.4
2016-Jun-23 03:33N 31°00' E 121°26'239038.3
2016-Jun-23 03:33N 31°23' E 121°30'217643.5
2016-Jun-23 03:33N 31°02' E 121°29'281817.0
2016-Jun-23 03:32N 31°30' E 121°24'625574.0
2016-Jun-23 03:31N 31°58' E 120°20'46984425.6
2016-Jun-23 03:31N 24°25' E 118°04'46713771.1
2016-Jun-23 03:29N 31°41' E 121°11'16413.7
2016-Jun-23 03:27N 31°30' E 121°23'365.7
2016-Jun-23 03:24N 31°28' E 121°27'1122256.7
2016-Jun-23 03:21N 29°41' E 122°05'1076136.7
2016-Jun-23 03:20N 31°25' E 121°32'66811027.5
2016-Jun-23 03:16N 22°54' E 113°30'66722644.8
2016-Jun-23 03:14N 31°29' E 121°25'635793.9
2016-Jun-23 03:14N 31°58' E 120°19'3142524.9
2016-Jun-23 03:06N 26°45' E 119°43'271492.8
2016-Jun-23 02:33N 31°00' E 121°26'21067.5
2016-Jun-23 02:33N 31°02' E 121°29'647155336.8
2016-Jun-23 02:33N 22°55' E 113°30'665299307.4
2016-Jun-23 02:33N 31°33' E 121°20'11820258.0
2016-Jun-23 02:33N 29°42' E 122°07'167200198.6
2016-Jun-23 02:32N 31°56' E 120°11'68245785.7
2016-Jun-23 02:32N 31°29' E 121°25'171091.9
2016-Jun-23 02:32N 31°41' E 121°11'669267597.4
2016-Jun-23 02:31N 22°55' E 113°27'2789916.8
2016-Jun-23 02:30N 24°36' E 118°10'44831606.0
2016-Jun-23 02:29N 31°30' E 121°24'91626.5
2016-Jun-23 02:29N 31°22' E 121°30'496198229.0
2016-Jun-23 02:28N 39°04' E 117°50'8799862.8
2016-Jun-23 02:23N 24°25' E 118°04'45915021.5
2016-Jun-23 02:21N 31°25' E 121°32'761086.2
2016-Jun-23 02:17N 31°56' E 120°11'79417.2
2016-Jun-23 02:06N 31°23' E 121°35'3318.8
2016-Jun-23 02:05N 31°24' E 121°32'422795.3
2016-Jun-23 01:33N 24°45' E 118°54'445865.9
2016-Jun-23 01:33N 24°26' E 118°11'43277845.7
2016-Jun-23 01:32N 31°02' E 121°29'2219568.7
2016-Jun-23 01:32N 31°23' E 121°30'2341650.7
2016-Jun-23 01:32N 31°00' E 121°26'43492010.7
2016-Jun-23 01:32N 24°25' E 118°04'455233928.7
2016-Jun-23 01:32N 31°21' E 121°31'10025701.6
2016-Jun-23 01:32N 29°45' E 122°03'1239450.0
2016-Jun-23 01:31N 31°40' E 121°12'66149561.9
2016-Jun-23 01:30N 23°01' E 113°31'66136067.3
2016-Jun-23 01:29N 31°41' E 121°11'244818.0
2016-Jun-23 01:29N 31°24' E 121°31'7691.6
2016-Jun-23 01:28N 31°29' E 121°25'84501.3
2016-Jun-23 01:28N 31°25' E 121°32'2964020.4
2016-Jun-23 01:24N 26°45' E 119°43'29225010.4
2016-Jun-23 01:23N 31°21' E 121°31'49763845.7
2016-Jun-23 01:22N 39°04' E 117°50'487134781.1
2016-Jun-23 01:22N 31°30' E 121°24'460567.0
2016-Jun-23 00:33N 24°24' E 118°04'459137723.1
2016-Jun-23 00:33N 31°25' E 121°34'106885.5
2016-Jun-23 00:33N 31°30' E 121°24'4201511868.4
2016-Jun-23 00:33N 24°50' E 118°59'393141490.7
2016-Jun-23 00:33N 31°00' E 121°26'43866.7
2016-Jun-23 00:30N 31°41' E 121°11'12061875.6
2016-Jun-23 00:30N 29°51' E 122°07'99177675.9
2016-Jun-23 00:30N 31°25' E 121°32'8442.8
2016-Jun-23 00:29N 31°29' E 121°25'281282.8
2016-Jun-23 00:28N 31°02' E 121°29'28499.4
2016-Jun-23 00:24N 31°29' E 121°25'65818230.9
2016-Jun-23 00:22N 23°04' E 113°30'6306265.0
2016-Jun-23 00:16N 30°58' E 121°16'428604.1
2016-Jun-22 23:34N 24°24' E 118°04'435223465.9
2016-Jun-22 23:33N 31°00' E 121°26'324869.7
2016-Jun-22 23:33N 31°32' E 121°20'159252.3
2016-Jun-22 23:33N 31°23' E 121°34'179214553.6
2016-Jun-22 23:33N 31°25' E 118°05'171123048.8
2016-Jun-22 23:33N 31°29' E 121°25'10423476.3
2016-Jun-22 23:32N 29°51' E 122°07'1208997.8
2016-Jun-22 23:32N 31°41' E 121°11'428984.4
2016-Jun-22 23:31N 31°02' E 121°29'9205.5
2016-Jun-22 23:29N 30°58' E 121°18'29375.9
2016-Jun-22 23:24N 31°25' E 121°32'8275.3
2016-Jun-22 23:22N 31°30' E 121°24'68686.2
2016-Jun-22 23:16N 31°56' E 120°10'542027253.0
2016-Jun-22 23:04N 49°18' W 123°02'538810496.3
2016-Jun-22 22:33N 31°37' E 121°15'54525.2
2016-Jun-22 22:33N 31°41' E 121°11'467280028.0
2016-Jun-22 22:33N 24°24' E 118°04'420216220.2
2016-Jun-22 22:33N 31°25' E 118°06'15615639.0
2016-Jun-22 22:33N 31°42' E 121°08'12187430.6
2016-Jun-22 22:32N 29°51' E 122°07'776804.1
2016-Jun-22 22:32N 31°00' E 121°26'64666432.5
2016-Jun-22 22:31N 22°53' E 113°31'64841643.7
2016-Jun-22 22:30N 31°17' E 121°09'23366.1
2016-Jun-22 22:27N 31°02' E 121°29'201989.0
2016-Jun-22 22:26N 31°22' E 121°29'3125.3
2016-Jun-22 22:24N 31°21' E 121°33'65720917.7
2016-Jun-22 22:22N 23°04' E 113°30'6597273.2
2016-Jun-22 22:17N 31°29' E 121°25'110.7
2016-Jun-22 22:12N 31°30' E 121°24'0 2.3
2016-Jun-22 22:07N 31°30' E 121°24'8217.0
2016-Jun-22 22:05N 31°25' E 121°32'1018.8
2016-Jun-22 21:33N 31°15' E 121°32'450124609.7
2016-Jun-22 21:33N 24°24' E 118°04'46742004.7
2016-Jun-22 21:33N 31°41' E 121°11'116104790.9
2016-Jun-22 21:32N 29°55' E 122°06'748605.3
2016-Jun-22 21:32N 31°02' E 121°29'2777.4
2016-Jun-22 21:32N 31°00' E 121°26'4417554.6
2016-Jun-22 21:32N 31°42' E 121°09'66796048.9
2016-Jun-22 21:31N 22°53' E 113°31'66435170.8
2016-Jun-22 21:30N 31°21' E 121°33'12552.3
2016-Jun-22 21:29N 31°30' E 121°24'1832.3
2016-Jun-22 21:29N 31°29' E 121°25'111.1
2016-Jun-22 21:25N 31°30' E 121°24'4703156.2
2016-Jun-22 21:16N 24°13' E 118°09'4258.7
2016-Jun-22 20:33N 23°42' E 117°38'4914621.7
2016-Jun-22 20:33N 24°24' E 118°04'392117529.8
2016-Jun-22 20:33N 29°57' E 121°57'97173763.2
2016-Jun-22 20:33N 31°30' E 121°24'292351.4
2016-Jun-22 20:32N 31°00' E 121°26'2917534.6
2016-Jun-22 20:32N 31°30' E 121°24'28916.4
2016-Jun-22 20:30N 31°02' E 121°29'66745.3
2016-Jun-22 20:30N 31°07' E 121°28'3716673.3
2016-Jun-22 20:30N 31°41' E 121°11'28727.7
2016-Jun-22 20:28N 31°20' E 121°33'4647395.1
2016-Jun-22 20:24N 24°12' E 118°09'47012622.7
2016-Jun-22 20:22N 31°29' E 121°25'13500.6
2016-Jun-22 20:20N 31°18' E 121°33'227.3
2016-Jun-22 20:16N 31°19' E 121°34'452633.5
2016-Jun-22 19:34N 38°52' E 121°33'47180803.3
2016-Jun-22 19:33N 31°00' E 121°26'43592017.7
2016-Jun-22 19:33N 24°24' E 118°04'46626238.9
2016-Jun-22 19:32N 31°42' E 121°08'1864664.3
2016-Jun-22 19:32N 31°30' E 121°24'18599.6
2016-Jun-22 19:30N 31°13' E 121°30'11315.6
2016-Jun-22 19:28N 31°02' E 121°29'432125.7
2016-Jun-22 19:27N 31°41' E 121°11'37167.2
2016-Jun-22 19:13N 31°07' E 121°28'710.2
2016-Jun-22 18:33N 31°00' E 121°26'135103.2
2016-Jun-22 18:33N 31°13' E 121°30'447123801.3
2016-Jun-22 18:33N 24°24' E 118°04'467420058.6
2016-Jun-22 18:33N 31°41' E 121°11'431221455.6
2016-Jun-22 18:33N 38°51' E 121°33'47019005.2
2016-Jun-22 18:31N 31°02' E 121°29'28148.8
2016-Jun-22 18:20N 31°29' E 121°25'11157.4
2016-Jun-22 18:20N 31°30' E 121°24'9249.1
2016-Jun-22 18:18N 31°25' E 121°32'8710.7
2016-Jun-22 18:17N 31°30' E 121°24'18302.6
2016-Jun-22 18:13N 31°42' E 121°08'39354368.5
2016-Jun-22 18:13N 25°18' E 119°33'17038290.9
2016-Jun-22 18:13N 22°33' E 120°17'5336524.8
2016-Jun-22 18:08N 31°22' E 121°29'6137.0
2016-Jun-22 18:05N 31°18' E 121°33'812847.1
2016-Jun-22 18:04N 31°56' E 120°10'465925.6
2016-Jun-22 17:33N 24°25' E 118°04'884167418.7
2016-Jun-22 17:33N 38°50' E 121°32'457411730.7
2016-Jun-22 17:33N 31°13' E 121°30'1311482.2
2016-Jun-22 17:33N 31°00' E 121°26'393071.1
2016-Jun-22 17:32N 31°38' E 121°15'404939.3
2016-Jun-22 17:32N 30°59' E 121°22'6175.3
2016-Jun-22 17:30N 31°02' E 121°29'431682.1
2016-Jun-22 17:28N 31°41' E 121°11'371803.5
2016-Jun-22 17:27N 31°07' E 121°28'23478.0
2016-Jun-22 17:24N 31°30' E 121°24'18817.0
2016-Jun-22 17:23N 31°42' E 121°08'262110.9
2016-Jun-22 17:22N 31°25' E 121°32'77956.5
2016-Jun-22 17:17N 31°56' E 120°10'794360.2
2016-Jun-22 17:16N 31°21' E 121°33'6208.2
2016-Jun-22 17:14N 31°15' E 121°32'7618.6
2016-Jun-22 17:14N 31°22' E 121°29'6146.7
2016-Jun-22 17:11N 31°18' E 121°33'66512797.3
2016-Jun-22 17:08N 22°55' E 113°25'271465.8
2016-Jun-22 16:33N 24°25' E 118°04'43450454.3
2016-Jun-22 16:33N 31°00' E 121°26'4330864.7
2016-Jun-22 16:33N 31°41' E 121°11'1210618.9
2016-Jun-22 16:33N 31°33' E 121°21'8740.0
2016-Jun-22 16:32N 31°39' E 121°14'342379.3
2016-Jun-22 16:31N 31°07' E 121°28'61264.7
2016-Jun-22 16:31N 31°02' E 121°29'135026.0
2016-Jun-22 16:31N 30°58' E 121°15'276999.9
2016-Jun-22 16:31N 31°20' E 121°32'45018619.7
2016-Jun-22 16:29N 38°50' E 121°33'44172109.7
2016-Jun-22 16:29N 31°30' E 121°24'993.7
2016-Jun-22 16:23N 31°22' E 121°29'9142.6
2016-Jun-22 16:20N 31°30' E 121°24'1 6.6
2016-Jun-22 16:13N 31°29' E 121°25'1290.6
2016-Jun-22 16:05N 31°19' E 121°34'454877.5
2016-Jun-22 15:33N 24°25' E 118°04'46387719.6
2016-Jun-22 15:33N 31°34' E 121°19'43626161.0
2016-Jun-22 15:32N 38°50' E 121°32'429118786.1
2016-Jun-22 15:32N 31°42' E 121°08'447564.2
2016-Jun-22 15:32N 31°00' E 121°26'291000.6
2016-Jun-22 15:30N 31°30' E 121°24'296840.4
2016-Jun-22 15:30N 31°02' E 121°29'213324.4
2016-Jun-22 15:29N 31°22' E 121°37'292579.6
2016-Jun-22 15:28N 31°41' E 121°11'17439.4
2016-Jun-22 15:26N 31°29' E 121°25'141138.0
2016-Jun-22 15:25N 31°18' E 121°33'6205.3
2016-Jun-22 15:24N 31°22' E 121°29'3158.9
2016-Jun-22 15:23N 31°21' E 121°33'12190.1
2016-Jun-22 15:19N 31°30' E 121°24'5110.8
2016-Jun-22 15:16N 31°27' E 121°29'4158.7
2016-Jun-22 15:15N 31°25' E 121°32'660182684.0
2016-Jun-22 15:15N 23°04' E 113°30'6426514.1
2016-Jun-22 15:09N 31°05' E 121°28'3 5.2
2016-Jun-22 14:33N 31°02' E 121°29'43637411.3
2016-Jun-22 14:33N 24°25' E 118°04'46738184.9
2016-Jun-22 14:32N 31°41' E 121°11'25734.0
2016-Jun-22 14:30N 31°23' E 121°30'1696.6
2016-Jun-22 14:20N 31°07' E 121°28'151575.1
2016-Jun-22 14:20N 31°22' E 121°29'9627.8
2016-Jun-22 14:19N 31°30' E 121°24'65816575.8
2016-Jun-22 14:17N 23°04' E 113°30'66033928.8
2016-Jun-22 14:15N 31°25' E 121°32'267926.8
2016-Jun-22 14:15N 31°42' E 121°08'42953262.3
2016-Jun-22 14:15N 38°50' E 121°33'44129377.0
2016-Jun-22 14:14N 31°30' E 121°24'113.6
2016-Jun-22 14:10N 31°29' E 121°25'2845.7
2016-Jun-22 13:33N 31°02' E 121°29'256443.1
2016-Jun-22 13:33N 31°26' E 121°25'458183025.3
2016-Jun-22 13:33N 24°24' E 118°04'46776370.7
2016-Jun-22 13:33N 31°41' E 121°11'436706.5
2016-Jun-22 13:32N 31°00' E 121°26'295288.5
2016-Jun-22 13:32N 31°30' E 121°24'9149.0
2016-Jun-22 13:28N 31°22' E 121°29'9170.9
2016-Jun-22 13:25N 31°30' E 121°24'67711504.3
2016-Jun-22 13:22N 22°48' E 113°19'19253.0
2016-Jun-22 13:17N 23°04' E 113°30'65926944.3
2016-Jun-22 13:16N 31°29' E 121°25'111176.3
2016-Jun-22 13:15N 31°21' E 121°33'6103.6
2016-Jun-22 13:12N 31°15' E 121°32'450702.0
2016-Jun-22 12:34N 24°25' E 118°04'43638320.8
2016-Jun-22 12:33N 31°02' E 121°29'192099.5
2016-Jun-22 12:32N 31°21' E 121°33'2819932.4
2016-Jun-22 12:32N 31°41' E 121°11'194520.3
2016-Jun-22 12:32N 31°26' E 121°25'31342.0
2016-Jun-22 12:32N 31°30' E 121°24'2917624.8
2016-Jun-22 12:32N 31°00' E 121°26'638287192.2
2016-Jun-22 12:32N 23°04' E 113°30'65815097.7
2016-Jun-22 12:29N 31°30' E 121°24'67563936.1
2016-Jun-22 12:28N 22°51' E 113°18'6725328.3
2016-Jun-22 12:21N 31°22' E 121°29'463.4
2016-Jun-22 12:17N 31°25' E 121°32'126.6
2016-Jun-22 12:14N 31°25' E 121°31'4456764.7
2016-Jun-22 12:10N 38°51' E 121°33'44217091.7
2016-Jun-22 12:08N 31°29' E 121°25'2949.9
2016-Jun-22 11:34N 31°00' E 121°26'434391045.5
2016-Jun-22 11:33N 24°25' E 118°04'46746668.5
2016-Jun-22 11:33N 31°41' E 121°11'386231.4
2016-Jun-22 11:32N 31°06' E 121°28'4629.4
2016-Jun-22 11:32N 31°02' E 121°29'281345.5
2016-Jun-22 11:31N 31°30' E 121°24'122332.0
2016-Jun-22 11:31N 31°21' E 121°33'241161.9
2016-Jun-22 11:29N 30°59' E 121°20'242512.5
2016-Jun-22 11:29N 31°22' E 121°30'65616290.0
2016-Jun-22 11:26N 23°04' E 113°29'121494.5
2016-Jun-22 11:26N 22°54' E 113°22'12354.9
2016-Jun-22 11:24N 23°04' E 113°30'66038934.2
2016-Jun-22 11:23N 31°25' E 121°32'886.4
2016-Jun-22 11:17N 31°30' E 121°24'166.7
2016-Jun-22 11:16N 31°29' E 121°25'884.5
2016-Jun-22 11:11N 31°22' E 121°29'455733.3
2016-Jun-22 10:33N 24°25' E 118°04'46727541.7
2016-Jun-22 10:32N 31°41' E 121°11'422181.4
2016-Jun-22 10:31N 31°02' E 121°29'65049787.8
2016-Jun-22 10:30N 22°55' E 113°26'6696957.8
2016-Jun-22 10:25N 31°40' E 121°11'265100.5
2016-Jun-22 10:24N 31°23' E 121°33'283481.0
2016-Jun-22 10:24N 31°42' E 121°08'381471.2
2016-Jun-22 10:22N 31°07' E 121°28'182269.8
2016-Jun-22 10:22N 31°25' E 121°32'4175.6
2016-Jun-22 10:20N 31°21' E 121°33'657118179.0
2016-Jun-22 10:20N 23°04' E 113°30'656181758.2
2016-Jun-22 10:20N 31°20' E 121°33'657236370.5
2016-Jun-22 10:20N 23°04' E 113°29'65922799.4
2016-Jun-22 10:18N 31°30' E 121°24'0 1.0
2016-Jun-22 10:06N 31°30' E 121°24'2954.4
2016-Jun-22 09:33N 31°00' E 121°26'435195525.2
2016-Jun-22 09:33N 24°24' E 118°04'26725327.6
2016-Jun-22 09:33N 22°54' E 113°30'667399929.7
2016-Jun-22 09:33N 31°30' E 121°24'2816941.8
2016-Jun-22 09:32N 31°02' E 121°29'243039.8
2016-Jun-22 09:32N 31°25' E 121°32'5273.3
2016-Jun-22 09:31N 31°20' E 121°33'281286.4
2016-Jun-22 09:30N 31°41' E 121°11'125.9
2016-Jun-22 09:28N 31°40' E 121°11'65916590.9
2016-Jun-22 09:25N 23°04' E 113°30'65955148.2
2016-Jun-22 09:25N 31°42' E 121°08'305611.7
2016-Jun-22 09:24N 31°21' E 121°33'121448.0
2016-Jun-22 09:24N 31°30' E 121°24'114.9
2016-Jun-22 09:20N 31°29' E 121°25'460592.6
2016-Jun-22 08:33N 24°24' E 118°04'442158956.0
2016-Jun-22 08:33N 31°08' E 121°28'3710125.6
2016-Jun-22 08:33N 31°41' E 121°11'437014.2
2016-Jun-22 08:33N 31°00' E 121°26'201163.4
2016-Jun-22 08:32N 31°20' E 121°33'1112.7
2016-Jun-22 08:31N 31°21' E 121°33'272958.9
2016-Jun-22 08:31N 31°40' E 121°11'1810941.6
2016-Jun-22 08:31N 31°26' E 121°25'2515034.0
2016-Jun-22 08:31N 31°02' E 121°29'282326.0
2016-Jun-22 08:30N 31°30' E 121°24'133.7
2016-Jun-22 08:28N 31°29' E 121°25'1249.4
2016-Jun-22 08:28N 31°30' E 121°24'65991194.2
2016-Jun-22 08:28N 23°04' E 113°29'5192.2
2016-Jun-22 08:26N 22°59' E 113°31'65217009.5
2016-Jun-22 08:24N 31°13' E 121°30'1354.8
2016-Jun-22 08:10N 31°25' E 121°32'2541.7
2016-Jun-22 07:34N 31°00' E 121°26'435391070.3
2016-Jun-22 07:33N 24°24' E 118°04'26842018.8
2016-Jun-22 07:33N 22°54' E 113°28'66889109.3
2016-Jun-22 07:33N 31°41' E 121°11'426368.2
2016-Jun-22 07:32N 31°02' E 121°29'104457.9
2016-Jun-22 07:32N 31°12' E 121°29'331505.4
2016-Jun-22 07:31N 31°40' E 121°11'3209.7
2016-Jun-22 07:30N 31°42' E 121°08'18364.3
2016-Jun-22 07:27N 31°30' E 121°24'12283.9
2016-Jun-22 07:25N 31°21' E 121°33'13367.9
2016-Jun-22 07:22N 31°08' E 121°28'21489.5
2016-Jun-22 07:20N 31°29' E 121°25'1 3.6
2016-Jun-22 07:05N 31°30' E 121°24'460883.2
2016-Jun-22 06:34N 24°24' E 118°04'467280058.2
2016-Jun-22 06:33N 31°41' E 121°11'3112334.3
2016-Jun-22 06:33N 31°15' E 121°29'78226.6
2016-Jun-22 06:33N 31°08' E 121°28'85547.7
2016-Jun-22 06:33N 31°00' E 121°26'292.9
2016-Jun-22 06:32N 31°02' E 121°29'242182.9
2016-Jun-22 06:31N 31°25' E 121°32'249552.7
2016-Jun-22 06:31N 31°40' E 121°11'542236.8
2016-Jun-22 06:29N 31°56' E 120°10'79285594.2
2016-Jun-22 06:29N 31°20' E 121°33'2111.3
2016-Jun-22 06:28N 31°18' E 121°33'145424.3
2016-Jun-22 06:28N 31°29' E 121°25'1452.2
2016-Jun-22 06:28N 31°30' E 121°24'6593368.6
2016-Jun-22 06:16N 23°04' E 113°29'65258723.9
2016-Jun-22 06:16N 31°15' E 121°32'811.4
2016-Jun-22 05:33N 31°08' E 121°28'82311.6
2016-Jun-22 05:33N 31°00' E 121°26'435782160.1
2016-Jun-22 05:33N 24°24' E 118°04'437314426.5
2016-Jun-22 05:33N 31°02' E 121°29'281255.1
2016-Jun-22 05:32N 31°30' E 121°24'164128.8
2016-Jun-22 05:32N 31°41' E 121°11'286683.8
2016-Jun-22 05:31N 31°20' E 121°33'1968742.3
2016-Jun-22 05:31N 31°02' E 121°29'242028.0
2016-Jun-22 05:31N 31°25' E 121°32'66023523.7
2016-Jun-22 05:29N 23°04' E 113°29'64025330.1
2016-Jun-22 05:27N 31°56' E 120°10'827934.4
2016-Jun-22 05:27N 31°17' E 121°34'15530.1
2016-Jun-22 05:25N 31°30' E 121°24'3035.3
2016-Jun-22 04:33N 30°59' E 121°23'4321555488.2
2016-Jun-22 04:33N 24°25' E 118°04'44279545.5
2016-Jun-22 04:33N 31°08' E 121°28'164079.5
2016-Jun-22 04:33N 31°23' E 121°34'41071.2
2016-Jun-22 04:33N 31°19' E 121°33'1810942.2
2016-Jun-22 04:32N 31°02' E 121°29'2450.1
2016-Jun-22 04:32N 31°00' E 121°26'51526875.9
2016-Jun-22 04:31N 39°04' E 117°50'498179379.6
2016-Jun-22 04:31N 31°20' E 121°33'1243661.6
2016-Jun-22 04:31N 31°30' E 121°24'16833.6
2016-Jun-22 04:30N 31°41' E 121°11'242310.1
2016-Jun-22 04:29N 31°25' E 121°32'49411946.3
2016-Jun-22 04:27N 39°04' E 117°48'74668886.8
2016-Jun-22 04:26N 26°44' E 119°44'2993643.0
2016-Jun-22 04:21N 31°30' E 121°24'65932482.6
2016-Jun-22 04:20N 23°04' E 113°29'65951560.2
2016-Jun-22 04:19N 31°29' E 121°25'19600.9
2016-Jun-22 04:17N 31°42' E 121°08'466635.8
2016-Jun-22 03:33N 24°25' E 118°04'442795395.5
2016-Jun-22 03:33N 31°08' E 121°28'369292.3
2016-Jun-22 03:33N 31°41' E 121°11'439640.6
2016-Jun-22 03:33N 31°00' E 121°26'8614701.0
2016-Jun-22 03:32N 31°56' E 120°10'879442.6
2016-Jun-22 03:32N 31°02' E 121°29'219358.3
2016-Jun-22 03:32N 31°22' E 121°30'4925.1
2016-Jun-22 03:31N 31°23' E 121°34'111362.1
2016-Jun-22 03:31N 31°30' E 121°24'011.1
2016-Jun-22 03:30N 31°30' E 121°24'242971.3
2016-Jun-22 03:29N 31°09' E 121°11'17256.4
2016-Jun-22 03:25N 31°01' E 121°29'51554526.8
2016-Jun-22 03:25N 39°04' E 117°50'4931889.5
2016-Jun-22 03:09N 31°25' E 121°32'29437771.7
2016-Jun-22 03:09N 26°47' E 119°43'3034009.3
2016-Jun-22 03:04N 31°40' E 121°11'3569.6
2016-Jun-22 02:33N 31°08' E 121°28'44288379.5
2016-Jun-22 02:33N 24°25' E 118°04'434782090.6
2016-Jun-22 02:33N 31°00' E 121°26'3212925.1
2016-Jun-22 02:33N 31°32' E 121°20'321404.4
2016-Jun-22 02:32N 31°02' E 121°29'424018.3
2016-Jun-22 02:31N 31°41' E 121°11'165253.4
2016-Jun-22 02:31N 31°30' E 121°24'014.2
2016-Jun-22 02:30N 31°30' E 121°24'62534.4
2016-Jun-22 02:30N 31°25' E 121°30'65932048.6
2016-Jun-22 02:29N 23°04' E 113°29'6163618.7
2016-Jun-22 02:18N 29°57' E 122°00'81341.8
2016-Jun-22 02:04N 31°05' E 121°10'1630.6
2016-Jun-22 01:33N 31°08' E 121°28'442198853.8
2016-Jun-22 01:33N 24°25' E 118°04'434782090.6
2016-Jun-22 01:33N 31°00' E 121°26'295258.2
2016-Jun-22 01:33N 31°30' E 121°24'10474580.5
2016-Jun-22 01:33N 29°53' E 122°09'10493395.2
2016-Jun-22 01:33N 31°30' E 121°24'161071.0
2016-Jun-22 01:32N 31°41' E 121°11'2134.0
2016-Jun-22 01:31N 31°42' E 121°08'1816404.7
2016-Jun-22 01:31N 31°30' E 121°25'2934341.2
2016-Jun-22 01:31N 31°02' E 121°29'22133.1
2016-Jun-22 01:21N 31°24' E 121°33'3296.8
2016-Jun-22 01:20N 31°21' E 121°33'1776837.1
2016-Jun-22 01:19N 31°25' E 118°06'1661698.9
2016-Jun-22 01:13N 31°32' E 121°20'65810871.3
2016-Jun-22 01:09N 23°02' E 113°31'6451085.0
2016-Jun-22 00:33N 31°08' E 121°28'442144630.3
2016-Jun-22 00:33N 24°24' E 118°04'435173809.0
2016-Jun-22 00:33N 31°00' E 121°26'23871.3
2016-Jun-22 00:32N 31°22' E 121°36'661183094.4
2016-Jun-22 00:31N 23°02' E 113°31'658169213.8
2016-Jun-22 00:31N 31°23' E 121°30'211343.4
2016-Jun-22 00:30N 31°02' E 121°29'192456.9
2016-Jun-22 00:30N 31°20' E 121°33'12873.8
2016-Jun-22 00:29N 31°30' E 121°24'0318.0
2016-Jun-22 00:29N 31°30' E 121°24'256.6
2016-Jun-22 00:27N 31°31' E 121°23'65994836.4
2016-Jun-22 00:27N 23°04' E 113°29'65914916.1
2016-Jun-22 00:24N 31°29' E 121°25'192530.3
2016-Jun-22 00:23N 31°42' E 121°08'1291245.4
2016-Jun-22 00:17N 29°42' E 122°04'383525.9
2016-Jun-21 23:34N 24°24' E 118°04'442176765.9
2016-Jun-21 23:33N 31°08' E 121°28'85547.7
2016-Jun-21 23:33N 31°00' E 121°26'2716062.0
2016-Jun-21 23:33N 31°27' E 121°28'4168.1
2016-Jun-21 23:32N 31°30' E 121°24'1327.0
2016-Jun-21 23:32N 31°29' E 121°25'285266.3
2016-Jun-21 23:31N 31°02' E 121°29'194996.0
2016-Jun-21 23:31N 31°21' E 121°31'1057541.1
2016-Jun-21 23:30N 29°41' E 122°07'1153016.3
2016-Jun-21 23:28N 31°30' E 121°24'65918523.7
2016-Jun-21 23:26N 23°04' E 113°29'65942338.3
2016-Jun-21 23:25N 31°31' E 121°23'10193.7
2016-Jun-21 23:22N 31°25' E 121°32'66112590.6
2016-Jun-21 23:19N 23°02' E 113°31'6607115.2
2016-Jun-21 23:13N 31°42' E 121°08'466707.9
2016-Jun-21 22:34N 24°24' E 118°04'442530304.4
2016-Jun-21 22:33N 31°08' E 121°28'255377.5
2016-Jun-21 22:33N 31°33' E 121°20'3316749.4
2016-Jun-21 22:33N 31°00' E 121°26'297047.1
2016-Jun-21 22:33N 31°30' E 121°24'2834064.8
2016-Jun-21 22:33N 31°02' E 121°29'2103.9
2016-Jun-21 22:32N 31°01' E 121°27'27033470.0
2016-Jun-21 22:31N 26°47' E 119°43'29444126.8
2016-Jun-21 22:31N 31°25' E 121°33'7433.0
2016-Jun-21 22:30N 31°18' E 121°33'9612807.4
2016-Jun-21 22:29N 29°45' E 122°03'11014090.0
2016-Jun-21 22:29N 31°30' E 121°24'111.1
2016-Jun-21 22:25N 31°29' E 121°25'569107844.4
2016-Jun-21 22:24N 22°59' E 116°41'17527370.1
2016-Jun-21 22:24N 23°02' E 113°31'66033452.9
2016-Jun-21 22:23N 31°31' E 121°23'152417.8
2016-Jun-21 22:23N 31°19' E 121°34'17964544.2
2016-Jun-21 22:22N 31°25' E 118°04'1583770.8
2016-Jun-21 22:20N 31°42' E 121°08'401064.4
2016-Jun-21 22:18N 31°02' E 121°04'636.6
2016-Jun-21 22:08N 30°58' E 121°09'83142.2
2016-Jun-21 21:33N 29°53' E 122°09'11615459.5
2016-Jun-21 21:33N 31°39' E 121°13'46593081.3
2016-Jun-21 21:33N 24°24' E 118°04'461118528.0
2016-Jun-21 21:32N 31°31' E 121°23'2311971.1
2016-Jun-21 21:32N 31°08' E 121°28'86929.3
2016-Jun-21 21:32N 31°00' E 121°26'258218.0
2016-Jun-21 21:32N 31°25' E 121°33'93076.4
2016-Jun-21 21:32N 31°30' E 121°24'53886465256.3
2016-Jun-21 21:32N 49°18' W 123°02'5387181260.5
2016-Jun-21 21:30N 31°29' E 121°25'342041.7
2016-Jun-21 21:29N 30°57' E 121°12'15323.8
2016-Jun-21 21:26N 31°02' E 121°29'232.2
2016-Jun-21 21:23N 31°01' E 121°27'86876.8
2016-Jun-21 21:17N 31°56' E 120°10'7616182.4
2016-Jun-21 21:17N 30°59' E 121°09'34915.5
2016-Jun-21 21:15N 31°30' E 121°24'65924443.6
2016-Jun-21 21:13N 23°04' E 113°29'3108.2
2016-Jun-21 21:11N 23°02' E 113°31'616974.7
2016-Jun-21 20:33N 29°58' E 121°58'393235563.8
2016-Jun-21 20:33N 24°24' E 118°04'429772522.2
2016-Jun-21 20:33N 30°58' E 121°18'83511.3
2016-Jun-21 20:33N 31°00' E 121°26'85547.7
2016-Jun-21 20:33N 31°08' E 121°28'622229.9
2016-Jun-21 20:33N 31°02' E 121°29'5408249581.5
2016-Jun-21 20:32N 49°18' W 123°02'5387404060.0
2016-Jun-21 20:31N 31°29' E 121°25'1332.9
2016-Jun-21 20:31N 31°30' E 121°24'348691.2
2016-Jun-21 20:31N 30°57' E 121°13'14754.1
2016-Jun-21 20:29N 31°02' E 121°29'28535.0
2016-Jun-21 20:26N 31°30' E 121°24'29615237.8
2016-Jun-21 20:25N 26°47' E 119°43'29716204.1
2016-Jun-21 20:24N 31°31' E 121°23'47018799.4
2016-Jun-21 20:23N 24°13' E 118°09'2652787.7
2016-Jun-21 20:17N 23°02' E 113°31'264365.7
2016-Jun-21 19:34N 24°24' E 118°04'435521420.4
2016-Jun-21 19:33N 31°00' E 121°26'443106339.4
2016-Jun-21 19:33N 24°14' E 118°09'441264792.2
2016-Jun-21 19:33N 30°60' E 121°24'96620.5
2016-Jun-21 19:33N 31°08' E 121°28'2310473.9
2016-Jun-21 19:33N 31°31' E 121°23'162017.1
2016-Jun-21 19:32N 31°42' E 121°08'404470.0
2016-Jun-21 19:32N 31°06' E 121°28'54052432355.9
2016-Jun-21 19:32N 49°18' W 123°02'5391233810.5
2016-Jun-21 19:30N 31°18' E 121°34'172733.8
2016-Jun-21 19:30N 31°02' E 121°29'281400.6
2016-Jun-21 19:29N 31°30' E 121°24'66091349.8
2016-Jun-21 19:28N 23°02' E 113°31'66024747.9
2016-Jun-21 19:27N 31°29' E 121°25'1130.1
2016-Jun-21 19:26N 31°30' E 121°24'151220.1
2016-Jun-21 19:26N 31°17' E 121°34'84961.7
2016-Jun-21 19:20N 31°57' E 120°07'343.9
2016-Jun-21 19:16N 31°56' E 120°10'82115.0
2016-Jun-21 18:34N 31°08' E 121°28'813848.0
2016-Jun-21 18:33N 31°00' E 121°26'4351564300.8
2016-Jun-21 18:33N 24°24' E 118°04'434120270.4
2016-Jun-21 18:33N 31°00' E 121°26'31288.6
2016-Jun-21 18:33N 31°02' E 121°29'281245.8
2016-Jun-21 18:32N 31°30' E 121°24'101627.6
2016-Jun-21 18:31N 31°21' E 121°31'288507.8
2016-Jun-21 18:31N 31°42' E 121°08'165289.6
2016-Jun-21 18:31N 31°31' E 121°22'301819.5
2016-Jun-21 18:30N 31°02' E 121°29'281399.1
2016-Jun-21 18:29N 31°30' E 121°24'538819396020.7
2016-Jun-21 18:29N 49°18' W 123°02'5014429800.0
2016-Jun-21 18:28N 38°52' E 121°32'46217705.7
2016-Jun-21 18:27N 31°10' E 121°28'910.4
2016-Jun-21 17:34N 31°00' E 121°26'89232.0
2016-Jun-21 17:33N 31°08' E 121°28'4421590814.3
2016-Jun-21 17:33N 24°24' E 118°04'885167667.2
2016-Jun-21 17:33N 38°51' E 121°34'44244168.4
2016-Jun-21 17:33N 31°30' E 121°24'4712028.1
2016-Jun-21 17:32N 30°60' E 120°42'409546.7
2016-Jun-21 17:32N 31°05' E 121°28'192549.1
2016-Jun-21 17:32N 31°23' E 121°33'7420608.9
2016-Jun-21 17:31N 31°57' E 120°15'843595.6
2016-Jun-21 17:30N 31°02' E 121°29'16761.4
2016-Jun-21 17:29N 31°17' E 121°34'16948.1
2016-Jun-21 17:28N 31°30' E 121°24'18807.8
2016-Jun-21 17:26N 31°42' E 121°08'16312.7
2016-Jun-21 17:23N 31°31' E 121°22'192190.3
2016-Jun-21 17:23N 31°13' E 121°30'539723810.2
2016-Jun-21 17:09N 49°18' W 123°02'540157700.7
2016-Jun-21 17:04N 31°10' E 121°28'3774.6
2016-Jun-21 16:33N 31°00' E 120°46'42145886.9
2016-Jun-21 16:33N 24°25' E 118°04'457548893.5
2016-Jun-21 16:33N 31°21' E 121°39'1762388.0
2016-Jun-21 16:33N 31°31' E 121°22'299.2
2016-Jun-21 16:32N 31°30' E 121°24'915512.3
2016-Jun-21 16:32N 31°25' E 121°32'2512917.7
2016-Jun-21 16:32N 31°00' E 121°26'470845818.1
2016-Jun-21 16:32N 38°50' E 121°34'46215409.3
2016-Jun-21 16:30N 31°08' E 121°28'646129226.1
2016-Jun-21 16:30N 23°01' E 113°31'6516896.0
2016-Jun-21 16:24N 31°13' E 121°30'12428.9
2016-Jun-21 16:22N 31°02' E 121°29'436537.1
2016-Jun-21 15:33N 24°25' E 118°04'434782041.3
2016-Jun-21 15:33N 31°00' E 121°26'154145.3
2016-Jun-21 15:33N 31°15' E 121°30'45552868.0
2016-Jun-21 15:33N 38°50' E 121°34'45490715.2
2016-Jun-21 15:32N 31°17' E 121°34'1611273.2
2016-Jun-21 15:32N 31°02' E 121°29'301179.9
2016-Jun-21 15:31N 31°31' E 121°22'6608275.3
2016-Jun-21 15:26N 23°02' E 113°31'661264409.4
2016-Jun-21 15:26N 31°25' E 121°32'17950.6
2016-Jun-21 15:25N 31°08' E 121°28'22189.9
2016-Jun-21 15:18N 31°30' E 121°24'0 2.6
2016-Jun-21 15:13N 31°30' E 121°24'12632.8
2016-Jun-21 15:12N 31°20' E 121°33'218.9
2016-Jun-21 15:05N 31°18' E 121°34'453862.1
2016-Jun-21 14:33N 24°25' E 118°04'436224447.8
2016-Jun-21 14:33N 31°02' E 121°29'2161.7
2016-Jun-21 14:32N 31°00' E 121°26'470241759.0
2016-Jun-21 14:32N 38°50' E 121°34'546103359.2
2016-Jun-21 14:32N 29°46' E 122°03'100180457.7
2016-Jun-21 14:32N 31°22' E 121°30'6561181492.3
2016-Jun-21 14:32N 23°02' E 113°31'659263638.3
2016-Jun-21 14:32N 31°30' E 121°24'160.8
2016-Jun-21 14:31N 31°29' E 121°25'11254.1
2016-Jun-21 14:28N 31°21' E 121°32'13128.1
2016-Jun-21 14:22N 31°08' E 121°28'22397.7
2016-Jun-21 14:19N 31°30' E 121°24'18305.4
2016-Jun-21 14:15N 31°42' E 121°08'19358.7
2016-Jun-21 14:12N 31°55' E 120°52'5235754.7
2016-Jun-21 14:07N 23°40' E 117°43'50464756.7
2016-Jun-21 14:06N 31°21' E 121°32'455829.4
2016-Jun-21 13:33N 24°25' E 118°04'455148941.1
2016-Jun-21 13:33N 31°22' E 121°30'112214.5
2016-Jun-21 13:33N 31°31' E 121°23'44021683.7
2016-Jun-21 13:32N 38°50' E 121°34'54236811.2
2016-Jun-21 13:31N 29°49' E 122°07'991672.3
2016-Jun-21 13:27N 31°23' E 121°30'236432.5
2016-Jun-21 13:27N 31°00' E 121°26'245878.5
2016-Jun-21 13:27N 31°25' E 121°31'81638.5
2016-Jun-21 13:27N 31°30' E 121°24'160.7
2016-Jun-21 13:26N 31°29' E 121°25'66088007.8
2016-Jun-21 13:25N 23°01' E 113°32'66079186.7
2016-Jun-21 13:25N 31°30' E 121°24'444172.3
2016-Jun-21 13:24N 32°01' E 120°48'32501.5
2016-Jun-21 13:20N 31°56' E 120°10'81497.0
2016-Jun-21 13:11N 31°17' E 121°34'753.9
2016-Jun-21 13:03N 31°23' E 121°30'456920.7
2016-Jun-21 12:33N 24°25' E 118°04'26624566.2
2016-Jun-21 12:33N 22°57' E 113°30'66491957.6
2016-Jun-21 12:32N 31°28' E 121°26'1047613.2
2016-Jun-21 12:31N 29°53' E 122°13'1005221.0
2016-Jun-21 12:30N 31°25' E 121°29'82608.7
2016-Jun-21 12:30N 31°31' E 121°23'44032983.2
2016-Jun-21 12:29N 38°51' E 121°33'44413551.8
2016-Jun-21 12:27N 31°26' E 121°25'261077.2
2016-Jun-21 12:26N 31°00' E 121°26'2935083.7
2016-Jun-21 12:26N 31°30' E 121°24'0 5.7
2016-Jun-21 12:24N 31°30' E 121°24'288518.4
2016-Jun-21 12:24N 31°02' E 121°29'254335.6
2016-Jun-21 12:23N 31°27' E 121°28'378.6
2016-Jun-21 12:21N 31°29' E 121°25'19413.9
2016-Jun-21 12:18N 31°42' E 121°08'26381.4
2016-Jun-21 12:14N 32°01' E 120°48'611799.4
2016-Jun-21 12:12N 31°02' E 121°04'428669.1
2016-Jun-21 11:33N 24°25' E 118°04'26838659.8
2016-Jun-21 11:33N 22°54' E 113°28'667342820.6
2016-Jun-21 11:33N 31°30' E 121°23'307111.3
2016-Jun-21 11:33N 31°00' E 121°26'281.6
2016-Jun-21 11:31N 31°02' E 121°29'311351.7
2016-Jun-21 11:30N 31°32' E 121°21'24298.1
2016-Jun-21 11:25N 31°08' E 121°28'21661.7
2016-Jun-21 11:23N 31°29' E 121°25'3191.0
2016-Jun-21 11:22N 31°31' E 121°23'671146.3
2016-Jun-21 11:18N 31°56' E 120°10'801000.0
2016-Jun-21 11:14N 31°20' E 121°33'571045.1
2016-Jun-21 11:10N 32°01' E 120°48'442455.7
2016-Jun-21 11:09N 31°30' E 121°24'14136.5
2016-Jun-21 11:03N 31°18' E 121°33'453918.9
2016-Jun-21 10:34N 24°25' E 118°04'434173798.0
2016-Jun-21 10:33N 31°00' E 121°26'17563044.3
2016-Jun-21 10:33N 31°25' E 118°04'17537113.9
2016-Jun-21 10:33N 31°08' E 121°28'2713653.4
2016-Jun-21 10:33N 31°33' E 121°19'121151.6
2016-Jun-21 10:32N 31°42' E 121°08'192846.5
2016-Jun-21 10:32N 31°29' E 121°25'84593.9
2016-Jun-21 10:32N 31°34' E 121°18'67418373.1
2016-Jun-21 10:29N 22°53' E 113°18'65611805.1
2016-Jun-21 10:26N 31°02' E 121°29'19628.4
2016-Jun-21 10:24N 31°20' E 121°33'142216.8
2016-Jun-21 10:24N 31°31' E 121°23'7666.7
2016-Jun-21 10:23N 31°36' E 121°17'354167.7
2016-Jun-21 10:23N 32°00' E 120°48'339.4
2016-Jun-21 10:18N 32°01' E 120°44'4611903.5
2016-Jun-21 10:18N 31°30' E 121°24'2229.3
2016-Jun-21 09:33N 31°08' E 121°28'827738.7
2016-Jun-21 09:33N 31°00' E 121°26'21428.8
2016-Jun-21 09:33N 31°02' E 121°29'3935271.8
2016-Jun-21 09:33N 31°39' E 121°14'417831.2
2016-Jun-21 09:33N 30°57' E 121°13'476856199.4
2016-Jun-21 09:33N 23°42' E 117°36'50745597.4
2016-Jun-21 09:32N 31°22' E 121°37'13297.8
2016-Jun-21 09:30N 31°30' E 121°24'2306.5
2016-Jun-21 09:29N 31°31' E 121°23'676128033.5
2016-Jun-21 09:29N 22°49' E 113°20'67223271.6
2016-Jun-21 09:27N 31°18' E 121°33'132426.0
2016-Jun-21 09:27N 31°29' E 121°25'83961.7
2016-Jun-21 09:27N 31°23' E 121°30'44413903.6
2016-Jun-21 09:25N 38°47' E 121°30'429110200.2
2016-Jun-21 09:25N 31°39' E 121°14'3026975.7
2016-Jun-21 09:22N 26°47' E 119°43'1791804.1
2016-Jun-21 09:16N 24°07' E 118°15'455641.6
2016-Jun-21 08:34N 31°08' E 121°28'1348402.4
2016-Jun-21 08:33N 30°58' E 121°18'84798.3
2016-Jun-21 08:33N 31°00' E 121°26'435312840.4
2016-Jun-21 08:33N 24°24' E 118°04'45620780.7
2016-Jun-21 08:32N 31°23' E 121°30'26931.2
2016-Jun-21 08:30N 31°42' E 121°09'2925863.3
2016-Jun-21 08:30N 31°23' E 121°34'2277742.1
2016-Jun-21 08:30N 31°02' E 121°29'281337.8
2016-Jun-21 08:29N 31°30' E 121°24'22354.4
2016-Jun-21 08:29N 31°31' E 121°23'44045230.5
2016-Jun-21 08:28N 38°50' E 121°41'730187777.0
2016-Jun-21 08:28N 26°47' E 119°43'2961719.7
2016-Jun-21 08:18N 31°29' E 121°25'878.8
2016-Jun-21 08:12N 31°25' E 121°32'4636037.9
2016-Jun-21 08:07N 24°14' E 118°23'2035.3
2016-Jun-21 07:33N 24°24' E 118°04'435391065.3
2016-Jun-21 07:33N 31°00' E 121°26'21428.8
2016-Jun-21 07:33N 31°02' E 121°29'63326.0
2016-Jun-21 07:33N 31°08' E 121°28'104327.8
2016-Jun-21 07:33N 30°59' E 121°23'301123.7
2016-Jun-21 07:31N 31°30' E 121°24'2205.4
2016-Jun-21 07:31N 31°31' E 121°23'101156.9
2016-Jun-21 07:30N 31°24' E 121°31'292.7
2016-Jun-21 07:29N 31°25' E 121°32'4577345.8
2016-Jun-21 07:25N 24°18' E 118°28'45114761.9
2016-Jun-21 07:24N 31°18' E 121°34'42158.0
2016-Jun-21 07:08N 31°47' E 120°58'469824.2
2016-Jun-21 06:34N 24°24' E 118°04'43618486.5
2016-Jun-21 06:32N 31°02' E 121°29'4263160.0
2016-Jun-21 06:24N 24°24' E 118°36'155843.9
2016-Jun-21 06:13N 26°47' E 119°43'296449.1
2016-Jun-21 05:33N 31°30' E 121°24'224661.4
2016-Jun-21 05:33N 31°08' E 121°28'440442.8
2016-Jun-21 04:33N 24°26' E 118°05'464556277.5
2016-Jun-21 04:33N 31°38' E 121°16'3817177.4
2016-Jun-21 04:33N 31°00' E 121°26'2857.3
2016-Jun-21 04:33N 31°02' E 121°29'282562.1
2016-Jun-21 04:32N 31°30' E 121°24'193540.8
2016-Jun-21 04:32N 31°11' E 121°28'420302428.7
2016-Jun-21 04:32N 24°35' E 118°50'41736585.6
2016-Jun-21 04:31N 31°08' E 121°28'222246.0
2016-Jun-21 04:31N 31°30' E 121°24'2184.7
2016-Jun-21 04:30N 31°31' E 121°22'48515189.5
2016-Jun-21 04:28N 39°04' E 117°50'4964771.0
2016-Jun-21 04:22N 31°22' E 121°30'62752.1
2016-Jun-21 04:22N 31°26' E 121°25'163125.1
2016-Jun-21 04:22N 31°40' E 121°13'27145.8
2016-Jun-21 04:10N 31°19' E 121°33'452735.1
2016-Jun-21 03:33N 24°26' E 118°05'433519634.2
2016-Jun-21 03:33N 31°00' E 121°26'3238392.3
2016-Jun-21 03:33N 31°32' E 121°19'31507.5
2016-Jun-21 03:30N 31°02' E 121°29'6969.2
2016-Jun-21 03:29N 31°08' E 121°28'235602.6
2016-Jun-21 03:29N 31°31' E 121°22'17021803.4
2016-Jun-21 03:29N 31°25' E 118°04'1712864.1
2016-Jun-21 03:25N 31°30' E 121°24'654.4
2016-Jun-21 03:19N 31°34' E 121°20'113.6
2016-Jun-21 03:13N 31°35' E 121°19'462694.1
2016-Jun-21 02:33N 24°26' E 118°05'456410292.3
2016-Jun-21 02:33N 31°21' E 121°37'236853.2
2016-Jun-21 02:33N 31°00' E 121°26'3155136.9
2016-Jun-21 02:33N 31°31' E 121°23'422253027.8
2016-Jun-21 02:33N 24°47' E 119°04'39650871.7
2016-Jun-21 02:33N 31°02' E 121°29'281667.1
2016-Jun-21 02:32N 31°30' E 121°24'53637.4
2016-Jun-21 02:31N 31°26' E 121°29'66511844.5
2016-Jun-21 02:28N 23°02' E 113°21'665478719.2
2016-Jun-21 02:28N 31°28' E 121°27'20462.0
2016-Jun-21 02:25N 31°08' E 121°28'2226320.2
2016-Jun-21 02:25N 31°30' E 121°24'22975.1
2016-Jun-21 02:25N 31°32' E 121°23'661261.4
2016-Jun-21 02:22N 31°56' E 120°10'6911856.7
2016-Jun-21 02:22N 31°29' E 121°25'1158.0
2016-Jun-21 02:10N 31°20' E 121°33'1626.4
2016-Jun-21 01:34N 31°32' E 121°20'460118194.1
2016-Jun-21 01:33N 24°26' E 118°05'433779421.8
2016-Jun-21 01:33N 31°00' E 121°26'211515.5
2016-Jun-21 01:32N 31°21' E 121°31'10617.6
2016-Jun-21 01:31N 31°30' E 121°24'281438.8
2016-Jun-21 01:30N 31°02' E 121°29'31690.0
2016-Jun-21 01:28N 31°32' E 121°21'122019.9
2016-Jun-21 01:27N 31°25' E 121°32'66143287.5
2016-Jun-21 01:26N 23°04' E 113°25'6476672.8
2016-Jun-21 01:20N 31°08' E 121°28'22861.4
2016-Jun-21 01:19N 31°30' E 121°24'101514.8
2016-Jun-21 01:07N 29°55' E 122°06'93163.1
2016-Jun-21 00:33N 31°24' E 121°31'45691148.4
2016-Jun-21 00:33N 24°26' E 118°05'3896450.9
2016-Jun-21 00:29N 29°50' E 122°07'1291210.2
2016-Jun-21 00:23N 31°46' E 121°01'40196.1
2016-Jun-21 00:10N 31°18' E 121°34'451732.6
2016-Jun-20 23:34N 24°26' E 118°05'45656647.4
2016-Jun-20 23:33N 31°22' E 121°36'6662631.5
2016-Jun-20 23:18N 23°02' E 113°22'273367.1
2016-Jun-20 22:33N 24°26' E 118°05'2693638.8
2016-Jun-20 22:29N 23°04' E 113°25'61321426.1
2016-Jun-20 22:27N 29°41' E 122°07'991539.7
2016-Jun-20 22:23N 31°18' E 121°43'9266.0
2016-Jun-20 22:21N 31°20' E 121°33'3 9.0
2016-Jun-20 22:04N 31°18' E 121°33'451888.4
2016-Jun-20 21:34N 24°26' E 118°05'45714543.5
2016-Jun-20 21:32N 31°23' E 121°35'1011184.4
2016-Jun-20 21:27N 29°44' E 122°03'4352773.8
2016-Jun-20 21:17N 23°41' E 117°37'5271.2
2016-Jun-20 20:33N 24°26' E 118°05'46915089.5
2016-Jun-20 20:31N 31°60' E 120°22'621083.4
2016-Jun-20 20:28N 31°29' E 121°25'651752.3
2016-Jun-20 20:26N 31°57' E 120°16'15715712.7
2016-Jun-20 20:25N 29°53' E 122°09'123504.6
2016-Jun-20 20:11N 31°44' E 121°06'466752.0
2016-Jun-20 19:33N 24°26' E 118°05'466104914.8
2016-Jun-20 19:33N 31°57' E 120°18'1483159.9
2016-Jun-20 19:30N 29°57' E 121°59'1401000.3
2016-Jun-20 19:22N 32°01' E 120°42'38426.8
2016-Jun-20 19:17N 32°02' E 119°57'6383653.9
2016-Jun-20 19:06N 23°04' E 113°29'66322727.7
2016-Jun-20 19:04N 32°01' E 120°48'412803.4
2016-Jun-20 18:34N 38°52' E 121°33'884289270.4
2016-Jun-20 18:33N 24°26' E 118°05'46466815.6
2016-Jun-20 18:33N 31°39' E 121°13'544107.5
2016-Jun-20 18:32N 31°56' E 120°13'7846906.7
2016-Jun-20 18:32N 31°18' E 121°33'821973.7
2016-Jun-20 18:30N 31°57' E 120°09'6403397.2
2016-Jun-20 18:18N 23°04' E 113°29'6534960.7
2016-Jun-20 18:10N 31°16' E 121°33'3455.2
2016-Jun-20 17:34N 31°42' E 121°08'465239304.6
2016-Jun-20 17:33N 24°26' E 118°05'45325891.2
2016-Jun-20 17:32N 31°20' E 121°33'65716190.4
2016-Jun-20 17:30N 23°04' E 113°29'103445377.8
2016-Jun-20 17:29N 38°51' E 121°34'4208217.5
2016-Jun-20 17:25N 31°57' E 120°06'84554.3
2016-Jun-20 17:16N 31°18' E 121°33'451629.0
2016-Jun-20 16:33N 24°26' E 118°05'883227054.8
2016-Jun-20 16:33N 38°51' E 121°33'44826417.2
2016-Jun-20 16:32N 31°23' E 121°34'1040.4
2016-Jun-20 16:17N 31°14' E 121°30'446603.9
2016-Jun-20 15:33N 24°26' E 118°05'44825613.6
2016-Jun-20 15:32N 31°15' E 121°32'1 7.8
2016-Jun-20 15:26N 31°15' E 121°33'4559005.0
2016-Jun-20 15:23N 38°51' E 121°33'8831069.1
2016-Jun-20 14:34N 24°26' E 118°05'4776983.6
2016-Jun-20 14:29N 32°01' E 120°48'572850.3
2016-Jun-20 14:28N 31°19' E 121°33'115.0
2016-Jun-20 14:23N 31°20' E 121°33'65715452.8
2016-Jun-20 14:21N 23°04' E 113°29'6402592.9
2016-Jun-20 14:06N 31°55' E 120°11'77141.4
2016-Jun-20 13:33N 31°23' E 121°33'456149271.4
2016-Jun-20 13:33N 24°26' E 118°05'883636079.3
2016-Jun-20 13:33N 38°51' E 121°33'4125240.3
2016-Jun-20 13:28N 32°01' E 120°48'5364046.6
2016-Jun-20 13:28N 31°22' E 121°30'761715.4
2016-Jun-20 13:26N 31°55' E 120°11'463531.5
2016-Jun-20 12:34N 24°26' E 118°05'45527776.4
2016-Jun-20 12:33N 31°23' E 121°30'44814792.8
2016-Jun-20 12:31N 38°51' E 121°33'41242373.4
2016-Jun-20 12:30N 32°01' E 120°46'405291860.0
2016-Jun-20 12:30N 38°44' E 121°43'41515561.9
2016-Jun-20 12:28N 31°56' E 120°12'1 9.4
2016-Jun-20 12:20N 31°56' E 120°10'64015066.0
2016-Jun-20 12:17N 23°04' E 113°29'63818079.0
2016-Jun-20 12:15N 31°59' E 120°01'465671.3
2016-Jun-20 11:33N 24°26' E 118°05'4648156.7
2016-Jun-20 11:30N 31°57' E 120°12'44433270.3
2016-Jun-20 11:29N 39°04' E 117°48'4951780912.3
2016-Jun-20 11:29N 31°25' E 121°31'53748307.6
2016-Jun-20 11:29N 22°32' E 120°13'163177.3
2016-Jun-20 10:34N 24°26' E 118°05'4664015.8
2016-Jun-20 10:27N 31°57' E 120°17'783035.6
2016-Jun-20 10:25N 31°22' E 121°38'854754.1
2016-Jun-20 10:24N 31°57' E 120°07'6343.4
2016-Jun-20 10:23N 31°57' E 120°14'6428858.2
2016-Jun-20 10:19N 23°04' E 113°30'6468775.4
2016-Jun-20 10:14N 31°59' E 120°19'468687.7
2016-Jun-20 09:33N 24°26' E 118°05'45524447.9
2016-Jun-20 09:32N 31°23' E 121°30'8821.0
2016-Jun-20 09:32N 31°21' E 121°39'821086.5
2016-Jun-20 09:27N 31°57' E 120°12'8138.3
2016-Jun-20 09:24N 31°60' E 120°21'65810347.2
2016-Jun-20 09:20N 22°48' E 113°37'6722958.7
2016-Jun-20 09:06N 32°01' E 120°48'5295.7
2016-Jun-20 08:33N 31°23' E 121°30'455819090.5
2016-Jun-20 08:33N 24°26' E 118°05'26645661.9
2016-Jun-20 08:33N 23°05' E 113°28'656107336.4
2016-Jun-20 08:33N 31°22' E 121°29'660158430.3
2016-Jun-20 08:32N 22°55' E 113°33'64977908.2
2016-Jun-20 08:32N 31°57' E 120°17'57217.3
2016-Jun-20 08:16N 31°35' E 121°19'5817291.9
2016-Jun-20 08:16N 31°56' E 120°16'8136298.9
2016-Jun-20 08:16N 30°59' E 121°22'392678.4
2016-Jun-20 08:15N 31°38' E 121°15'324650.8
2016-Jun-20 08:14N 32°01' E 120°48'639853.8
2016-Jun-20 08:14N 31°08' E 121°28'6830.7
2016-Jun-20 08:14N 31°02' E 121°29'17389.4
2016-Jun-20 08:11N 31°18' E 121°33'13184.6
2016-Jun-20 08:07N 31°29' E 121°25'1384.6
2016-Jun-20 08:06N 31°30' E 121°24'592362.6
2016-Jun-20 08:05N 32°04' E 120°28'81153.7
2016-Jun-20 07:33N 31°00' E 121°26'3216314.5
2016-Jun-20 07:33N 31°31' E 121°19'458550178.7
2016-Jun-20 07:33N 24°26' E 118°05'440198195.1
2016-Jun-20 07:33N 31°08' E 121°28'645774052.3
2016-Jun-20 07:33N 23°03' E 113°31'641329645.3
2016-Jun-20 07:33N 31°02' E 121°29'802268.0
2016-Jun-20 07:31N 31°58' E 120°23'60509.4
2016-Jun-20 07:24N 31°30' E 121°24'3763.9
2016-Jun-20 07:24N 31°26' E 121°25'6217.0
2016-Jun-20 07:22N 31°22' E 121°29'751807.2
2016-Jun-20 07:20N 31°55' E 120°10'52243.9
2016-Jun-20 07:07N 31°42' E 121°09'4580.7
2016-Jun-20 06:34N 30°59' E 121°22'4301548873.1
2016-Jun-20 06:33N 24°26' E 118°05'44033735.3
2016-Jun-20 06:33N 31°08' E 121°28'854203.1
2016-Jun-20 06:31N 31°57' E 120°06'852548.4
2016-Jun-20 06:29N 31°17' E 121°34'151044.0
2016-Jun-20 06:29N 31°30' E 121°24'91101.3
2016-Jun-20 06:28N 31°22' E 121°29'2073419.3
2016-Jun-20 06:28N 31°02' E 121°29'64120406.6
2016-Jun-20 06:26N 23°04' E 113°30'65915914.7
2016-Jun-20 06:24N 31°29' E 121°25'48710.1
2016-Jun-20 06:20N 32°00' E 120°42'16224.6
2016-Jun-20 06:15N 31°58' E 120°24'74105.8
2016-Jun-20 05:33N 31°08' E 121°28'44042853.0
2016-Jun-20 05:33N 24°26' E 118°05'45916685.6
2016-Jun-20 05:31N 31°29' E 121°25'281967.4
2016-Jun-20 05:30N 31°02' E 121°29'683247.9
2016-Jun-20 05:29N 32°00' E 120°49'10288.1
2016-Jun-20 05:27N 32°00' E 120°37'232251.5
2016-Jun-20 05:26N 31°56' E 120°10'681145.7
2016-Jun-20 05:23N 31°30' E 121°24'459556.8
2016-Jun-20 04:33N 24°26' E 118°05'43597876.8
2016-Jun-20 04:33N 31°02' E 121°29'6645.5
2016-Jun-20 04:33N 31°08' E 121°28'22844.3
2016-Jun-20 04:31N 31°30' E 121°24'1125.0
2016-Jun-20 04:31N 31°29' E 121°25'63112685.3
2016-Jun-20 04:31N 31°58' E 120°20'223103.7
2016-Jun-20 04:30N 32°01' E 120°45'26582.8
2016-Jun-20 04:28N 31°56' E 120°14'727877.5
2016-Jun-20 04:27N 31°22' E 121°29'10226.4
2016-Jun-20 04:24N 31°12' E 121°30'342512.7
2016-Jun-20 04:24N 31°42' E 121°10'2719227.8
2016-Jun-20 04:23N 32°01' E 120°48'302973.2
2016-Jun-20 04:23N 31°57' E 120°13'64247137.5
2016-Jun-20 04:22N 23°04' E 113°30'6563606.9
2016-Jun-20 04:11N 31°26' E 121°25'501395.7
2016-Jun-20 04:09N 32°01' E 120°42'476803.0
2016-Jun-20 03:33N 24°26' E 118°05'448179147.8
2016-Jun-20 03:33N 31°15' E 121°31'2719765.0
2016-Jun-20 03:33N 31°39' E 121°15'3310655.7
2016-Jun-20 03:33N 31°08' E 121°28'2619079.2
2016-Jun-20 03:33N 31°33' E 121°19'65829616.9
2016-Jun-20 03:32N 23°04' E 113°30'656262506.9
2016-Jun-20 03:31N 31°26' E 121°25'662990.1
2016-Jun-20 03:30N 31°57' E 120°17'64418699.2
2016-Jun-20 03:28N 23°04' E 113°29'66057939.9
2016-Jun-20 03:27N 31°37' E 121°17'22302.3
2016-Jun-20 03:23N 31°20' E 121°33'191181.5
2016-Jun-20 03:22N 31°02' E 121°29'28482.4
2016-Jun-20 03:19N 31°29' E 121°25'1207.4
2016-Jun-20 03:18N 31°30' E 121°24'59336.5
2016-Jun-20 03:08N 31°58' E 120°24'12199.6
2016-Jun-20 03:04N 31°56' E 120°10'463902.1
2016-Jun-20 02:34N 24°26' E 118°05'465152155.2
2016-Jun-20 02:33N 31°57' E 120°14'73263607.9
2016-Jun-20 02:33N 31°24' E 121°31'2887.5
2016-Jun-20 02:33N 31°22' E 121°29'123385.1
2016-Jun-20 02:33N 31°32' E 121°21'28051.7
2016-Jun-20 02:33N 31°34' E 121°20'2713846.3
2016-Jun-20 02:33N 31°08' E 121°28'101858.1
2016-Jun-20 02:32N 31°16' E 121°34'8057750.8
2016-Jun-20 02:32N 29°58' E 121°54'61231049.9
2016-Jun-20 02:31N 23°04' E 113°29'64149077.5
2016-Jun-20 02:30N 31°02' E 121°29'903077.4
2016-Jun-20 02:29N 31°57' E 120°06'735238.4
2016-Jun-20 02:28N 31°29' E 121°25'131301.9
2016-Jun-20 02:27N 31°18' E 121°34'752713.2
2016-Jun-20 02:26N 32°00' E 120°21'622137.9
2016-Jun-20 02:24N 31°30' E 121°24'46261.5
2016-Jun-20 02:13N 32°01' E 120°45'661183097.9
2016-Jun-20 02:13N 23°04' E 113°30'6638969.2
2016-Jun-20 02:09N 31°60' E 120°49'643004.4
2016-Jun-20 02:07N 31°05' E 121°28'1628.6
2016-Jun-20 01:33N 31°21' E 121°32'453408062.0
2016-Jun-20 01:33N 24°26' E 118°05'459551030.3
2016-Jun-20 01:33N 31°30' E 121°24'2220043.6
2016-Jun-20 01:33N 31°08' E 121°28'6016549.9
2016-Jun-20 01:33N 31°59' E 120°51'27989.0
2016-Jun-20 01:31N 31°59' E 120°19'3161137860.5
2016-Jun-20 01:31N 26°44' E 119°44'228136987.1
2016-Jun-20 01:31N 29°56' E 122°05'9213233.4
2016-Jun-20 01:31N 31°22' E 121°29'95117.2
2016-Jun-20 01:31N 31°30' E 121°24'281538.2
2016-Jun-20 01:30N 31°02' E 121°29'866063.1
2016-Jun-20 01:29N 31°55' E 120°10'64019846.7
2016-Jun-20 01:27N 23°04' E 113°29'65918974.0
2016-Jun-20 01:25N 31°29' E 121°25'60326.2
2016-Jun-20 01:14N 31°58' E 120°24'72560.0
2016-Jun-20 01:06N 31°15' E 121°32'612497.6
2016-Jun-20 01:05N 32°01' E 120°45'477920.8
2016-Jun-20 00:34N 24°26' E 118°05'454102039.8
2016-Jun-20 00:33N 31°22' E 121°30'99177620.7
2016-Jun-20 00:33N 29°47' E 122°05'9925577.4
2016-Jun-20 00:33N 31°22' E 121°29'68466.2
2016-Jun-20 00:24N 32°02' E 120°23'746827.2
2016-Jun-20 00:24N 31°18' E 121°33'6556111.2
2016-Jun-20 00:17N 23°04' E 113°29'618436735.0
2016-Jun-20 00:07N 49°18' W 123°02'5390923925.8
2016-Jun-20 00:07N 31°19' E 121°33'46213084.8
2016-Jun-20 00:05N 39°01' E 121°45'8951718.2
2016-Jun-19 23:33N 24°26' E 118°05'45571270.3
2016-Jun-19 23:33N 31°23' E 121°30'5388171663.8
2016-Jun-19 23:31N 49°18' W 123°02'61877424015.4
2016-Jun-19 23:31N 22°59' E 113°31'65828892.0
2016-Jun-19 23:30N 31°18' E 121°33'10210751.6
2016-Jun-19 23:29N 29°41' E 122°07'1062656.2
2016-Jun-19 23:27N 31°21' E 121°31'6913021.2
2016-Jun-19 23:26N 32°04' E 120°27'6107.5
2016-Jun-19 23:23N 31°58' E 120°24'15131.3
2016-Jun-19 23:16N 32°00' E 120°41'635403.0
2016-Jun-19 23:15N 31°21' E 121°39'66169962.0
2016-Jun-19 23:15N 23°04' E 113°29'6595788.9
2016-Jun-19 23:08N 31°40' E 121°11'2542.9
2016-Jun-19 22:33N 31°24' E 121°32'456547384.5
2016-Jun-19 22:33N 24°26' E 118°05'45817928.5
2016-Jun-19 22:32N 31°28' E 121°27'494418.1
2016-Jun-19 22:31N 32°01' E 120°44'53922156636.6
2016-Jun-19 22:31N 49°18' W 123°02'53901940567.4
2016-Jun-19 22:31N 31°22' E 121°29'1042745.6
2016-Jun-19 22:29N 29°42' E 122°02'1122050.3
2016-Jun-19 22:25N 31°30' E 121°24'9206.0
2016-Jun-19 22:23N 31°22' E 121°29'65625942.0
2016-Jun-19 22:21N 23°04' E 113°29'65930827.0
2016-Jun-19 22:20N 31°40' E 121°11'465598.9
2016-Jun-19 21:33N 24°26' E 118°05'45435497.5
2016-Jun-19 21:33N 31°22' E 121°29'9858829.2
2016-Jun-19 21:33N 29°49' E 122°06'947061.0
2016-Jun-19 21:32N 31°19' E 121°34'141.4
2016-Jun-19 21:30N 31°18' E 121°33'817115.9
2016-Jun-19 21:29N 31°57' E 120°10'334403.3
2016-Jun-19 21:29N 32°01' E 120°49'22388.1
2016-Jun-19 21:25N 31°44' E 121°06'466541.9
2016-Jun-19 20:34N 24°26' E 118°05'392470163.4
2016-Jun-19 20:33N 29°55' E 122°05'932977.8
2016-Jun-19 20:32N 31°22' E 121°29'631.8
2016-Jun-19 20:21N 31°26' E 121°25'93117.6
2016-Jun-19 19:33N 29°57' E 121°53'388174765.0
2016-Jun-19 19:33N 24°26' E 118°05'884122351.7
2016-Jun-19 19:33N 38°51' E 121°34'44529126.4
2016-Jun-19 19:32N 31°26' E 121°25'6578121.9
2016-Jun-19 19:27N 23°04' E 113°29'656112415.1
2016-Jun-19 19:27N 31°22' E 121°29'722.1
2016-Jun-19 19:07N 31°15' E 121°32'448805.6
2016-Jun-19 18:33N 24°26' E 118°05'88315364.1
2016-Jun-19 18:30N 38°51' E 121°34'4498786.9
2016-Jun-19 18:27N 31°22' E 121°29'6122.2
2016-Jun-19 18:24N 31°18' E 121°33'32671.2
2016-Jun-19 18:21N 31°42' E 121°08'52344.1
2016-Jun-19 18:12N 31°57' E 120°10'420650.4
2016-Jun-19 17:34N 38°51' E 121°34'883288978.8
2016-Jun-19 17:33N 24°26' E 118°05'46616781.6
2016-Jun-19 17:32N 31°44' E 121°06'337.7
2016-Jun-19 17:27N 31°45' E 121°03'26270.9
2016-Jun-19 17:21N 31°26' E 121°25'6577409.1
2016-Jun-19 17:15N 23°04' E 113°29'266380.6
2016-Jun-19 16:34N 24°26' E 118°05'44884966.2
2016-Jun-19 16:33N 31°15' E 121°32'7244.5
2016-Jun-19 16:31N 31°22' E 121°29'6569480.8
2016-Jun-19 16:27N 23°04' E 113°29'6578501.7
2016-Jun-19 16:23N 31°26' E 121°25'44417001.6
2016-Jun-19 16:21N 38°50' E 121°33'41177895.5
2016-Jun-19 16:21N 32°01' E 120°45'23211.1
2016-Jun-19 16:14N 31°45' E 121°04'467687.2
2016-Jun-19 15:33N 24°26' E 118°05'8823176901.8
2016-Jun-19 15:33N 38°50' E 121°32'4115666.1
2016-Jun-19 15:29N 32°01' E 120°47'66312626.1
2016-Jun-19 15:26N 23°04' E 113°29'6397422.1
2016-Jun-19 15:21N 31°58' E 120°06'36524.9
2016-Jun-19 15:17N 32°01' E 120°48'47380.8
2016-Jun-19 15:09N 31°26' E 121°25'456763.3
2016-Jun-19 14:33N 24°26' E 118°05'883198615.0
2016-Jun-19 14:33N 38°51' E 121°33'41125514.6
2016-Jun-19 14:32N 32°01' E 120°47'3238591.7
2016-Jun-19 14:32N 31°57' E 120°10'762415.1
2016-Jun-19 14:30N 31°22' E 121°29'5394.2
2016-Jun-19 14:30N 31°24' E 121°34'6609984.7
2016-Jun-19 14:26N 23°04' E 113°29'10475862.5
2016-Jun-19 14:15N 39°01' E 121°45'1420.9
2016-Jun-19 13:34N 38°51' E 121°32'88370620.9
2016-Jun-19 13:33N 24°26' E 118°05'47729630.2
2016-Jun-19 13:32N 32°01' E 120°47'49909.8
2016-Jun-19 13:29N 31°28' E 121°28'6153.3
2016-Jun-19 13:26N 31°22' E 121°29'65610308.8
2016-Jun-19 13:23N 23°04' E 113°29'64032463.0
2016-Jun-19 13:21N 31°57' E 120°10'7017882.0
2016-Jun-19 13:21N 31°29' E 121°25'15123.1
2016-Jun-19 13:14N 31°15' E 121°32'448667.4
2016-Jun-19 12:33N 24°26' E 118°05'455234237.3
2016-Jun-19 12:33N 31°23' E 121°31'7169.2
2016-Jun-19 12:31N 31°17' E 121°34'723726.8
2016-Jun-19 12:31N 31°22' E 121°29'65826022.5
2016-Jun-19 12:29N 23°00' E 113°31'103781137.0
2016-Jun-19 12:28N 38°51' E 121°33'44527123.9
2016-Jun-19 12:28N 31°26' E 121°25'6412188.0
2016-Jun-19 12:27N 31°59' E 120°20'469523.0
2016-Jun-19 11:33N 24°26' E 118°05'45420411.1
2016-Jun-19 11:32N 31°22' E 121°29'1110.4
2016-Jun-19 11:31N 31°21' E 121°30'546703.4
2016-Jun-19 11:31N 32°01' E 120°47'47371.5
2016-Jun-19 11:23N 31°26' E 121°25'6647014.6
2016-Jun-19 11:18N 22°54' E 113°30'269363.9
2016-Jun-19 10:33N 24°26' E 118°05'45691221.0
2016-Jun-19 10:33N 31°23' E 121°34'5236.2
2016-Jun-19 10:32N 31°22' E 121°29'9104.5
2016-Jun-19 10:27N 31°30' E 121°24'40309.0
2016-Jun-19 10:19N 31°58' E 120°51'31157.7
2016-Jun-19 10:07N 31°56' E 120°14'464822.3
2016-Jun-19 09:33N 24°26' E 118°05'4632766.0
2016-Jun-19 09:23N 31°56' E 120°10'751371.2
2016-Jun-19 09:20N 31°22' E 121°29'1085880.8
2016-Jun-19 09:19N 29°38' E 122°01'1139247.4
2016-Jun-19 09:18N 31°26' E 121°25'456613.1
2016-Jun-19 08:34N 24°26' E 118°05'383172530.2
2016-Jun-19 08:33N 29°45' E 122°03'1014003.6
2016-Jun-19 08:32N 31°22' E 121°29'55558.4
2016-Jun-19 08:26N 32°01' E 120°43'4148.6
2016-Jun-19 08:24N 32°00' E 120°39'24154.3
2016-Jun-19 08:15N 31°57' E 120°11'4445438.2
2016-Jun-19 08:10N 39°05' E 117°45'49710411.8
2016-Jun-19 08:07N 31°22' E 121°29'454803.2
2016-Jun-19 07:33N 24°26' E 118°05'87890354.2
2016-Jun-19 07:33N 39°04' E 117°48'589212005.0
2016-Jun-19 07:33N 29°55' E 122°08'1425665.2
2016-Jun-19 07:31N 32°00' E 120°49'45444.9
2016-Jun-19 07:25N 31°26' E 121°25'6105.9
2016-Jun-19 07:22N 31°22' E 121°29'622.9
2016-Jun-19 07:07N 31°23' E 121°36'456815.9
2016-Jun-19 06:33N 24°26' E 118°05'45529279.3
2016-Jun-19 06:33N 31°23' E 121°31'8845440.4
2016-Jun-19 06:32N 30°00' E 122°05'884201.8
2016-Jun-19 06:31N 31°22' E 121°29'2400.0
2016-Jun-19 06:31N 31°21' E 121°31'7184949.6
2016-Jun-19 06:31N 31°59' E 120°22'4442059.6
2016-Jun-19 06:18N 39°05' E 117°45'4444701.5
2016-Jun-19 06:12N 31°57' E 120°10'25981.8
2016-Jun-19 06:11N 32°00' E 120°39'474766.3
2016-Jun-19 05:33N 24°26' E 118°05'452325750.0
2016-Jun-19 05:33N 31°19' E 121°34'83299993.8
2016-Jun-19 05:33N 30°00' E 122°05'1492899.4
2016-Jun-19 05:30N 31°57' E 120°17'702186.6
2016-Jun-19 05:28N 31°22' E 121°29'761064.6
2016-Jun-19 05:24N 31°57' E 120°10'291731.5
2016-Jun-19 05:23N 32°01' E 120°44'614918.9
2016-Jun-19 05:22N 31°15' E 121°33'449541.3
2016-Jun-19 04:33N 24°26' E 118°05'3971428782.8
2016-Jun-19 04:33N 30°00' E 122°05'86309964.9
2016-Jun-19 04:33N 31°23' E 121°40'75505.5
2016-Jun-19 04:24N 31°58' E 120°22'734399.8
2016-Jun-19 04:23N 31°22' E 121°37'823099.8
2016-Jun-19 04:21N 31°56' E 120°09'82463.7
2016-Jun-19 04:11N 31°16' E 121°33'449727.1
2016-Jun-19 03:33N 24°26' E 118°05'39710427.4
2016-Jun-19 03:31N 30°00' E 122°05'8533817.3
2016-Jun-19 03:31N 31°20' E 121°33'854559.8
2016-Jun-19 03:30N 31°57' E 120°04'38491.3
2016-Jun-19 03:25N 32°00' E 120°48'573499.3
2016-Jun-19 03:24N 31°23' E 121°40'472579.0
2016-Jun-19 03:23N 31°49' E 120°54'46120260.9
2016-Jun-19 03:22N 39°05' E 117°46'50310705.8
2016-Jun-19 03:19N 31°18' E 121°33'73854.4
2016-Jun-19 03:14N 31°58' E 120°22'4454379.5
2016-Jun-19 03:08N 39°05' E 117°45'8791528.5
2016-Jun-19 02:33N 24°26' E 118°05'39754945.1
2016-Jun-19 02:33N 30°00' E 122°05'13029249.8
2016-Jun-19 02:33N 31°54' E 120°53'477282.3
2016-Jun-19 02:32N 31°24' E 121°34'49521232.1
2016-Jun-19 02:31N 39°04' E 117°50'184.3
2016-Jun-19 02:30N 39°04' E 117°51'4981772.0
2016-Jun-19 02:13N 31°20' E 121°33'453684.0
2016-Jun-19 01:34N 24°26' E 118°05'420756003.1
2016-Jun-19 01:34N 31°26' E 118°02'458825196.7
2016-Jun-19 01:33N 39°04' E 117°49'58356757.2
2016-Jun-19 01:33N 30°00' E 122°05'70251205.6
2016-Jun-19 01:33N 30°59' E 121°22'3712096.2
2016-Jun-19 01:33N 31°36' E 121°18'516918.7
2016-Jun-19 01:33N 31°32' E 121°22'12476.1
2016-Jun-19 01:31N 31°24' E 121°32'2226410.0
2016-Jun-19 01:31N 31°02' E 121°29'51451364.1
2016-Jun-19 01:30N 39°04' E 117°51'487194671.8
2016-Jun-19 01:30N 31°29' E 121°25'9534190.3
2016-Jun-19 01:30N 29°59' E 121°57'94591.3
2016-Jun-19 01:21N 31°28' E 121°25'29225.4
2016-Jun-19 01:13N 30°59' E 121°24'413297.3
2016-Jun-19 01:12N 31°40' E 121°14'46432.5
2016-Jun-19 01:06N 32°02' E 120°26'64619215.8
2016-Jun-19 01:04N 23°06' E 113°38'257505.2
2016-Jun-19 00:33N 24°26' E 118°05'460127502.3
2016-Jun-19 00:33N 31°32' E 121°23'9925407.0
2016-Jun-19 00:33N 30°00' E 122°05'62022.4
2016-Jun-19 00:33N 29°55' E 122°08'762417.4
2016-Jun-19 00:31N 30°59' E 121°22'3013661.2
2016-Jun-19 00:31N 31°29' E 121°25'155357.8
2016-Jun-19 00:30N 31°21' E 121°40'3216448.1
2016-Jun-19 00:30N 31°41' E 121°11'4219032.3
2016-Jun-19 00:30N 31°02' E 121°29'813011.0
2016-Jun-19 00:29N 31°60' E 120°22'828949.8
2016-Jun-19 00:28N 31°01' E 121°29'53776.2
2016-Jun-19 00:28N 30°59' E 121°24'9234.2
2016-Jun-19 00:26N 31°08' E 121°28'3461023.1
2016-Jun-19 00:26N 31°40' E 121°14'57204371.4
2016-Jun-19 00:26N 31°57' E 120°10'705830.9
2016-Jun-19 00:25N 31°29' E 121°25'120.1
2016-Jun-19 00:22N 31°28' E 121°25'14326.8
2016-Jun-19 00:19N 31°39' E 121°14'656472370.8
2016-Jun-19 00:19N 23°05' E 113°34'656866.9
2016-Jun-18 23:34N 31°41' E 121°11'3111219.9
2016-Jun-18 23:33N 31°21' E 121°38'9959256.2
2016-Jun-18 23:33N 29°45' E 122°03'610274611.4
2016-Jun-18 23:33N 23°03' E 113°30'659338785.1
2016-Jun-18 23:33N 31°29' E 121°25'458183304.8
2016-Jun-18 23:33N 24°26' E 118°05'430387034.0
2016-Jun-18 23:33N 30°59' E 121°22'30109268.2
2016-Jun-18 23:33N 31°29' E 121°25'034.0
2016-Jun-18 23:32N 31°29' E 121°25'278991.1
2016-Jun-18 23:32N 31°02' E 121°29'6911348.6
2016-Jun-18 23:32N 30°00' E 122°05'9618229.8
2016-Jun-18 23:32N 31°30' E 121°25'660339650.6
2016-Jun-18 23:31N 22°57' E 113°37'64634707.4
2016-Jun-18 23:30N 31°08' E 121°28'168196.8
2016-Jun-18 23:30N 31°22' E 121°37'821377.2
2016-Jun-18 23:27N 31°57' E 120°10'4221.0
2016-Jun-18 23:26N 31°56' E 120°14'533739.3
2016-Jun-18 23:25N 31°40' E 121°14'5718633.6
2016-Jun-18 23:25N 31°57' E 120°10'852017.7
2016-Jun-18 23:22N 30°59' E 121°24'516.9
2016-Jun-18 23:03N 31°01' E 121°29'435871.8
2016-Jun-18 22:34N 24°26' E 118°05'26969213.2
2016-Jun-18 22:33N 23°04' E 113°25'624374671.6
2016-Jun-18 22:33N 30°00' E 122°05'8718456.5
2016-Jun-18 22:33N 31°22' E 121°30'65781619.0
2016-Jun-18 22:32N 22°57' E 113°37'642115582.1
2016-Jun-18 22:32N 31°02' E 121°29'2825221.2
2016-Jun-18 22:32N 31°30' E 121°25'225651.7
2016-Jun-18 22:32N 31°08' E 121°28'105367.3
2016-Jun-18 22:32N 30°59' E 121°22'2148.9
2016-Jun-18 22:31N 30°59' E 121°23'4111412.5
2016-Jun-18 22:31N 31°40' E 121°14'543048.5
2016-Jun-18 22:30N 31°57' E 120°13'749846.8
2016-Jun-18 22:29N 31°22' E 121°30'251017.9
2016-Jun-18 22:28N 31°41' E 121°11'16228.1
2016-Jun-18 22:24N 31°30' E 121°24'154150.0
2016-Jun-18 22:23N 31°21' E 121°38'261362.9
2016-Jun-18 22:22N 31°17' E 121°08'5713755.5
2016-Jun-18 22:22N 31°58' E 120°22'8114582.0
2016-Jun-18 22:22N 31°01' E 121°29'331754.8
2016-Jun-18 22:21N 30°56' E 122°08'36960.7
2016-Jun-18 22:18N 31°23' E 121°40'1051158.0
2016-Jun-18 22:13N 29°41' E 122°06'5447208622.6
2016-Jun-18 22:11N 49°18' W 123°02'539152450.6
2016-Jun-18 22:05N 31°18' E 121°33'1630.8
2016-Jun-18 21:33N 31°02' E 121°29'435313475.3
2016-Jun-18 21:33N 24°26' E 118°05'43557960.1
2016-Jun-18 21:33N 31°01' E 121°29'6820497.0
2016-Jun-18 21:33N 30°00' E 122°05'9757950.5
2016-Jun-18 21:33N 31°30' E 121°24'665266016.9
2016-Jun-18 21:33N 23°03' E 113°20'643771126.8
2016-Jun-18 21:32N 31°58' E 120°00'141590.6
2016-Jun-18 21:32N 31°57' E 120°17'6423059.2
2016-Jun-18 21:32N 31°30' E 121°25'162833.5
2016-Jun-18 21:31N 31°16' E 121°33'193546.3
2016-Jun-18 21:31N 30°59' E 121°23'4114836.2
2016-Jun-18 21:31N 31°40' E 121°14'417075.5
2016-Jun-18 21:31N 30°59' E 121°22'253633.9
2016-Jun-18 21:30N 31°23' E 121°30'6913145.9
2016-Jun-18 21:30N 31°58' E 120°20'1617516.1
2016-Jun-18 21:29N 29°44' E 122°03'1262407.5
2016-Jun-18 21:25N 31°41' E 121°11'32507.2
2016-Jun-18 21:22N 31°16' E 121°33'5018267.2
2016-Jun-18 21:18N 23°41' E 117°36'4923807.1
2016-Jun-18 21:10N 31°08' E 121°28'440718.1
2016-Jun-18 20:33N 24°26' E 118°05'463238288.3
2016-Jun-18 20:33N 31°37' E 121°16'3714694.9
2016-Jun-18 20:33N 31°02' E 121°29'69249515.7
2016-Jun-18 20:33N 30°00' E 122°05'8072153.9
2016-Jun-18 20:33N 31°15' E 121°32'81258.5
2016-Jun-18 20:33N 31°08' E 121°28'712638.1
2016-Jun-18 20:33N 31°01' E 121°29'72250.2
2016-Jun-18 20:33N 30°59' E 121°22'21456.8
2016-Jun-18 20:30N 31°17' E 121°34'156849.0
2016-Jun-18 20:30N 31°30' E 121°24'135.9
2016-Jun-18 20:29N 31°30' E 121°25'1054066.6
2016-Jun-18 20:27N 29°52' E 122°08'159589.6
2016-Jun-18 20:11N 31°56' E 120°12'8041344.2
2016-Jun-18 20:11N 30°58' E 121°18'5575.8
2016-Jun-18 20:10N 30°59' E 121°23'436799.6
2016-Jun-18 20:10N 31°41' E 121°11'31561.4
2016-Jun-18 20:07N 31°18' E 121°33'451818.1
2016-Jun-18 19:33N 24°26' E 118°05'391703405.7
2016-Jun-18 19:33N 29°55' E 122°02'84151543.8
2016-Jun-18 19:33N 31°16' E 121°33'1513599.3
2016-Jun-18 19:33N 31°29' E 121°25'2119201.2
2016-Jun-18 19:33N 31°08' E 121°28'2723947.2
2016-Jun-18 19:33N 31°34' E 121°20'343183.1
2016-Jun-18 19:33N 31°01' E 121°29'6811180.2
2016-Jun-18 19:32N 30°00' E 122°05'9628853.7
2016-Jun-18 19:32N 31°30' E 121°25'1628558.3
2016-Jun-18 19:32N 31°16' E 121°33'203610.5
2016-Jun-18 19:32N 30°59' E 121°19'2856.5
2016-Jun-18 19:31N 30°59' E 121°22'71072.4
2016-Jun-18 19:31N 31°02' E 121°29'161962.6
2016-Jun-18 19:31N 31°18' E 121°33'3118339.5
2016-Jun-18 19:31N 31°41' E 121°11'324987.4
2016-Jun-18 19:30N 31°15' E 121°32'16303.2
2016-Jun-18 19:27N 31°30' E 121°24'66125047.0
2016-Jun-18 19:25N 22°60' E 113°31'63812618.9
2016-Jun-18 19:22N 30°59' E 121°23'63715287.7
2016-Jun-18 19:20N 22°57' E 113°37'642832.8
2016-Jun-18 18:34N 31°01' E 121°29'4701690397.1
2016-Jun-18 18:34N 38°50' E 121°47'472849488.8
2016-Jun-18 18:33N 30°59' E 121°22'103148.0
2016-Jun-18 18:33N 31°08' E 121°28'7545037.9
2016-Jun-18 18:33N 30°00' E 122°05'133099.4
2016-Jun-18 18:33N 29°57' E 121°51'61043068.5
2016-Jun-18 18:32N 22°57' E 113°37'661237959.8
2016-Jun-18 18:32N 31°30' E 121°25'11977.1
2016-Jun-18 18:32N 31°30' E 121°25'2812690.9
2016-Jun-18 18:32N 31°02' E 121°29'281403.5
2016-Jun-18 18:31N 31°30' E 121°24'31825.0
2016-Jun-18 18:28N 30°59' E 121°23'17393.4
2016-Jun-18 18:26N 31°15' E 121°32'15325.8
2016-Jun-18 18:23N 31°29' E 121°25'17167.2
2016-Jun-18 18:17N 31°41' E 121°11'465649.3
2016-Jun-18 17:34N 24°26' E 118°05'39731749.6
2016-Jun-18 17:33N 30°00' E 122°05'522187837.2
2016-Jun-18 17:33N 38°42' E 121°45'46387760.8
2016-Jun-18 17:32N 30°59' E 121°22'192452.9
2016-Jun-18 17:32N 31°16' E 121°33'119608.3
2016-Jun-18 17:32N 31°26' E 121°30'61988.0
2016-Jun-18 17:32N 31°30' E 121°25'145751.6
2016-Jun-18 17:32N 31°23' E 121°40'312624.6
2016-Jun-18 17:31N 31°42' E 121°11'661264483.8
2016-Jun-18 17:31N 23°01' E 113°31'6601187887.8
2016-Jun-18 17:31N 31°30' E 121°24'162326.9
2016-Jun-18 17:30N 31°16' E 121°33'151908.8
2016-Jun-18 17:30N 31°02' E 121°29'16196.5
2016-Jun-18 17:25N 31°18' E 121°33'11701.0
2016-Jun-18 17:24N 31°08' E 121°28'9391.4
2016-Jun-18 17:22N 30°59' E 121°23'309815.4
2016-Jun-18 17:22N 31°29' E 121°25'15171.3
2016-Jun-18 17:17N 31°16' E 121°33'28559.7
2016-Jun-18 17:14N 31°38' E 121°14'394715.9
2016-Jun-18 17:13N 31°01' E 121°29'6420858.0
2016-Jun-18 17:13N 30°02' E 121°57'711.2
2016-Jun-18 16:34N 30°00' E 122°05'9726780.7
2016-Jun-18 16:33N 31°30' E 121°24'459110204.7
2016-Jun-18 16:33N 24°26' E 118°05'45997257.9
2016-Jun-18 16:33N 31°30' E 121°25'173975.6
2016-Jun-18 16:33N 31°41' E 121°11'434938.4
2016-Jun-18 16:32N 31°02' E 121°29'7586.1
2016-Jun-18 16:31N 30°59' E 121°22'29921.7
2016-Jun-18 16:29N 31°23' E 121°40'664149413.3
2016-Jun-18 16:29N 23°02' E 113°31'65719886.6
2016-Jun-18 16:27N 31°22' E 121°30'21603.2
2016-Jun-18 16:25N 31°38' E 121°14'265922.2
2016-Jun-18 16:25N 31°18' E 121°33'14394.8
2016-Jun-18 16:23N 31°29' E 121°25'21270.5
2016-Jun-18 16:18N 31°08' E 121°28'9125.0
2016-Jun-18 16:13N 30°59' E 121°23'431645.9
2016-Jun-18 15:33N 24°26' E 118°05'39742015.7
2016-Jun-18 15:33N 30°00' E 122°05'8715745.3
2016-Jun-18 15:33N 31°22' E 121°30'245808.8
2016-Jun-18 15:32N 30°59' E 121°22'2125.6
2016-Jun-18 15:31N 30°59' E 121°24'314813.2
2016-Jun-18 15:31N 31°30' E 121°24'162395.1
2016-Jun-18 15:31N 31°42' E 121°11'433647.6
2016-Jun-18 15:30N 31°02' E 121°29'146.8
2016-Jun-18 15:29N 31°01' E 121°29'642144370.8
2016-Jun-18 15:29N 23°02' E 113°31'664170758.1
2016-Jun-18 15:28N 31°23' E 121°40'26799.1
2016-Jun-18 15:26N 31°38' E 121°14'12179.9
2016-Jun-18 15:22N 31°30' E 121°25'96118.3
2016-Jun-18 14:34N 30°00' E 122°05'397204081.6
2016-Jun-18 14:33N 24°26' E 118°05'459275222.4
2016-Jun-18 14:33N 31°23' E 121°40'152014.5
2016-Jun-18 14:33N 31°30' E 121°24'141986.7
2016-Jun-18 14:32N 31°40' E 121°12'422745.9
2016-Jun-18 14:32N 31°01' E 121°29'71904.0
2016-Jun-18 14:31N 30°59' E 121°22'4411198.3
2016-Jun-18 14:31N 31°41' E 121°11'424928.6
2016-Jun-18 14:31N 31°02' E 121°29'382556.5
2016-Jun-18 14:30N 31°38' E 121°14'40582.7
2016-Jun-18 14:26N 30°59' E 121°24'9116.6
2016-Jun-18 14:21N 31°08' E 121°28'11377.7
2016-Jun-18 14:19N 31°18' E 121°33'65713677.6
2016-Jun-18 14:16N 22°56' E 113°36'647910.2
2016-Jun-18 13:33N 31°08' E 121°28'440176173.5
2016-Jun-18 13:33N 24°26' E 118°05'4301547941.0
2016-Jun-18 13:33N 30°59' E 121°22'3744897.4
2016-Jun-18 13:33N 31°36' E 121°17'8876.4
2016-Jun-18 13:33N 31°41' E 121°11'4250839.8
2016-Jun-18 13:33N 31°02' E 121°29'698914.0
2016-Jun-18 13:32N 30°00' E 122°05'962459.0
2016-Jun-18 13:30N 31°30' E 121°25'31433.3
2016-Jun-18 13:26N 30°59' E 121°24'30623.9
2016-Jun-18 13:23N 31°30' E 121°24'033.3
2016-Jun-18 13:22N 31°29' E 121°25'013.9
2016-Jun-18 13:20N 31°29' E 121°25'1 8.5
2016-Jun-18 13:14N 31°30' E 121°24'961.3
2016-Jun-18 13:05N 31°22' E 121°30'1223.1
2016-Jun-18 12:34N 31°32' E 121°22'99119014.5
2016-Jun-18 12:34N 30°00' E 122°05'397285717.9
2016-Jun-18 12:33N 24°26' E 118°05'459206624.8
2016-Jun-18 12:33N 31°30' E 121°24'1611503.8
2016-Jun-18 12:33N 31°41' E 121°11'182371.9
2016-Jun-18 12:33N 31°29' E 121°25'1180.6
2016-Jun-18 12:32N 31°30' E 121°25'317938.4
2016-Jun-18 12:32N 30°59' E 121°22'304760.9
2016-Jun-18 12:32N 31°29' E 121°25'3021535.0
2016-Jun-18 12:32N 30°59' E 121°24'9807.5
2016-Jun-18 12:31N 31°08' E 121°28'6682.1
2016-Jun-18 12:30N 31°02' E 121°29'134402.8
2016-Jun-18 12:30N 31°15' E 121°32'8122521.7
2016-Jun-18 12:30N 31°57' E 120°10'6412306652.2
2016-Jun-18 12:30N 23°02' E 113°32'6566154.4
2016-Jun-18 12:24N 31°22' E 121°30'4501577.8
2016-Jun-18 12:07N 38°52' E 121°32'45725297.9
2016-Jun-18 12:05N 31°15' E 121°32'448841.3
2016-Jun-18 11:33N 24°26' E 118°05'39789286.8
2016-Jun-18 11:33N 30°00' E 122°05'692833.0
2016-Jun-18 11:32N 30°59' E 121°24'319202.1
2016-Jun-18 11:32N 31°30' E 121°24'314482.1
2016-Jun-18 11:31N 30°59' E 121°22'4352140.2
2016-Jun-18 11:31N 31°41' E 121°11'172392.9
2016-Jun-18 11:31N 31°29' E 121°25'272807.4
2016-Jun-18 11:30N 31°02' E 121°29'64164116.5
2016-Jun-18 11:29N 23°02' E 113°32'65549146.6
2016-Jun-18 11:29N 31°18' E 121°34'255.8
2016-Jun-18 11:26N 31°20' E 121°33'11302.9
2016-Jun-18 11:24N 31°29' E 121°27'6698818.7
2016-Jun-18 11:19N 22°55' E 113°26'654392233.4
2016-Jun-18 11:19N 31°08' E 121°28'20474.2
2016-Jun-18 11:17N 31°28' E 121°25'111.6
2016-Jun-18 11:12N 31°29' E 121°25'96149.4
2016-Jun-18 10:34N 30°00' E 122°05'397119047.6
2016-Jun-18 10:33N 24°26' E 118°05'465837719.9
2016-Jun-18 10:33N 31°41' E 121°11'1821597.9
2016-Jun-18 10:33N 31°28' E 121°25'3013278.5
2016-Jun-18 10:33N 30°59' E 121°22'2646106.0
2016-Jun-18 10:33N 31°23' E 121°31'2341.1
2016-Jun-18 10:33N 31°21' E 121°31'6931.3
2016-Jun-18 10:32N 31°27' E 121°30'10374.5
2016-Jun-18 10:31N 31°32' E 121°20'312106.0
2016-Jun-18 10:30N 31°02' E 121°29'64993412.1
2016-Jun-18 10:29N 22°54' E 113°30'64459410.6
2016-Jun-18 10:29N 30°59' E 121°24'31677.5
2016-Jun-18 10:26N 31°30' E 121°24'151080.7
2016-Jun-18 10:25N 31°18' E 121°33'11374.2
2016-Jun-18 10:24N 31°08' E 121°28'21556.7
2016-Jun-18 10:21N 31°29' E 121°25'170759.3
2016-Jun-18 10:08N 31°25' E 118°06'174303.3
2016-Jun-18 09:33N 31°22' E 121°30'454408664.6
2016-Jun-18 09:33N 24°26' E 118°05'45841223.4
2016-Jun-18 09:33N 31°28' E 121°25'262804.1
2016-Jun-18 09:32N 31°02' E 121°29'74097.2
2016-Jun-18 09:32N 30°59' E 121°22'262338.6
2016-Jun-18 09:31N 31°21' E 121°37'141205.7
2016-Jun-18 09:31N 31°30' E 121°24'92538.7
2016-Jun-18 09:30N 31°36' E 121°16'181216.5
2016-Jun-18 09:30N 31°23' E 121°31'6913872.3
2016-Jun-18 09:29N 32°00' E 120°21'14953732.1
2016-Jun-18 09:29N 30°00' E 122°05'1119121.7
2016-Jun-18 09:28N 31°41' E 121°11'361474.1
2016-Jun-18 09:27N 31°08' E 121°28'9565.3
2016-Jun-18 09:26N 30°59' E 121°24'30280.7
2016-Jun-18 09:19N 31°29' E 121°25'6604245.6
2016-Jun-18 09:10N 23°01' E 113°31'265432.1
2016-Jun-18 08:33N 24°26' E 118°05'465152312.7
2016-Jun-18 08:33N 31°41' E 121°11'426924.5
2016-Jun-18 08:33N 31°02' E 121°29'697558.7
2016-Jun-18 08:32N 30°00' E 122°05'97173841.5
2016-Jun-18 08:32N 31°30' E 121°24'311492.5
2016-Jun-18 08:31N 30°59' E 121°22'7165.0
2016-Jun-18 08:29N 31°01' E 121°29'425439.9
2016-Jun-18 08:28N 31°41' E 121°11'431205.4
2016-Jun-18 08:26N 30°59' E 121°24'20229.7
2016-Jun-18 08:21N 31°17' E 121°34'175.9
2016-Jun-18 08:20N 31°18' E 121°33'65527104.2
2016-Jun-18 08:19N 23°04' E 113°30'641177379.3
2016-Jun-18 08:18N 31°01' E 121°29'211195.3
2016-Jun-18 08:17N 31°22' E 121°30'984.1
2016-Jun-18 08:11N 31°23' E 121°40'181412.5
2016-Jun-18 08:11N 31°08' E 121°28'755425.2
2016-Jun-18 08:10N 31°58' E 120°22'722509.6
2016-Jun-18 08:08N 31°20' E 121°33'781937.9
2016-Jun-18 08:06N 31°57' E 120°12'465866.6
2016-Jun-18 07:33N 24°26' E 118°05'44745939.6
2016-Jun-18 07:33N 31°14' E 121°29'1526156.8
2016-Jun-18 07:33N 31°28' E 121°25'2711949.7
2016-Jun-18 07:33N 31°02' E 121°29'6941556.5
2016-Jun-18 07:33N 30°00' E 122°05'977903.9
2016-Jun-18 07:32N 31°30' E 121°24'163382.6
2016-Jun-18 07:32N 31°41' E 121°11'434598.1
2016-Jun-18 07:31N 30°59' E 121°22'7122.9
2016-Jun-18 07:28N 31°02' E 121°29'836100.4
2016-Jun-18 07:27N 31°57' E 120°16'825870.3
2016-Jun-18 07:26N 30°59' E 121°24'693169.6
2016-Jun-18 07:25N 32°01' E 120°48'542415.0
2016-Jun-18 07:23N 31°21' E 121°31'132639.0
2016-Jun-18 07:23N 31°08' E 121°28'634047.0
2016-Jun-18 07:22N 32°01' E 120°48'5265346.9
2016-Jun-18 07:16N 23°44' E 117°34'51830545.6
2016-Jun-18 07:15N 31°59' E 120°26'469676.6
2016-Jun-18 06:34N 24°26' E 118°05'440396390.3
2016-Jun-18 06:33N 31°08' E 121°28'52387.6
2016-Jun-18 06:33N 31°03' E 121°28'414212.6
2016-Jun-18 06:33N 31°41' E 121°11'432898.1
2016-Jun-18 06:32N 30°59' E 121°22'3115993.7
2016-Jun-18 06:32N 31°30' E 121°24'204337.5
2016-Jun-18 06:31N 31°10' E 121°28'774758.7
2016-Jun-18 06:31N 30°00' E 122°05'8677151.6
2016-Jun-18 06:30N 31°22' E 121°36'593.7
2016-Jun-18 06:27N 31°23' E 121°30'28415.0
2016-Jun-18 06:23N 30°58' E 121°16'80975.1
2016-Jun-18 06:18N 31°56' E 120°11'6404542.1
2016-Jun-18 06:10N 23°04' E 113°30'65834835.7
2016-Jun-18 06:09N 31°28' E 121°25'813.4
2016-Jun-18 05:34N 31°22' E 121°30'171763.8
2016-Jun-18 05:33N 31°05' E 121°28'2534.4
2016-Jun-18 05:33N 31°07' E 121°28'199930.7
2016-Jun-18 05:33N 31°26' E 121°29'2816862.2
2016-Jun-18 05:33N 30°59' E 121°21'7011975.2
2016-Jun-18 05:32N 30°00' E 122°05'704650.8
2016-Jun-18 05:31N 30°59' E 121°22'313393.6
2016-Jun-18 05:31N 31°30' E 121°24'161703.2
2016-Jun-18 05:30N 31°41' E 121°11'4426118.3
2016-Jun-18 05:30N 30°59' E 121°22'51788670.4
2016-Jun-18 05:30N 39°05' E 117°45'49111109.0
2016-Jun-18 05:27N 31°28' E 121°25'393230.2
2016-Jun-18 05:26N 31°55' E 120°53'387142.7
2016-Jun-18 05:26N 31°29' E 121°25'010.3
2016-Jun-18 05:25N 31°29' E 121°25'741559.5
2016-Jun-18 05:22N 31°57' E 120°04'464576.2
2016-Jun-18 04:34N 24°26' E 118°05'434781367.8
2016-Jun-18 04:33N 31°01' E 121°28'039.5
2016-Jun-18 04:33N 31°01' E 121°28'7166.9
2016-Jun-18 04:30N 31°08' E 121°28'1527421.0
2016-Jun-18 04:30N 31°23' E 121°30'712790.6
2016-Jun-18 04:30N 31°17' E 121°34'93884.2
2016-Jun-18 04:30N 31°10' E 121°28'121768.0
2016-Jun-18 04:30N 31°22' E 121°30'496118993.3
2016-Jun-18 04:29N 39°04' E 117°51'5832097397.8
2016-Jun-18 04:29N 30°00' E 122°05'7012555.7
2016-Jun-18 04:29N 30°59' E 121°22'316597.1
2016-Jun-18 04:29N 31°30' E 121°24'401040.1
2016-Jun-18 04:26N 31°59' E 120°51'653677.9
2016-Jun-18 04:25N 30°59' E 121°22'634456680.7
2016-Jun-18 04:25N 23°04' E 113°30'6586930.9
2016-Jun-18 04:20N 31°30' E 121°24'695064.5
2016-Jun-18 04:19N 31°57' E 120°10'803980.3
2016-Jun-18 04:18N 31°20' E 121°33'1290.3
2016-Jun-18 04:10N 31°29' E 121°25'4895368.7
2016-Jun-18 04:04N 39°05' E 117°46'49039215.8
2016-Jun-18 04:04N 31°28' E 121°25'95188.0
2016-Jun-18 03:33N 30°00' E 122°05'7027910.7
2016-Jun-18 03:33N 30°59' E 121°22'430103209.1
2016-Jun-18 03:33N 24°26' E 118°05'430257990.2
2016-Jun-18 03:33N 30°59' E 121°22'92056.4
2016-Jun-18 03:33N 31°06' E 121°28'7910566.2
2016-Jun-18 03:32N 31°57' E 120°16'7111161.4
2016-Jun-18 03:32N 31°23' E 121°31'2383804.7
2016-Jun-18 03:32N 31°00' E 121°26'263481.7
2016-Jun-18 03:31N 31°27' E 121°28'3306.0
2016-Jun-18 03:31N 31°28' E 121°25'2103.9
2016-Jun-18 03:30N 31°30' E 121°24'112757.0
2016-Jun-18 03:29N 31°21' E 121°31'27803.8
2016-Jun-18 03:27N 31°41' E 121°11'331356.3
2016-Jun-18 03:26N 31°13' E 121°30'65054404.9
2016-Jun-18 03:25N 23°04' E 113°29'65535731.3
2016-Jun-18 03:24N 31°17' E 121°34'6557584.9
2016-Jun-18 03:19N 23°02' E 113°32'659118599.1
2016-Jun-18 03:19N 31°30' E 121°24'221624.5
2016-Jun-18 03:18N 31°08' E 121°28'1165.8
2016-Jun-18 03:08N 31°18' E 121°33'1832.1
2016-Jun-18 02:33N 31°00' E 121°26'1518077.6
2016-Jun-18 02:33N 31°15' E 121°31'448322500.9
2016-Jun-18 02:33N 24°26' E 118°05'397285717.9
2016-Jun-18 02:33N 30°00' E 122°05'7520795.7
2016-Jun-18 02:33N 31°08' E 121°28'92824.7
2016-Jun-18 02:33N 30°59' E 121°24'29104369.8
2016-Jun-18 02:33N 31°28' E 121°25'1807.5
2016-Jun-18 02:33N 31°30' E 121°24'313669.5
2016-Jun-18 02:32N 30°59' E 121°22'312445.8
2016-Jun-18 02:31N 31°30' E 121°24'26794.1
2016-Jun-18 02:29N 31°04' E 121°28'262143.9
2016-Jun-18 02:29N 31°30' E 121°24'16297.5
2016-Jun-18 02:26N 31°41' E 121°11'23909.4
2016-Jun-18 02:24N 31°58' E 120°51'372320.5
2016-Jun-18 02:23N 31°56' E 120°08'821529.3
2016-Jun-18 02:20N 31°18' E 121°33'65526216.7
2016-Jun-18 02:18N 23°02' E 113°32'6566749.3
2016-Jun-18 02:12N 31°21' E 121°31'10316.2
2016-Jun-18 02:11N 31°29' E 121°25'142286.6
2016-Jun-18 02:10N 31°23' E 121°40'6639433.5
2016-Jun-18 02:06N 23°04' E 113°29'65717641.9
2016-Jun-18 02:04N 31°20' E 121°33'453896.6
2016-Jun-18 01:34N 24°26' E 118°05'397204084.2
2016-Jun-18 01:33N 30°00' E 122°05'8222747.3
2016-Jun-18 01:33N 31°18' E 121°34'2136994.7
2016-Jun-18 01:33N 30°59' E 121°23'33759.1
2016-Jun-18 01:33N 31°00' E 121°26'3021376.7
2016-Jun-18 01:33N 31°30' E 121°24'3110040.4
2016-Jun-18 01:33N 30°59' E 121°24'9998.1
2016-Jun-18 01:32N 31°08' E 121°28'261851.3
2016-Jun-18 01:31N 31°33' E 121°19'346493.4
2016-Jun-18 01:31N 30°59' E 121°22'1916971.6
2016-Jun-18 01:31N 31°15' E 121°32'143424.5
2016-Jun-18 01:31N 31°28' E 121°25'7859.9
2016-Jun-18 01:30N 31°23' E 121°30'25576.8
2016-Jun-18 01:28N 31°41' E 121°11'173228.2
2016-Jun-18 01:27N 31°29' E 121°25'25938.2
2016-Jun-18 01:26N 31°04' E 121°28'858259.6
2016-Jun-18 01:25N 31°57' E 120°10'6310347.6
2016-Jun-18 01:25N 31°17' E 121°08'19206.2
2016-Jun-18 01:19N 31°31' E 121°22'66025262.0
2016-Jun-18 01:18N 23°01' E 113°32'66211191.6
2016-Jun-18 01:14N 32°00' E 120°45'44923066.6
2016-Jun-18 01:13N 39°05' E 117°46'8791333.6
2016-Jun-18 00:34N 24°26' E 118°05'4331558981.1
2016-Jun-18 00:34N 31°00' E 121°26'242027.9
2016-Jun-18 00:33N 31°22' E 121°39'49939909.8
2016-Jun-18 00:32N 39°04' E 117°50'497447473.7
2016-Jun-18 00:32N 31°21' E 121°31'111446.4
2016-Jun-18 00:32N 31°30' E 121°24'222005.1
2016-Jun-18 00:31N 31°08' E 121°28'247791.3
2016-Jun-18 00:31N 31°31' E 121°22'322445.2
2016-Jun-18 00:30N 30°59' E 121°24'235404.8
2016-Jun-18 00:30N 31°21' E 121°31'173803.4
2016-Jun-18 00:29N 31°04' E 121°28'401375.1
2016-Jun-18 00:28N 31°41' E 121°11'335126.7
2016-Jun-18 00:27N 31°60' E 120°39'7116996.9
2016-Jun-18 00:27N 30°59' E 121°22'301595.8
2016-Jun-18 00:26N 31°29' E 121°25'66015127.0
2016-Jun-18 00:23N 23°01' E 113°32'6572013.5
2016-Jun-18 00:04N 31°21' E 121°31'453897.2
2016-Jun-17 23:33N 24°26' E 118°05'397142860.7
2016-Jun-17 23:33N 30°00' E 122°05'7520794.2
2016-Jun-17 23:33N 31°08' E 121°28'153214.5
2016-Jun-17 23:33N 31°23' E 121°30'232351.3
2016-Jun-17 23:32N 31°00' E 121°26'43877.9
2016-Jun-17 23:32N 30°59' E 121°22'63561742.4
2016-Jun-17 23:31N 23°04' E 113°29'65923714.3
2016-Jun-17 23:30N 31°30' E 121°24'268.6
2016-Jun-17 23:28N 31°31' E 121°22'368.1
2016-Jun-17 23:25N 31°30' E 121°25'8341.2
2016-Jun-17 23:24N 31°23' E 121°30'25539.2
2016-Jun-17 23:21N 30°59' E 121°24'25347.1
2016-Jun-17 23:17N 31°22' E 121°35'6613285.3
2016-Jun-17 23:05N 23°01' E 113°32'264507.0
2016-Jun-17 22:33N 24°26' E 118°05'460137870.4
2016-Jun-17 22:33N 31°31' E 121°22'2485768.7
2016-Jun-17 22:33N 31°08' E 121°28'911305.4
2016-Jun-17 22:33N 30°59' E 121°24'6927700.0
2016-Jun-17 22:33N 30°00' E 122°05'6916529.0
2016-Jun-17 22:33N 31°00' E 121°27'302376.6
2016-Jun-17 22:32N 31°30' E 121°24'1234.6
2016-Jun-17 22:32N 31°29' E 121°25'3311.3
2016-Jun-17 22:31N 31°27' E 121°27'29102993.3
2016-Jun-17 22:31N 30°59' E 121°22'63516318.7
2016-Jun-17 22:29N 23°04' E 113°29'659182448.7
2016-Jun-17 22:28N 31°24' E 121°32'8185.0
2016-Jun-17 22:26N 31°30' E 121°25'66011001.0
2016-Jun-17 22:22N 23°01' E 113°32'6616861.4
2016-Jun-17 22:16N 31°22' E 121°37'193621.2
2016-Jun-17 22:16N 31°04' E 121°28'14108.3
2016-Jun-17 22:08N 31°18' E 121°33'73895.7
2016-Jun-17 22:03N 32°01' E 120°23'471951.4
2016-Jun-17 21:34N 24°26' E 118°05'469112498.1
2016-Jun-17 21:33N 31°59' E 120°21'4810856.5
2016-Jun-17 21:33N 31°39' E 121°13'225684.4
2016-Jun-17 21:33N 31°24' E 121°31'88159088.6
2016-Jun-17 21:33N 30°00' E 122°05'6930980.1
2016-Jun-17 21:33N 31°00' E 121°27'81382.3
2016-Jun-17 21:32N 31°08' E 121°28'221359.7
2016-Jun-17 21:31N 31°30' E 121°24'356.3
2016-Jun-17 21:28N 31°28' E 121°27'291815.6
2016-Jun-17 21:27N 30°59' E 121°24'2316.6
2016-Jun-17 21:27N 30°59' E 121°22'6359805.3
2016-Jun-17 21:23N 23°04' E 113°29'6554519.1
2016-Jun-17 21:14N 31°18' E 121°33'191028.2
2016-Jun-17 21:13N 31°33' E 121°20'548.6
2016-Jun-17 21:07N 31°30' E 121°25'675783.4
2016-Jun-17 21:06N 31°55' E 120°11'79146.3
2016-Jun-17 20:33N 31°18' E 121°34'452203267.9
2016-Jun-17 20:33N 24°26' E 118°05'431155162.2
2016-Jun-17 20:33N 30°59' E 121°24'481577605.7
2016-Jun-17 20:33N 23°43' E 117°35'48375666.6
2016-Jun-17 20:33N 31°00' E 121°27'4295.7
2016-Jun-17 20:32N 30°59' E 121°22'706973.6
2016-Jun-17 20:31N 30°00' E 122°05'9717387.2
2016-Jun-17 20:31N 31°30' E 121°24'659296450.1
2016-Jun-17 20:31N 23°04' E 113°29'64521296.1
2016-Jun-17 20:29N 31°08' E 121°28'221129.3
2016-Jun-17 20:28N 31°30' E 121°25'66676.1
2016-Jun-17 20:22N 31°56' E 120°14'661329.0
2016-Jun-17 20:19N 31°29' E 121°25'1570.3
2016-Jun-17 20:06N 31°20' E 121°39'456839.7
2016-Jun-17 19:33N 24°26' E 118°05'45663171.5
2016-Jun-17 19:33N 31°23' E 121°35'8031948.5
2016-Jun-17 19:33N 31°56' E 120°09'152548686.1
2016-Jun-17 19:33N 30°00' E 122°05'693441.7
2016-Jun-17 19:32N 31°00' E 121°27'161833.4
2016-Jun-17 19:31N 31°16' E 121°33'162435.2
2016-Jun-17 19:31N 31°30' E 121°24'31112020.7
2016-Jun-17 19:31N 30°59' E 121°22'2179.1
2016-Jun-17 19:30N 30°59' E 121°24'63771665.2
2016-Jun-17 19:30N 23°01' E 113°31'64616490.7
2016-Jun-17 19:27N 31°08' E 121°28'341928.1
2016-Jun-17 19:26N 31°39' E 121°13'14189.6
2016-Jun-17 19:22N 31°30' E 121°25'65913033.0
2016-Jun-17 19:19N 23°04' E 113°29'266351.2
2016-Jun-17 18:33N 24°26' E 118°05'459165299.8
2016-Jun-17 18:33N 31°30' E 121°24'316593.9
2016-Jun-17 18:33N 30°59' E 121°22'4311178.9
2016-Jun-17 18:33N 31°41' E 121°11'11221127.0
2016-Jun-17 18:32N 30°00' E 122°05'6911263.8
2016-Jun-17 18:32N 31°00' E 121°27'81316.5
2016-Jun-17 18:32N 31°08' E 121°28'14439.4
2016-Jun-17 18:30N 31°22' E 121°29'6178.4
2016-Jun-17 18:28N 31°18' E 121°33'28719.8
2016-Jun-17 18:25N 31°39' E 121°13'411988.0
2016-Jun-17 18:24N 30°59' E 121°24'894851.5
2016-Jun-17 18:23N 31°57' E 120°04'6391151051.7
2016-Jun-17 18:23N 23°01' E 113°31'66031682.0
2016-Jun-17 18:22N 31°30' E 121°25'459568.4
2016-Jun-17 17:33N 24°26' E 118°05'431221665.8
2016-Jun-17 17:33N 30°59' E 121°24'92258.4
2016-Jun-17 17:33N 31°08' E 121°28'1410107.3
2016-Jun-17 17:33N 31°22' E 121°29'8824239.5
2016-Jun-17 17:33N 30°00' E 122°05'695506.3
2016-Jun-17 17:32N 31°00' E 121°27'41445.2
2016-Jun-17 17:32N 30°59' E 121°22'499.5
2016-Jun-17 17:29N 30°57' E 121°17'331373.4
2016-Jun-17 17:28N 31°30' E 121°24'130.4
2016-Jun-17 17:25N 31°29' E 121°25'65934367.7
2016-Jun-17 17:24N 23°04' E 113°29'65917314.2
2016-Jun-17 17:22N 31°30' E 121°25'171195.9
2016-Jun-17 17:21N 31°41' E 121°11'4454.9
2016-Jun-17 16:34N 30°59' E 121°22'  
Track history (hours):
 
Tides and Currents Weather Stations Pressure Air Temp Water Temp Dewpoint Dewpoint Depression Visibility Wind Speed Wind Dir Waves Ship Positions

Callsign 000000 (name unknown)

Last reported at 2016-Jun-27 16:33 UTC. Time now 2016-Jun-27 16:50 UTC.
Position N 24°26' E 118°06'.

Type: Fishing. MMSI: 200007452.

Date/timePositionNaut miles runAvg speedWind from/ knotsBaromVisibWave heightAir tempDewpointWater temp
2016-Jun-27 16:33N 24°26' E 118°06'456126399.9
2016-Jun-27 16:33N 31°24' E 121°32'446802628.3
2016-Jun-27 16:33N 38°50' E 121°34'44071986.3
2016-Jun-27 16:33N 31°30' E 121°25'101373.5
2016-Jun-27 16:32N 31°21' E 121°30'125384.7
2016-Jun-27 16:32N 31°31' E 121°22'162369.0
2016-Jun-27 16:32N 31°18' E 121°33'5391130246.4
2016-Jun-27 16:29N 49°18' W 123°02'53902771945.1
2016-Jun-27 16:29N 31°21' E 121°31'25301.8
2016-Jun-27 16:24N 31°40' E 121°13'6638802.6
2016-Jun-27 16:20N 22°58' E 113°34'66118160.6
2016-Jun-27 16:18N 31°30' E 121°25'459623.3
2016-Jun-27 15:34N 24°26' E 118°06'5898321723.3
2016-Jun-27 15:32N 49°18' W 123°02'53881293152.6
2016-Jun-27 15:32N 31°31' E 121°22'121554.5
2016-Jun-27 15:32N 31°40' E 121°13'14923.1
2016-Jun-27 15:31N 31°30' E 121°25'413466.2
2016-Jun-27 15:30N 31°59' E 120°50'18128.0
2016-Jun-27 15:22N 32°04' E 120°30'4095644.5
2016-Jun-27 15:17N 38°50' E 121°34'4414256.1
2016-Jun-27 15:11N 31°29' E 121°25'459720.7
2016-Jun-27 14:33N 24°26' E 118°06'5898786434.1
2016-Jun-27 14:32N 49°18' W 123°02'5387646477.5
2016-Jun-27 14:32N 31°29' E 121°25'471252.4
2016-Jun-27 14:30N 32°00' E 120°43'444964.7
2016-Jun-27 14:29N 31°31' E 121°22'43936758.3
2016-Jun-27 14:28N 38°50' E 121°33'43019118.8
2016-Jun-27 14:27N 31°40' E 121°13'143383.8
2016-Jun-27 14:27N 31°30' E 121°25'53774408.9
2016-Jun-27 14:26N 22°36' E 120°17'5369954.8
2016-Jun-27 14:23N 31°29' E 121°26'554606.6
2016-Jun-27 14:22N 32°02' E 120°34'475581.1
2016-Jun-27 13:33N 24°26' E 118°06'5898366098.8
2016-Jun-27 13:32N 49°18' W 123°02'5015184229.7
2016-Jun-27 13:31N 38°50' E 121°34'43038706.6
2016-Jun-27 13:30N 31°40' E 121°13'10892.2
2016-Jun-27 13:29N 31°32' E 121°20'4201.2
2016-Jun-27 13:28N 31°30' E 121°25'3140.9
2016-Jun-27 13:27N 31°31' E 121°22'347.3
2016-Jun-27 13:23N 31°29' E 121°25'459554.8
2016-Jun-27 12:33N 24°26' E 118°06'459150292.4
2016-Jun-27 12:33N 31°31' E 121°22'5388440847.5
2016-Jun-27 12:32N 49°18' W 123°02'501658623.8
2016-Jun-27 12:27N 38°50' E 121°33'10378292.8
2016-Jun-27 12:20N 22°58' E 113°34'66129013.3
2016-Jun-27 12:18N 31°30' E 121°25'10570.7
2016-Jun-27 12:17N 31°21' E 121°30'2212999.8
2016-Jun-27 12:17N 31°38' E 121°14'202536.6
2016-Jun-27 12:17N 31°22' E 121°29'8750.8
2016-Jun-27 12:16N 31°29' E 121°25'72043.9
2016-Jun-27 12:16N 31°25' E 121°32'457645.9
2016-Jun-27 11:34N 24°26' E 118°06'459103326.0
2016-Jun-27 11:33N 31°31' E 121°22'3244.3
2016-Jun-27 11:32N 31°31' E 121°18'53919703389.4
2016-Jun-27 11:32N 49°18' W 123°02'5387346300.9
2016-Jun-27 11:32N 31°40' E 121°13'582621.7
2016-Jun-27 11:30N 31°57' E 120°08'712449.8
2016-Jun-27 11:28N 31°30' E 121°25'602631.5
2016-Jun-27 11:27N 32°01' E 120°25'55486.3
2016-Jun-27 11:20N 31°31' E 121°20'5111.5
2016-Jun-27 11:17N 31°29' E 121°25'459625.9
2016-Jun-27 10:33N 24°26' E 118°06'458109846.4
2016-Jun-27 10:33N 31°28' E 121°25'5388431048.7
2016-Jun-27 10:32N 49°18' W 123°02'5388145847.9
2016-Jun-27 10:30N 31°30' E 121°23'2 7.5
2016-Jun-27 10:18N 31°31' E 121°22'121390.2
2016-Jun-27 10:17N 31°40' E 121°13'16209.7
2016-Jun-27 10:13N 31°28' E 121°25'111478.7
2016-Jun-27 10:13N 31°36' E 121°16'23793.1
2016-Jun-27 10:11N 31°16' E 121°04'439706.5
2016-Jun-27 09:34N 24°26' E 118°06'463333532.4
2016-Jun-27 09:33N 31°38' E 121°14'8733.6
2016-Jun-27 09:33N 31°32' E 121°20'53891141132.3
2016-Jun-27 09:32N 49°18' W 123°02'54204877826.7
2016-Jun-27 09:32N 31°56' E 120°12'682171.8
2016-Jun-27 09:31N 31°28' E 121°25'4656.1
2016-Jun-27 09:30N 31°31' E 121°22'624407.6
2016-Jun-27 09:29N 31°57' E 120°15'6612556.1
2016-Jun-27 09:29N 31°28' E 121°25'34413330.4
2016-Jun-27 09:27N 25°59' E 119°29'3292235.8
2016-Jun-27 09:19N 31°17' E 121°06'441586.2
2016-Jun-27 08:34N 24°26' E 118°06'46132528.3
2016-Jun-27 08:33N 31°34' E 121°18'53881939824.4
2016-Jun-27 08:32N 49°18' W 123°02'541319485983.6
2016-Jun-27 08:32N 31°58' E 120°18'458931.2
2016-Jun-27 08:32N 31°43' E 121°08'35512044.4
2016-Jun-27 08:30N 25°59' E 119°29'34651943.5
2016-Jun-27 08:30N 31°31' E 121°22'4180.4
2016-Jun-27 08:29N 31°28' E 121°25'161271.9
2016-Jun-27 08:28N 31°40' E 121°13'622.8
2016-Jun-27 08:12N 31°44' E 121°07'22897.9
2016-Jun-27 08:10N 31°28' E 121°25'775362.1
2016-Jun-27 08:09N 31°58' E 120°01'63106.2
2016-Jun-27 07:34N 31°40' E 121°12'465557423.1
2016-Jun-27 07:34N 24°26' E 118°06'12053969.7
2016-Jun-27 07:33N 25°59' E 119°29'353181502.7
2016-Jun-27 07:33N 31°40' E 121°13'3784.6
2016-Jun-27 07:33N 31°37' E 121°16'62192.2
2016-Jun-27 07:33N 31°41' E 121°10'5388881714.1
2016-Jun-27 07:32N 49°18' W 123°02'538866657.2
2016-Jun-27 07:28N 31°31' E 121°22'459508.5
2016-Jun-27 06:33N 24°26' E 118°06'12071959.6
2016-Jun-27 06:33N 25°59' E 119°29'35154937.1
2016-Jun-27 06:33N 31°38' E 121°16'128693.3
2016-Jun-27 06:33N 31°28' E 121°25'1812786.3
2016-Jun-27 06:33N 31°41' E 121°10'5389969947.4
2016-Jun-27 06:32N 49°18' W 123°02'53881077627.2
2016-Jun-27 06:32N 31°31' E 121°22'13497.5
2016-Jun-27 06:31N 31°41' E 121°12'221.9
2016-Jun-27 06:26N 31°40' E 121°13'47481.7
2016-Jun-27 06:20N 32°03' E 120°26'611994.0
2016-Jun-27 06:18N 31°28' E 121°25'931098.8
2016-Jun-27 06:13N 29°59' E 121°54'710.2
2016-Jun-27 05:34N 29°56' E 122°01'391100556.2
2016-Jun-27 05:33N 24°26' E 118°06'4611660900.7
2016-Jun-27 05:33N 31°34' E 121°19'5387421621.6
2016-Jun-27 05:32N 49°18' W 123°02'53892424913.6
2016-Jun-27 05:32N 31°59' E 120°50'436768.4
2016-Jun-27 05:32N 31°28' E 121°25'34412397.2
2016-Jun-27 05:30N 25°59' E 119°29'34610654.1
2016-Jun-27 05:28N 31°31' E 121°22'459502.3
2016-Jun-27 04:34N 24°26' E 118°06'12035979.8
2016-Jun-27 04:33N 25°59' E 119°29'27088289.8
2016-Jun-27 04:33N 29°50' E 122°07'5439543924.4
2016-Jun-27 04:33N 49°18' W 123°02'538719392906.5
2016-Jun-27 04:33N 31°40' E 121°13'121311.1
2016-Jun-27 04:32N 31°31' E 121°22'4218.8
2016-Jun-27 04:31N 31°28' E 121°25'67420745.2
2016-Jun-27 04:29N 22°19' E 114°07'661125156.9
2016-Jun-27 04:29N 31°58' E 120°05'7810016.7
2016-Jun-27 04:28N 31°26' E 121°28'3642.3
2016-Jun-27 04:28N 31°29' E 121°25'1710285.1
2016-Jun-27 04:28N 31°41' E 121°12'678748.1
2016-Jun-27 03:33N 22°19' E 114°07'253910925.7
2016-Jun-27 03:33N 24°26' E 118°06'457274397.4
2016-Jun-27 03:33N 31°27' E 121°27'5388412662.0
2016-Jun-27 03:33N 49°18' W 123°02'5388248683.4
2016-Jun-27 03:31N 31°31' E 121°22'11582978.4
2016-Jun-27 03:31N 29°42' E 122°05'16711566.2
2016-Jun-27 03:30N 31°56' E 120°09'551332.6
2016-Jun-27 03:28N 31°41' E 121°12'16166.6
2016-Jun-27 03:22N 31°30' E 121°24'1 7.9
2016-Jun-27 03:11N 31°28' E 121°25'610.0
2016-Jun-27 02:33N 31°33' E 121°20'675347086.1
2016-Jun-27 02:33N 22°19' E 114°07'367660456.7
2016-Jun-27 02:33N 25°59' E 119°29'120143919.1
2016-Jun-27 02:33N 24°26' E 118°06'5898530843.0
2016-Jun-27 02:33N 49°18' W 123°02'5388570470.6
2016-Jun-27 02:32N 31°30' E 121°24'16474.7
2016-Jun-27 02:30N 31°41' E 121°12'22885.3
2016-Jun-27 02:28N 31°56' E 120°52'1494257.0
2016-Jun-27 02:26N 29°42' E 122°07'1165498.2
2016-Jun-27 02:25N 31°31' E 121°22'62732.9
2016-Jun-27 02:20N 31°57' E 120°16'81372.2
2016-Jun-27 02:07N 31°05' E 121°28'685301.0
2016-Jun-27 02:06N 32°01' E 120°43'693934.7
2016-Jun-27 02:05N 30°58' E 121°16'84158.0
2016-Jun-27 01:33N 29°45' E 122°03'3831378022.8
2016-Jun-27 01:33N 24°26' E 118°06'4401584437.7
2016-Jun-27 01:33N 31°08' E 121°28'326117318.4
2016-Jun-27 01:33N 25°59' E 119°29'3521266274.5
2016-Jun-27 01:33N 31°39' E 121°13'5388484937.8
2016-Jun-27 01:33N 49°18' W 123°02'54063243305.9
2016-Jun-27 01:32N 31°05' E 121°28'25990.8
2016-Jun-27 01:31N 31°30' E 121°24'3219202.6
2016-Jun-27 01:31N 30°58' E 121°18'333629.7
2016-Jun-27 01:30N 31°31' E 121°22'602474.8
2016-Jun-27 01:29N 31°58' E 120°19'6457152.3
2016-Jun-27 01:29N 31°28' E 121°25'45147.8
2016-Jun-27 01:10N 32°01' E 120°48'477774.9
2016-Jun-27 00:34N 24°26' E 118°06'392100865.4
2016-Jun-27 00:33N 29°53' E 122°09'273491741.3
2016-Jun-27 00:33N 25°59' E 119°29'34573131.8
2016-Jun-27 00:33N 31°30' E 121°24'142018.0
2016-Jun-27 00:33N 31°40' E 121°13'3424599.3
2016-Jun-27 00:32N 31°08' E 121°28'6514576.1
2016-Jun-27 00:32N 32°00' E 120°43'258900.8
2016-Jun-27 00:32N 31°56' E 120°14'8111228.6
2016-Jun-27 00:32N 31°05' E 121°28'65741513.0
2016-Jun-27 00:31N 22°19' E 114°07'64845744.1
2016-Jun-27 00:30N 30°59' E 121°20'54171218795.7
2016-Jun-27 00:30N 49°18' W 123°02'538819494.8
2016-Jun-27 00:13N 31°31' E 121°22'322189.1
2016-Jun-27 00:12N 30°59' E 121°20'297052.5
2016-Jun-27 00:12N 31°28' E 121°27'794930.3
2016-Jun-27 00:11N 31°59' E 120°01'361575.1
2016-Jun-26 23:33N 25°59' E 119°29'315162016.8
2016-Jun-26 23:33N 30°59' E 121°20'429118794.6
2016-Jun-26 23:33N 24°26' E 118°06'391234572.0
2016-Jun-26 23:33N 29°58' E 121°58'7533700.8
2016-Jun-26 23:33N 31°08' E 121°28'54032778807.2
2016-Jun-26 23:33N 49°18' W 123°02'5387606026.6
2016-Jun-26 23:32N 31°40' E 121°13'378970.7
2016-Jun-26 23:32N 31°05' E 121°28'884395.4
2016-Jun-26 23:31N 31°58' E 120°06'6816345.6
2016-Jun-26 23:30N 31°31' E 121°20'2975.7
2016-Jun-26 23:30N 31°31' E 121°22'5488.7
2016-Jun-26 23:30N 31°35' E 121°18'83083.7
2016-Jun-26 23:29N 31°30' E 121°24'6758375.9
2016-Jun-26 23:25N 22°19' E 114°07'67456445.9
2016-Jun-26 23:24N 31°28' E 121°25'304128.1
2016-Jun-26 23:23N 30°59' E 121°20'429513.7
2016-Jun-26 22:33N 24°26' E 118°06'12086351.5
2016-Jun-26 22:33N 25°59' E 119°29'346415070.5
2016-Jun-26 22:33N 31°31' E 121°19'53904850866.9
2016-Jun-26 22:33N 49°18' W 123°02'53881212373.7
2016-Jun-26 22:33N 31°35' E 121°18'359781.7
2016-Jun-26 22:33N 30°60' E 121°25'652156422.9
2016-Jun-26 22:32N 22°19' E 114°07'6591187037.4
2016-Jun-26 22:32N 31°08' E 121°28'231724.3
2016-Jun-26 22:32N 31°30' E 121°24'13639.2
2016-Jun-26 22:30N 31°40' E 121°13'421787.2
2016-Jun-26 22:29N 30°59' E 121°20'9278.8
2016-Jun-26 22:27N 31°05' E 121°28'25106.5
2016-Jun-26 22:13N 31°30' E 121°24'2233.4
2016-Jun-26 21:34N 31°08' E 121°28'4401584301.7
2016-Jun-26 21:34N 24°26' E 118°06'463333505.1
2016-Jun-26 21:33N 31°38' E 121°14'387568.7
2016-Jun-26 21:33N 31°03' E 121°29'30107715.0
2016-Jun-26 21:33N 31°31' E 121°19'4329.5
2016-Jun-26 21:32N 31°30' E 121°24'25814.2
2016-Jun-26 21:30N 31°05' E 121°28'657147841.1
2016-Jun-26 21:30N 22°19' E 114°07'674110326.9
2016-Jun-26 21:30N 31°28' E 121°25'23375.5
2016-Jun-26 21:26N 31°05' E 121°28'9436.2
2016-Jun-26 21:25N 30°59' E 121°21'30563.4
2016-Jun-26 21:22N 31°28' E 121°26'47763.6
2016-Jun-26 21:18N 32°01' E 120°45'322602.7
2016-Jun-26 21:17N 31°40' E 121°13'465637.5
2016-Jun-26 20:33N 24°26' E 118°06'46588081.2
2016-Jun-26 20:33N 31°40' E 121°13'102612.0
2016-Jun-26 20:33N 31°31' E 121°19'256037.5
2016-Jun-26 20:33N 31°07' E 121°28'11876.5
2016-Jun-26 20:32N 30°59' E 121°20'112943.1
2016-Jun-26 20:32N 31°08' E 121°28'45018207.6
2016-Jun-26 20:30N 24°14' E 118°09'46813815.5
2016-Jun-26 20:28N 31°28' E 121°26'14878.1
2016-Jun-26 20:27N 31°39' E 121°13'391.5
2016-Jun-26 20:25N 31°41' E 121°11'16131.1
2016-Jun-26 20:18N 31°30' E 121°24'228.8
2016-Jun-26 20:15N 31°28' E 121°25'216.0
2016-Jun-26 20:09N 31°30' E 121°24'612583.8
2016-Jun-26 20:08N 31°60' E 120°22'795550.6
2016-Jun-26 20:07N 31°05' E 121°28'437790.2
2016-Jun-26 19:33N 24°26' E 118°06'443106427.9
2016-Jun-26 19:33N 31°11' E 121°28'274045.5
2016-Jun-26 19:33N 31°37' E 121°17'62875.7
2016-Jun-26 19:33N 31°31' E 121°19'242666.5
2016-Jun-26 19:32N 31°08' E 121°28'572970.9
2016-Jun-26 19:31N 31°56' E 120°52'6218464.8
2016-Jun-26 19:31N 30°58' E 121°15'141146.9
2016-Jun-26 19:30N 31°05' E 121°28'363224.0
2016-Jun-26 19:29N 31°39' E 121°13'434104063.2
2016-Jun-26 19:29N 38°52' E 121°32'442227465.0
2016-Jun-26 19:29N 31°30' E 121°24'634812.0
2016-Jun-26 19:28N 31°57' E 120°18'642573.8
2016-Jun-26 19:27N 31°28' E 121°26'025.6
2016-Jun-26 19:26N 31°28' E 121°25'216.2
2016-Jun-26 19:20N 31°30' E 121°24'14100.7
2016-Jun-26 19:12N 31°40' E 121°13'3453.8
2016-Jun-26 18:33N 31°08' E 121°28'241543.1
2016-Jun-26 18:33N 31°31' E 121°19'45997121.2
2016-Jun-26 18:32N 24°26' E 118°06'8821588295.1
2016-Jun-26 18:32N 38°50' E 121°33'44135265.0
2016-Jun-26 18:31N 31°30' E 121°24'144571.9
2016-Jun-26 18:31N 31°40' E 121°13'353254108.0
2016-Jun-26 18:31N 25°59' E 119°29'34659284.9
2016-Jun-26 18:31N 31°31' E 121°22'2124.6
2016-Jun-26 18:30N 31°30' E 121°24'13246.8
2016-Jun-26 18:27N 31°39' E 121°13'57558.0
2016-Jun-26 18:21N 31°56' E 120°10'6611938.8
2016-Jun-26 18:20N 31°31' E 121°22'2731995.0
2016-Jun-26 18:20N 31°05' E 121°28'6571182385.2
2016-Jun-26 18:20N 22°19' E 114°07'6744104.3
2016-Jun-26 18:10N 31°28' E 121°25'458742.9
2016-Jun-26 17:33N 24°26' E 118°06'883288848.5
2016-Jun-26 17:33N 38°51' E 121°34'44179379.8
2016-Jun-26 17:33N 31°30' E 121°24'5526.3
2016-Jun-26 17:32N 31°31' E 121°19'2414665.9
2016-Jun-26 17:32N 31°08' E 121°28'66056532.9
2016-Jun-26 17:32N 22°19' E 114°07'36757445.3
2016-Jun-26 17:31N 25°59' E 119°29'35328234.2
2016-Jun-26 17:30N 31°40' E 121°13'161748.9
2016-Jun-26 17:30N 31°28' E 121°25'4114.1
2016-Jun-26 17:28N 31°31' E 121°22'2796.6
2016-Jun-26 17:11N 31°05' E 121°28'207270.2
2016-Jun-26 17:11N 31°17' E 121°09'18532.5
2016-Jun-26 17:09N 31°28' E 121°26'55566.4
2016-Jun-26 17:03N 32°02' E 120°35'475939.7
2016-Jun-26 16:33N 24°26' E 118°06'883226951.2
2016-Jun-26 16:33N 38°51' E 121°33'463118949.4
2016-Jun-26 16:33N 31°08' E 121°28'244394.0
2016-Jun-26 16:32N 31°31' E 121°20'2150.7
2016-Jun-26 16:31N 31°31' E 121°22'272902.1
2016-Jun-26 16:31N 31°05' E 121°28'241346.8
2016-Jun-26 16:30N 31°28' E 121°26'151.2
2016-Jun-26 16:29N 31°28' E 121°26'34522967.7
2016-Jun-26 16:28N 25°59' E 119°29'35312705.2
2016-Jun-26 16:26N 31°40' E 121°13'14516.5
2016-Jun-26 16:25N 31°30' E 121°24'0 2.7
2016-Jun-26 16:23N 31°30' E 121°24'218.8
2016-Jun-26 16:18N 31°28' E 121°25'5 6.4
2016-Jun-26 15:33N 31°31' E 121°21'294962.6
2016-Jun-26 15:33N 31°03' E 121°29'43662788.2
2016-Jun-26 15:33N 24°26' E 118°06'12033212.1
2016-Jun-26 15:32N 25°59' E 119°29'34695886.5
2016-Jun-26 15:32N 31°31' E 121°22'271227.8
2016-Jun-26 15:31N 31°05' E 121°28'237030.1
2016-Jun-26 15:31N 31°28' E 121°25'44229492.7
2016-Jun-26 15:30N 38°51' E 121°34'4421592009.5
2016-Jun-26 15:30N 31°28' E 121°26'1618696.3
2016-Jun-26 15:30N 31°40' E 121°13'67827420.2
2016-Jun-26 15:28N 22°19' E 114°07'67539182.5
2016-Jun-26 15:27N 31°30' E 121°24'0 3.8
2016-Jun-26 15:26N 31°30' E 121°24'459524.4
2016-Jun-26 14:34N 24°26' E 118°06'43114092.3
2016-Jun-26 14:32N 30°59' E 121°23'292099.7
2016-Jun-26 14:31N 31°28' E 121°26'4432.0
2016-Jun-26 14:30N 31°31' E 121°22'41400.6
2016-Jun-26 14:30N 31°28' E 121°25'116766.9
2016-Jun-26 14:30N 31°36' E 121°16'35011051.4
2016-Jun-26 14:28N 25°59' E 119°29'32383082.6
2016-Jun-26 14:28N 31°05' E 121°28'4665496.7
2016-Jun-26 14:23N 38°51' E 121°34'4416905.4
2016-Jun-26 14:19N 31°30' E 121°24'459602.7
2016-Jun-26 13:33N 24°26' E 118°06'8833177907.9
2016-Jun-26 13:33N 38°51' E 121°33'46625406.0
2016-Jun-26 13:32N 31°05' E 121°28'6917726.3
2016-Jun-26 13:32N 32°00' E 120°40'36625342.3
2016-Jun-26 13:31N 25°59' E 119°29'3469738.2
2016-Jun-26 13:29N 31°31' E 121°22'142466.2
2016-Jun-26 13:29N 31°41' E 121°10'18163.0
2016-Jun-26 13:22N 31°28' E 121°26'6164.6
2016-Jun-26 13:20N 31°31' E 121°19'5157.1
2016-Jun-26 13:18N 31°30' E 121°24'14169.3
2016-Jun-26 13:13N 31°40' E 121°13'465703.4
2016-Jun-26 12:33N 24°26' E 118°06'463278069.3
2016-Jun-26 12:33N 31°39' E 121°13'11519.6
2016-Jun-26 12:32N 31°31' E 121°22'2339.6
2016-Jun-26 12:32N 31°30' E 121°24'34544401.4
2016-Jun-26 12:31N 25°59' E 119°29'368441222.1
2016-Jun-26 12:31N 32°01' E 120°45'32723.0
2016-Jun-26 12:28N 31°40' E 121°13'3726883.5
2016-Jun-26 12:28N 31°05' E 121°28'24589.4
2016-Jun-26 12:26N 31°28' E 121°26'64319.5
2016-Jun-26 12:14N 31°57' E 120°18'645113.5
2016-Jun-26 12:13N 31°28' E 121°25'4435243.2
2016-Jun-26 12:08N 38°51' E 121°33'433750.8
2016-Jun-26 11:33N 31°39' E 121°13'463166841.6
2016-Jun-26 11:33N 24°26' E 118°06'458206092.9
2016-Jun-26 11:33N 31°28' E 121°26'014.3
2016-Jun-26 11:32N 31°28' E 121°25'165596.4
2016-Jun-26 11:32N 31°40' E 121°13'35330988.8
2016-Jun-26 11:31N 25°59' E 119°29'31315861.5
2016-Jun-26 11:30N 30°58' E 121°16'3211372.9
2016-Jun-26 11:30N 31°28' E 121°25'191241.6
2016-Jun-26 11:29N 31°42' E 121°10'171256.0
2016-Jun-26 11:28N 31°30' E 121°24'41955.1
2016-Jun-26 11:25N 31°59' E 120°51'383838.8
2016-Jun-26 11:25N 31°31' E 121°22'1173.2
2016-Jun-26 11:15N 31°39' E 121°13'1073.2
2016-Jun-26 11:07N 31°31' E 121°19'459798.4
2016-Jun-26 10:33N 24°26' E 118°06'45933737.0
2016-Jun-26 10:32N 31°31' E 121°22'42802.8
2016-Jun-26 10:32N 31°29' E 121°26'6491.2
2016-Jun-26 10:31N 31°31' E 121°19'34656600.5
2016-Jun-26 10:31N 25°59' E 119°29'31649437.1
2016-Jun-26 10:31N 30°59' E 121°22'48075111.8
2016-Jun-26 10:30N 23°45' E 117°33'50846916.5
2016-Jun-26 10:30N 31°30' E 121°25'13440.9
2016-Jun-26 10:28N 31°39' E 121°13'37454.6
2016-Jun-26 10:23N 31°05' E 121°28'27221.3
2016-Jun-26 10:16N 31°31' E 121°21'3118.0
2016-Jun-26 10:14N 31°30' E 121°24'2537.4
2016-Jun-26 09:33N 31°05' E 121°28'437786789.6
2016-Jun-26 09:33N 24°26' E 118°06'459165129.7
2016-Jun-26 09:33N 31°30' E 121°24'0286.4
2016-Jun-26 09:33N 31°30' E 121°24'22783.1
2016-Jun-26 09:33N 31°30' E 121°23'3011848.1
2016-Jun-26 09:33N 31°01' E 121°29'3209922.5
2016-Jun-26 09:31N 25°59' E 119°29'3677807.9
2016-Jun-26 09:28N 32°00' E 120°41'422116.2
2016-Jun-26 09:27N 31°33' E 121°19'1714906.0
2016-Jun-26 09:27N 31°45' E 121°06'446373.6
2016-Jun-26 09:26N 31°05' E 121°28'27226.7
2016-Jun-26 09:19N 31°31' E 121°19'1070.4
2016-Jun-26 09:11N 31°39' E 121°13'7143.2
2016-Jun-26 09:08N 31°35' E 121°19'682.3
2016-Jun-26 09:03N 31°39' E 121°13'1019.3
2016-Jun-26 08:34N 31°32' E 121°21'4591653678.7
2016-Jun-26 08:34N 24°26' E 118°06'432777986.9
2016-Jun-26 08:33N 31°00' E 121°26'509122183.3
2016-Jun-26 08:33N 22°35' E 120°17'56738501.1
2016-Jun-26 08:32N 32°01' E 120°48'6639635.0
2016-Jun-26 08:32N 31°05' E 121°28'292452.0
2016-Jun-26 08:32N 31°33' E 121°21'34735742.3
2016-Jun-26 08:31N 25°59' E 119°29'32315507.4
2016-Jun-26 08:30N 31°05' E 121°28'668436.4
2016-Jun-26 08:29N 32°01' E 120°48'312445.2
2016-Jun-26 08:28N 31°39' E 121°13'131939.6
2016-Jun-26 08:28N 31°30' E 121°24'0 1.5
2016-Jun-26 08:22N 31°30' E 121°24'232.0
2016-Jun-26 08:19N 31°28' E 121°25'458606.3
2016-Jun-26 07:34N 24°26' E 118°06'46059201.7
2016-Jun-26 07:33N 31°34' E 121°19'3512606.0
2016-Jun-26 07:33N 30°59' E 121°19'301549.5
2016-Jun-26 07:32N 31°28' E 121°25'34426951.9
2016-Jun-26 07:31N 25°59' E 119°29'3466730.2
2016-Jun-26 07:28N 31°31' E 121°19'94812.4
2016-Jun-26 07:28N 31°39' E 121°14'104553.3
2016-Jun-26 07:16N 30°02' E 121°57'107914.6
2016-Jun-26 07:09N 31°42' E 121°10'17554.1
2016-Jun-26 07:08N 31°30' E 121°24'459808.6
2016-Jun-26 06:34N 24°26' E 118°06'46263998.1
2016-Jun-26 06:33N 31°36' E 121°16'102281.2
2016-Jun-26 06:33N 31°30' E 121°24'8399.3
2016-Jun-26 06:32N 31°36' E 121°18'61561.2
2016-Jun-26 06:31N 31°40' E 121°14'178.8
2016-Jun-26 06:31N 31°40' E 121°13'352317146.3
2016-Jun-26 06:31N 25°59' E 119°29'36722028.3
2016-Jun-26 06:30N 22°18' E 114°07'67541899.3
2016-Jun-26 06:29N 31°31' E 121°22'272134.9
2016-Jun-26 06:28N 31°05' E 121°28'251090.8
2016-Jun-26 06:27N 31°30' E 121°24'14362.3
2016-Jun-26 06:25N 31°39' E 121°13'1017319.6
2016-Jun-26 06:25N 31°31' E 121°19'9161.3
2016-Jun-26 06:21N 31°39' E 121°14'15173.9
2016-Jun-26 06:16N 31°28' E 121°25'0 0.4
2016-Jun-26 06:06N 31°28' E 121°25'1222.0
2016-Jun-26 05:34N 31°37' E 121°16'5897.9
2016-Jun-26 05:33N 31°40' E 121°12'396439.4
2016-Jun-26 05:33N 31°04' E 121°28'4361570585.3
2016-Jun-26 05:33N 24°26' E 118°06'463333444.9
2016-Jun-26 05:33N 31°37' E 121°16'10517180.3
2016-Jun-26 05:32N 29°59' E 121°58'983004.4
2016-Jun-26 05:30N 31°31' E 121°19'51037.1
2016-Jun-26 05:30N 31°30' E 121°24'1102.3
2016-Jun-26 05:30N 31°29' E 121°25'34511830.9
2016-Jun-26 05:28N 25°59' E 119°29'3675848.3
2016-Jun-26 05:24N 22°18' E 114°07'675486073.8
2016-Jun-26 05:24N 31°31' E 121°22'459544.7
2016-Jun-26 04:33N 24°26' E 118°06'46283105.1
2016-Jun-26 04:33N 31°35' E 121°19'35126712.3
2016-Jun-26 04:33N 31°00' E 121°26'35126435.7
2016-Jun-26 04:33N 31°35' E 121°19'11019798.0
2016-Jun-26 04:33N 29°54' E 122°09'10346472.5
2016-Jun-26 04:33N 31°30' E 121°25'67463893.9
2016-Jun-26 04:32N 22°19' E 114°08'674173254.3
2016-Jun-26 04:32N 31°28' E 121°25'34423843.3
2016-Jun-26 04:31N 25°59' E 119°29'34631126.4
2016-Jun-26 04:30N 31°31' E 121°19'2834.3
2016-Jun-26 04:30N 31°31' E 121°22'22959.7
2016-Jun-26 04:30N 31°30' E 121°24'2363.1
2016-Jun-26 04:30N 31°29' E 121°27'224.4
2016-Jun-26 04:26N 31°29' E 121°25'1447.1
2016-Jun-26 04:08N 31°40' E 121°14'123215.3
2016-Jun-26 03:34N 29°45' E 122°03'382105899.1
2016-Jun-26 03:33N 24°26' E 118°06'459150069.9
2016-Jun-26 03:33N 31°31' E 121°19'2126.7
2016-Jun-26 03:32N 31°32' E 121°22'67652889.9
2016-Jun-26 03:31N 22°19' E 114°07'36748956.4
2016-Jun-26 03:31N 25°59' E 119°29'31545360.8
2016-Jun-26 03:30N 30°59' E 121°20'31648.3
2016-Jun-26 03:28N 31°30' E 121°25'5958.1
2016-Jun-26 03:27N 31°32' E 121°19'5224.6
2016-Jun-26 03:26N 31°30' E 121°24'2986.6
2016-Jun-26 03:26N 31°31' E 121°22'468.3
2016-Jun-26 03:22N 31°28' E 121°25'458560.3
2016-Jun-26 02:33N 24°26' E 118°06'2536558.9
2016-Jun-26 02:31N 22°19' E 114°07'367110153.0
2016-Jun-26 02:31N 25°59' E 119°29'2627141.5
2016-Jun-26 02:29N 29°41' E 122°07'1151312.7
2016-Jun-26 02:23N 31°30' E 121°24'33190.0
2016-Jun-26 02:13N 30°58' E 121°13'42307.3
2016-Jun-26 02:05N 31°40' E 121°14'464894.7
2016-Jun-26 01:34N 24°26' E 118°06'3811370850.0
2016-Jun-26 01:34N 29°41' E 122°05'1149534.2
2016-Jun-26 01:33N 31°30' E 121°25'3259.6
2016-Jun-26 01:32N 31°31' E 121°22'2881.6
2016-Jun-26 01:32N 31°30' E 121°24'34517760.6
2016-Jun-26 01:31N 25°59' E 119°29'3671321836.3
2016-Jun-26 01:31N 22°19' E 114°07'67829398.1
2016-Jun-26 01:29N 31°40' E 121°14'15506.1
2016-Jun-26 01:28N 31°28' E 121°25'193.9
2016-Jun-26 01:27N 31°29' E 121°25'17476.1
2016-Jun-26 01:25N 31°41' E 121°10'22118.7
2016-Jun-26 01:14N 31°26' E 121°28'18195.8
2016-Jun-26 01:09N 31°08' E 121°28'63817.9
2016-Jun-26 01:04N 32°00' E 120°47'476936.4
2016-Jun-26 00:33N 24°26' E 118°06'5130710.6
2016-Jun-26 00:33N 23°44' E 117°34'50940743.6
2016-Jun-26 00:33N 31°31' E 121°22'282267.7
2016-Jun-26 00:32N 31°04' E 121°28'372737.9
2016-Jun-26 00:31N 31°39' E 121°13'352115039.0
2016-Jun-26 00:31N 25°59' E 119°29'367220306.2
2016-Jun-26 00:31N 22°19' E 114°07'675607597.0
2016-Jun-26 00:31N 31°30' E 121°25'155.1
2016-Jun-26 00:29N 31°28' E 121°25'128.3
2016-Jun-26 00:26N 31°30' E 121°24'1137139.0
2016-Jun-26 00:25N 29°42' E 122°04'1554864.3
2016-Jun-26 00:23N 31°60' E 120°41'341371.7
2016-Jun-26 00:22N 31°40' E 121°14'3122502.6
2016-Jun-26 00:22N 31°11' E 121°28'60306.3
2016-Jun-26 00:10N 32°01' E 120°48'69114.1
2016-Jun-25 23:33N 30°60' E 121°25'43239856.1
2016-Jun-25 23:33N 24°26' E 118°06'438393972.6
2016-Jun-25 23:33N 31°05' E 121°28'8425054.2
2016-Jun-25 23:33N 29°48' E 122°05'1074105.2
2016-Jun-25 23:31N 31°30' E 121°24'030.8
2016-Jun-25 23:31N 31°30' E 121°25'67420575.8
2016-Jun-25 23:29N 22°19' E 114°08'67428562.2
2016-Jun-25 23:27N 31°31' E 121°22'11378.6
2016-Jun-25 23:25N 31°40' E 121°14'118.9
2016-Jun-25 23:22N 31°39' E 121°13'37121.3
2016-Jun-25 23:04N 31°05' E 121°28'1019.2
2016-Jun-25 22:33N 30°59' E 121°19'429220425.7
2016-Jun-25 22:33N 24°26' E 118°06'39219867.9
2016-Jun-25 22:32N 29°55' E 122°05'1137828.1
2016-Jun-25 22:31N 31°39' E 121°13'13630.2
2016-Jun-25 22:30N 31°30' E 121°24'14537.3
2016-Jun-25 22:29N 31°40' E 121°14'677348244.8
2016-Jun-25 22:28N 22°19' E 114°08'67486707.8
2016-Jun-25 22:28N 31°31' E 121°22'27170.9
2016-Jun-25 22:18N 31°05' E 121°28'25147.6
2016-Jun-25 22:08N 31°30' E 121°25'459794.3
2016-Jun-25 21:33N 24°26' E 118°06'426306951.6
2016-Jun-25 21:33N 30°58' E 121°15'131091.5
2016-Jun-25 21:33N 31°05' E 121°28'7128434.6
2016-Jun-25 21:33N 29°57' E 121°54'953060.5
2016-Jun-25 21:31N 31°29' E 121°25'1552321.9
2016-Jun-25 21:31N 31°40' E 121°14'141.2
2016-Jun-25 21:29N 31°39' E 121°13'14582.9
2016-Jun-25 21:28N 31°29' E 121°25'62844.2
2016-Jun-25 21:23N 31°59' E 120°21'4806753.2
2016-Jun-25 21:19N 24°14' E 118°09'46924826.1
2016-Jun-25 21:18N 31°30' E 121°24'0 3.0
2016-Jun-25 21:14N 31°30' E 121°24'459684.9
2016-Jun-25 20:33N 24°26' E 118°06'46432769.7
2016-Jun-25 20:33N 31°56' E 120°15'8119424.7
2016-Jun-25 20:32N 31°05' E 121°28'44727284.8
2016-Jun-25 20:31N 24°14' E 118°08'46911482.2
2016-Jun-25 20:29N 31°30' E 121°24'0 7.8
2016-Jun-25 20:28N 31°30' E 121°24'331104.4
2016-Jun-25 20:26N 30°58' E 121°15'421079.0
2016-Jun-25 20:24N 31°40' E 121°14'033.6
2016-Jun-25 20:23N 31°40' E 121°14'1562.6
2016-Jun-25 20:09N 31°29' E 121°25'628024.3
2016-Jun-25 20:09N 31°59' E 120°21'1411530.9
2016-Jun-25 20:03N 29°57' E 121°42'383769.3
2016-Jun-25 19:33N 24°26' E 118°06'459165123.7
2016-Jun-25 19:33N 31°30' E 121°24'641766.1
2016-Jun-25 19:31N 31°57' E 120°17'8011129.4
2016-Jun-25 19:31N 31°05' E 121°28'374070.9
2016-Jun-25 19:30N 31°40' E 121°14'0 6.7
2016-Jun-25 19:29N 31°40' E 121°14'10103.0
2016-Jun-25 19:23N 31°31' E 121°19'972121.3
2016-Jun-25 19:20N 29°57' E 121°42'53564216.4
2016-Jun-25 19:20N 38°52' E 121°32'431558.5
2016-Jun-25 18:34N 31°41' E 121°11'465557802.3
2016-Jun-25 18:33N 24°26' E 118°06'88250419.2
2016-Jun-25 18:32N 38°51' E 121°32'44193374.0
2016-Jun-25 18:32N 31°30' E 121°24'9448405.7
2016-Jun-25 18:32N 29°57' E 121°42'69123866.4
2016-Jun-25 18:32N 31°05' E 121°28'25717.4
2016-Jun-25 18:30N 31°30' E 121°24'141946.5
2016-Jun-25 18:29N 31°40' E 121°14'1088.6
2016-Jun-25 18:23N 31°31' E 121°19'10101.4
2016-Jun-25 18:17N 31°40' E 121°14'14111.8
2016-Jun-25 18:10N 31°30' E 121°25'1118.1
2016-Jun-25 17:34N 31°37' E 121°16'46337055.7
2016-Jun-25 17:33N 24°26' E 118°06'46546450.2
2016-Jun-25 17:32N 31°40' E 121°14'115018.9
2016-Jun-25 17:32N 31°31' E 121°22'387.5
2016-Jun-25 17:30N 31°29' E 121°25'14632.6
2016-Jun-25 17:29N 31°40' E 121°14'14181.0
2016-Jun-25 17:24N 31°30' E 121°24'0 4.3
2016-Jun-25 17:22N 31°30' E 121°24'4413323.0
2016-Jun-25 17:14N 38°51' E 121°33'4459825.4
2016-Jun-25 17:11N 31°26' E 121°28'457725.4
2016-Jun-25 16:33N 24°26' E 118°06'46124751.6
2016-Jun-25 16:32N 31°33' E 121°20'43792562.4
2016-Jun-25 16:32N 38°50' E 121°34'44120347.1
2016-Jun-25 16:31N 31°30' E 121°25'378.9
2016-Jun-25 16:29N 31°31' E 121°22'11598.8
2016-Jun-25 16:28N 31°40' E 121°14'0 3.2
2016-Jun-25 16:24N 31°40' E 121°14'1492.9
2016-Jun-25 16:15N 31°30' E 121°24'459662.7
2016-Jun-25 15:33N 24°26' E 118°06'426109630.9
2016-Jun-25 15:33N 30°58' E 121°15'346766.7
2016-Jun-25 15:33N 31°31' E 121°25'13414.0
2016-Jun-25 15:31N 31°40' E 121°14'14868.2
2016-Jun-25 15:30N 31°30' E 121°25'1167.5
2016-Jun-25 15:30N 31°30' E 121°25'0 6.8
2016-Jun-25 15:27N 31°29' E 121°25'44115884.6
2016-Jun-25 15:25N 38°50' E 121°34'439225980.8
2016-Jun-25 15:25N 31°31' E 121°22'252.6
2016-Jun-25 15:22N 31°30' E 121°24'442544.1
2016-Jun-25 14:33N 38°51' E 121°33'8831589552.5
2016-Jun-25 14:33N 24°26' E 118°06'464128594.1
2016-Jun-25 14:33N 31°40' E 121°14'54553028.2
2016-Jun-25 14:33N 22°38' E 120°11'54561324.4
2016-Jun-25 14:32N 31°40' E 121°14'14288.5
2016-Jun-25 14:29N 31°30' E 121°24'173.7
2016-Jun-25 14:29N 31°30' E 121°25'31256.9
2016-Jun-25 14:29N 31°28' E 121°28'6672.8
2016-Jun-25 14:28N 31°31' E 121°22'3406767.1
2016-Jun-25 14:25N 37°04' E 122°45'34216845.5
2016-Jun-25 14:24N 31°29' E 121°25'1 8.6
2016-Jun-25 14:20N 31°30' E 121°25'459594.1
2016-Jun-25 13:33N 24°26' E 118°06'45939311.6
2016-Jun-25 13:33N 31°30' E 121°25'44216562.9
2016-Jun-25 13:31N 38°51' E 121°33'44211866.1
2016-Jun-25 13:29N 31°30' E 121°25'115.2
2016-Jun-25 13:26N 31°30' E 121°24'14293.8
2016-Jun-25 13:23N 31°40' E 121°14'31139.5
2016-Jun-25 13:10N 32°01' E 120°47'39812.7
2016-Jun-25 13:07N 31°33' E 121°19'460821.3
2016-Jun-25 12:33N 24°26' E 118°06'46498336.7
2016-Jun-25 12:33N 31°40' E 121°14'43226352.0
2016-Jun-25 12:32N 38°51' E 121°34'442113589.0
2016-Jun-25 12:32N 31°30' E 121°24'1430.0
2016-Jun-25 12:32N 31°30' E 121°25'139.4
2016-Jun-25 12:31N 31°30' E 121°25'441375.7
2016-Jun-25 12:29N 32°01' E 120°47'3238005.5
2016-Jun-25 12:29N 31°56' E 120°10'856973.4
2016-Jun-25 12:28N 31°01' E 121°27'37920.4
2016-Jun-25 12:26N 31°37' E 121°16'11534.9
2016-Jun-25 12:25N 31°29' E 121°25'458536.9
2016-Jun-25 11:34N 24°26' E 118°06'46447753.2
2016-Jun-25 11:33N 31°40' E 121°11'165241.6
2016-Jun-25 11:33N 31°29' E 121°25'14510.9
2016-Jun-25 11:31N 31°40' E 121°14'14681.8
2016-Jun-25 11:30N 31°30' E 121°24'655537.1
2016-Jun-25 11:29N 31°57' E 120°15'813209.6
2016-Jun-25 11:28N 31°05' E 121°28'13101.3
2016-Jun-25 11:20N 30°58' E 121°15'33854.2
2016-Jun-25 11:18N 31°30' E 121°25'14106.5
2016-Jun-25 11:10N 31°40' E 121°14'464764.9
2016-Jun-25 10:34N 24°26' E 118°06'446802185.3
2016-Jun-25 10:33N 31°13' E 121°30'3010868.8
2016-Jun-25 10:33N 31°40' E 121°14'371918.0
2016-Jun-25 10:32N 31°05' E 121°28'373838.2
2016-Jun-25 10:32N 31°40' E 121°14'148226.0
2016-Jun-25 10:31N 31°30' E 121°25'0 2.8
2016-Jun-25 10:27N 31°30' E 121°24'445.6
2016-Jun-25 10:21N 31°31' E 121°20'1673481.1
2016-Jun-25 10:18N 31°25' E 118°03'1723175.7
2016-Jun-25 10:15N 31°30' E 121°25'6756499.8
2016-Jun-25 10:09N 22°19' E 114°07'253424.5
2016-Jun-25 09:33N 24°26' E 118°06'44011482.7
2016-Jun-25 09:31N 31°08' E 121°28'2277834.3
2016-Jun-25 09:31N 31°30' E 121°25'14833.3
2016-Jun-25 09:30N 31°40' E 121°14'0 3.6
2016-Jun-25 09:27N 31°40' E 121°14'14289.0
2016-Jun-25 09:24N 31°30' E 121°25'18176.9
2016-Jun-25 09:18N 31°42' E 121°09'18194.6
2016-Jun-25 09:12N 31°30' E 121°24'459705.6
2016-Jun-25 08:33N 24°26' E 118°06'45963496.1
2016-Jun-25 08:33N 31°30' E 121°24'046.9
2016-Jun-25 08:33N 31°30' E 121°24'127.7
2016-Jun-25 08:31N 31°29' E 121°25'14394.2
2016-Jun-25 08:29N 31°40' E 121°13'010.9
2016-Jun-25 08:27N 31°40' E 121°14'50169.2
2016-Jun-25 08:09N 31°57' E 120°18'5492.1
2016-Jun-25 07:33N 31°36' E 121°17'463832567.7
2016-Jun-25 07:33N 24°26' E 118°06'463277824.6
2016-Jun-25 07:33N 31°37' E 121°16'573152.1
2016-Jun-25 07:32N 31°56' E 120°13'662842.7
2016-Jun-25 07:31N 31°30' E 121°24'0 4.9
2016-Jun-25 07:29N 31°30' E 121°24'1 5.2
2016-Jun-25 07:21N 31°29' E 121°25'1487.5
2016-Jun-25 07:11N 31°40' E 121°14'63513.9
2016-Jun-25 07:04N 31°58' E 120°03'72142.7
2016-Jun-25 06:33N 31°32' E 121°22'460414305.4
2016-Jun-25 06:33N 24°26' E 118°06'459165118.5
2016-Jun-25 06:33N 31°30' E 121°25'251564.4
2016-Jun-25 06:32N 31°05' E 121°28'2917118.9
2016-Jun-25 06:32N 31°32' E 121°21'4565.1
2016-Jun-25 06:32N 31°30' E 121°25'37602.7
2016-Jun-25 06:28N 31°54' E 120°53'361836.4
2016-Jun-25 06:27N 31°30' E 121°24'14903.8
2016-Jun-25 06:26N 31°40' E 121°14'464530.7
2016-Jun-25 05:33N 24°26' E 118°06'43733486.2
2016-Jun-25 05:33N 31°05' E 121°28'25781.6
2016-Jun-25 05:31N 31°29' E 121°27'1214.7
2016-Jun-25 05:30N 31°28' E 121°27'3199.1
2016-Jun-25 05:30N 31°30' E 121°24'0 3.2
2016-Jun-25 05:27N 31°30' E 121°25'459516.5
2016-Jun-25 04:33N 24°26' E 118°06'45947193.7
2016-Jun-25 04:33N 31°30' E 121°25'14876.5
2016-Jun-25 04:32N 31°40' E 121°14'372438.1
2016-Jun-25 04:31N 31°05' E 121°28'25795.5
2016-Jun-25 04:29N 31°30' E 121°24'974434.2
2016-Jun-25 04:28N 29°57' E 121°60'971446.8
2016-Jun-25 04:24N 31°30' E 121°25'104124.5
2016-Jun-25 03:34N 29°53' E 122°08'392704802.2
2016-Jun-25 03:33N 24°26' E 118°06'43768428.4
2016-Jun-25 03:33N 31°05' E 121°28'2522569.9
2016-Jun-25 03:33N 31°30' E 121°25'5327501.9
2016-Jun-25 03:33N 32°00' E 120°34'5311898.8
2016-Jun-25 03:33N 31°30' E 121°24'443444.2
2016-Jun-25 03:32N 32°01' E 120°48'442206.8
2016-Jun-25 03:31N 31°30' E 121°25'1 4.2
2016-Jun-25 03:22N 31°29' E 121°25'14281.9
2016-Jun-25 03:19N 31°40' E 121°14'464609.7
2016-Jun-25 02:34N 24°26' E 118°06'43377889.8
2016-Jun-25 02:33N 31°00' E 121°26'321597.6
2016-Jun-25 02:32N 31°31' E 121°20'552049.0
2016-Jun-25 02:30N 32°02' E 120°26'467200.7
2016-Jun-25 02:30N 31°40' E 121°14'37938.3
2016-Jun-25 02:28N 31°05' E 121°28'25822.5
2016-Jun-25 02:26N 31°30' E 121°25'191573.9
2016-Jun-25 02:25N 31°42' E 121°08'18353.6
2016-Jun-25 02:22N 31°30' E 121°24'1131138.6
2016-Jun-25 02:16N 29°42' E 122°05'11319402.7
2016-Jun-25 02:16N 31°30' E 121°25'31175.6
2016-Jun-25 02:05N 30°59' E 121°21'429813.6
2016-Jun-25 01:33N 24°26' E 118°06'43367730.3
2016-Jun-25 01:33N 31°00' E 121°26'298756.5
2016-Jun-25 01:33N 31°30' E 121°24'312413.8
2016-Jun-25 01:32N 30°59' E 121°21'794258.5
2016-Jun-25 01:31N 31°58' E 120°20'16599221.0
2016-Jun-25 01:31N 29°41' E 122°07'1274092.9
2016-Jun-25 01:29N 31°40' E 121°14'14366.7
2016-Jun-25 01:27N 31°30' E 121°25'147.3
2016-Jun-25 01:26N 31°30' E 121°25'2933.2
2016-Jun-25 00:34N 31°00' E 121°26'433311559.3
2016-Jun-25 00:33N 24°26' E 118°06'46428822.8
2016-Jun-25 00:32N 31°40' E 121°14'415513.0
2016-Jun-25 00:32N 30°59' E 121°21'867776.7
2016-Jun-25 00:31N 29°41' E 122°06'11414138.1
2016-Jun-25 00:31N 31°30' E 121°24'6712621.1
2016-Jun-25 00:31N 31°56' E 120°12'817851.5
2016-Jun-25 00:30N 31°07' E 121°28'822502.0
2016-Jun-25 00:28N 31°57' E 120°11'631688.7
2016-Jun-25 00:26N 31°31' E 121°20'51673.0
2016-Jun-25 00:26N 31°30' E 121°25'108124.1
2016-Jun-24 23:34N 29°48' E 122°04'8019159.4
2016-Jun-24 23:33N 31°00' E 121°26'7380.6
2016-Jun-24 23:32N 31°07' E 121°28'233696.8
2016-Jun-24 23:32N 31°30' E 121°24'049.5
2016-Jun-24 23:32N 31°30' E 121°25'31712.6
2016-Jun-24 23:29N 30°59' E 121°21'336162.3
2016-Jun-24 23:29N 31°31' E 121°20'681910.3
2016-Jun-24 23:26N 31°57' E 120°05'88263.4
2016-Jun-24 23:06N 31°05' E 121°28'3359.5
2016-Jun-24 22:33N 31°36' E 121°17'11049404.2
2016-Jun-24 22:33N 29°55' E 122°06'393353793.3
2016-Jun-24 22:33N 24°25' E 118°05'430119174.0
2016-Jun-24 22:33N 30°59' E 121°21'5462.1
2016-Jun-24 22:32N 31°00' E 121°26'292622.2
2016-Jun-24 22:32N 31°30' E 121°25'256892.6
2016-Jun-24 22:32N 31°05' E 121°28'2589933.6
2016-Jun-24 22:32N 31°30' E 121°25'0 8.3
2016-Jun-24 22:30N 31°30' E 121°24'332265.5
2016-Jun-24 22:29N 31°06' E 120°58'333705.8
2016-Jun-24 22:29N 31°29' E 121°25'460500.6
2016-Jun-24 21:33N 24°24' E 118°04'435142203.8
2016-Jun-24 21:33N 31°00' E 121°26'68122309.5
2016-Jun-24 21:33N 29°57' E 121°54'6827212.1
2016-Jun-24 21:33N 31°00' E 121°26'294721.8
2016-Jun-24 21:33N 31°29' E 121°25'16939.1
2016-Jun-24 21:32N 31°40' E 121°11'16877.5
2016-Jun-24 21:31N 31°30' E 121°25'019.1
2016-Jun-24 21:29N 31°30' E 121°25'112.5
2016-Jun-24 21:26N 31°30' E 121°24'47011506.8
2016-Jun-24 21:24N 24°13' E 118°09'4501870.5
2016-Jun-24 21:09N 31°07' E 121°28'441743.1
2016-Jun-24 20:34N 24°25' E 118°04'461207259.4
2016-Jun-24 20:33N 31°30' E 121°25'1122.8
2016-Jun-24 20:33N 31°30' E 121°24'302116.5
2016-Jun-24 20:32N 30°60' E 121°25'2597.7
2016-Jun-24 20:32N 31°00' E 121°26'297023.8
2016-Jun-24 20:32N 31°30' E 121°24'460474.0
2016-Jun-24 19:34N 24°25' E 118°04'43465173.4
2016-Jun-24 19:33N 31°00' E 121°26'3220.0
2016-Jun-24 19:32N 31°03' E 121°29'373827.7
2016-Jun-24 19:32N 31°38' E 121°15'111655.3
2016-Jun-24 19:31N 31°30' E 121°24'234538.1
2016-Jun-24 19:31N 31°07' E 121°28'4652840.3
2016-Jun-24 19:21N 38°52' E 121°32'471592.6
2016-Jun-24 18:33N 31°00' E 121°26'434782031.4
2016-Jun-24 18:33N 24°25' E 118°04'46059183.4
2016-Jun-24 18:33N 31°30' E 121°24'44111677.6
2016-Jun-24 18:31N 38°51' E 121°32'4387765.1
2016-Jun-24 18:27N 31°33' E 121°21'5540.3
2016-Jun-24 18:27N 31°30' E 121°24'441494.3
2016-Jun-24 17:33N 38°51' E 121°33'884636836.4
2016-Jun-24 17:33N 24°25' E 118°04'434312812.5
2016-Jun-24 17:33N 31°00' E 121°26'291386.9
2016-Jun-24 17:32N 31°30' E 121°24'0 5.8
2016-Jun-24 17:30N 31°30' E 121°24'23570.9
2016-Jun-24 17:28N 31°07' E 121°28'441485.2
2016-Jun-24 16:33N 24°25' E 118°04'43457924.6
2016-Jun-24 16:33N 31°00' E 121°26'292391.6
2016-Jun-24 16:32N 31°30' E 121°24'23721.1
2016-Jun-24 16:30N 31°07' E 121°28'232142.7
2016-Jun-24 16:30N 31°30' E 121°25'017.9
2016-Jun-24 16:28N 31°30' E 121°25'441132411.2
2016-Jun-24 16:28N 38°51' E 121°33'4421762.9
2016-Jun-24 16:13N 31°29' E 121°25'460703.0
2016-Jun-24 15:33N 24°25' E 118°04'434782051.2
2016-Jun-24 15:33N 31°00' E 121°26'712368.2
2016-Jun-24 15:33N 31°07' E 121°28'464278499.6
2016-Jun-24 15:33N 38°51' E 121°34'42016075.8
2016-Jun-24 15:32N 31°58' E 120°03'765922.7
2016-Jun-24 15:31N 31°30' E 121°25'115.9
2016-Jun-24 15:28N 31°30' E 121°24'0 0.6
2016-Jun-24 15:14N 31°30' E 121°25'182.0
2016-Jun-24 15:13N 31°29' E 121°25'460692.1
2016-Jun-24 14:33N 24°25' E 118°04'46078909.1
2016-Jun-24 14:33N 31°30' E 121°24'234785.1
2016-Jun-24 14:33N 31°07' E 121°28'2381380.3
2016-Jun-24 14:33N 31°30' E 121°25'292921.8
2016-Jun-24 14:32N 31°00' E 121°26'471141293.7
2016-Jun-24 14:32N 38°51' E 121°34'4425338.1
2016-Jun-24 14:27N 31°30' E 121°25'0 2.1
2016-Jun-24 14:18N 31°29' E 121°25'735691.6
2016-Jun-24 14:17N 31°57' E 120°06'465639.8
2016-Jun-24 13:33N 24°25' E 118°04'43442274.7
2016-Jun-24 13:33N 31°00' E 121°26'7562.7
2016-Jun-24 13:32N 31°07' E 121°28'46418574.8
2016-Jun-24 13:30N 38°52' E 121°34'4421192.5
2016-Jun-24 13:08N 31°30' E 121°23'814722.4
2016-Jun-24 13:07N 32°04' E 119°56'14239.6
2016-Jun-24 13:03N 31°56' E 120°10'465930.0
2016-Jun-24 12:33N 24°24' E 118°04'43535550.0
2016-Jun-24 12:33N 31°00' E 121°26'3417462.2
2016-Jun-24 12:33N 31°34' E 121°19'6439.7
2016-Jun-24 12:32N 31°30' E 121°24'11160.1
2016-Jun-24 12:32N 31°29' E 121°25'1169.4
2016-Jun-24 12:32N 31°30' E 121°24'44216236.3
2016-Jun-24 12:30N 38°51' E 121°34'464111440.8
2016-Jun-24 12:30N 31°07' E 121°28'23439.9
2016-Jun-24 12:27N 31°30' E 121°25'1 2.6
2016-Jun-24 12:15N 31°30' E 121°25'811991.5
2016-Jun-24 12:12N 32°01' E 119°58'97149.4
2016-Jun-24 11:33N 31°00' E 121°26'434156416.2
2016-Jun-24 11:33N 24°25' E 118°04'466209699.2
2016-Jun-24 11:33N 31°59' E 120°01'9127199.0
2016-Jun-24 11:33N 31°07' E 121°28'23337.6
2016-Jun-24 11:29N 31°30' E 121°24'0 3.0
2016-Jun-24 11:26N 31°30' E 121°25'33873.3
2016-Jun-24 11:24N 30°58' E 121°14'6443258.5
2016-Jun-24 11:12N 22°28' E 113°54'257404.6
2016-Jun-24 10:34N 24°25' E 118°04'43423002.1
2016-Jun-24 10:32N 31°00' E 121°26'291236.6
2016-Jun-24 10:31N 31°30' E 121°24'046.6
2016-Jun-24 10:31N 31°30' E 121°25'312515.1
2016-Jun-24 10:30N 30°59' E 121°19'647105803.9
2016-Jun-24 10:30N 22°28' E 113°54'6589328.8
2016-Jun-24 10:25N 31°57' E 120°07'721853.9
2016-Jun-24 10:23N 31°30' E 121°25'4573878.0
2016-Jun-24 10:16N 24°22' E 118°24'437120991.2
2016-Jun-24 10:16N 31°07' E 121°28'7 9.7
2016-Jun-24 09:33N 31°00' E 121°26'435391055.4
2016-Jun-24 09:33N 24°24' E 118°04'43386574.6
2016-Jun-24 09:33N 30°60' E 121°24'432518559.2
2016-Jun-24 09:33N 24°20' E 118°17'46736517.7
2016-Jun-24 09:32N 31°56' E 120°11'683011.0
2016-Jun-24 09:31N 31°30' E 121°24'248.6
2016-Jun-24 09:29N 31°30' E 121°22'6904501.0
2016-Jun-24 09:19N 22°10' E 113°50'669875.0
2016-Jun-24 08:33N 31°00' E 121°26'435195532.7
2016-Jun-24 08:33N 24°24' E 118°04'462277089.2
2016-Jun-24 08:33N 31°33' E 121°20'46321645.7
2016-Jun-24 08:32N 24°22' E 118°08'4425236.4
2016-Jun-24 08:27N 31°07' E 121°28'2287.4
2016-Jun-24 08:12N 31°29' E 121°25'460724.9
2016-Jun-24 07:34N 24°24' E 118°04'435782120.7
2016-Jun-24 07:33N 31°00' E 121°26'435522535.1
2016-Jun-24 07:33N 24°25' E 118°00'46426511.0
2016-Jun-24 07:32N 31°35' E 121°17'183850.1
2016-Jun-24 07:32N 31°21' E 121°31'28620.6
2016-Jun-24 07:29N 31°42' E 121°09'26419.8
2016-Jun-24 07:26N 31°22' E 121°30'9317.3
2016-Jun-24 07:24N 31°30' E 121°24'63751.1
2016-Jun-24 07:19N 31°58' E 120°19'568.3
2016-Jun-24 07:14N 31°57' E 120°13'75831.5
2016-Jun-24 07:09N 31°25' E 121°32'2540.0
2016-Jun-24 06:32N 31°01' E 121°27'21392.8
2016-Jun-24 06:28N 31°21' E 121°31'30102.9
2016-Jun-24 06:11N 31°43' E 121°08'4628.0
2016-Jun-24 04:33N 31°00' E 121°26'434312832.3
2016-Jun-24 04:33N 24°25' E 118°04'119142734.6
2016-Jun-24 04:33N 25°58' E 119°25'36931603.8
2016-Jun-24 04:33N 22°57' E 113°32'663238791.5
2016-Jun-24 04:32N 31°31' E 121°24'278.5
2016-Jun-24 04:31N 31°29' E 121°25'135.6
2016-Jun-24 04:30N 31°30' E 121°24'8450.0
2016-Jun-24 04:29N 31°25' E 121°32'49438668.7
2016-Jun-24 04:28N 39°04' E 117°49'51059176.7
2016-Jun-24 04:27N 31°07' E 121°28'1479.3
2016-Jun-24 04:17N 31°21' E 121°31'498.6
2016-Jun-24 04:14N 31°22' E 121°35'545.9
2016-Jun-24 04:08N 31°22' E 121°30'9161.0
2016-Jun-24 04:05N 31°30' E 121°25'965426.7
2016-Jun-24 04:04N 29°58' E 121°59'393771.2
2016-Jun-24 03:33N 24°25' E 118°04'434156418.1
2016-Jun-24 03:33N 31°00' E 121°26'224225.9
2016-Jun-24 03:33N 31°23' E 121°30'65746409.5
2016-Jun-24 03:32N 23°02' E 113°31'66033926.3
2016-Jun-24 03:31N 31°29' E 121°25'181.6
2016-Jun-24 03:30N 31°30' E 121°24'41264.0
2016-Jun-24 03:30N 31°28' E 121°28'9813556.8
2016-Jun-24 03:30N 29°56' E 122°06'100882.4
2016-Jun-24 03:23N 31°30' E 121°25'232250.9
2016-Jun-24 03:22N 31°07' E 121°28'44430751.3
2016-Jun-24 03:21N 24°24' E 117°57'4662574.9
2016-Jun-24 03:10N 31°55' E 120°11'464752.2
2016-Jun-24 02:33N 24°25' E 118°04'434782090.6
2016-Jun-24 02:33N 31°00' E 121°26'80143449.7
2016-Jun-24 02:33N 29°48' E 122°05'61917697.7
2016-Jun-24 02:31N 22°48' E 113°37'66892458.6
2016-Jun-24 02:31N 31°26' E 121°30'658.2
2016-Jun-24 02:25N 31°30' E 121°24'8383.7
2016-Jun-24 02:24N 31°25' E 121°32'53851077099.9
2016-Jun-24 02:23N 49°18' W 123°02'6184473688.0
2016-Jun-24 02:23N 23°06' E 113°27'65911979.8
2016-Jun-24 02:19N 31°28' E 121°26'2244.5
2016-Jun-24 02:19N 31°29' E 121°25'1 4.7
2016-Jun-24 02:06N 31°29' E 121°24'1222.3
2016-Jun-24 01:33N 31°22' E 121°35'663216937.4
2016-Jun-24 01:33N 22°55' E 113°36'26267301.1
2016-Jun-24 01:33N 24°24' E 118°04'435521427.0
2016-Jun-24 01:33N 31°00' E 121°26'291477.8
2016-Jun-24 01:32N 31°30' E 121°25'259956.4
2016-Jun-24 01:32N 31°05' E 121°28'9012053.8
2016-Jun-24 01:31N 29°41' E 122°07'61164696.9
2016-Jun-24 01:31N 23°06' E 113°27'657118262.3
2016-Jun-24 01:30N 31°21' E 121°33'148393.2
2016-Jun-24 01:30N 31°07' E 121°28'5404397015.1
2016-Jun-24 01:29N 49°18' W 123°02'5387395805.9
2016-Jun-24 01:29N 31°24' E 121°31'7181.6
2016-Jun-24 01:26N 31°29' E 121°25'017.4
2016-Jun-24 01:25N 31°29' E 121°25'692.6
2016-Jun-24 01:21N 31°33' E 121°19'5118.0
2016-Jun-24 01:18N 31°30' E 121°24'885.5
2016-Jun-24 01:12N 31°25' E 121°32'459711.6
2016-Jun-24 00:33N 24°24' E 118°04'435130446.8
2016-Jun-24 00:33N 31°01' E 121°27'63953486.6
2016-Jun-24 00:33N 23°06' E 113°27'6382298519.6
2016-Jun-24 00:33N 31°00' E 121°26'54111947816.7
2016-Jun-24 00:32N 49°18' W 123°02'53891141142.5
2016-Jun-24 00:32N 31°32' E 121°21'498446.8
2016-Jun-24 00:32N 32°02' E 120°35'543289.5
2016-Jun-24 00:31N 31°29' E 121°25'22973.8
2016-Jun-24 00:29N 31°07' E 121°28'23935.1
2016-Jun-24 00:28N 31°30' E 121°24'11323977.8
2016-Jun-24 00:28N 29°42' E 122°05'15416278.3
2016-Jun-24 00:27N 32°00' E 120°47'52684.5
2016-Jun-24 00:23N 31°25' E 121°32'8175.1
2016-Jun-24 00:20N 31°30' E 121°25'831.1
2016-Jun-24 00:04N 31°24' E 121°32'2447.3
2016-Jun-23 23:33N 31°00' E 121°26'248527.2
2016-Jun-23 23:33N 31°24' E 121°32'87427.3
2016-Jun-23 23:33N 31°30' E 121°25'461184230.2
2016-Jun-23 23:33N 24°24' E 118°04'455818812.2
2016-Jun-23 23:33N 31°21' E 121°31'98354168.1
2016-Jun-23 23:33N 29°47' E 122°04'1527831.1
2016-Jun-23 23:32N 32°00' E 120°38'5397266140.6
2016-Jun-23 23:31N 49°18' W 123°02'5388746000.4
2016-Jun-23 23:30N 31°30' E 121°24'183.8
2016-Jun-23 23:30N 31°29' E 121°25'50915262.6
2016-Jun-23 23:28N 23°41' E 117°40'49014692.6
2016-Jun-23 23:26N 31°07' E 121°28'6443285.2
2016-Jun-23 23:14N 23°06' E 113°27'2603348.7
2016-Jun-23 23:09N 24°24' E 117°58'399661.5
2016-Jun-23 22:33N 29°55' E 122°07'8026149.1
2016-Jun-23 22:33N 31°07' E 121°28'7466.7
2016-Jun-23 22:32N 31°00' E 121°26'8921.9
2016-Jun-23 22:32N 31°08' E 121°27'656158.8
2016-Jun-23 22:31N 32°01' E 120°42'47711918.5
2016-Jun-23 22:28N 24°24' E 118°04'46069049.1
2016-Jun-23 22:28N 31°30' E 121°24'67667629.2
2016-Jun-23 22:27N 22°28' E 113°50'655168493.7
2016-Jun-23 22:27N 31°16' E 121°04'61658.0
2016-Jun-23 22:22N 31°56' E 120°10'694209.9
2016-Jun-23 22:21N 31°30' E 121°25'452274.8
2016-Jun-23 22:20N 32°01' E 120°47'48122469.8
2016-Jun-23 22:18N 24°24' E 117°58'4517546.1
2016-Jun-23 22:15N 30°57' E 122°08'6615346.1
2016-Jun-23 22:07N 23°06' E 113°27'62386268.0
2016-Jun-23 22:07N 31°01' E 120°59'371096.8
2016-Jun-23 22:05N 31°25' E 121°32'2343.7
2016-Jun-23 21:33N 31°03' E 121°29'275462.6
2016-Jun-23 21:33N 31°30' E 121°24'460165719.8
2016-Jun-23 21:33N 24°24' E 118°04'435391070.3
2016-Jun-23 21:33N 31°00' E 121°26'231064.7
2016-Jun-23 21:32N 31°17' E 121°07'233952.4
2016-Jun-23 21:31N 31°25' E 121°32'660107990.7
2016-Jun-23 21:31N 23°06' E 113°27'61392003.6
2016-Jun-23 21:31N 29°57' E 121°55'1504377.8
2016-Jun-23 21:28N 31°56' E 120°10'692300.2
2016-Jun-23 21:27N 31°30' E 121°25'46311347.3
2016-Jun-23 21:24N 24°24' E 117°57'430140781.4
2016-Jun-23 21:24N 31°02' E 121°03'471558.9
2016-Jun-23 20:33N 38°52' E 121°32'4711697139.6
2016-Jun-23 20:33N 31°00' E 121°26'4356545.1
2016-Jun-23 20:29N 24°24' E 118°04'45968856.1
2016-Jun-23 20:29N 31°25' E 121°32'81043.9
2016-Jun-23 20:29N 31°29' E 121°25'2814337.2
2016-Jun-23 20:29N 31°02' E 121°29'18176.7
2016-Jun-23 20:22N 30°60' E 121°08'33361.4
2016-Jun-23 20:17N 31°30' E 121°24'65917695.4
2016-Jun-23 20:15N 23°05' E 113°27'2662471.8
2016-Jun-23 20:08N 24°14' E 118°09'443764.1
2016-Jun-23 19:33N 31°00' E 121°26'43787496.7
2016-Jun-23 19:33N 24°24' E 117°57'62044.3
2016-Jun-23 19:33N 24°24' E 118°04'4608815.7
2016-Jun-23 19:30N 31°30' E 121°24'1017202.3
2016-Jun-23 19:30N 31°25' E 121°34'33800.7
2016-Jun-23 19:27N 30°57' E 121°12'629452641.3
2016-Jun-23 19:27N 22°57' E 113°37'64241250.4
2016-Jun-23 19:26N 31°02' E 121°29'24640.3
2016-Jun-23 19:24N 31°25' E 121°32'9135840.0
2016-Jun-23 19:15N 20°11' E 110°08'91252116.4
2016-Jun-23 19:14N 31°30' E 121°25'6595558.2
2016-Jun-23 19:07N 23°05' E 113°27'10341877.9
2016-Jun-23 18:34N 38°52' E 121°33'47199773.4
2016-Jun-23 18:33N 31°00' E 121°26'910669.3
2016-Jun-23 18:33N 30°57' E 121°17'42839532.9
2016-Jun-23 18:33N 24°25' E 118°04'45935154.7
2016-Jun-23 18:32N 31°25' E 121°32'243703.3
2016-Jun-23 18:31N 31°02' E 121°29'88982101.2
2016-Jun-23 18:31N 20°12' E 110°15'907326351.6
2016-Jun-23 18:31N 31°30' E 121°24'67489874.0
2016-Jun-23 18:30N 22°29' E 113°53'6609902.0
2016-Jun-23 18:26N 31°56' E 120°13'66396.1
2016-Jun-23 18:16N 31°30' E 121°25'16118.0
2016-Jun-23 18:08N 31°41' E 121°11'251660.0
2016-Jun-23 18:07N 31°25' E 121°34'2544.6
2016-Jun-23 17:33N 31°00' E 121°26'47070552.1
2016-Jun-23 17:33N 38°51' E 121°33'417136421.1
2016-Jun-23 17:33N 31°58' E 120°20'513935.6
2016-Jun-23 17:32N 31°38' E 121°16'5649.1
2016-Jun-23 17:32N 31°41' E 121°12'422879.9
2016-Jun-23 17:31N 31°02' E 121°29'65556130.2
2016-Jun-23 17:30N 22°29' E 113°53'67432362.8
2016-Jun-23 17:29N 31°29' E 121°25'93180.1
2016-Jun-23 17:29N 31°22' E 121°30'6568529.5
2016-Jun-23 17:24N 23°05' E 113°27'26627347.5
2016-Jun-23 17:24N 24°25' E 118°04'4656108.6
2016-Jun-23 17:19N 31°57' E 120°04'4671944.6
2016-Jun-23 17:05N 24°24' E 117°58'611.3
2016-Jun-23 16:33N 24°25' E 118°04'460110461.7
2016-Jun-23 16:33N 31°29' E 121°25'36138.4
2016-Jun-23 16:33N 31°32' E 121°22'439197497.3
2016-Jun-23 16:33N 38°51' E 121°33'47084646.0
2016-Jun-23 16:32N 31°00' E 121°26'43474372.3
2016-Jun-23 16:32N 24°26' E 118°02'46487862.6
2016-Jun-23 16:32N 31°37' E 121°17'9633.4
2016-Jun-23 16:31N 31°30' E 121°23'296494.2
2016-Jun-23 16:31N 31°02' E 121°29'231092.6
2016-Jun-23 16:29N 31°25' E 121°34'3699.3
2016-Jun-23 16:29N 31°25' E 121°31'24472.9
2016-Jun-23 16:26N 31°41' E 121°11'6604289.3
2016-Jun-23 16:17N 23°05' E 113°27'65943924.6
2016-Jun-23 16:16N 31°30' E 121°24'441613.1
2016-Jun-23 15:33N 38°50' E 121°32'437174862.0
2016-Jun-23 15:33N 31°33' E 121°20'334416.0
2016-Jun-23 15:32N 31°00' E 121°26'3228775.5
2016-Jun-23 15:32N 31°32' E 121°20'461207518.2
2016-Jun-23 15:32N 24°25' E 118°04'43610474.1
2016-Jun-23 15:30N 31°02' E 121°29'252738.8
2016-Jun-23 15:29N 31°27' E 121°29'31108.5
2016-Jun-23 15:29N 31°25' E 121°32'248781.1
2016-Jun-23 15:29N 31°41' E 121°11'26870.3
2016-Jun-23 15:27N 31°25' E 121°34'6618648.5
2016-Jun-23 15:22N 23°05' E 113°27'659112943.0
2016-Jun-23 15:22N 31°30' E 121°24'441544.3
2016-Jun-23 14:33N 38°51' E 121°33'44140668.9
2016-Jun-23 14:33N 31°30' E 121°23'829874.0
2016-Jun-23 14:33N 31°36' E 121°17'3743941.9
2016-Jun-23 14:33N 31°00' E 121°26'432617.5
2016-Jun-23 14:32N 31°41' E 121°11'171076.4
2016-Jun-23 14:31N 31°29' E 121°25'158.5
2016-Jun-23 14:30N 31°30' E 121°24'65918674.1
2016-Jun-23 14:28N 23°05' E 113°27'6407682.5
2016-Jun-23 14:23N 31°56' E 120°10'871542.8
2016-Jun-23 14:19N 31°02' E 121°29'24146.9
2016-Jun-23 14:10N 31°25' E 121°32'2964527.6
2016-Jun-23 14:06N 26°46' E 119°42'30432148.4
2016-Jun-23 14:05N 31°39' E 121°13'432808.7
2016-Jun-23 13:33N 38°51' E 121°33'44816609.3
2016-Jun-23 13:32N 31°23' E 121°30'236936.9
2016-Jun-23 13:31N 31°00' E 121°26'8872.8
2016-Jun-23 13:31N 30°58' E 121°18'414463.9
2016-Jun-23 13:30N 31°39' E 121°13'3685.8
2016-Jun-23 13:30N 31°41' E 121°11'164791.5
2016-Jun-23 13:30N 31°30' E 121°24'282673.3
2016-Jun-23 13:29N 31°02' E 121°29'2719960.6
2016-Jun-23 13:28N 26°47' E 119°43'296152314.8
2016-Jun-23 13:27N 31°29' E 121°25'659158159.5
2016-Jun-23 13:27N 23°05' E 113°27'66014491.3
2016-Jun-23 13:24N 31°25' E 121°32'24792.6
2016-Jun-23 13:23N 31°41' E 121°11'430511.5
2016-Jun-23 12:32N 38°51' E 121°33'47311743.5
2016-Jun-23 12:30N 30°58' E 121°18'81214.3
2016-Jun-23 12:29N 31°00' E 121°26'2258.5
2016-Jun-23 12:29N 31°02' E 121°29'282118.5
2016-Jun-23 12:28N 31°30' E 121°24'1168.6
2016-Jun-23 12:28N 31°30' E 121°23'15365.0
2016-Jun-23 12:25N 31°41' E 121°11'232276.3
2016-Jun-23 12:25N 31°25' E 121°31'174.6
2016-Jun-23 12:24N 31°25' E 121°32'25448.6
2016-Jun-23 12:20N 31°41' E 121°10'22149.1
2016-Jun-23 12:11N 31°57' E 120°52'64100.9
2016-Jun-23 11:34N 31°00' E 121°26'213627.1
2016-Jun-23 11:33N 31°21' E 121°31'102212.7
2016-Jun-23 11:33N 31°30' E 121°24'161375.0
2016-Jun-23 11:32N 31°41' E 121°10'17510.2
2016-Jun-23 11:30N 31°29' E 121°25'32947.7
2016-Jun-23 11:28N 30°58' E 121°18'431756.4
2016-Jun-23 11:27N 31°40' E 121°11'42977.7
2016-Jun-23 11:24N 31°02' E 121°29'43768358.8
2016-Jun-23 11:24N 24°23' E 118°06'4278983.3
2016-Jun-23 11:21N 30°57' E 121°12'42622571.3
2016-Jun-23 11:20N 24°25' E 118°04'2661654.7
2016-Jun-23 11:10N 23°06' E 113°27'98415473.9
2016-Jun-23 11:06N 39°05' E 117°46'9221683.8
2016-Jun-23 10:33N 23°43' E 117°36'4831739194.0
2016-Jun-23 10:33N 31°00' E 121°26'4341564182.0
2016-Jun-23 10:33N 24°25' E 118°04'46688325.3
2016-Jun-23 10:33N 31°41' E 121°10'4339009.2
2016-Jun-23 10:33N 30°58' E 121°18'32954.3
2016-Jun-23 10:31N 31°30' E 121°24'332939.3
2016-Jun-23 10:30N 30°58' E 121°16'1221683.7
2016-Jun-23 10:30N 31°02' E 121°29'51588209.1
2016-Jun-23 10:30N 39°04' E 117°50'98426443.7
2016-Jun-23 10:28N 23°06' E 113°27'26715502.9
2016-Jun-23 10:27N 24°23' E 118°06'4618333.4
2016-Jun-23 10:23N 31°29' E 121°25'8155.0
2016-Jun-23 10:20N 31°24' E 121°33'311.0
2016-Jun-23 10:06N 31°24' E 121°36'2852.3
2016-Jun-23 09:33N 30°59' E 121°21'515185402.8
2016-Jun-23 09:33N 39°04' E 117°50'514308698.1
2016-Jun-23 09:33N 30°59' E 121°20'63369094.3
2016-Jun-23 09:33N 23°05' E 113°28'659103172.0
2016-Jun-23 09:32N 31°41' E 121°10'4351241.9
2016-Jun-23 09:32N 31°00' E 121°26'435313330.9
2016-Jun-23 09:32N 24°22' E 118°08'4233.1
2016-Jun-23 09:31N 24°24' E 118°04'436120861.1
2016-Jun-23 09:31N 31°02' E 121°29'5124.4
2016-Jun-23 09:29N 31°07' E 121°27'23606.5
2016-Jun-23 09:26N 31°29' E 121°25'69223.6
2016-Jun-23 09:08N 31°56' E 120°10'5494.0
2016-Jun-23 08:33N 31°41' E 121°11'4311859.4
2016-Jun-23 08:33N 31°01' E 121°26'28712.1
2016-Jun-23 08:33N 31°02' E 121°29'436196404.3
2016-Jun-23 08:33N 24°24' E 118°04'43597765.1
2016-Jun-23 08:33N 31°00' E 121°26'1363.5
2016-Jun-23 08:33N 31°00' E 121°26'101235.3
2016-Jun-23 08:32N 31°10' E 121°28'584096.6
2016-Jun-23 08:31N 31°58' E 120°51'47833714.1
2016-Jun-23 08:31N 24°21' E 118°14'27110620.8
2016-Jun-23 08:29N 23°00' E 113°31'66116988.7
2016-Jun-23 08:27N 31°29' E 121°25'4577447.4
2016-Jun-23 08:23N 24°28' E 118°04'4575715.5
2016-Jun-23 08:18N 31°30' E 121°24'22964.7
2016-Jun-23 08:17N 31°08' E 121°28'0 6.2
2016-Jun-23 08:12N 31°07' E 121°28'6501000.3
2016-Jun-23 07:33N 22°55' E 113°30'645331535.9
2016-Jun-23 07:33N 31°00' E 121°26'52157.9
2016-Jun-23 07:33N 31°05' E 121°28'436130856.5
2016-Jun-23 07:33N 24°22' E 118°20'115523.4
2016-Jun-23 07:33N 24°26' E 118°09'435195722.5
2016-Jun-23 07:33N 31°03' E 121°28'438157625.1
2016-Jun-23 07:33N 24°24' E 118°04'467240054.7
2016-Jun-23 07:32N 31°41' E 121°11'404948.4
2016-Jun-23 07:32N 31°04' E 121°28'3291.9
2016-Jun-23 07:31N 31°02' E 121°29'465360.3
2016-Jun-23 07:31N 31°44' E 121°07'205446.1
2016-Jun-23 07:31N 31°30' E 121°23'1 6.9
2016-Jun-23 07:22N 31°30' E 121°24'8574.1
2016-Jun-23 07:21N 31°25' E 121°32'418.2
2016-Jun-23 07:06N 31°21' E 121°33'4 2.7
2016-Jun-23 05:33N 31°25' E 121°34'2615797.1
2016-Jun-23 05:33N 30°60' E 121°24'21510.1
2016-Jun-23 05:33N 31°00' E 121°26'43434001.4
2016-Jun-23 05:33N 24°25' E 118°04'456149389.1
2016-Jun-23 05:32N 31°23' E 121°30'67134047.7
2016-Jun-23 05:31N 22°53' E 113°19'655214341.8
2016-Jun-23 05:31N 31°02' E 121°29'7014917.9
2016-Jun-23 05:31N 29°57' E 122°00'984532.2
2016-Jun-23 05:29N 31°30' E 121°23'139663.8
2016-Jun-23 05:29N 31°19' E 121°33'6159.3
2016-Jun-23 05:27N 31°14' E 121°30'243488.5
2016-Jun-23 05:27N 31°36' E 121°18'8449.8
2016-Jun-23 05:25N 31°41' E 121°11'241460.3
2016-Jun-23 05:24N 31°25' E 121°32'181687.9
2016-Jun-23 05:24N 31°07' E 121°28'6112.3
2016-Jun-23 05:20N 31°01' E 121°30'4 4.5
2016-Jun-23 04:34N 31°00' E 121°26'2449.5
2016-Jun-23 04:33N 31°02' E 121°29'286789.8
2016-Jun-23 04:33N 31°30' E 121°24'450270121.2
2016-Jun-23 04:33N 24°33' E 118°11'44780544.5
2016-Jun-23 04:33N 31°23' E 121°33'45848458.4
2016-Jun-23 04:32N 24°25' E 118°04'39388451.9
2016-Jun-23 04:32N 29°52' E 122°08'9870570.7
2016-Jun-23 04:32N 31°25' E 121°32'4615.8
2016-Jun-23 04:31N 31°21' E 121°32'111149.7
2016-Jun-23 04:31N 31°29' E 121°25'17533.4
2016-Jun-23 04:29N 31°41' E 121°11'143230.2
2016-Jun-23 04:28N 31°31' E 121°23'10562.2
2016-Jun-23 04:27N 31°23' E 121°30'162473.7
2016-Jun-23 04:27N 31°07' E 121°28'13671.8
2016-Jun-23 04:26N 30°58' E 121°18'111194.5
2016-Jun-23 04:25N 31°01' E 121°30'29933.1
2016-Jun-23 04:23N 31°30' E 121°23'6657394.2
2016-Jun-23 04:18N 22°52' E 113°33'65923045.4
2016-Jun-23 04:16N 32°01' E 120°24'81113.3
2016-Jun-23 03:33N 31°02' E 121°29'21423.4
2016-Jun-23 03:33N 31°00' E 121°26'239038.3
2016-Jun-23 03:33N 31°23' E 121°30'217643.5
2016-Jun-23 03:33N 31°02' E 121°29'281817.0
2016-Jun-23 03:32N 31°30' E 121°24'625574.0
2016-Jun-23 03:31N 31°58' E 120°20'46984425.6
2016-Jun-23 03:31N 24°25' E 118°04'46713771.1
2016-Jun-23 03:29N 31°41' E 121°11'16413.7
2016-Jun-23 03:27N 31°30' E 121°23'365.7
2016-Jun-23 03:24N 31°28' E 121°27'1122256.7
2016-Jun-23 03:21N 29°41' E 122°05'1076136.7
2016-Jun-23 03:20N 31°25' E 121°32'66811027.5
2016-Jun-23 03:16N 22°54' E 113°30'66722644.8
2016-Jun-23 03:14N 31°29' E 121°25'635793.9
2016-Jun-23 03:14N 31°58' E 120°19'3142524.9
2016-Jun-23 03:06N 26°45' E 119°43'271492.8
2016-Jun-23 02:33N 31°00' E 121°26'21067.5
2016-Jun-23 02:33N 31°02' E 121°29'647155336.8
2016-Jun-23 02:33N 22°55' E 113°30'665299307.4
2016-Jun-23 02:33N 31°33' E 121°20'11820258.0
2016-Jun-23 02:33N 29°42' E 122°07'167200198.6
2016-Jun-23 02:32N 31°56' E 120°11'68245785.7
2016-Jun-23 02:32N 31°29' E 121°25'171091.9
2016-Jun-23 02:32N 31°41' E 121°11'669267597.4
2016-Jun-23 02:31N 22°55' E 113°27'2789916.8
2016-Jun-23 02:30N 24°36' E 118°10'44831606.0
2016-Jun-23 02:29N 31°30' E 121°24'91626.5
2016-Jun-23 02:29N 31°22' E 121°30'496198229.0
2016-Jun-23 02:28N 39°04' E 117°50'8799862.8
2016-Jun-23 02:23N 24°25' E 118°04'45915021.5
2016-Jun-23 02:21N 31°25' E 121°32'761086.2
2016-Jun-23 02:17N 31°56' E 120°11'79417.2
2016-Jun-23 02:06N 31°23' E 121°35'3318.8
2016-Jun-23 02:05N 31°24' E 121°32'422795.3
2016-Jun-23 01:33N 24°45' E 118°54'445865.9
2016-Jun-23 01:33N 24°26' E 118°11'43277845.7
2016-Jun-23 01:32N 31°02' E 121°29'2219568.7
2016-Jun-23 01:32N 31°23' E 121°30'2341650.7
2016-Jun-23 01:32N 31°00' E 121°26'43492010.7
2016-Jun-23 01:32N 24°25' E 118°04'455233928.7
2016-Jun-23 01:32N 31°21' E 121°31'10025701.6
2016-Jun-23 01:32N 29°45' E 122°03'1239450.0
2016-Jun-23 01:31N 31°40' E 121°12'66149561.9
2016-Jun-23 01:30N 23°01' E 113°31'66136067.3
2016-Jun-23 01:29N 31°41' E 121°11'244818.0
2016-Jun-23 01:29N 31°24' E 121°31'7691.6
2016-Jun-23 01:28N 31°29' E 121°25'84501.3
2016-Jun-23 01:28N 31°25' E 121°32'2964020.4
2016-Jun-23 01:24N 26°45' E 119°43'29225010.4
2016-Jun-23 01:23N 31°21' E 121°31'49763845.7
2016-Jun-23 01:22N 39°04' E 117°50'487134781.1
2016-Jun-23 01:22N 31°30' E 121°24'460567.0
2016-Jun-23 00:33N 24°24' E 118°04'459137723.1
2016-Jun-23 00:33N 31°25' E 121°34'106885.5
2016-Jun-23 00:33N 31°30' E 121°24'4201511868.4
2016-Jun-23 00:33N 24°50' E 118°59'393141490.7
2016-Jun-23 00:33N 31°00' E 121°26'43866.7
2016-Jun-23 00:30N 31°41' E 121°11'12061875.6
2016-Jun-23 00:30N 29°51' E 122°07'99177675.9
2016-Jun-23 00:30N 31°25' E 121°32'8442.8
2016-Jun-23 00:29N 31°29' E 121°25'281282.8
2016-Jun-23 00:28N 31°02' E 121°29'28499.4
2016-Jun-23 00:24N 31°29' E 121°25'65818230.9
2016-Jun-23 00:22N 23°04' E 113°30'6306265.0
2016-Jun-23 00:16N 30°58' E 121°16'428604.1
2016-Jun-22 23:34N 24°24' E 118°04'435223465.9
2016-Jun-22 23:33N 31°00' E 121°26'324869.7
2016-Jun-22 23:33N 31°32' E 121°20'159252.3
2016-Jun-22 23:33N 31°23' E 121°34'179214553.6
2016-Jun-22 23:33N 31°25' E 118°05'171123048.8
2016-Jun-22 23:33N 31°29' E 121°25'10423476.3
2016-Jun-22 23:32N 29°51' E 122°07'1208997.8
2016-Jun-22 23:32N 31°41' E 121°11'428984.4
2016-Jun-22 23:31N 31°02' E 121°29'9205.5
2016-Jun-22 23:29N 30°58' E 121°18'29375.9
2016-Jun-22 23:24N 31°25' E 121°32'8275.3
2016-Jun-22 23:22N 31°30' E 121°24'68686.2
2016-Jun-22 23:16N 31°56' E 120°10'542027253.0
2016-Jun-22 23:04N 49°18' W 123°02'538810496.3
2016-Jun-22 22:33N 31°37' E 121°15'54525.2
2016-Jun-22 22:33N 31°41' E 121°11'467280028.0
2016-Jun-22 22:33N 24°24' E 118°04'420216220.2
2016-Jun-22 22:33N 31°25' E 118°06'15615639.0
2016-Jun-22 22:33N 31°42' E 121°08'12187430.6
2016-Jun-22 22:32N 29°51' E 122°07'776804.1
2016-Jun-22 22:32N 31°00' E 121°26'64666432.5
2016-Jun-22 22:31N 22°53' E 113°31'64841643.7
2016-Jun-22 22:30N 31°17' E 121°09'23366.1
2016-Jun-22 22:27N 31°02' E 121°29'201989.0
2016-Jun-22 22:26N 31°22' E 121°29'3125.3
2016-Jun-22 22:24N 31°21' E 121°33'65720917.7
2016-Jun-22 22:22N 23°04' E 113°30'6597273.2
2016-Jun-22 22:17N 31°29' E 121°25'110.7
2016-Jun-22 22:12N 31°30' E 121°24'0 2.3
2016-Jun-22 22:07N 31°30' E 121°24'8217.0
2016-Jun-22 22:05N 31°25' E 121°32'1018.8
2016-Jun-22 21:33N 31°15' E 121°32'450124609.7
2016-Jun-22 21:33N 24°24' E 118°04'46742004.7
2016-Jun-22 21:33N 31°41' E 121°11'116104790.9
2016-Jun-22 21:32N 29°55' E 122°06'748605.3
2016-Jun-22 21:32N 31°02' E 121°29'2777.4
2016-Jun-22 21:32N 31°00' E 121°26'4417554.6
2016-Jun-22 21:32N 31°42' E 121°09'66796048.9
2016-Jun-22 21:31N 22°53' E 113°31'66435170.8
2016-Jun-22 21:30N 31°21' E 121°33'12552.3
2016-Jun-22 21:29N 31°30' E 121°24'1832.3
2016-Jun-22 21:29N 31°29' E 121°25'111.1
2016-Jun-22 21:25N 31°30' E 121°24'4703156.2
2016-Jun-22 21:16N 24°13' E 118°09'4258.7
2016-Jun-22 20:33N 23°42' E 117°38'4914621.7
2016-Jun-22 20:33N 24°24' E 118°04'392117529.8
2016-Jun-22 20:33N 29°57' E 121°57'97173763.2
2016-Jun-22 20:33N 31°30' E 121°24'292351.4
2016-Jun-22 20:32N 31°00' E 121°26'2917534.6
2016-Jun-22 20:32N 31°30' E 121°24'28916.4
2016-Jun-22 20:30N 31°02' E 121°29'66745.3
2016-Jun-22 20:30N 31°07' E 121°28'3716673.3
2016-Jun-22 20:30N 31°41' E 121°11'28727.7
2016-Jun-22 20:28N 31°20' E 121°33'4647395.1
2016-Jun-22 20:24N 24°12' E 118°09'47012622.7
2016-Jun-22 20:22N 31°29' E 121°25'13500.6
2016-Jun-22 20:20N 31°18' E 121°33'227.3
2016-Jun-22 20:16N 31°19' E 121°34'452633.5
2016-Jun-22 19:34N 38°52' E 121°33'47180803.3
2016-Jun-22 19:33N 31°00' E 121°26'43592017.7
2016-Jun-22 19:33N 24°24' E 118°04'46626238.9
2016-Jun-22 19:32N 31°42' E 121°08'1864664.3
2016-Jun-22 19:32N 31°30' E 121°24'18599.6
2016-Jun-22 19:30N 31°13' E 121°30'11315.6
2016-Jun-22 19:28N 31°02' E 121°29'432125.7
2016-Jun-22 19:27N 31°41' E 121°11'37167.2
2016-Jun-22 19:13N 31°07' E 121°28'710.2
2016-Jun-22 18:33N 31°00' E 121°26'135103.2
2016-Jun-22 18:33N 31°13' E 121°30'447123801.3
2016-Jun-22 18:33N 24°24' E 118°04'467420058.6
2016-Jun-22 18:33N 31°41' E 121°11'431221455.6
2016-Jun-22 18:33N 38°51' E 121°33'47019005.2
2016-Jun-22 18:31N 31°02' E 121°29'28148.8
2016-Jun-22 18:20N 31°29' E 121°25'11157.4
2016-Jun-22 18:20N 31°30' E 121°24'9249.1
2016-Jun-22 18:18N 31°25' E 121°32'8710.7
2016-Jun-22 18:17N 31°30' E 121°24'18302.6
2016-Jun-22 18:13N 31°42' E 121°08'39354368.5
2016-Jun-22 18:13N 25°18' E 119°33'17038290.9
2016-Jun-22 18:13N 22°33' E 120°17'5336524.8
2016-Jun-22 18:08N 31°22' E 121°29'6137.0
2016-Jun-22 18:05N 31°18' E 121°33'812847.1
2016-Jun-22 18:04N 31°56' E 120°10'465925.6
2016-Jun-22 17:33N 24°25' E 118°04'884167418.7
2016-Jun-22 17:33N 38°50' E 121°32'457411730.7
2016-Jun-22 17:33N 31°13' E 121°30'1311482.2
2016-Jun-22 17:33N 31°00' E 121°26'393071.1
2016-Jun-22 17:32N 31°38' E 121°15'404939.3
2016-Jun-22 17:32N 30°59' E 121°22'6175.3
2016-Jun-22 17:30N 31°02' E 121°29'431682.1
2016-Jun-22 17:28N 31°41' E 121°11'371803.5
2016-Jun-22 17:27N 31°07' E 121°28'23478.0
2016-Jun-22 17:24N 31°30' E 121°24'18817.0
2016-Jun-22 17:23N 31°42' E 121°08'262110.9
2016-Jun-22 17:22N 31°25' E 121°32'77956.5
2016-Jun-22 17:17N 31°56' E 120°10'794360.2
2016-Jun-22 17:16N 31°21' E 121°33'6208.2
2016-Jun-22 17:14N 31°15' E 121°32'7618.6
2016-Jun-22 17:14N 31°22' E 121°29'6146.7
2016-Jun-22 17:11N 31°18' E 121°33'66512797.3
2016-Jun-22 17:08N 22°55' E 113°25'271465.8
2016-Jun-22 16:33N 24°25' E 118°04'43450454.3
2016-Jun-22 16:33N 31°00' E 121°26'4330864.7
2016-Jun-22 16:33N 31°41' E 121°11'1210618.9
2016-Jun-22 16:33N 31°33' E 121°21'8740.0
2016-Jun-22 16:32N 31°39' E 121°14'342379.3
2016-Jun-22 16:31N 31°07' E 121°28'61264.7
2016-Jun-22 16:31N 31°02' E 121°29'135026.0
2016-Jun-22 16:31N 30°58' E 121°15'276999.9
2016-Jun-22 16:31N 31°20' E 121°32'45018619.7
2016-Jun-22 16:29N 38°50' E 121°33'44172109.7
2016-Jun-22 16:29N 31°30' E 121°24'993.7
2016-Jun-22 16:23N 31°22' E 121°29'9142.6
2016-Jun-22 16:20N 31°30' E 121°24'1 6.6
2016-Jun-22 16:13N 31°29' E 121°25'1290.6
2016-Jun-22 16:05N 31°19' E 121°34'454877.5
2016-Jun-22 15:33N 24°25' E 118°04'46387719.6
2016-Jun-22 15:33N 31°34' E 121°19'43626161.0
2016-Jun-22 15:32N 38°50' E 121°32'429118786.1
2016-Jun-22 15:32N 31°42' E 121°08'447564.2
2016-Jun-22 15:32N 31°00' E 121°26'291000.6
2016-Jun-22 15:30N 31°30' E 121°24'296840.4
2016-Jun-22 15:30N 31°02' E 121°29'213324.4
2016-Jun-22 15:29N 31°22' E 121°37'292579.6
2016-Jun-22 15:28N 31°41' E 121°11'17439.4
2016-Jun-22 15:26N 31°29' E 121°25'141138.0
2016-Jun-22 15:25N 31°18' E 121°33'6205.3
2016-Jun-22 15:24N 31°22' E 121°29'3158.9
2016-Jun-22 15:23N 31°21' E 121°33'12190.1
2016-Jun-22 15:19N 31°30' E 121°24'5110.8
2016-Jun-22 15:16N 31°27' E 121°29'4158.7
2016-Jun-22 15:15N 31°25' E 121°32'660182684.0
2016-Jun-22 15:15N 23°04' E 113°30'6426514.1
2016-Jun-22 15:09N 31°05' E 121°28'3 5.2
2016-Jun-22 14:33N 31°02' E 121°29'43637411.3
2016-Jun-22 14:33N 24°25' E 118°04'46738184.9
2016-Jun-22 14:32N 31°41' E 121°11'25734.0
2016-Jun-22 14:30N 31°23' E 121°30'1696.6
2016-Jun-22 14:20N 31°07' E 121°28'151575.1
2016-Jun-22 14:20N 31°22' E 121°29'9627.8
2016-Jun-22 14:19N 31°30' E 121°24'65816575.8
2016-Jun-22 14:17N 23°04' E 113°30'66033928.8
2016-Jun-22 14:15N 31°25' E 121°32'267926.8
2016-Jun-22 14:15N 31°42' E 121°08'42953262.3
2016-Jun-22 14:15N 38°50' E 121°33'44129377.0
2016-Jun-22 14:14N 31°30' E 121°24'113.6
2016-Jun-22 14:10N 31°29' E 121°25'2845.7
2016-Jun-22 13:33N 31°02' E 121°29'256443.1
2016-Jun-22 13:33N 31°26' E 121°25'458183025.3
2016-Jun-22 13:33N 24°24' E 118°04'46776370.7
2016-Jun-22 13:33N 31°41' E 121°11'436706.5
2016-Jun-22 13:32N 31°00' E 121°26'295288.5
2016-Jun-22 13:32N 31°30' E 121°24'9149.0
2016-Jun-22 13:28N 31°22' E 121°29'9170.9
2016-Jun-22 13:25N 31°30' E 121°24'67711504.3
2016-Jun-22 13:22N 22°48' E 113°19'19253.0
2016-Jun-22 13:17N 23°04' E 113°30'65926944.3
2016-Jun-22 13:16N 31°29' E 121°25'111176.3
2016-Jun-22 13:15N 31°21' E 121°33'6103.6
2016-Jun-22 13:12N 31°15' E 121°32'450702.0
2016-Jun-22 12:34N 24°25' E 118°04'43638320.8
2016-Jun-22 12:33N 31°02' E 121°29'192099.5
2016-Jun-22 12:32N 31°21' E 121°33'2819932.4
2016-Jun-22 12:32N 31°41' E 121°11'194520.3
2016-Jun-22 12:32N 31°26' E 121°25'31342.0
2016-Jun-22 12:32N 31°30' E 121°24'2917624.8
2016-Jun-22 12:32N 31°00' E 121°26'638287192.2
2016-Jun-22 12:32N 23°04' E 113°30'65815097.7
2016-Jun-22 12:29N 31°30' E 121°24'67563936.1
2016-Jun-22 12:28N 22°51' E 113°18'6725328.3
2016-Jun-22 12:21N 31°22' E 121°29'463.4
2016-Jun-22 12:17N 31°25' E 121°32'126.6
2016-Jun-22 12:14N 31°25' E 121°31'4456764.7
2016-Jun-22 12:10N 38°51' E 121°33'44217091.7
2016-Jun-22 12:08N 31°29' E 121°25'2949.9
2016-Jun-22 11:34N 31°00' E 121°26'434391045.5
2016-Jun-22 11:33N 24°25' E 118°04'46746668.5
2016-Jun-22 11:33N 31°41' E 121°11'386231.4
2016-Jun-22 11:32N 31°06' E 121°28'4629.4
2016-Jun-22 11:32N 31°02' E 121°29'281345.5
2016-Jun-22 11:31N 31°30' E 121°24'122332.0
2016-Jun-22 11:31N 31°21' E 121°33'241161.9
2016-Jun-22 11:29N 30°59' E 121°20'242512.5
2016-Jun-22 11:29N 31°22' E 121°30'65616290.0
2016-Jun-22 11:26N 23°04' E 113°29'121494.5
2016-Jun-22 11:26N 22°54' E 113°22'12354.9
2016-Jun-22 11:24N 23°04' E 113°30'66038934.2
2016-Jun-22 11:23N 31°25' E 121°32'886.4
2016-Jun-22 11:17N 31°30' E 121°24'166.7
2016-Jun-22 11:16N 31°29' E 121°25'884.5
2016-Jun-22 11:11N 31°22' E 121°29'455733.3
2016-Jun-22 10:33N 24°25' E 118°04'46727541.7
2016-Jun-22 10:32N 31°41' E 121°11'422181.4
2016-Jun-22 10:31N 31°02' E 121°29'65049787.8
2016-Jun-22 10:30N 22°55' E 113°26'6696957.8
2016-Jun-22 10:25N 31°40' E 121°11'265100.5
2016-Jun-22 10:24N 31°23' E 121°33'283481.0
2016-Jun-22 10:24N 31°42' E 121°08'381471.2
2016-Jun-22 10:22N 31°07' E 121°28'182269.8
2016-Jun-22 10:22N 31°25' E 121°32'4175.6
2016-Jun-22 10:20N 31°21' E 121°33'657118179.0
2016-Jun-22 10:20N 23°04' E 113°30'656181758.2
2016-Jun-22 10:20N 31°20' E 121°33'657236370.5
2016-Jun-22 10:20N 23°04' E 113°29'65922799.4
2016-Jun-22 10:18N 31°30' E 121°24'0 1.0
2016-Jun-22 10:06N 31°30' E 121°24'2954.4
2016-Jun-22 09:33N 31°00' E 121°26'435195525.2
2016-Jun-22 09:33N 24°24' E 118°04'26725327.6
2016-Jun-22 09:33N 22°54' E 113°30'667399929.7
2016-Jun-22 09:33N 31°30' E 121°24'2816941.8
2016-Jun-22 09:32N 31°02' E 121°29'243039.8
2016-Jun-22 09:32N 31°25' E 121°32'5273.3
2016-Jun-22 09:31N 31°20' E 121°33'281286.4
2016-Jun-22 09:30N 31°41' E 121°11'125.9
2016-Jun-22 09:28N 31°40' E 121°11'65916590.9
2016-Jun-22 09:25N 23°04' E 113°30'65955148.2
2016-Jun-22 09:25N 31°42' E 121°08'305611.7
2016-Jun-22 09:24N 31°21' E 121°33'121448.0
2016-Jun-22 09:24N 31°30' E 121°24'114.9
2016-Jun-22 09:20N 31°29' E 121°25'460592.6
2016-Jun-22 08:33N 24°24' E 118°04'442158956.0
2016-Jun-22 08:33N 31°08' E 121°28'3710125.6
2016-Jun-22 08:33N 31°41' E 121°11'437014.2
2016-Jun-22 08:33N 31°00' E 121°26'201163.4
2016-Jun-22 08:32N 31°20' E 121°33'1112.7
2016-Jun-22 08:31N 31°21' E 121°33'272958.9
2016-Jun-22 08:31N 31°40' E 121°11'1810941.6
2016-Jun-22 08:31N 31°26' E 121°25'2515034.0
2016-Jun-22 08:31N 31°02' E 121°29'282326.0
2016-Jun-22 08:30N 31°30' E 121°24'133.7
2016-Jun-22 08:28N 31°29' E 121°25'1249.4
2016-Jun-22 08:28N 31°30' E 121°24'65991194.2
2016-Jun-22 08:28N 23°04' E 113°29'5192.2
2016-Jun-22 08:26N 22°59' E 113°31'65217009.5
2016-Jun-22 08:24N 31°13' E 121°30'1354.8
2016-Jun-22 08:10N 31°25' E 121°32'2541.7
2016-Jun-22 07:34N 31°00' E 121°26'435391070.3
2016-Jun-22 07:33N 24°24' E 118°04'26842018.8
2016-Jun-22 07:33N 22°54' E 113°28'66889109.3
2016-Jun-22 07:33N 31°41' E 121°11'426368.2
2016-Jun-22 07:32N 31°02' E 121°29'104457.9
2016-Jun-22 07:32N 31°12' E 121°29'331505.4
2016-Jun-22 07:31N 31°40' E 121°11'3209.7
2016-Jun-22 07:30N 31°42' E 121°08'18364.3
2016-Jun-22 07:27N 31°30' E 121°24'12283.9
2016-Jun-22 07:25N 31°21' E 121°33'13367.9
2016-Jun-22 07:22N 31°08' E 121°28'21489.5
2016-Jun-22 07:20N 31°29' E 121°25'1 3.6
2016-Jun-22 07:05N 31°30' E 121°24'460883.2
2016-Jun-22 06:34N 24°24' E 118°04'467280058.2
2016-Jun-22 06:33N 31°41' E 121°11'3112334.3
2016-Jun-22 06:33N 31°15' E 121°29'78226.6
2016-Jun-22 06:33N 31°08' E 121°28'85547.7
2016-Jun-22 06:33N 31°00' E 121°26'292.9
2016-Jun-22 06:32N 31°02' E 121°29'242182.9
2016-Jun-22 06:31N 31°25' E 121°32'249552.7
2016-Jun-22 06:31N 31°40' E 121°11'542236.8
2016-Jun-22 06:29N 31°56' E 120°10'79285594.2
2016-Jun-22 06:29N 31°20' E 121°33'2111.3
2016-Jun-22 06:28N 31°18' E 121°33'145424.3
2016-Jun-22 06:28N 31°29' E 121°25'1452.2
2016-Jun-22 06:28N 31°30' E 121°24'6593368.6
2016-Jun-22 06:16N 23°04' E 113°29'65258723.9
2016-Jun-22 06:16N 31°15' E 121°32'811.4
2016-Jun-22 05:33N 31°08' E 121°28'82311.6
2016-Jun-22 05:33N 31°00' E 121°26'435782160.1
2016-Jun-22 05:33N 24°24' E 118°04'437314426.5
2016-Jun-22 05:33N 31°02' E 121°29'281255.1
2016-Jun-22 05:32N 31°30' E 121°24'164128.8
2016-Jun-22 05:32N 31°41' E 121°11'286683.8
2016-Jun-22 05:31N 31°20' E 121°33'1968742.3
2016-Jun-22 05:31N 31°02' E 121°29'242028.0
2016-Jun-22 05:31N 31°25' E 121°32'66023523.7
2016-Jun-22 05:29N 23°04' E 113°29'64025330.1
2016-Jun-22 05:27N 31°56' E 120°10'827934.4
2016-Jun-22 05:27N 31°17' E 121°34'15530.1
2016-Jun-22 05:25N 31°30' E 121°24'3035.3
2016-Jun-22 04:33N 30°59' E 121°23'4321555488.2
2016-Jun-22 04:33N 24°25' E 118°04'44279545.5
2016-Jun-22 04:33N 31°08' E 121°28'164079.5
2016-Jun-22 04:33N 31°23' E 121°34'41071.2
2016-Jun-22 04:33N 31°19' E 121°33'1810942.2
2016-Jun-22 04:32N 31°02' E 121°29'2450.1
2016-Jun-22 04:32N 31°00' E 121°26'51526875.9
2016-Jun-22 04:31N 39°04' E 117°50'498179379.6
2016-Jun-22 04:31N 31°20' E 121°33'1243661.6
2016-Jun-22 04:31N 31°30' E 121°24'16833.6
2016-Jun-22 04:30N 31°41' E 121°11'242310.1
2016-Jun-22 04:29N 31°25' E 121°32'49411946.3
2016-Jun-22 04:27N 39°04' E 117°48'74668886.8
2016-Jun-22 04:26N 26°44' E 119°44'2993643.0
2016-Jun-22 04:21N 31°30' E 121°24'65932482.6
2016-Jun-22 04:20N 23°04' E 113°29'65951560.2
2016-Jun-22 04:19N 31°29' E 121°25'19600.9
2016-Jun-22 04:17N 31°42' E 121°08'466635.8
2016-Jun-22 03:33N 24°25' E 118°04'442795395.5
2016-Jun-22 03:33N 31°08' E 121°28'369292.3
2016-Jun-22 03:33N 31°41' E 121°11'439640.6
2016-Jun-22 03:33N 31°00' E 121°26'8614701.0
2016-Jun-22 03:32N 31°56' E 120°10'879442.6
2016-Jun-22 03:32N 31°02' E 121°29'219358.3
2016-Jun-22 03:32N 31°22' E 121°30'4925.1
2016-Jun-22 03:31N 31°23' E 121°34'111362.1
2016-Jun-22 03:31N 31°30' E 121°24'011.1
2016-Jun-22 03:30N 31°30' E 121°24'242971.3
2016-Jun-22 03:29N 31°09' E 121°11'17256.4
2016-Jun-22 03:25N 31°01' E 121°29'51554526.8
2016-Jun-22 03:25N 39°04' E 117°50'4931889.5
2016-Jun-22 03:09N 31°25' E 121°32'29437771.7
2016-Jun-22 03:09N 26°47' E 119°43'3034009.3
2016-Jun-22 03:04N 31°40' E 121°11'3569.6
2016-Jun-22 02:33N 31°08' E 121°28'44288379.5
2016-Jun-22 02:33N 24°25' E 118°04'434782090.6
2016-Jun-22 02:33N 31°00' E 121°26'3212925.1
2016-Jun-22 02:33N 31°32' E 121°20'321404.4
2016-Jun-22 02:32N 31°02' E 121°29'424018.3
2016-Jun-22 02:31N 31°41' E 121°11'165253.4
2016-Jun-22 02:31N 31°30' E 121°24'014.2
2016-Jun-22 02:30N 31°30' E 121°24'62534.4
2016-Jun-22 02:30N 31°25' E 121°30'65932048.6
2016-Jun-22 02:29N 23°04' E 113°29'6163618.7
2016-Jun-22 02:18N 29°57' E 122°00'81341.8
2016-Jun-22 02:04N 31°05' E 121°10'1630.6
2016-Jun-22 01:33N 31°08' E 121°28'442198853.8
2016-Jun-22 01:33N 24°25' E 118°04'434782090.6
2016-Jun-22 01:33N 31°00' E 121°26'295258.2
2016-Jun-22 01:33N 31°30' E 121°24'10474580.5
2016-Jun-22 01:33N 29°53' E 122°09'10493395.2
2016-Jun-22 01:33N 31°30' E 121°24'161071.0
2016-Jun-22 01:32N 31°41' E 121°11'2134.0
2016-Jun-22 01:31N 31°42' E 121°08'1816404.7
2016-Jun-22 01:31N 31°30' E 121°25'2934341.2
2016-Jun-22 01:31N 31°02' E 121°29'22133.1
2016-Jun-22 01:21N 31°24' E 121°33'3296.8
2016-Jun-22 01:20N 31°21' E 121°33'1776837.1
2016-Jun-22 01:19N 31°25' E 118°06'1661698.9
2016-Jun-22 01:13N 31°32' E 121°20'65810871.3
2016-Jun-22 01:09N 23°02' E 113°31'6451085.0
2016-Jun-22 00:33N 31°08' E 121°28'442144630.3
2016-Jun-22 00:33N 24°24' E 118°04'435173809.0
2016-Jun-22 00:33N 31°00' E 121°26'23871.3
2016-Jun-22 00:32N 31°22' E 121°36'661183094.4
2016-Jun-22 00:31N 23°02' E 113°31'658169213.8
2016-Jun-22 00:31N 31°23' E 121°30'211343.4
2016-Jun-22 00:30N 31°02' E 121°29'192456.9
2016-Jun-22 00:30N 31°20' E 121°33'12873.8
2016-Jun-22 00:29N 31°30' E 121°24'0318.0
2016-Jun-22 00:29N 31°30' E 121°24'256.6
2016-Jun-22 00:27N 31°31' E 121°23'65994836.4
2016-Jun-22 00:27N 23°04' E 113°29'65914916.1
2016-Jun-22 00:24N 31°29' E 121°25'192530.3
2016-Jun-22 00:23N 31°42' E 121°08'1291245.4
2016-Jun-22 00:17N 29°42' E 122°04'383525.9
2016-Jun-21 23:34N 24°24' E 118°04'442176765.9
2016-Jun-21 23:33N 31°08' E 121°28'85547.7
2016-Jun-21 23:33N 31°00' E 121°26'2716062.0
2016-Jun-21 23:33N 31°27' E 121°28'4168.1
2016-Jun-21 23:32N 31°30' E 121°24'1327.0
2016-Jun-21 23:32N 31°29' E 121°25'285266.3
2016-Jun-21 23:31N 31°02' E 121°29'194996.0
2016-Jun-21 23:31N 31°21' E 121°31'1057541.1
2016-Jun-21 23:30N 29°41' E 122°07'1153016.3
2016-Jun-21 23:28N 31°30' E 121°24'65918523.7
2016-Jun-21 23:26N 23°04' E 113°29'65942338.3
2016-Jun-21 23:25N 31°31' E 121°23'10193.7
2016-Jun-21 23:22N 31°25' E 121°32'66112590.6
2016-Jun-21 23:19N 23°02' E 113°31'6607115.2
2016-Jun-21 23:13N 31°42' E 121°08'466707.9
2016-Jun-21 22:34N 24°24' E 118°04'442530304.4
2016-Jun-21 22:33N 31°08' E 121°28'255377.5
2016-Jun-21 22:33N 31°33' E 121°20'3316749.4
2016-Jun-21 22:33N 31°00' E 121°26'297047.1
2016-Jun-21 22:33N 31°30' E 121°24'2834064.8
2016-Jun-21 22:33N 31°02' E 121°29'2103.9
2016-Jun-21 22:32N 31°01' E 121°27'27033470.0
2016-Jun-21 22:31N 26°47' E 119°43'29444126.8
2016-Jun-21 22:31N 31°25' E 121°33'7433.0
2016-Jun-21 22:30N 31°18' E 121°33'9612807.4
2016-Jun-21 22:29N 29°45' E 122°03'11014090.0
2016-Jun-21 22:29N 31°30' E 121°24'111.1
2016-Jun-21 22:25N 31°29' E 121°25'569107844.4
2016-Jun-21 22:24N 22°59' E 116°41'17527370.1
2016-Jun-21 22:24N 23°02' E 113°31'66033452.9
2016-Jun-21 22:23N 31°31' E 121°23'152417.8
2016-Jun-21 22:23N 31°19' E 121°34'17964544.2
2016-Jun-21 22:22N 31°25' E 118°04'1583770.8
2016-Jun-21 22:20N 31°42' E 121°08'401064.4
2016-Jun-21 22:18N 31°02' E 121°04'636.6
2016-Jun-21 22:08N 30°58' E 121°09'83142.2
2016-Jun-21 21:33N 29°53' E 122°09'11615459.5
2016-Jun-21 21:33N 31°39' E 121°13'46593081.3
2016-Jun-21 21:33N 24°24' E 118°04'461118528.0
2016-Jun-21 21:32N 31°31' E 121°23'2311971.1
2016-Jun-21 21:32N 31°08' E 121°28'86929.3
2016-Jun-21 21:32N 31°00' E 121°26'258218.0
2016-Jun-21 21:32N 31°25' E 121°33'93076.4
2016-Jun-21 21:32N 31°30' E 121°24'53886465256.3
2016-Jun-21 21:32N 49°18' W 123°02'5387181260.5
2016-Jun-21 21:30N 31°29' E 121°25'342041.7
2016-Jun-21 21:29N 30°57' E 121°12'15323.8
2016-Jun-21 21:26N 31°02' E 121°29'232.2
2016-Jun-21 21:23N 31°01' E 121°27'86876.8
2016-Jun-21 21:17N 31°56' E 120°10'7616182.4
2016-Jun-21 21:17N 30°59' E 121°09'34915.5
2016-Jun-21 21:15N 31°30' E 121°24'65924443.6
2016-Jun-21 21:13N 23°04' E 113°29'3108.2
2016-Jun-21 21:11N 23°02' E 113°31'616974.7
2016-Jun-21 20:33N 29°58' E 121°58'393235563.8
2016-Jun-21 20:33N 24°24' E 118°04'429772522.2
2016-Jun-21 20:33N 30°58' E 121°18'83511.3
2016-Jun-21 20:33N 31°00' E 121°26'85547.7
2016-Jun-21 20:33N 31°08' E 121°28'622229.9
2016-Jun-21 20:33N 31°02' E 121°29'5408249581.5
2016-Jun-21 20:32N 49°18' W 123°02'5387404060.0
2016-Jun-21 20:31N 31°29' E 121°25'1332.9
2016-Jun-21 20:31N 31°30' E 121°24'348691.2
2016-Jun-21 20:31N 30°57' E 121°13'14754.1
2016-Jun-21 20:29N 31°02' E 121°29'28535.0
2016-Jun-21 20:26N 31°30' E 121°24'29615237.8
2016-Jun-21 20:25N 26°47' E 119°43'29716204.1
2016-Jun-21 20:24N 31°31' E 121°23'47018799.4
2016-Jun-21 20:23N 24°13' E 118°09'2652787.7
2016-Jun-21 20:17N 23°02' E 113°31'264365.7
2016-Jun-21 19:34N 24°24' E 118°04'435521420.4
2016-Jun-21 19:33N 31°00' E 121°26'443106339.4
2016-Jun-21 19:33N 24°14' E 118°09'441264792.2
2016-Jun-21 19:33N 30°60' E 121°24'96620.5
2016-Jun-21 19:33N 31°08' E 121°28'2310473.9
2016-Jun-21 19:33N 31°31' E 121°23'162017.1
2016-Jun-21 19:32N 31°42' E 121°08'404470.0
2016-Jun-21 19:32N 31°06' E 121°28'54052432355.9
2016-Jun-21 19:32N 49°18' W 123°02'5391233810.5
2016-Jun-21 19:30N 31°18' E 121°34'172733.8
2016-Jun-21 19:30N 31°02' E 121°29'281400.6
2016-Jun-21 19:29N 31°30' E 121°24'66091349.8
2016-Jun-21 19:28N 23°02' E 113°31'66024747.9
2016-Jun-21 19:27N 31°29' E 121°25'1130.1
2016-Jun-21 19:26N 31°30' E 121°24'151220.1
2016-Jun-21 19:26N 31°17' E 121°34'84961.7
2016-Jun-21 19:20N 31°57' E 120°07'343.9
2016-Jun-21 19:16N 31°56' E 120°10'82115.0
2016-Jun-21 18:34N 31°08' E 121°28'813848.0
2016-Jun-21 18:33N 31°00' E 121°26'4351564300.8
2016-Jun-21 18:33N 24°24' E 118°04'434120270.4
2016-Jun-21 18:33N 31°00' E 121°26'31288.6
2016-Jun-21 18:33N 31°02' E 121°29'281245.8
2016-Jun-21 18:32N 31°30' E 121°24'101627.6
2016-Jun-21 18:31N 31°21' E 121°31'288507.8
2016-Jun-21 18:31N 31°42' E 121°08'165289.6
2016-Jun-21 18:31N 31°31' E 121°22'301819.5
2016-Jun-21 18:30N 31°02' E 121°29'281399.1
2016-Jun-21 18:29N 31°30' E 121°24'538819396020.7
2016-Jun-21 18:29N 49°18' W 123°02'5014429800.0
2016-Jun-21 18:28N 38°52' E 121°32'46217705.7
2016-Jun-21 18:27N 31°10' E 121°28'910.4
2016-Jun-21 17:34N 31°00' E 121°26'89232.0
2016-Jun-21 17:33N 31°08' E 121°28'4421590814.3
2016-Jun-21 17:33N 24°24' E 118°04'885167667.2
2016-Jun-21 17:33N 38°51' E 121°34'44244168.4
2016-Jun-21 17:33N 31°30' E 121°24'4712028.1
2016-Jun-21 17:32N 30°60' E 120°42'409546.7
2016-Jun-21 17:32N 31°05' E 121°28'192549.1
2016-Jun-21 17:32N 31°23' E 121°33'7420608.9
2016-Jun-21 17:31N 31°57' E 120°15'843595.6
2016-Jun-21 17:30N 31°02' E 121°29'16761.4
2016-Jun-21 17:29N 31°17' E 121°34'16948.1
2016-Jun-21 17:28N 31°30' E 121°24'18807.8
2016-Jun-21 17:26N 31°42' E 121°08'16312.7
2016-Jun-21 17:23N 31°31' E 121°22'192190.3
2016-Jun-21 17:23N 31°13' E 121°30'539723810.2
2016-Jun-21 17:09N 49°18' W 123°02'540157700.7
2016-Jun-21 17:04N 31°10' E 121°28'3774.6
2016-Jun-21 16:33N 31°00' E 120°46'42145886.9
2016-Jun-21 16:33N 24°25' E 118°04'457548893.5
2016-Jun-21 16:33N 31°21' E 121°39'1762388.0
2016-Jun-21 16:33N 31°31' E 121°22'299.2
2016-Jun-21 16:32N 31°30' E 121°24'915512.3
2016-Jun-21 16:32N 31°25' E 121°32'2512917.7
2016-Jun-21 16:32N 31°00' E 121°26'470845818.1
2016-Jun-21 16:32N 38°50' E 121°34'46215409.3
2016-Jun-21 16:30N 31°08' E 121°28'646129226.1
2016-Jun-21 16:30N 23°01' E 113°31'6516896.0
2016-Jun-21 16:24N 31°13' E 121°30'12428.9
2016-Jun-21 16:22N 31°02' E 121°29'436537.1
2016-Jun-21 15:33N 24°25' E 118°04'434782041.3
2016-Jun-21 15:33N 31°00' E 121°26'154145.3
2016-Jun-21 15:33N 31°15' E 121°30'45552868.0
2016-Jun-21 15:33N 38°50' E 121°34'45490715.2
2016-Jun-21 15:32N 31°17' E 121°34'1611273.2
2016-Jun-21 15:32N 31°02' E 121°29'301179.9
2016-Jun-21 15:31N 31°31' E 121°22'6608275.3
2016-Jun-21 15:26N 23°02' E 113°31'661264409.4
2016-Jun-21 15:26N 31°25' E 121°32'17950.6
2016-Jun-21 15:25N 31°08' E 121°28'22189.9
2016-Jun-21 15:18N 31°30' E 121°24'0 2.6
2016-Jun-21 15:13N 31°30' E 121°24'12632.8
2016-Jun-21 15:12N 31°20' E 121°33'218.9
2016-Jun-21 15:05N 31°18' E 121°34'453862.1
2016-Jun-21 14:33N 24°25' E 118°04'436224447.8
2016-Jun-21 14:33N 31°02' E 121°29'2161.7
2016-Jun-21 14:32N 31°00' E 121°26'470241759.0
2016-Jun-21 14:32N 38°50' E 121°34'546103359.2
2016-Jun-21 14:32N 29°46' E 122°03'100180457.7
2016-Jun-21 14:32N 31°22' E 121°30'6561181492.3
2016-Jun-21 14:32N 23°02' E 113°31'659263638.3
2016-Jun-21 14:32N 31°30' E 121°24'160.8
2016-Jun-21 14:31N 31°29' E 121°25'11254.1
2016-Jun-21 14:28N 31°21' E 121°32'13128.1
2016-Jun-21 14:22N 31°08' E 121°28'22397.7
2016-Jun-21 14:19N 31°30' E 121°24'18305.4
2016-Jun-21 14:15N 31°42' E 121°08'19358.7
2016-Jun-21 14:12N 31°55' E 120°52'5235754.7
2016-Jun-21 14:07N 23°40' E 117°43'50464756.7
2016-Jun-21 14:06N 31°21' E 121°32'455829.4
2016-Jun-21 13:33N 24°25' E 118°04'455148941.1
2016-Jun-21 13:33N 31°22' E 121°30'112214.5
2016-Jun-21 13:33N 31°31' E 121°23'44021683.7
2016-Jun-21 13:32N 38°50' E 121°34'54236811.2
2016-Jun-21 13:31N 29°49' E 122°07'991672.3
2016-Jun-21 13:27N 31°23' E 121°30'236432.5
2016-Jun-21 13:27N 31°00' E 121°26'245878.5
2016-Jun-21 13:27N 31°25' E 121°31'81638.5
2016-Jun-21 13:27N 31°30' E 121°24'160.7
2016-Jun-21 13:26N 31°29' E 121°25'66088007.8
2016-Jun-21 13:25N 23°01' E 113°32'66079186.7
2016-Jun-21 13:25N 31°30' E 121°24'444172.3
2016-Jun-21 13:24N 32°01' E 120°48'32501.5
2016-Jun-21 13:20N 31°56' E 120°10'81497.0
2016-Jun-21 13:11N 31°17' E 121°34'753.9
2016-Jun-21 13:03N 31°23' E 121°30'456920.7
2016-Jun-21 12:33N 24°25' E 118°04'26624566.2
2016-Jun-21 12:33N 22°57' E 113°30'66491957.6
2016-Jun-21 12:32N 31°28' E 121°26'1047613.2
2016-Jun-21 12:31N 29°53' E 122°13'1005221.0
2016-Jun-21 12:30N 31°25' E 121°29'82608.7
2016-Jun-21 12:30N 31°31' E 121°23'44032983.2
2016-Jun-21 12:29N 38°51' E 121°33'44413551.8
2016-Jun-21 12:27N 31°26' E 121°25'261077.2
2016-Jun-21 12:26N 31°00' E 121°26'2935083.7
2016-Jun-21 12:26N 31°30' E 121°24'0 5.7
2016-Jun-21 12:24N 31°30' E 121°24'288518.4
2016-Jun-21 12:24N 31°02' E 121°29'254335.6
2016-Jun-21 12:23N 31°27' E 121°28'378.6
2016-Jun-21 12:21N 31°29' E 121°25'19413.9
2016-Jun-21 12:18N 31°42' E 121°08'26381.4
2016-Jun-21 12:14N 32°01' E 120°48'611799.4
2016-Jun-21 12:12N 31°02' E 121°04'428669.1
2016-Jun-21 11:33N 24°25' E 118°04'26838659.8
2016-Jun-21 11:33N 22°54' E 113°28'667342820.6
2016-Jun-21 11:33N 31°30' E 121°23'307111.3
2016-Jun-21 11:33N 31°00' E 121°26'281.6
2016-Jun-21 11:31N 31°02' E 121°29'311351.7
2016-Jun-21 11:30N 31°32' E 121°21'24298.1
2016-Jun-21 11:25N 31°08' E 121°28'21661.7
2016-Jun-21 11:23N 31°29' E 121°25'3191.0
2016-Jun-21 11:22N 31°31' E 121°23'671146.3
2016-Jun-21 11:18N 31°56' E 120°10'801000.0
2016-Jun-21 11:14N 31°20' E 121°33'571045.1
2016-Jun-21 11:10N 32°01' E 120°48'442455.7
2016-Jun-21 11:09N 31°30' E 121°24'14136.5
2016-Jun-21 11:03N 31°18' E 121°33'453918.9
2016-Jun-21 10:34N 24°25' E 118°04'434173798.0
2016-Jun-21 10:33N 31°00' E 121°26'17563044.3
2016-Jun-21 10:33N 31°25' E 118°04'17537113.9
2016-Jun-21 10:33N 31°08' E 121°28'2713653.4
2016-Jun-21 10:33N 31°33' E 121°19'121151.6
2016-Jun-21 10:32N 31°42' E 121°08'192846.5
2016-Jun-21 10:32N 31°29' E 121°25'84593.9
2016-Jun-21 10:32N 31°34' E 121°18'67418373.1
2016-Jun-21 10:29N 22°53' E 113°18'65611805.1
2016-Jun-21 10:26N 31°02' E 121°29'19628.4
2016-Jun-21 10:24N 31°20' E 121°33'142216.8
2016-Jun-21 10:24N 31°31' E 121°23'7666.7
2016-Jun-21 10:23N 31°36' E 121°17'354167.7
2016-Jun-21 10:23N 32°00' E 120°48'339.4
2016-Jun-21 10:18N 32°01' E 120°44'4611903.5
2016-Jun-21 10:18N 31°30' E 121°24'2229.3
2016-Jun-21 09:33N 31°08' E 121°28'827738.7
2016-Jun-21 09:33N 31°00' E 121°26'21428.8
2016-Jun-21 09:33N 31°02' E 121°29'3935271.8
2016-Jun-21 09:33N 31°39' E 121°14'417831.2
2016-Jun-21 09:33N 30°57' E 121°13'476856199.4
2016-Jun-21 09:33N 23°42' E 117°36'50745597.4
2016-Jun-21 09:32N 31°22' E 121°37'13297.8
2016-Jun-21 09:30N 31°30' E 121°24'2306.5
2016-Jun-21 09:29N 31°31' E 121°23'676128033.5
2016-Jun-21 09:29N 22°49' E 113°20'67223271.6
2016-Jun-21 09:27N 31°18' E 121°33'132426.0
2016-Jun-21 09:27N 31°29' E 121°25'83961.7
2016-Jun-21 09:27N 31°23' E 121°30'44413903.6
2016-Jun-21 09:25N 38°47' E 121°30'429110200.2
2016-Jun-21 09:25N 31°39' E 121°14'3026975.7
2016-Jun-21 09:22N 26°47' E 119°43'1791804.1
2016-Jun-21 09:16N 24°07' E 118°15'455641.6
2016-Jun-21 08:34N 31°08' E 121°28'1348402.4
2016-Jun-21 08:33N 30°58' E 121°18'84798.3
2016-Jun-21 08:33N 31°00' E 121°26'435312840.4
2016-Jun-21 08:33N 24°24' E 118°04'45620780.7
2016-Jun-21 08:32N 31°23' E 121°30'26931.2
2016-Jun-21 08:30N 31°42' E 121°09'2925863.3
2016-Jun-21 08:30N 31°23' E 121°34'2277742.1
2016-Jun-21 08:30N 31°02' E 121°29'281337.8
2016-Jun-21 08:29N 31°30' E 121°24'22354.4
2016-Jun-21 08:29N 31°31' E 121°23'44045230.5
2016-Jun-21 08:28N 38°50' E 121°41'730187777.0
2016-Jun-21 08:28N 26°47' E 119°43'2961719.7
2016-Jun-21 08:18N 31°29' E 121°25'878.8
2016-Jun-21 08:12N 31°25' E 121°32'4636037.9
2016-Jun-21 08:07N 24°14' E 118°23'2035.3
2016-Jun-21 07:33N 24°24' E 118°04'435391065.3
2016-Jun-21 07:33N 31°00' E 121°26'21428.8
2016-Jun-21 07:33N 31°02' E 121°29'63326.0
2016-Jun-21 07:33N 31°08' E 121°28'104327.8
2016-Jun-21 07:33N 30°59' E 121°23'301123.7
2016-Jun-21 07:31N 31°30' E 121°24'2205.4
2016-Jun-21 07:31N 31°31' E 121°23'101156.9
2016-Jun-21 07:30N 31°24' E 121°31'292.7
2016-Jun-21 07:29N 31°25' E 121°32'4577345.8
2016-Jun-21 07:25N 24°18' E 118°28'45114761.9
2016-Jun-21 07:24N 31°18' E 121°34'42158.0
2016-Jun-21 07:08N 31°47' E 120°58'469824.2
2016-Jun-21 06:34N 24°24' E 118°04'43618486.5
2016-Jun-21 06:32N 31°02' E 121°29'4263160.0
2016-Jun-21 06:24N 24°24' E 118°36'155843.9
2016-Jun-21 06:13N 26°47' E 119°43'296449.1
2016-Jun-21 05:33N 31°30' E 121°24'224661.4
2016-Jun-21 05:33N 31°08' E 121°28'440442.8
2016-Jun-21 04:33N 24°26' E 118°05'464556277.5
2016-Jun-21 04:33N 31°38' E 121°16'3817177.4
2016-Jun-21 04:33N 31°00' E 121°26'2857.3
2016-Jun-21 04:33N 31°02' E 121°29'282562.1
2016-Jun-21 04:32N 31°30' E 121°24'193540.8
2016-Jun-21 04:32N 31°11' E 121°28'420302428.7
2016-Jun-21 04:32N 24°35' E 118°50'41736585.6
2016-Jun-21 04:31N 31°08' E 121°28'222246.0
2016-Jun-21 04:31N 31°30' E 121°24'2184.7
2016-Jun-21 04:30N 31°31' E 121°22'48515189.5
2016-Jun-21 04:28N 39°04' E 117°50'4964771.0
2016-Jun-21 04:22N 31°22' E 121°30'62752.1
2016-Jun-21 04:22N 31°26' E 121°25'163125.1
2016-Jun-21 04:22N 31°40' E 121°13'27145.8
2016-Jun-21 04:10N 31°19' E 121°33'452735.1
2016-Jun-21 03:33N 24°26' E 118°05'433519634.2
2016-Jun-21 03:33N 31°00' E 121°26'3238392.3
2016-Jun-21 03:33N 31°32' E 121°19'31507.5
2016-Jun-21 03:30N 31°02' E 121°29'6969.2
2016-Jun-21 03:29N 31°08' E 121°28'235602.6
2016-Jun-21 03:29N 31°31' E 121°22'17021803.4
2016-Jun-21 03:29N 31°25' E 118°04'1712864.1
2016-Jun-21 03:25N 31°30' E 121°24'654.4
2016-Jun-21 03:19N 31°34' E 121°20'113.6
2016-Jun-21 03:13N 31°35' E 121°19'462694.1
2016-Jun-21 02:33N 24°26' E 118°05'456410292.3
2016-Jun-21 02:33N 31°21' E 121°37'236853.2
2016-Jun-21 02:33N 31°00' E 121°26'3155136.9
2016-Jun-21 02:33N 31°31' E 121°23'422253027.8
2016-Jun-21 02:33N 24°47' E 119°04'39650871.7
2016-Jun-21 02:33N 31°02' E 121°29'281667.1
2016-Jun-21 02:32N 31°30' E 121°24'53637.4
2016-Jun-21 02:31N 31°26' E 121°29'66511844.5
2016-Jun-21 02:28N 23°02' E 113°21'665478719.2
2016-Jun-21 02:28N 31°28' E 121°27'20462.0
2016-Jun-21 02:25N 31°08' E 121°28'2226320.2
2016-Jun-21 02:25N 31°30' E 121°24'22975.1
2016-Jun-21 02:25N 31°32' E 121°23'661261.4
2016-Jun-21 02:22N 31°56' E 120°10'6911856.7
2016-Jun-21 02:22N 31°29' E 121°25'1158.0
2016-Jun-21 02:10N 31°20' E 121°33'1626.4
2016-Jun-21 01:34N 31°32' E 121°20'460118194.1
2016-Jun-21 01:33N 24°26' E 118°05'433779421.8
2016-Jun-21 01:33N 31°00' E 121°26'211515.5
2016-Jun-21 01:32N 31°21' E 121°31'10617.6
2016-Jun-21 01:31N 31°30' E 121°24'281438.8
2016-Jun-21 01:30N 31°02' E 121°29'31690.0
2016-Jun-21 01:28N 31°32' E 121°21'122019.9
2016-Jun-21 01:27N 31°25' E 121°32'66143287.5
2016-Jun-21 01:26N 23°04' E 113°25'6476672.8
2016-Jun-21 01:20N 31°08' E 121°28'22861.4
2016-Jun-21 01:19N 31°30' E 121°24'101514.8
2016-Jun-21 01:07N 29°55' E 122°06'93163.1
2016-Jun-21 00:33N 31°24' E 121°31'45691148.4
2016-Jun-21 00:33N 24°26' E 118°05'3896450.9
2016-Jun-21 00:29N 29°50' E 122°07'1291210.2
2016-Jun-21 00:23N 31°46' E 121°01'40196.1
2016-Jun-21 00:10N 31°18' E 121°34'451732.6
2016-Jun-20 23:34N 24°26' E 118°05'45656647.4
2016-Jun-20 23:33N 31°22' E 121°36'6662631.5
2016-Jun-20 23:18N 23°02' E 113°22'273367.1
2016-Jun-20 22:33N 24°26' E 118°05'2693638.8
2016-Jun-20 22:29N 23°04' E 113°25'61321426.1
2016-Jun-20 22:27N 29°41' E 122°07'991539.7
2016-Jun-20 22:23N 31°18' E 121°43'9266.0
2016-Jun-20 22:21N 31°20' E 121°33'3 9.0
2016-Jun-20 22:04N 31°18' E 121°33'451888.4
2016-Jun-20 21:34N 24°26' E 118°05'45714543.5
2016-Jun-20 21:32N 31°23' E 121°35'1011184.4
2016-Jun-20 21:27N 29°44' E 122°03'4352773.8
2016-Jun-20 21:17N 23°41' E 117°37'5271.2
2016-Jun-20 20:33N 24°26' E 118°05'46915089.5
2016-Jun-20 20:31N 31°60' E 120°22'621083.4
2016-Jun-20 20:28N 31°29' E 121°25'651752.3
2016-Jun-20 20:26N 31°57' E 120°16'15715712.7
2016-Jun-20 20:25N 29°53' E 122°09'123504.6
2016-Jun-20 20:11N 31°44' E 121°06'466752.0
2016-Jun-20 19:33N 24°26' E 118°05'466104914.8
2016-Jun-20 19:33N 31°57' E 120°18'1483159.9
2016-Jun-20 19:30N 29°57' E 121°59'1401000.3
2016-Jun-20 19:22N 32°01' E 120°42'38426.8
2016-Jun-20 19:17N 32°02' E 119°57'6383653.9
2016-Jun-20 19:06N 23°04' E 113°29'66322727.7
2016-Jun-20 19:04N 32°01' E 120°48'412803.4
2016-Jun-20 18:34N 38°52' E 121°33'884289270.4
2016-Jun-20 18:33N 24°26' E 118°05'46466815.6
2016-Jun-20 18:33N 31°39' E 121°13'544107.5
2016-Jun-20 18:32N 31°56' E 120°13'7846906.7
2016-Jun-20 18:32N 31°18' E 121°33'821973.7
2016-Jun-20 18:30N 31°57' E 120°09'6403397.2
2016-Jun-20 18:18N 23°04' E 113°29'6534960.7
2016-Jun-20 18:10N 31°16' E 121°33'3455.2
2016-Jun-20 17:34N 31°42' E 121°08'465239304.6
2016-Jun-20 17:33N 24°26' E 118°05'45325891.2
2016-Jun-20 17:32N 31°20' E 121°33'65716190.4
2016-Jun-20 17:30N 23°04' E 113°29'103445377.8
2016-Jun-20 17:29N 38°51' E 121°34'4208217.5
2016-Jun-20 17:25N 31°57' E 120°06'84554.3
2016-Jun-20 17:16N 31°18' E 121°33'451629.0
2016-Jun-20 16:33N 24°26' E 118°05'883227054.8
2016-Jun-20 16:33N 38°51' E 121°33'44826417.2
2016-Jun-20 16:32N 31°23' E 121°34'1040.4
2016-Jun-20 16:17N 31°14' E 121°30'446603.9
2016-Jun-20 15:33N 24°26' E 118°05'44825613.6
2016-Jun-20 15:32N 31°15' E 121°32'1 7.8
2016-Jun-20 15:26N 31°15' E 121°33'4559005.0
2016-Jun-20 15:23N 38°51' E 121°33'8831069.1
2016-Jun-20 14:34N 24°26' E 118°05'4776983.6
2016-Jun-20 14:29N 32°01' E 120°48'572850.3
2016-Jun-20 14:28N 31°19' E 121°33'115.0
2016-Jun-20 14:23N 31°20' E 121°33'65715452.8
2016-Jun-20 14:21N 23°04' E 113°29'6402592.9
2016-Jun-20 14:06N 31°55' E 120°11'77141.4
2016-Jun-20 13:33N 31°23' E 121°33'456149271.4
2016-Jun-20 13:33N 24°26' E 118°05'883636079.3
2016-Jun-20 13:33N 38°51' E 121°33'4125240.3
2016-Jun-20 13:28N 32°01' E 120°48'5364046.6
2016-Jun-20 13:28N 31°22' E 121°30'761715.4
2016-Jun-20 13:26N 31°55' E 120°11'463531.5
2016-Jun-20 12:34N 24°26' E 118°05'45527776.4
2016-Jun-20 12:33N 31°23' E 121°30'44814792.8
2016-Jun-20 12:31N 38°51' E 121°33'41242373.4
2016-Jun-20 12:30N 32°01' E 120°46'405291860.0
2016-Jun-20 12:30N 38°44' E 121°43'41515561.9
2016-Jun-20 12:28N 31°56' E 120°12'1 9.4
2016-Jun-20 12:20N 31°56' E 120°10'64015066.0
2016-Jun-20 12:17N 23°04' E 113°29'63818079.0
2016-Jun-20 12:15N 31°59' E 120°01'465671.3
2016-Jun-20 11:33N 24°26' E 118°05'4648156.7
2016-Jun-20 11:30N 31°57' E 120°12'44433270.3
2016-Jun-20 11:29N 39°04' E 117°48'4951780912.3
2016-Jun-20 11:29N 31°25' E 121°31'53748307.6
2016-Jun-20 11:29N 22°32' E 120°13'163177.3
2016-Jun-20 10:34N 24°26' E 118°05'4664015.8
2016-Jun-20 10:27N 31°57' E 120°17'783035.6
2016-Jun-20 10:25N 31°22' E 121°38'854754.1
2016-Jun-20 10:24N 31°57' E 120°07'6343.4
2016-Jun-20 10:23N 31°57' E 120°14'6428858.2
2016-Jun-20 10:19N 23°04' E 113°30'6468775.4
2016-Jun-20 10:14N 31°59' E 120°19'468687.7
2016-Jun-20 09:33N 24°26' E 118°05'45524447.9
2016-Jun-20 09:32N 31°23' E 121°30'8821.0
2016-Jun-20 09:32N 31°21' E 121°39'821086.5
2016-Jun-20 09:27N 31°57' E 120°12'8138.3
2016-Jun-20 09:24N 31°60' E 120°21'65810347.2
2016-Jun-20 09:20N 22°48' E 113°37'6722958.7
2016-Jun-20 09:06N 32°01' E 120°48'5295.7
2016-Jun-20 08:33N 31°23' E 121°30'455819090.5
2016-Jun-20 08:33N 24°26' E 118°05'26645661.9
2016-Jun-20 08:33N 23°05' E 113°28'656107336.4
2016-Jun-20 08:33N 31°22' E 121°29'660158430.3
2016-Jun-20 08:32N 22°55' E 113°33'64977908.2
2016-Jun-20 08:32N 31°57' E 120°17'57217.3
2016-Jun-20 08:16N 31°35' E 121°19'5817291.9
2016-Jun-20 08:16N 31°56' E 120°16'8136298.9
2016-Jun-20 08:16N 30°59' E 121°22'392678.4
2016-Jun-20 08:15N 31°38' E 121°15'324650.8
2016-Jun-20 08:14N 32°01' E 120°48'639853.8
2016-Jun-20 08:14N 31°08' E 121°28'6830.7
2016-Jun-20 08:14N 31°02' E 121°29'17389.4
2016-Jun-20 08:11N 31°18' E 121°33'13184.6
2016-Jun-20 08:07N 31°29' E 121°25'1384.6
2016-Jun-20 08:06N 31°30' E 121°24'592362.6
2016-Jun-20 08:05N 32°04' E 120°28'81153.7
2016-Jun-20 07:33N 31°00' E 121°26'3216314.5
2016-Jun-20 07:33N 31°31' E 121°19'458550178.7
2016-Jun-20 07:33N 24°26' E 118°05'440198195.1
2016-Jun-20 07:33N 31°08' E 121°28'645774052.3
2016-Jun-20 07:33N 23°03' E 113°31'641329645.3
2016-Jun-20 07:33N 31°02' E 121°29'802268.0
2016-Jun-20 07:31N 31°58' E 120°23'60509.4
2016-Jun-20 07:24N 31°30' E 121°24'3763.9
2016-Jun-20 07:24N 31°26' E 121°25'6217.0
2016-Jun-20 07:22N 31°22' E 121°29'751807.2
2016-Jun-20 07:20N 31°55' E 120°10'52243.9
2016-Jun-20 07:07N 31°42' E 121°09'4580.7
2016-Jun-20 06:34N 30°59' E 121°22'4301548873.1
2016-Jun-20 06:33N 24°26' E 118°05'44033735.3
2016-Jun-20 06:33N 31°08' E 121°28'854203.1
2016-Jun-20 06:31N 31°57' E 120°06'852548.4
2016-Jun-20 06:29N 31°17' E 121°34'151044.0
2016-Jun-20 06:29N 31°30' E 121°24'91101.3
2016-Jun-20 06:28N 31°22' E 121°29'2073419.3
2016-Jun-20 06:28N 31°02' E 121°29'64120406.6
2016-Jun-20 06:26N 23°04' E 113°30'65915914.7
2016-Jun-20 06:24N 31°29' E 121°25'48710.1
2016-Jun-20 06:20N 32°00' E 120°42'16224.6
2016-Jun-20 06:15N 31°58' E 120°24'74105.8
2016-Jun-20 05:33N 31°08' E 121°28'44042853.0
2016-Jun-20 05:33N 24°26' E 118°05'45916685.6
2016-Jun-20 05:31N 31°29' E 121°25'281967.4
2016-Jun-20 05:30N 31°02' E 121°29'683247.9
2016-Jun-20 05:29N 32°00' E 120°49'10288.1
2016-Jun-20 05:27N 32°00' E 120°37'232251.5
2016-Jun-20 05:26N 31°56' E 120°10'681145.7
2016-Jun-20 05:23N 31°30' E 121°24'459556.8
2016-Jun-20 04:33N 24°26' E 118°05'43597876.8
2016-Jun-20 04:33N 31°02' E 121°29'6645.5
2016-Jun-20 04:33N 31°08' E 121°28'22844.3
2016-Jun-20 04:31N 31°30' E 121°24'1125.0
2016-Jun-20 04:31N 31°29' E 121°25'63112685.3
2016-Jun-20 04:31N 31°58' E 120°20'223103.7
2016-Jun-20 04:30N 32°01' E 120°45'26582.8
2016-Jun-20 04:28N 31°56' E 120°14'727877.5
2016-Jun-20 04:27N 31°22' E 121°29'10226.4
2016-Jun-20 04:24N 31°12' E 121°30'342512.7
2016-Jun-20 04:24N 31°42' E 121°10'2719227.8
2016-Jun-20 04:23N 32°01' E 120°48'302973.2
2016-Jun-20 04:23N 31°57' E 120°13'64247137.5
2016-Jun-20 04:22N 23°04' E 113°30'6563606.9
2016-Jun-20 04:11N 31°26' E 121°25'501395.7
2016-Jun-20 04:09N 32°01' E 120°42'476803.0
2016-Jun-20 03:33N 24°26' E 118°05'448179147.8
2016-Jun-20 03:33N 31°15' E 121°31'2719765.0
2016-Jun-20 03:33N 31°39' E 121°15'3310655.7
2016-Jun-20 03:33N 31°08' E 121°28'2619079.2
2016-Jun-20 03:33N 31°33' E 121°19'65829616.9
2016-Jun-20 03:32N 23°04' E 113°30'656262506.9
2016-Jun-20 03:31N 31°26' E 121°25'662990.1
2016-Jun-20 03:30N 31°57' E 120°17'64418699.2
2016-Jun-20 03:28N 23°04' E 113°29'66057939.9
2016-Jun-20 03:27N 31°37' E 121°17'22302.3
2016-Jun-20 03:23N 31°20' E 121°33'191181.5
2016-Jun-20 03:22N 31°02' E 121°29'28482.4
2016-Jun-20 03:19N 31°29' E 121°25'1207.4
2016-Jun-20 03:18N 31°30' E 121°24'59336.5
2016-Jun-20 03:08N 31°58' E 120°24'12199.6
2016-Jun-20 03:04N 31°56' E 120°10'463902.1
2016-Jun-20 02:34N 24°26' E 118°05'465152155.2
2016-Jun-20 02:33N 31°57' E 120°14'73263607.9
2016-Jun-20 02:33N 31°24' E 121°31'2887.5
2016-Jun-20 02:33N 31°22' E 121°29'123385.1
2016-Jun-20 02:33N 31°32' E 121°21'28051.7
2016-Jun-20 02:33N 31°34' E 121°20'2713846.3
2016-Jun-20 02:33N 31°08' E 121°28'101858.1
2016-Jun-20 02:32N 31°16' E 121°34'8057750.8
2016-Jun-20 02:32N 29°58' E 121°54'61231049.9
2016-Jun-20 02:31N 23°04' E 113°29'64149077.5
2016-Jun-20 02:30N 31°02' E 121°29'903077.4
2016-Jun-20 02:29N 31°57' E 120°06'735238.4
2016-Jun-20 02:28N 31°29' E 121°25'131301.9
2016-Jun-20 02:27N 31°18' E 121°34'752713.2
2016-Jun-20 02:26N 32°00' E 120°21'622137.9
2016-Jun-20 02:24N 31°30' E 121°24'46261.5
2016-Jun-20 02:13N 32°01' E 120°45'661183097.9
2016-Jun-20 02:13N 23°04' E 113°30'6638969.2
2016-Jun-20 02:09N 31°60' E 120°49'643004.4
2016-Jun-20 02:07N 31°05' E 121°28'1628.6
2016-Jun-20 01:33N 31°21' E 121°32'453408062.0
2016-Jun-20 01:33N 24°26' E 118°05'459551030.3
2016-Jun-20 01:33N 31°30' E 121°24'2220043.6
2016-Jun-20 01:33N 31°08' E 121°28'6016549.9
2016-Jun-20 01:33N 31°59' E 120°51'27989.0
2016-Jun-20 01:31N 31°59' E 120°19'3161137860.5
2016-Jun-20 01:31N 26°44' E 119°44'228136987.1
2016-Jun-20 01:31N 29°56' E 122°05'9213233.4
2016-Jun-20 01:31N 31°22' E 121°29'95117.2
2016-Jun-20 01:31N 31°30' E 121°24'281538.2
2016-Jun-20 01:30N 31°02' E 121°29'866063.1
2016-Jun-20 01:29N 31°55' E 120°10'64019846.7
2016-Jun-20 01:27N 23°04' E 113°29'65918974.0
2016-Jun-20 01:25N 31°29' E 121°25'60326.2
2016-Jun-20 01:14N 31°58' E 120°24'72560.0
2016-Jun-20 01:06N 31°15' E 121°32'612497.6
2016-Jun-20 01:05N 32°01' E 120°45'477920.8
2016-Jun-20 00:34N 24°26' E 118°05'454102039.8
2016-Jun-20 00:33N 31°22' E 121°30'99177620.7
2016-Jun-20 00:33N 29°47' E 122°05'9925577.4
2016-Jun-20 00:33N 31°22' E 121°29'68466.2
2016-Jun-20 00:24N 32°02' E 120°23'746827.2
2016-Jun-20 00:24N 31°18' E 121°33'6556111.2
2016-Jun-20 00:17N 23°04' E 113°29'618436735.0
2016-Jun-20 00:07N 49°18' W 123°02'5390923925.8
2016-Jun-20 00:07N 31°19' E 121°33'46213084.8
2016-Jun-20 00:05N 39°01' E 121°45'8951718.2
2016-Jun-19 23:33N 24°26' E 118°05'45571270.3
2016-Jun-19 23:33N 31°23' E 121°30'5388171663.8
2016-Jun-19 23:31N 49°18' W 123°02'61877424015.4
2016-Jun-19 23:31N 22°59' E 113°31'65828892.0
2016-Jun-19 23:30N 31°18' E 121°33'10210751.6
2016-Jun-19 23:29N 29°41' E 122°07'1062656.2
2016-Jun-19 23:27N 31°21' E 121°31'6913021.2
2016-Jun-19 23:26N 32°04' E 120°27'6107.5
2016-Jun-19 23:23N 31°58' E 120°24'15131.3
2016-Jun-19 23:16N 32°00' E 120°41'635403.0
2016-Jun-19 23:15N 31°21' E 121°39'66169962.0
2016-Jun-19 23:15N 23°04' E 113°29'6595788.9
2016-Jun-19 23:08N 31°40' E 121°11'2542.9
2016-Jun-19 22:33N 31°24' E 121°32'456547384.5
2016-Jun-19 22:33N 24°26' E 118°05'45817928.5
2016-Jun-19 22:32N 31°28' E 121°27'494418.1
2016-Jun-19 22:31N 32°01' E 120°44'53922156636.6
2016-Jun-19 22:31N 49°18' W 123°02'53901940567.4
2016-Jun-19 22:31N 31°22' E 121°29'1042745.6
2016-Jun-19 22:29N 29°42' E 122°02'1122050.3
2016-Jun-19 22:25N 31°30' E 121°24'9206.0
2016-Jun-19 22:23N 31°22' E 121°29'65625942.0
2016-Jun-19 22:21N 23°04' E 113°29'65930827.0
2016-Jun-19 22:20N 31°40' E 121°11'465598.9
2016-Jun-19 21:33N 24°26' E 118°05'45435497.5
2016-Jun-19 21:33N 31°22' E 121°29'9858829.2
2016-Jun-19 21:33N 29°49' E 122°06'947061.0
2016-Jun-19 21:32N 31°19' E 121°34'141.4
2016-Jun-19 21:30N 31°18' E 121°33'817115.9
2016-Jun-19 21:29N 31°57' E 120°10'334403.3
2016-Jun-19 21:29N 32°01' E 120°49'22388.1
2016-Jun-19 21:25N 31°44' E 121°06'466541.9
2016-Jun-19 20:34N 24°26' E 118°05'392470163.4
2016-Jun-19 20:33N 29°55' E 122°05'932977.8
2016-Jun-19 20:32N 31°22' E 121°29'631.8
2016-Jun-19 20:21N 31°26' E 121°25'93117.6
2016-Jun-19 19:33N 29°57' E 121°53'388174765.0
2016-Jun-19 19:33N 24°26' E 118°05'884122351.7
2016-Jun-19 19:33N 38°51' E 121°34'44529126.4
2016-Jun-19 19:32N 31°26' E 121°25'6578121.9
2016-Jun-19 19:27N 23°04' E 113°29'656112415.1
2016-Jun-19 19:27N 31°22' E 121°29'722.1
2016-Jun-19 19:07N 31°15' E 121°32'448805.6
2016-Jun-19 18:33N 24°26' E 118°05'88315364.1
2016-Jun-19 18:30N 38°51' E 121°34'4498786.9
2016-Jun-19 18:27N 31°22' E 121°29'6122.2
2016-Jun-19 18:24N 31°18' E 121°33'32671.2
2016-Jun-19 18:21N 31°42' E 121°08'52344.1
2016-Jun-19 18:12N 31°57' E 120°10'420650.4
2016-Jun-19 17:34N 38°51' E 121°34'883288978.8
2016-Jun-19 17:33N 24°26' E 118°05'46616781.6
2016-Jun-19 17:32N 31°44' E 121°06'337.7
2016-Jun-19 17:27N 31°45' E 121°03'26270.9
2016-Jun-19 17:21N 31°26' E 121°25'6577409.1
2016-Jun-19 17:15N 23°04' E 113°29'266380.6
2016-Jun-19 16:34N 24°26' E 118°05'44884966.2
2016-Jun-19 16:33N 31°15' E 121°32'7244.5
2016-Jun-19 16:31N 31°22' E 121°29'6569480.8
2016-Jun-19 16:27N 23°04' E 113°29'6578501.7
2016-Jun-19 16:23N 31°26' E 121°25'44417001.6
2016-Jun-19 16:21N 38°50' E 121°33'41177895.5
2016-Jun-19 16:21N 32°01' E 120°45'23211.1
2016-Jun-19 16:14N 31°45' E 121°04'467687.2
2016-Jun-19 15:33N 24°26' E 118°05'8823176901.8
2016-Jun-19 15:33N 38°50' E 121°32'4115666.1
2016-Jun-19 15:29N 32°01' E 120°47'66312626.1
2016-Jun-19 15:26N 23°04' E 113°29'6397422.1
2016-Jun-19 15:21N 31°58' E 120°06'36524.9
2016-Jun-19 15:17N 32°01' E 120°48'47380.8
2016-Jun-19 15:09N 31°26' E 121°25'456763.3
2016-Jun-19 14:33N 24°26' E 118°05'883198615.0
2016-Jun-19 14:33N 38°51' E 121°33'41125514.6
2016-Jun-19 14:32N 32°01' E 120°47'3238591.7
2016-Jun-19 14:32N 31°57' E 120°10'762415.1
2016-Jun-19 14:30N 31°22' E 121°29'5394.2
2016-Jun-19 14:30N 31°24' E 121°34'6609984.7
2016-Jun-19 14:26N 23°04' E 113°29'10475862.5
2016-Jun-19 14:15N 39°01' E 121°45'1420.9
2016-Jun-19 13:34N 38°51' E 121°32'88370620.9
2016-Jun-19 13:33N 24°26' E 118°05'47729630.2
2016-Jun-19 13:32N 32°01' E 120°47'49909.8
2016-Jun-19 13:29N 31°28' E 121°28'6153.3
2016-Jun-19 13:26N 31°22' E 121°29'65610308.8
2016-Jun-19 13:23N 23°04' E 113°29'64032463.0
2016-Jun-19 13:21N 31°57' E 120°10'7017882.0
2016-Jun-19 13:21N 31°29' E 121°25'15123.1
2016-Jun-19 13:14N 31°15' E 121°32'448667.4
2016-Jun-19 12:33N 24°26' E 118°05'455234237.3
2016-Jun-19 12:33N 31°23' E 121°31'7169.2
2016-Jun-19 12:31N 31°17' E 121°34'723726.8
2016-Jun-19 12:31N 31°22' E 121°29'65826022.5
2016-Jun-19 12:29N 23°00' E 113°31'103781137.0
2016-Jun-19 12:28N 38°51' E 121°33'44527123.9
2016-Jun-19 12:28N 31°26' E 121°25'6412188.0
2016-Jun-19 12:27N 31°59' E 120°20'469523.0
2016-Jun-19 11:33N 24°26' E 118°05'45420411.1
2016-Jun-19 11:32N 31°22' E 121°29'1110.4
2016-Jun-19 11:31N 31°21' E 121°30'546703.4
2016-Jun-19 11:31N 32°01' E 120°47'47371.5
2016-Jun-19 11:23N 31°26' E 121°25'6647014.6
2016-Jun-19 11:18N 22°54' E 113°30'269363.9
2016-Jun-19 10:33N 24°26' E 118°05'45691221.0
2016-Jun-19 10:33N 31°23' E 121°34'5236.2
2016-Jun-19 10:32N 31°22' E 121°29'9104.5
2016-Jun-19 10:27N 31°30' E 121°24'40309.0
2016-Jun-19 10:19N 31°58' E 120°51'31157.7
2016-Jun-19 10:07N 31°56' E 120°14'464822.3
2016-Jun-19 09:33N 24°26' E 118°05'4632766.0
2016-Jun-19 09:23N 31°56' E 120°10'751371.2
2016-Jun-19 09:20N 31°22' E 121°29'1085880.8
2016-Jun-19 09:19N 29°38' E 122°01'1139247.4
2016-Jun-19 09:18N 31°26' E 121°25'456613.1
2016-Jun-19 08:34N 24°26' E 118°05'383172530.2
2016-Jun-19 08:33N 29°45' E 122°03'1014003.6
2016-Jun-19 08:32N 31°22' E 121°29'55558.4
2016-Jun-19 08:26N 32°01' E 120°43'4148.6
2016-Jun-19 08:24N 32°00' E 120°39'24154.3
2016-Jun-19 08:15N 31°57' E 120°11'4445438.2
2016-Jun-19 08:10N 39°05' E 117°45'49710411.8
2016-Jun-19 08:07N 31°22' E 121°29'454803.2
2016-Jun-19 07:33N 24°26' E 118°05'87890354.2
2016-Jun-19 07:33N 39°04' E 117°48'589212005.0
2016-Jun-19 07:33N 29°55' E 122°08'1425665.2
2016-Jun-19 07:31N 32°00' E 120°49'45444.9
2016-Jun-19 07:25N 31°26' E 121°25'6105.9
2016-Jun-19 07:22N 31°22' E 121°29'622.9
2016-Jun-19 07:07N 31°23' E 121°36'456815.9
2016-Jun-19 06:33N 24°26' E 118°05'45529279.3
2016-Jun-19 06:33N 31°23' E 121°31'8845440.4
2016-Jun-19 06:32N 30°00' E 122°05'884201.8
2016-Jun-19 06:31N 31°22' E 121°29'2400.0
2016-Jun-19 06:31N 31°21' E 121°31'7184949.6
2016-Jun-19 06:31N 31°59' E 120°22'4442059.6
2016-Jun-19 06:18N 39°05' E 117°45'4444701.5
2016-Jun-19 06:12N 31°57' E 120°10'25981.8
2016-Jun-19 06:11N 32°00' E 120°39'474766.3
2016-Jun-19 05:33N 24°26' E 118°05'452325750.0
2016-Jun-19 05:33N 31°19' E 121°34'83299993.8
2016-Jun-19 05:33N 30°00' E 122°05'1492899.4
2016-Jun-19 05:30N 31°57' E 120°17'702186.6
2016-Jun-19 05:28N 31°22' E 121°29'761064.6
2016-Jun-19 05:24N 31°57' E 120°10'291731.5
2016-Jun-19 05:23N 32°01' E 120°44'614918.9
2016-Jun-19 05:22N 31°15' E 121°33'449541.3
2016-Jun-19 04:33N 24°26' E 118°05'3971428782.8
2016-Jun-19 04:33N 30°00' E 122°05'86309964.9
2016-Jun-19 04:33N 31°23' E 121°40'75505.5
2016-Jun-19 04:24N 31°58' E 120°22'734399.8
2016-Jun-19 04:23N 31°22' E 121°37'823099.8
2016-Jun-19 04:21N 31°56' E 120°09'82463.7
2016-Jun-19 04:11N 31°16' E 121°33'449727.1
2016-Jun-19 03:33N 24°26' E 118°05'39710427.4
2016-Jun-19 03:31N 30°00' E 122°05'8533817.3
2016-Jun-19 03:31N 31°20' E 121°33'854559.8
2016-Jun-19 03:30N 31°57' E 120°04'38491.3
2016-Jun-19 03:25N 32°00' E 120°48'573499.3
2016-Jun-19 03:24N 31°23' E 121°40'472579.0
2016-Jun-19 03:23N 31°49' E 120°54'46120260.9
2016-Jun-19 03:22N 39°05' E 117°46'50310705.8
2016-Jun-19 03:19N 31°18' E 121°33'73854.4
2016-Jun-19 03:14N 31°58' E 120°22'4454379.5
2016-Jun-19 03:08N 39°05' E 117°45'8791528.5
2016-Jun-19 02:33N 24°26' E 118°05'39754945.1
2016-Jun-19 02:33N 30°00' E 122°05'13029249.8
2016-Jun-19 02:33N 31°54' E 120°53'477282.3
2016-Jun-19 02:32N 31°24' E 121°34'49521232.1
2016-Jun-19 02:31N 39°04' E 117°50'184.3
2016-Jun-19 02:30N 39°04' E 117°51'4981772.0
2016-Jun-19 02:13N 31°20' E 121°33'453684.0
2016-Jun-19 01:34N 24°26' E 118°05'420756003.1
2016-Jun-19 01:34N 31°26' E 118°02'458825196.7
2016-Jun-19 01:33N 39°04' E 117°49'58356757.2
2016-Jun-19 01:33N 30°00' E 122°05'70251205.6
2016-Jun-19 01:33N 30°59' E 121°22'3712096.2
2016-Jun-19 01:33N 31°36' E 121°18'516918.7
2016-Jun-19 01:33N 31°32' E 121°22'12476.1
2016-Jun-19 01:31N 31°24' E 121°32'2226410.0
2016-Jun-19 01:31N 31°02' E 121°29'51451364.1
2016-Jun-19 01:30N 39°04' E 117°51'487194671.8
2016-Jun-19 01:30N 31°29' E 121°25'9534190.3
2016-Jun-19 01:30N 29°59' E 121°57'94591.3
2016-Jun-19 01:21N 31°28' E 121°25'29225.4
2016-Jun-19 01:13N 30°59' E 121°24'413297.3
2016-Jun-19 01:12N 31°40' E 121°14'46432.5
2016-Jun-19 01:06N 32°02' E 120°26'64619215.8
2016-Jun-19 01:04N 23°06' E 113°38'257505.2
2016-Jun-19 00:33N 24°26' E 118°05'460127502.3
2016-Jun-19 00:33N 31°32' E 121°23'9925407.0
2016-Jun-19 00:33N 30°00' E 122°05'62022.4
2016-Jun-19 00:33N 29°55' E 122°08'762417.4
2016-Jun-19 00:31N 30°59' E 121°22'3013661.2
2016-Jun-19 00:31N 31°29' E 121°25'155357.8
2016-Jun-19 00:30N 31°21' E 121°40'3216448.1
2016-Jun-19 00:30N 31°41' E 121°11'4219032.3
2016-Jun-19 00:30N 31°02' E 121°29'813011.0
2016-Jun-19 00:29N 31°60' E 120°22'828949.8
2016-Jun-19 00:28N 31°01' E 121°29'53776.2
2016-Jun-19 00:28N 30°59' E 121°24'9234.2
2016-Jun-19 00:26N 31°08' E 121°28'3461023.1
2016-Jun-19 00:26N 31°40' E 121°14'57204371.4
2016-Jun-19 00:26N 31°57' E 120°10'705830.9
2016-Jun-19 00:25N 31°29' E 121°25'120.1
2016-Jun-19 00:22N 31°28' E 121°25'14326.8
2016-Jun-19 00:19N 31°39' E 121°14'656472370.8
2016-Jun-19 00:19N 23°05' E 113°34'656866.9
2016-Jun-18 23:34N 31°41' E 121°11'3111219.9
2016-Jun-18 23:33N 31°21' E 121°38'9959256.2
2016-Jun-18 23:33N 29°45' E 122°03'610274611.4
2016-Jun-18 23:33N 23°03' E 113°30'659338785.1
2016-Jun-18 23:33N 31°29' E 121°25'458183304.8
2016-Jun-18 23:33N 24°26' E 118°05'430387034.0
2016-Jun-18 23:33N 30°59' E 121°22'30109268.2
2016-Jun-18 23:33N 31°29' E 121°25'034.0
2016-Jun-18 23:32N 31°29' E 121°25'278991.1
2016-Jun-18 23:32N 31°02' E 121°29'6911348.6
2016-Jun-18 23:32N 30°00' E 122°05'9618229.8
2016-Jun-18 23:32N 31°30' E 121°25'660339650.6
2016-Jun-18 23:31N 22°57' E 113°37'64634707.4
2016-Jun-18 23:30N 31°08' E 121°28'168196.8
2016-Jun-18 23:30N 31°22' E 121°37'821377.2
2016-Jun-18 23:27N 31°57' E 120°10'4221.0
2016-Jun-18 23:26N 31°56' E 120°14'533739.3
2016-Jun-18 23:25N 31°40' E 121°14'5718633.6
2016-Jun-18 23:25N 31°57' E 120°10'852017.7
2016-Jun-18 23:22N 30°59' E 121°24'516.9
2016-Jun-18 23:03N 31°01' E 121°29'435871.8
2016-Jun-18 22:34N 24°26' E 118°05'26969213.2
2016-Jun-18 22:33N 23°04' E 113°25'624374671.6
2016-Jun-18 22:33N 30°00' E 122°05'8718456.5
2016-Jun-18 22:33N 31°22' E 121°30'65781619.0
2016-Jun-18 22:32N 22°57' E 113°37'642115582.1
2016-Jun-18 22:32N 31°02' E 121°29'2825221.2
2016-Jun-18 22:32N 31°30' E 121°25'225651.7
2016-Jun-18 22:32N 31°08' E 121°28'105367.3
2016-Jun-18 22:32N 30°59' E 121°22'2148.9
2016-Jun-18 22:31N 30°59' E 121°23'4111412.5
2016-Jun-18 22:31N 31°40' E 121°14'543048.5
2016-Jun-18 22:30N 31°57' E 120°13'749846.8
2016-Jun-18 22:29N 31°22' E 121°30'251017.9
2016-Jun-18 22:28N 31°41' E 121°11'16228.1
2016-Jun-18 22:24N 31°30' E 121°24'154150.0
2016-Jun-18 22:23N 31°21' E 121°38'261362.9
2016-Jun-18 22:22N 31°17' E 121°08'5713755.5
2016-Jun-18 22:22N 31°58' E 120°22'8114582.0
2016-Jun-18 22:22N 31°01' E 121°29'331754.8
2016-Jun-18 22:21N 30°56' E 122°08'36960.7
2016-Jun-18 22:18N 31°23' E 121°40'1051158.0
2016-Jun-18 22:13N 29°41' E 122°06'5447208622.6
2016-Jun-18 22:11N 49°18' W 123°02'539152450.6
2016-Jun-18 22:05N 31°18' E 121°33'1630.8
2016-Jun-18 21:33N 31°02' E 121°29'435313475.3
2016-Jun-18 21:33N 24°26' E 118°05'43557960.1
2016-Jun-18 21:33N 31°01' E 121°29'6820497.0
2016-Jun-18 21:33N 30°00' E 122°05'9757950.5
2016-Jun-18 21:33N 31°30' E 121°24'665266016.9
2016-Jun-18 21:33N 23°03' E 113°20'643771126.8
2016-Jun-18 21:32N 31°58' E 120°00'141590.6
2016-Jun-18 21:32N 31°57' E 120°17'6423059.2
2016-Jun-18 21:32N 31°30' E 121°25'162833.5
2016-Jun-18 21:31N 31°16' E 121°33'193546.3
2016-Jun-18 21:31N 30°59' E 121°23'4114836.2
2016-Jun-18 21:31N 31°40' E 121°14'417075.5
2016-Jun-18 21:31N 30°59' E 121°22'253633.9
2016-Jun-18 21:30N 31°23' E 121°30'6913145.9
2016-Jun-18 21:30N 31°58' E 120°20'1617516.1
2016-Jun-18 21:29N 29°44' E 122°03'1262407.5
2016-Jun-18 21:25N 31°41' E 121°11'32507.2
2016-Jun-18 21:22N 31°16' E 121°33'5018267.2
2016-Jun-18 21:18N 23°41' E 117°36'4923807.1
2016-Jun-18 21:10N 31°08' E 121°28'440718.1
2016-Jun-18 20:33N 24°26' E 118°05'463238288.3
2016-Jun-18 20:33N 31°37' E 121°16'3714694.9
2016-Jun-18 20:33N 31°02' E 121°29'69249515.7
2016-Jun-18 20:33N 30°00' E 122°05'8072153.9
2016-Jun-18 20:33N 31°15' E 121°32'81258.5
2016-Jun-18 20:33N 31°08' E 121°28'712638.1
2016-Jun-18 20:33N 31°01' E 121°29'72250.2
2016-Jun-18 20:33N 30°59' E 121°22'21456.8
2016-Jun-18 20:30N 31°17' E 121°34'156849.0
2016-Jun-18 20:30N 31°30' E 121°24'135.9
2016-Jun-18 20:29N 31°30' E 121°25'1054066.6
2016-Jun-18 20:27N 29°52' E 122°08'159589.6
2016-Jun-18 20:11N 31°56' E 120°12'8041344.2
2016-Jun-18 20:11N 30°58' E 121°18'5575.8
2016-Jun-18 20:10N 30°59' E 121°23'436799.6
2016-Jun-18 20:10N 31°41' E 121°11'31561.4
2016-Jun-18 20:07N 31°18' E 121°33'451818.1
2016-Jun-18 19:33N 24°26' E 118°05'391703405.7
2016-Jun-18 19:33N 29°55' E 122°02'84151543.8
2016-Jun-18 19:33N 31°16' E 121°33'1513599.3
2016-Jun-18 19:33N 31°29' E 121°25'2119201.2
2016-Jun-18 19:33N 31°08' E 121°28'2723947.2
2016-Jun-18 19:33N 31°34' E 121°20'343183.1
2016-Jun-18 19:33N 31°01' E 121°29'6811180.2
2016-Jun-18 19:32N 30°00' E 122°05'9628853.7
2016-Jun-18 19:32N 31°30' E 121°25'1628558.3
2016-Jun-18 19:32N 31°16' E 121°33'203610.5
2016-Jun-18 19:32N 30°59' E 121°19'2856.5
2016-Jun-18 19:31N 30°59' E 121°22'71072.4
2016-Jun-18 19:31N 31°02' E 121°29'161962.6
2016-Jun-18 19:31N 31°18' E 121°33'3118339.5
2016-Jun-18 19:31N 31°41' E 121°11'324987.4
2016-Jun-18 19:30N 31°15' E 121°32'16303.2
2016-Jun-18 19:27N 31°30' E 121°24'66125047.0
2016-Jun-18 19:25N 22°60' E 113°31'63812618.9
2016-Jun-18 19:22N 30°59' E 121°23'63715287.7
2016-Jun-18 19:20N 22°57' E 113°37'642832.8
2016-Jun-18 18:34N 31°01' E 121°29'4701690397.1
2016-Jun-18 18:34N 38°50' E 121°47'472849488.8
2016-Jun-18 18:33N 30°59' E 121°22'103148.0
2016-Jun-18 18:33N 31°08' E 121°28'7545037.9
2016-Jun-18 18:33N 30°00' E 122°05'133099.4
2016-Jun-18 18:33N 29°57' E 121°51'61043068.5
2016-Jun-18 18:32N 22°57' E 113°37'661237959.8
2016-Jun-18 18:32N 31°30' E 121°25'11977.1
2016-Jun-18 18:32N 31°30' E 121°25'2812690.9
2016-Jun-18 18:32N 31°02' E 121°29'281403.5
2016-Jun-18 18:31N 31°30' E 121°24'31825.0
2016-Jun-18 18:28N 30°59' E 121°23'17393.4
2016-Jun-18 18:26N 31°15' E 121°32'15325.8
2016-Jun-18 18:23N 31°29' E 121°25'17167.2
2016-Jun-18 18:17N 31°41' E 121°11'465649.3
2016-Jun-18 17:34N 24°26' E 118°05'39731749.6
2016-Jun-18 17:33N 30°00' E 122°05'522187837.2
2016-Jun-18 17:33N 38°42' E 121°45'46387760.8
2016-Jun-18 17:32N 30°59' E 121°22'192452.9
2016-Jun-18 17:32N 31°16' E 121°33'119608.3
2016-Jun-18 17:32N 31°26' E 121°30'61988.0
2016-Jun-18 17:32N 31°30' E 121°25'145751.6
2016-Jun-18 17:32N 31°23' E 121°40'312624.6
2016-Jun-18 17:31N 31°42' E 121°11'661264483.8
2016-Jun-18 17:31N 23°01' E 113°31'6601187887.8
2016-Jun-18 17:31N 31°30' E 121°24'162326.9
2016-Jun-18 17:30N 31°16' E 121°33'151908.8
2016-Jun-18 17:30N 31°02' E 121°29'16196.5
2016-Jun-18 17:25N 31°18' E 121°33'11701.0
2016-Jun-18 17:24N 31°08' E 121°28'9391.4
2016-Jun-18 17:22N 30°59' E 121°23'309815.4
2016-Jun-18 17:22N 31°29' E 121°25'15171.3
2016-Jun-18 17:17N 31°16' E 121°33'28559.7
2016-Jun-18 17:14N 31°38' E 121°14'394715.9
2016-Jun-18 17:13N 31°01' E 121°29'6420858.0
2016-Jun-18 17:13N 30°02' E 121°57'711.2
2016-Jun-18 16:34N 30°00' E 122°05'9726780.7
2016-Jun-18 16:33N 31°30' E 121°24'459110204.7
2016-Jun-18 16:33N 24°26' E 118°05'45997257.9
2016-Jun-18 16:33N 31°30' E 121°25'173975.6
2016-Jun-18 16:33N 31°41' E 121°11'434938.4
2016-Jun-18 16:32N 31°02' E 121°29'7586.1
2016-Jun-18 16:31N 30°59' E 121°22'29921.7
2016-Jun-18 16:29N 31°23' E 121°40'664149413.3
2016-Jun-18 16:29N 23°02' E 113°31'65719886.6
2016-Jun-18 16:27N 31°22' E 121°30'21603.2
2016-Jun-18 16:25N 31°38' E 121°14'265922.2
2016-Jun-18 16:25N 31°18' E 121°33'14394.8
2016-Jun-18 16:23N 31°29' E 121°25'21270.5
2016-Jun-18 16:18N 31°08' E 121°28'9125.0
2016-Jun-18 16:13N 30°59' E 121°23'431645.9
2016-Jun-18 15:33N 24°26' E 118°05'39742015.7
2016-Jun-18 15:33N 30°00' E 122°05'8715745.3
2016-Jun-18 15:33N 31°22' E 121°30'245808.8
2016-Jun-18 15:32N 30°59' E 121°22'2125.6
2016-Jun-18 15:31N 30°59' E 121°24'314813.2
2016-Jun-18 15:31N 31°30' E 121°24'162395.1
2016-Jun-18 15:31N 31°42' E 121°11'433647.6
2016-Jun-18 15:30N 31°02' E 121°29'146.8
2016-Jun-18 15:29N 31°01' E 121°29'642144370.8
2016-Jun-18 15:29N 23°02' E 113°31'664170758.1
2016-Jun-18 15:28N 31°23' E 121°40'26799.1
2016-Jun-18 15:26N 31°38' E 121°14'12179.9
2016-Jun-18 15:22N 31°30' E 121°25'96118.3
2016-Jun-18 14:34N 30°00' E 122°05'397204081.6
2016-Jun-18 14:33N 24°26' E 118°05'459275222.4
2016-Jun-18 14:33N 31°23' E 121°40'152014.5
2016-Jun-18 14:33N 31°30' E 121°24'141986.7
2016-Jun-18 14:32N 31°40' E 121°12'422745.9
2016-Jun-18 14:32N 31°01' E 121°29'71904.0
2016-Jun-18 14:31N 30°59' E 121°22'4411198.3
2016-Jun-18 14:31N 31°41' E 121°11'424928.6
2016-Jun-18 14:31N 31°02' E 121°29'382556.5
2016-Jun-18 14:30N 31°38' E 121°14'40582.7
2016-Jun-18 14:26N 30°59' E 121°24'9116.6
2016-Jun-18 14:21N 31°08' E 121°28'11377.7
2016-Jun-18 14:19N 31°18' E 121°33'65713677.6
2016-Jun-18 14:16N 22°56' E 113°36'647910.2
2016-Jun-18 13:33N 31°08' E 121°28'440176173.5
2016-Jun-18 13:33N 24°26' E 118°05'4301547941.0
2016-Jun-18 13:33N 30°59' E 121°22'3744897.4
2016-Jun-18 13:33N 31°36' E 121°17'8876.4
2016-Jun-18 13:33N 31°41' E 121°11'4250839.8
2016-Jun-18 13:33N 31°02' E 121°29'698914.0
2016-Jun-18 13:32N 30°00' E 122°05'962459.0
2016-Jun-18 13:30N 31°30' E 121°25'31433.3
2016-Jun-18 13:26N 30°59' E 121°24'30623.9
2016-Jun-18 13:23N 31°30' E 121°24'033.3
2016-Jun-18 13:22N 31°29' E 121°25'013.9
2016-Jun-18 13:20N 31°29' E 121°25'1 8.5
2016-Jun-18 13:14N 31°30' E 121°24'961.3
2016-Jun-18 13:05N 31°22' E 121°30'1223.1
2016-Jun-18 12:34N 31°32' E 121°22'99119014.5
2016-Jun-18 12:34N 30°00' E 122°05'397285717.9
2016-Jun-18 12:33N 24°26' E 118°05'459206624.8
2016-Jun-18 12:33N 31°30' E 121°24'1611503.8
2016-Jun-18 12:33N 31°41' E 121°11'182371.9
2016-Jun-18 12:33N 31°29' E 121°25'1180.6
2016-Jun-18 12:32N 31°30' E 121°25'317938.4
2016-Jun-18 12:32N 30°59' E 121°22'304760.9
2016-Jun-18 12:32N 31°29' E 121°25'3021535.0
2016-Jun-18 12:32N 30°59' E 121°24'9807.5
2016-Jun-18 12:31N 31°08' E 121°28'6682.1
2016-Jun-18 12:30N 31°02' E 121°29'134402.8
2016-Jun-18 12:30N 31°15' E 121°32'8122521.7
2016-Jun-18 12:30N 31°57' E 120°10'6412306652.2
2016-Jun-18 12:30N 23°02' E 113°32'6566154.4
2016-Jun-18 12:24N 31°22' E 121°30'4501577.8
2016-Jun-18 12:07N 38°52' E 121°32'45725297.9
2016-Jun-18 12:05N 31°15' E 121°32'448841.3
2016-Jun-18 11:33N 24°26' E 118°05'39789286.8
2016-Jun-18 11:33N 30°00' E 122°05'692833.0
2016-Jun-18 11:32N 30°59' E 121°24'319202.1
2016-Jun-18 11:32N 31°30' E 121°24'314482.1
2016-Jun-18 11:31N 30°59' E 121°22'4352140.2
2016-Jun-18 11:31N 31°41' E 121°11'172392.9
2016-Jun-18 11:31N 31°29' E 121°25'272807.4
2016-Jun-18 11:30N 31°02' E 121°29'64164116.5
2016-Jun-18 11:29N 23°02' E 113°32'65549146.6
2016-Jun-18 11:29N 31°18' E 121°34'255.8
2016-Jun-18 11:26N 31°20' E 121°33'11302.9
2016-Jun-18 11:24N 31°29' E 121°27'6698818.7
2016-Jun-18 11:19N 22°55' E 113°26'654392233.4
2016-Jun-18 11:19N 31°08' E 121°28'20474.2
2016-Jun-18 11:17N 31°28' E 121°25'111.6
2016-Jun-18 11:12N 31°29' E 121°25'96149.4
2016-Jun-18 10:34N 30°00' E 122°05'397119047.6
2016-Jun-18 10:33N 24°26' E 118°05'465837719.9
2016-Jun-18 10:33N 31°41' E 121°11'1821597.9
2016-Jun-18 10:33N 31°28' E 121°25'3013278.5
2016-Jun-18 10:33N 30°59' E 121°22'2646106.0
2016-Jun-18 10:33N 31°23' E 121°31'2341.1
2016-Jun-18 10:33N 31°21' E 121°31'6931.3
2016-Jun-18 10:32N 31°27' E 121°30'10374.5
2016-Jun-18 10:31N 31°32' E 121°20'312106.0
2016-Jun-18 10:30N 31°02' E 121°29'64993412.1
2016-Jun-18 10:29N 22°54' E 113°30'64459410.6
2016-Jun-18 10:29N 30°59' E 121°24'31677.5
2016-Jun-18 10:26N 31°30' E 121°24'151080.7
2016-Jun-18 10:25N 31°18' E 121°33'11374.2
2016-Jun-18 10:24N 31°08' E 121°28'21556.7
2016-Jun-18 10:21N 31°29' E 121°25'170759.3
2016-Jun-18 10:08N 31°25' E 118°06'174303.3
2016-Jun-18 09:33N 31°22' E 121°30'454408664.6
2016-Jun-18 09:33N 24°26' E 118°05'45841223.4
2016-Jun-18 09:33N 31°28' E 121°25'262804.1
2016-Jun-18 09:32N 31°02' E 121°29'74097.2
2016-Jun-18 09:32N 30°59' E 121°22'262338.6
2016-Jun-18 09:31N 31°21' E 121°37'141205.7
2016-Jun-18 09:31N 31°30' E 121°24'92538.7
2016-Jun-18 09:30N 31°36' E 121°16'181216.5
2016-Jun-18 09:30N 31°23' E 121°31'6913872.3
2016-Jun-18 09:29N 32°00' E 120°21'14953732.1
2016-Jun-18 09:29N 30°00' E 122°05'1119121.7
2016-Jun-18 09:28N 31°41' E 121°11'361474.1
2016-Jun-18 09:27N 31°08' E 121°28'9565.3
2016-Jun-18 09:26N 30°59' E 121°24'30280.7
2016-Jun-18 09:19N 31°29' E 121°25'6604245.6
2016-Jun-18 09:10N 23°01' E 113°31'265432.1
2016-Jun-18 08:33N 24°26' E 118°05'465152312.7
2016-Jun-18 08:33N 31°41' E 121°11'426924.5
2016-Jun-18 08:33N 31°02' E 121°29'697558.7
2016-Jun-18 08:32N 30°00' E 122°05'97173841.5
2016-Jun-18 08:32N 31°30' E 121°24'311492.5
2016-Jun-18 08:31N 30°59' E 121°22'7165.0
2016-Jun-18 08:29N 31°01' E 121°29'425439.9
2016-Jun-18 08:28N 31°41' E 121°11'431205.4
2016-Jun-18 08:26N 30°59' E 121°24'20229.7
2016-Jun-18 08:21N 31°17' E 121°34'175.9
2016-Jun-18 08:20N 31°18' E 121°33'65527104.2
2016-Jun-18 08:19N 23°04' E 113°30'641177379.3
2016-Jun-18 08:18N 31°01' E 121°29'211195.3
2016-Jun-18 08:17N 31°22' E 121°30'984.1
2016-Jun-18 08:11N 31°23' E 121°40'181412.5
2016-Jun-18 08:11N 31°08' E 121°28'755425.2
2016-Jun-18 08:10N 31°58' E 120°22'722509.6
2016-Jun-18 08:08N 31°20' E 121°33'781937.9
2016-Jun-18 08:06N 31°57' E 120°12'465866.6
2016-Jun-18 07:33N 24°26' E 118°05'44745939.6
2016-Jun-18 07:33N 31°14' E 121°29'1526156.8
2016-Jun-18 07:33N 31°28' E 121°25'2711949.7
2016-Jun-18 07:33N 31°02' E 121°29'6941556.5
2016-Jun-18 07:33N 30°00' E 122°05'977903.9
2016-Jun-18 07:32N 31°30' E 121°24'163382.6
2016-Jun-18 07:32N 31°41' E 121°11'434598.1
2016-Jun-18 07:31N 30°59' E 121°22'7122.9
2016-Jun-18 07:28N 31°02' E 121°29'836100.4
2016-Jun-18 07:27N 31°57' E 120°16'825870.3
2016-Jun-18 07:26N 30°59' E 121°24'693169.6
2016-Jun-18 07:25N 32°01' E 120°48'542415.0
2016-Jun-18 07:23N 31°21' E 121°31'132639.0
2016-Jun-18 07:23N 31°08' E 121°28'634047.0
2016-Jun-18 07:22N 32°01' E 120°48'5265346.9
2016-Jun-18 07:16N 23°44' E 117°34'51830545.6
2016-Jun-18 07:15N 31°59' E 120°26'469676.6
2016-Jun-18 06:34N 24°26' E 118°05'440396390.3
2016-Jun-18 06:33N 31°08' E 121°28'52387.6
2016-Jun-18 06:33N 31°03' E 121°28'414212.6
2016-Jun-18 06:33N 31°41' E 121°11'432898.1
2016-Jun-18 06:32N 30°59' E 121°22'3115993.7
2016-Jun-18 06:32N 31°30' E 121°24'204337.5
2016-Jun-18 06:31N 31°10' E 121°28'774758.7
2016-Jun-18 06:31N 30°00' E 122°05'8677151.6
2016-Jun-18 06:30N 31°22' E 121°36'593.7
2016-Jun-18 06:27N 31°23' E 121°30'28415.0
2016-Jun-18 06:23N 30°58' E 121°16'80975.1
2016-Jun-18 06:18N 31°56' E 120°11'6404542.1
2016-Jun-18 06:10N 23°04' E 113°30'65834835.7
2016-Jun-18 06:09N 31°28' E 121°25'813.4
2016-Jun-18 05:34N 31°22' E 121°30'171763.8
2016-Jun-18 05:33N 31°05' E 121°28'2534.4
2016-Jun-18 05:33N 31°07' E 121°28'199930.7
2016-Jun-18 05:33N 31°26' E 121°29'2816862.2
2016-Jun-18 05:33N 30°59' E 121°21'7011975.2
2016-Jun-18 05:32N 30°00' E 122°05'704650.8
2016-Jun-18 05:31N 30°59' E 121°22'313393.6
2016-Jun-18 05:31N 31°30' E 121°24'161703.2
2016-Jun-18 05:30N 31°41' E 121°11'4426118.3
2016-Jun-18 05:30N 30°59' E 121°22'51788670.4
2016-Jun-18 05:30N 39°05' E 117°45'49111109.0
2016-Jun-18 05:27N 31°28' E 121°25'393230.2
2016-Jun-18 05:26N 31°55' E 120°53'387142.7
2016-Jun-18 05:26N 31°29' E 121°25'010.3
2016-Jun-18 05:25N 31°29' E 121°25'741559.5
2016-Jun-18 05:22N 31°57' E 120°04'464576.2
2016-Jun-18 04:34N 24°26' E 118°05'434781367.8
2016-Jun-18 04:33N 31°01' E 121°28'039.5
2016-Jun-18 04:33N 31°01' E 121°28'7166.9
2016-Jun-18 04:30N 31°08' E 121°28'1527421.0
2016-Jun-18 04:30N 31°23' E 121°30'712790.6
2016-Jun-18 04:30N 31°17' E 121°34'93884.2
2016-Jun-18 04:30N 31°10' E 121°28'121768.0
2016-Jun-18 04:30N 31°22' E 121°30'496118993.3
2016-Jun-18 04:29N 39°04' E 117°51'5832097397.8
2016-Jun-18 04:29N 30°00' E 122°05'7012555.7
2016-Jun-18 04:29N 30°59' E 121°22'316597.1
2016-Jun-18 04:29N 31°30' E 121°24'401040.1
2016-Jun-18 04:26N 31°59' E 120°51'653677.9
2016-Jun-18 04:25N 30°59' E 121°22'634456680.7
2016-Jun-18 04:25N 23°04' E 113°30'6586930.9
2016-Jun-18 04:20N 31°30' E 121°24'695064.5
2016-Jun-18 04:19N 31°57' E 120°10'803980.3
2016-Jun-18 04:18N 31°20' E 121°33'1290.3
2016-Jun-18 04:10N 31°29' E 121°25'4895368.7
2016-Jun-18 04:04N 39°05' E 117°46'49039215.8
2016-Jun-18 04:04N 31°28' E 121°25'95188.0
2016-Jun-18 03:33N 30°00' E 122°05'7027910.7
2016-Jun-18 03:33N 30°59' E 121°22'430103209.1
2016-Jun-18 03:33N 24°26' E 118°05'430257990.2
2016-Jun-18 03:33N 30°59' E 121°22'92056.4
2016-Jun-18 03:33N 31°06' E 121°28'7910566.2
2016-Jun-18 03:32N 31°57' E 120°16'7111161.4
2016-Jun-18 03:32N 31°23' E 121°31'2383804.7
2016-Jun-18 03:32N 31°00' E 121°26'263481.7
2016-Jun-18 03:31N 31°27' E 121°28'3306.0
2016-Jun-18 03:31N 31°28' E 121°25'2103.9
2016-Jun-18 03:30N 31°30' E 121°24'112757.0
2016-Jun-18 03:29N 31°21' E 121°31'27803.8
2016-Jun-18 03:27N 31°41' E 121°11'331356.3
2016-Jun-18 03:26N 31°13' E 121°30'65054404.9
2016-Jun-18 03:25N 23°04' E 113°29'65535731.3
2016-Jun-18 03:24N 31°17' E 121°34'6557584.9
2016-Jun-18 03:19N 23°02' E 113°32'659118599.1
2016-Jun-18 03:19N 31°30' E 121°24'221624.5
2016-Jun-18 03:18N 31°08' E 121°28'1165.8
2016-Jun-18 03:08N 31°18' E 121°33'1832.1
2016-Jun-18 02:33N 31°00' E 121°26'1518077.6
2016-Jun-18 02:33N 31°15' E 121°31'448322500.9
2016-Jun-18 02:33N 24°26' E 118°05'397285717.9
2016-Jun-18 02:33N 30°00' E 122°05'7520795.7
2016-Jun-18 02:33N 31°08' E 121°28'92824.7
2016-Jun-18 02:33N 30°59' E 121°24'29104369.8
2016-Jun-18 02:33N 31°28' E 121°25'1807.5
2016-Jun-18 02:33N 31°30' E 121°24'313669.5
2016-Jun-18 02:32N 30°59' E 121°22'312445.8
2016-Jun-18 02:31N 31°30' E 121°24'26794.1
2016-Jun-18 02:29N 31°04' E 121°28'262143.9
2016-Jun-18 02:29N 31°30' E 121°24'16297.5
2016-Jun-18 02:26N 31°41' E 121°11'23909.4
2016-Jun-18 02:24N 31°58' E 120°51'372320.5
2016-Jun-18 02:23N 31°56' E 120°08'821529.3
2016-Jun-18 02:20N 31°18' E 121°33'65526216.7
2016-Jun-18 02:18N 23°02' E 113°32'6566749.3
2016-Jun-18 02:12N 31°21' E 121°31'10316.2
2016-Jun-18 02:11N 31°29' E 121°25'142286.6
2016-Jun-18 02:10N 31°23' E 121°40'6639433.5
2016-Jun-18 02:06N 23°04' E 113°29'65717641.9
2016-Jun-18 02:04N 31°20' E 121°33'453896.6
2016-Jun-18 01:34N 24°26' E 118°05'397204084.2
2016-Jun-18 01:33N 30°00' E 122°05'8222747.3
2016-Jun-18 01:33N 31°18' E 121°34'2136994.7
2016-Jun-18 01:33N 30°59' E 121°23'33759.1
2016-Jun-18 01:33N 31°00' E 121°26'3021376.7
2016-Jun-18 01:33N 31°30' E 121°24'3110040.4
2016-Jun-18 01:33N 30°59' E 121°24'9998.1
2016-Jun-18 01:32N 31°08' E 121°28'261851.3
2016-Jun-18 01:31N 31°33' E 121°19'346493.4
2016-Jun-18 01:31N 30°59' E 121°22'1916971.6
2016-Jun-18 01:31N 31°15' E 121°32'143424.5
2016-Jun-18 01:31N 31°28' E 121°25'7859.9
2016-Jun-18 01:30N 31°23' E 121°30'25576.8
2016-Jun-18 01:28N 31°41' E 121°11'173228.2
2016-Jun-18 01:27N 31°29' E 121°25'25938.2
2016-Jun-18 01:26N 31°04' E 121°28'858259.6
2016-Jun-18 01:25N 31°57' E 120°10'6310347.6
2016-Jun-18 01:25N 31°17' E 121°08'19206.2
2016-Jun-18 01:19N 31°31' E 121°22'66025262.0
2016-Jun-18 01:18N 23°01' E 113°32'66211191.6
2016-Jun-18 01:14N 32°00' E 120°45'44923066.6
2016-Jun-18 01:13N 39°05' E 117°46'8791333.6
2016-Jun-18 00:34N 24°26' E 118°05'4331558981.1
2016-Jun-18 00:34N 31°00' E 121°26'242027.9
2016-Jun-18 00:33N 31°22' E 121°39'49939909.8
2016-Jun-18 00:32N 39°04' E 117°50'497447473.7
2016-Jun-18 00:32N 31°21' E 121°31'111446.4
2016-Jun-18 00:32N 31°30' E 121°24'222005.1
2016-Jun-18 00:31N 31°08' E 121°28'247791.3
2016-Jun-18 00:31N 31°31' E 121°22'322445.2
2016-Jun-18 00:30N 30°59' E 121°24'235404.8
2016-Jun-18 00:30N 31°21' E 121°31'173803.4
2016-Jun-18 00:29N 31°04' E 121°28'401375.1
2016-Jun-18 00:28N 31°41' E 121°11'335126.7
2016-Jun-18 00:27N 31°60' E 120°39'7116996.9
2016-Jun-18 00:27N 30°59' E 121°22'301595.8
2016-Jun-18 00:26N 31°29' E 121°25'66015127.0
2016-Jun-18 00:23N 23°01' E 113°32'6572013.5
2016-Jun-18 00:04N 31°21' E 121°31'453897.2
2016-Jun-17 23:33N 24°26' E 118°05'397142860.7
2016-Jun-17 23:33N 30°00' E 122°05'7520794.2
2016-Jun-17 23:33N 31°08' E 121°28'153214.5
2016-Jun-17 23:33N 31°23' E 121°30'232351.3
2016-Jun-17 23:32N 31°00' E 121°26'43877.9
2016-Jun-17 23:32N 30°59' E 121°22'63561742.4
2016-Jun-17 23:31N 23°04' E 113°29'65923714.3
2016-Jun-17 23:30N 31°30' E 121°24'268.6
2016-Jun-17 23:28N 31°31' E 121°22'368.1
2016-Jun-17 23:25N 31°30' E 121°25'8341.2
2016-Jun-17 23:24N 31°23' E 121°30'25539.2
2016-Jun-17 23:21N 30°59' E 121°24'25347.1
2016-Jun-17 23:17N 31°22' E 121°35'6613285.3
2016-Jun-17 23:05N 23°01' E 113°32'264507.0
2016-Jun-17 22:33N 24°26' E 118°05'460137870.4
2016-Jun-17 22:33N 31°31' E 121°22'2485768.7
2016-Jun-17 22:33N 31°08' E 121°28'911305.4
2016-Jun-17 22:33N 30°59' E 121°24'6927700.0
2016-Jun-17 22:33N 30°00' E 122°05'6916529.0
2016-Jun-17 22:33N 31°00' E 121°27'302376.6
2016-Jun-17 22:32N 31°30' E 121°24'1234.6
2016-Jun-17 22:32N 31°29' E 121°25'3311.3
2016-Jun-17 22:31N 31°27' E 121°27'29102993.3
2016-Jun-17 22:31N 30°59' E 121°22'63516318.7
2016-Jun-17 22:29N 23°04' E 113°29'659182448.7
2016-Jun-17 22:28N 31°24' E 121°32'8185.0
2016-Jun-17 22:26N 31°30' E 121°25'66011001.0
2016-Jun-17 22:22N 23°01' E 113°32'6616861.4
2016-Jun-17 22:16N 31°22' E 121°37'193621.2
2016-Jun-17 22:16N 31°04' E 121°28'14108.3
2016-Jun-17 22:08N 31°18' E 121°33'73895.7
2016-Jun-17 22:03N 32°01' E 120°23'471951.4
2016-Jun-17 21:34N 24°26' E 118°05'469112498.1
2016-Jun-17 21:33N 31°59' E 120°21'4810856.5
2016-Jun-17 21:33N 31°39' E 121°13'225684.4
2016-Jun-17 21:33N 31°24' E 121°31'88159088.6
2016-Jun-17 21:33N 30°00' E 122°05'6930980.1
2016-Jun-17 21:33N 31°00' E 121°27'81382.3
2016-Jun-17 21:32N 31°08' E 121°28'221359.7
2016-Jun-17 21:31N 31°30' E 121°24'356.3
2016-Jun-17 21:28N 31°28' E 121°27'291815.6
2016-Jun-17 21:27N 30°59' E 121°24'2316.6
2016-Jun-17 21:27N 30°59' E 121°22'6359805.3
2016-Jun-17 21:23N 23°04' E 113°29'6554519.1
2016-Jun-17 21:14N 31°18' E 121°33'191028.2
2016-Jun-17 21:13N 31°33' E 121°20'548.6
2016-Jun-17 21:07N 31°30' E 121°25'675783.4
2016-Jun-17 21:06N 31°55' E 120°11'79146.3
2016-Jun-17 20:33N 31°18' E 121°34'452203267.9
2016-Jun-17 20:33N 24°26' E 118°05'431155162.2
2016-Jun-17 20:33N 30°59' E 121°24'481577605.7
2016-Jun-17 20:33N 23°43' E 117°35'48375666.6
2016-Jun-17 20:33N 31°00' E 121°27'4295.7
2016-Jun-17 20:32N 30°59' E 121°22'706973.6
2016-Jun-17 20:31N 30°00' E 122°05'9717387.2
2016-Jun-17 20:31N 31°30' E 121°24'659296450.1
2016-Jun-17 20:31N 23°04' E 113°29'64521296.1
2016-Jun-17 20:29N 31°08' E 121°28'221129.3
2016-Jun-17 20:28N 31°30' E 121°25'66676.1
2016-Jun-17 20:22N 31°56' E 120°14'661329.0
2016-Jun-17 20:19N 31°29' E 121°25'1570.3
2016-Jun-17 20:06N 31°20' E 121°39'456839.7
2016-Jun-17 19:33N 24°26' E 118°05'45663171.5
2016-Jun-17 19:33N 31°23' E 121°35'8031948.5
2016-Jun-17 19:33N 31°56' E 120°09'152548686.1
2016-Jun-17 19:33N 30°00' E 122°05'693441.7
2016-Jun-17 19:32N 31°00' E 121°27'161833.4
2016-Jun-17 19:31N 31°16' E 121°33'162435.2
2016-Jun-17 19:31N 31°30' E 121°24'31112020.7
2016-Jun-17 19:31N 30°59' E 121°22'2179.1
2016-Jun-17 19:30N 30°59' E 121°24'63771665.2
2016-Jun-17 19:30N 23°01' E 113°31'64616490.7
2016-Jun-17 19:27N 31°08' E 121°28'341928.1
2016-Jun-17 19:26N 31°39' E 121°13'14189.6
2016-Jun-17 19:22N 31°30' E 121°25'65913033.0
2016-Jun-17 19:19N 23°04' E 113°29'266351.2
2016-Jun-17 18:33N 24°26' E 118°05'459165299.8
2016-Jun-17 18:33N 31°30' E 121°24'316593.9
2016-Jun-17 18:33N 30°59' E 121°22'4311178.9
2016-Jun-17 18:33N 31°41' E 121°11'11221127.0
2016-Jun-17 18:32N 30°00' E 122°05'6911263.8
2016-Jun-17 18:32N 31°00' E 121°27'81316.5
2016-Jun-17 18:32N 31°08' E 121°28'14439.4
2016-Jun-17 18:30N 31°22' E 121°29'6178.4
2016-Jun-17 18:28N 31°18' E 121°33'28719.8
2016-Jun-17 18:25N 31°39' E 121°13'411988.0
2016-Jun-17 18:24N 30°59' E 121°24'894851.5
2016-Jun-17 18:23N 31°57' E 120°04'6391151051.7
2016-Jun-17 18:23N 23°01' E 113°31'66031682.0
2016-Jun-17 18:22N 31°30' E 121°25'459568.4
2016-Jun-17 17:33N 24°26' E 118°05'431221665.8
2016-Jun-17 17:33N 30°59' E 121°24'92258.4
2016-Jun-17 17:33N 31°08' E 121°28'1410107.3
2016-Jun-17 17:33N 31°22' E 121°29'8824239.5
2016-Jun-17 17:33N 30°00' E 122°05'695506.3
2016-Jun-17 17:32N 31°00' E 121°27'41445.2
2016-Jun-17 17:32N 30°59' E 121°22'499.5
2016-Jun-17 17:29N 30°57' E 121°17'331373.4
2016-Jun-17 17:28N 31°30' E 121°24'130.4
2016-Jun-17 17:25N 31°29' E 121°25'65934367.7
2016-Jun-17 17:24N 23°04' E 113°29'65917314.2
2016-Jun-17 17:22N 31°30' E 121°25'171195.9
2016-Jun-17 17:21N 31°41' E 121°11'4454.9
2016-Jun-17 16:34N 30°59' E 121°22'  

Dump ship's entire track history